<?xml version="1.0" encoding="UTF-8" standalone="no" ?>
<gpx xmlns="http://www.topografix.com/GPX/1/1" xmlns:xsi="http://www.w3.org/2001/XMLSchema-instance" xsi:schemaLocation="http://www.topografix.com/GPX/1/1 http://www.topografix.com/GPX/1/1/gpx.xsd" version="1.1" creator="VisuGPX - https://www.visugpx.com">
  <metadata>
    <name>Florac</name>
  </metadata>
  <trk>
    <name><![CDATA[Florac]]></name>
    <extensions>
      <line xmlns="http://www.topografix.com/GPX/gpx_style/0/2">
        <color>0000FF</color>
        <width>4</width>
      </line>
    </extensions>
    <trkseg>
      <trkpt lat="44.3238" lon="3.59577">
        <ele>545.5</ele>
        <time>2021-10-23T08:52:38.325Z</time>
      </trkpt>
      <trkpt lat="44.32373" lon="3.59572">
        <ele>545.7</ele>
        <time>2021-10-23T08:52:44.053Z</time>
      </trkpt>
      <trkpt lat="44.32368" lon="3.59569">
        <ele>545.9</ele>
        <time>2021-10-23T08:52:50.027Z</time>
      </trkpt>
      <trkpt lat="44.32368" lon="3.59565">
        <ele>545.9</ele>
        <time>2021-10-23T08:52:55.027Z</time>
      </trkpt>
      <trkpt lat="44.3237" lon="3.59566">
        <ele>545.9</ele>
        <time>2021-10-23T08:53:00.055Z</time>
      </trkpt>
      <trkpt lat="44.32375" lon="3.59563">
        <ele>545.9</ele>
        <time>2021-10-23T08:53:05.840Z</time>
      </trkpt>
      <trkpt lat="44.3238" lon="3.59561">
        <ele>545.9</ele>
        <time>2021-10-23T08:53:10.948Z</time>
      </trkpt>
      <trkpt lat="44.32386" lon="3.59558">
        <ele>545.9</ele>
        <time>2021-10-23T08:53:17.019Z</time>
      </trkpt>
      <trkpt lat="44.32391" lon="3.5956">
        <ele>545.8</ele>
        <time>2021-10-23T08:53:22.058Z</time>
      </trkpt>
      <trkpt lat="44.32398" lon="3.59556">
        <ele>545.7</ele>
        <time>2021-10-23T08:53:27.340Z</time>
      </trkpt>
      <trkpt lat="44.32406" lon="3.59553">
        <ele>545.4</ele>
        <time>2021-10-23T08:53:32.492Z</time>
      </trkpt>
      <trkpt lat="44.32412" lon="3.59548">
        <ele>545.2</ele>
        <time>2021-10-23T08:53:37.987Z</time>
      </trkpt>
      <trkpt lat="44.32417" lon="3.5954">
        <ele>545</ele>
        <time>2021-10-23T08:53:44.052Z</time>
      </trkpt>
      <trkpt lat="44.32423" lon="3.59533">
        <ele>545</ele>
        <time>2021-10-23T08:53:49.741Z</time>
      </trkpt>
      <trkpt lat="44.32428" lon="3.59523">
        <ele>545</ele>
        <time>2021-10-23T08:53:55.839Z</time>
      </trkpt>
      <trkpt lat="44.32431" lon="3.59508">
        <ele>545</ele>
        <time>2021-10-23T08:54:02.133Z</time>
      </trkpt>
      <trkpt lat="44.32427" lon="3.59506">
        <ele>545</ele>
        <time>2021-10-23T08:54:07.716Z</time>
      </trkpt>
      <trkpt lat="44.32423" lon="3.595">
        <ele>545</ele>
        <time>2021-10-23T08:54:13.032Z</time>
      </trkpt>
      <trkpt lat="44.32424" lon="3.59492">
        <ele>544.8</ele>
        <time>2021-10-23T08:54:18.066Z</time>
      </trkpt>
      <trkpt lat="44.32435" lon="3.59484">
        <ele>544.2</ele>
        <time>2021-10-23T08:54:23.886Z</time>
      </trkpt>
      <trkpt lat="44.32448" lon="3.59486">
        <ele>544.1</ele>
        <time>2021-10-23T08:54:29.073Z</time>
      </trkpt>
      <trkpt lat="44.32457" lon="3.59489">
        <ele>544.6</ele>
        <time>2021-10-23T08:54:34.155Z</time>
      </trkpt>
      <trkpt lat="44.32464" lon="3.59489">
        <ele>544.8</ele>
        <time>2021-10-23T08:54:40.296Z</time>
      </trkpt>
      <trkpt lat="44.32472" lon="3.59485">
        <ele>545</ele>
        <time>2021-10-23T08:54:45.693Z</time>
      </trkpt>
      <trkpt lat="44.32476" lon="3.59487">
        <ele>544.9</ele>
        <time>2021-10-23T08:54:50.813Z</time>
      </trkpt>
      <trkpt lat="44.32484" lon="3.59483">
        <ele>544.8</ele>
        <time>2021-10-23T08:54:55.832Z</time>
      </trkpt>
      <trkpt lat="44.3249" lon="3.59485">
        <ele>544.7</ele>
        <time>2021-10-23T08:55:02.796Z</time>
      </trkpt>
      <trkpt lat="44.32496" lon="3.5948">
        <ele>544.8</ele>
        <time>2021-10-23T08:55:07.816Z</time>
      </trkpt>
      <trkpt lat="44.32498" lon="3.5947">
        <ele>545</ele>
        <time>2021-10-23T08:55:13.065Z</time>
      </trkpt>
      <trkpt lat="44.325" lon="3.59464">
        <ele>545</ele>
        <time>2021-10-23T08:55:18.247Z</time>
      </trkpt>
      <trkpt lat="44.32504" lon="3.5946">
        <ele>545</ele>
        <time>2021-10-23T08:55:23.542Z</time>
      </trkpt>
      <trkpt lat="44.32507" lon="3.59457">
        <ele>545</ele>
        <time>2021-10-23T08:55:28.754Z</time>
      </trkpt>
      <trkpt lat="44.32511" lon="3.59452">
        <ele>545</ele>
        <time>2021-10-23T08:55:34.265Z</time>
      </trkpt>
      <trkpt lat="44.32515" lon="3.59452">
        <ele>545</ele>
        <time>2021-10-23T08:55:40.136Z</time>
      </trkpt>
      <trkpt lat="44.32516" lon="3.59455">
        <ele>545</ele>
        <time>2021-10-23T08:55:50.826Z</time>
      </trkpt>
      <trkpt lat="44.32516" lon="3.5945">
        <ele>545</ele>
        <time>2021-10-23T08:55:55.832Z</time>
      </trkpt>
      <trkpt lat="44.32515" lon="3.59446">
        <ele>545</ele>
        <time>2021-10-23T08:56:00.845Z</time>
      </trkpt>
      <trkpt lat="44.32517" lon="3.59444">
        <ele>545</ele>
        <time>2021-10-23T08:56:27.060Z</time>
      </trkpt>
      <trkpt lat="44.32515" lon="3.59442">
        <ele>545</ele>
        <time>2021-10-23T08:57:30.865Z</time>
      </trkpt>
      <trkpt lat="44.32513" lon="3.59443">
        <ele>545</ele>
        <time>2021-10-23T08:57:40.865Z</time>
      </trkpt>
      <trkpt lat="44.32504" lon="3.59452">
        <ele>545</ele>
        <time>2021-10-23T08:57:50.527Z</time>
      </trkpt>
      <trkpt lat="44.32499" lon="3.59453">
        <ele>545</ele>
        <time>2021-10-23T08:57:55.629Z</time>
      </trkpt>
      <trkpt lat="44.32497" lon="3.59449">
        <ele>545.1</ele>
        <time>2021-10-23T08:58:00.854Z</time>
      </trkpt>
      <trkpt lat="44.32484" lon="3.59419">
        <ele>546.1</ele>
        <time>2021-10-23T08:58:35.860Z</time>
      </trkpt>
      <trkpt lat="44.32469" lon="3.59405">
        <ele>547.5</ele>
        <time>2021-10-23T08:58:45.157Z</time>
      </trkpt>
      <trkpt lat="44.32467" lon="3.59401">
        <ele>547.7</ele>
        <time>2021-10-23T08:58:50.821Z</time>
      </trkpt>
      <trkpt lat="44.32463" lon="3.59396">
        <ele>548</ele>
        <time>2021-10-23T08:58:55.831Z</time>
      </trkpt>
      <trkpt lat="44.32458" lon="3.59379">
        <ele>548.9</ele>
        <time>2021-10-23T08:59:30.820Z</time>
      </trkpt>
      <trkpt lat="44.3246" lon="3.59367">
        <ele>549.2</ele>
        <time>2021-10-23T08:59:37.520Z</time>
      </trkpt>
      <trkpt lat="44.32454" lon="3.59353">
        <ele>550.3</ele>
        <time>2021-10-23T08:59:42.661Z</time>
      </trkpt>
      <trkpt lat="44.32451" lon="3.59345">
        <ele>551.2</ele>
        <time>2021-10-23T08:59:47.870Z</time>
      </trkpt>
      <trkpt lat="44.32433" lon="3.59316">
        <ele>555.3</ele>
        <time>2021-10-23T09:00:35.910Z</time>
      </trkpt>
      <trkpt lat="44.32422" lon="3.59317">
        <ele>555.5</ele>
        <time>2021-10-23T09:00:43.344Z</time>
      </trkpt>
      <trkpt lat="44.32417" lon="3.59308">
        <ele>556.7</ele>
        <time>2021-10-23T09:00:48.644Z</time>
      </trkpt>
      <trkpt lat="44.32417" lon="3.59295">
        <ele>558.1</ele>
        <time>2021-10-23T09:00:53.747Z</time>
      </trkpt>
      <trkpt lat="44.32417" lon="3.59283">
        <ele>559.4</ele>
        <time>2021-10-23T09:00:59.062Z</time>
      </trkpt>
      <trkpt lat="44.32418" lon="3.59275">
        <ele>560.2</ele>
        <time>2021-10-23T09:01:04.390Z</time>
      </trkpt>
      <trkpt lat="44.32417" lon="3.59271">
        <ele>560.5</ele>
        <time>2021-10-23T09:01:10.055Z</time>
      </trkpt>
      <trkpt lat="44.32412" lon="3.5926">
        <ele>561.3</ele>
        <time>2021-10-23T09:01:15.072Z</time>
      </trkpt>
      <trkpt lat="44.3241" lon="3.59251">
        <ele>562.2</ele>
        <time>2021-10-23T09:01:20.133Z</time>
      </trkpt>
      <trkpt lat="44.32408" lon="3.59242">
        <ele>563</ele>
        <time>2021-10-23T09:01:25.805Z</time>
      </trkpt>
      <trkpt lat="44.32408" lon="3.5924">
        <ele>563.1</ele>
        <time>2021-10-23T09:01:31.592Z</time>
      </trkpt>
      <trkpt lat="44.32391" lon="3.59241">
        <ele>563.3</ele>
        <time>2021-10-23T09:02:04.043Z</time>
      </trkpt>
      <trkpt lat="44.32387" lon="3.59217">
        <ele>564.2</ele>
        <time>2021-10-23T09:02:40.879Z</time>
      </trkpt>
      <trkpt lat="44.32384" lon="3.59198">
        <ele>566</ele>
        <time>2021-10-23T09:02:48.015Z</time>
      </trkpt>
      <trkpt lat="44.32378" lon="3.59187">
        <ele>567.2</ele>
        <time>2021-10-23T09:02:53.135Z</time>
      </trkpt>
      <trkpt lat="44.32378" lon="3.59174">
        <ele>569.3</ele>
        <time>2021-10-23T09:03:00.856Z</time>
      </trkpt>
      <trkpt lat="44.32383" lon="3.59162">
        <ele>572.1</ele>
        <time>2021-10-23T09:03:08.692Z</time>
      </trkpt>
      <trkpt lat="44.32388" lon="3.59157">
        <ele>573.4</ele>
        <time>2021-10-23T09:03:13.721Z</time>
      </trkpt>
      <trkpt lat="44.32393" lon="3.59153">
        <ele>574.6</ele>
        <time>2021-10-23T09:03:19.123Z</time>
      </trkpt>
      <trkpt lat="44.32398" lon="3.59146">
        <ele>576</ele>
        <time>2021-10-23T09:03:24.637Z</time>
      </trkpt>
      <trkpt lat="44.32401" lon="3.59139">
        <ele>577.5</ele>
        <time>2021-10-23T09:03:30.142Z</time>
      </trkpt>
      <trkpt lat="44.32403" lon="3.59133">
        <ele>578</ele>
        <time>2021-10-23T09:03:35.396Z</time>
      </trkpt>
      <trkpt lat="44.32404" lon="3.59129">
        <ele>578.3</ele>
        <time>2021-10-23T09:03:40.518Z</time>
      </trkpt>
      <trkpt lat="44.32403" lon="3.59129">
        <ele>578.4</ele>
        <time>2021-10-23T09:03:46.173Z</time>
      </trkpt>
      <trkpt lat="44.32402" lon="3.59124">
        <ele>579</ele>
        <time>2021-10-23T09:03:51.634Z</time>
      </trkpt>
      <trkpt lat="44.32399" lon="3.59126">
        <ele>579.1</ele>
        <time>2021-10-23T09:03:56.670Z</time>
      </trkpt>
      <trkpt lat="44.32394" lon="3.59126">
        <ele>579.4</ele>
        <time>2021-10-23T09:04:02.171Z</time>
      </trkpt>
      <trkpt lat="44.32385" lon="3.59125">
        <ele>579.8</ele>
        <time>2021-10-23T09:04:07.361Z</time>
      </trkpt>
      <trkpt lat="44.32378" lon="3.59116">
        <ele>581.1</ele>
        <time>2021-10-23T09:04:12.947Z</time>
      </trkpt>
      <trkpt lat="44.32381" lon="3.59109">
        <ele>582.2</ele>
        <time>2021-10-23T09:04:19.064Z</time>
      </trkpt>
      <trkpt lat="44.32378" lon="3.59111">
        <ele>582</ele>
        <time>2021-10-23T09:04:35.832Z</time>
      </trkpt>
      <trkpt lat="44.3237" lon="3.59113">
        <ele>581.7</ele>
        <time>2021-10-23T09:04:40.874Z</time>
      </trkpt>
      <trkpt lat="44.32364" lon="3.59109">
        <ele>582.5</ele>
        <time>2021-10-23T09:04:48.030Z</time>
      </trkpt>
      <trkpt lat="44.32362" lon="3.59108">
        <ele>582.8</ele>
        <time>2021-10-23T09:04:54.049Z</time>
      </trkpt>
      <trkpt lat="44.32361" lon="3.59105">
        <ele>583.4</ele>
        <time>2021-10-23T09:04:59.845Z</time>
      </trkpt>
      <trkpt lat="44.32358" lon="3.59097">
        <ele>584.9</ele>
        <time>2021-10-23T09:05:05.018Z</time>
      </trkpt>
      <trkpt lat="44.32359" lon="3.59098">
        <ele>584.9</ele>
        <time>2021-10-23T09:05:10.053Z</time>
      </trkpt>
      <trkpt lat="44.32359" lon="3.59096">
        <ele>585.2</ele>
        <time>2021-10-23T09:05:15.143Z</time>
      </trkpt>
      <trkpt lat="44.32351" lon="3.59096">
        <ele>583.8</ele>
        <time>2021-10-23T09:05:20.835Z</time>
      </trkpt>
      <trkpt lat="44.32347" lon="3.59093">
        <ele>583.6</ele>
        <time>2021-10-23T09:05:25.903Z</time>
      </trkpt>
      <trkpt lat="44.32341" lon="3.59091">
        <ele>582.8</ele>
        <time>2021-10-23T09:05:30.979Z</time>
      </trkpt>
      <trkpt lat="44.32333" lon="3.59089">
        <ele>581.9</ele>
        <time>2021-10-23T09:05:38.169Z</time>
      </trkpt>
      <trkpt lat="44.3233" lon="3.59085">
        <ele>581.9</ele>
        <time>2021-10-23T09:05:43.790Z</time>
      </trkpt>
      <trkpt lat="44.32324" lon="3.59079">
        <ele>582.2</ele>
        <time>2021-10-23T09:05:49.425Z</time>
      </trkpt>
      <trkpt lat="44.32319" lon="3.5907">
        <ele>583.4</ele>
        <time>2021-10-23T09:05:55.070Z</time>
      </trkpt>
      <trkpt lat="44.32314" lon="3.59061">
        <ele>584.2</ele>
        <time>2021-10-23T09:06:00.731Z</time>
      </trkpt>
      <trkpt lat="44.3231" lon="3.59056">
        <ele>584.3</ele>
        <time>2021-10-23T09:06:05.836Z</time>
      </trkpt>
      <trkpt lat="44.32307" lon="3.5905">
        <ele>584.8</ele>
        <time>2021-10-23T09:06:10.858Z</time>
      </trkpt>
      <trkpt lat="44.32303" lon="3.59043">
        <ele>585.7</ele>
        <time>2021-10-23T09:06:17.331Z</time>
      </trkpt>
      <trkpt lat="44.32296" lon="3.59038">
        <ele>585.6</ele>
        <time>2021-10-23T09:06:23.039Z</time>
      </trkpt>
      <trkpt lat="44.3229" lon="3.59046">
        <ele>582.4</ele>
        <time>2021-10-23T09:06:40.076Z</time>
      </trkpt>
      <trkpt lat="44.32292" lon="3.59046">
        <ele>582.8</ele>
        <time>2021-10-23T09:06:47.069Z</time>
      </trkpt>
      <trkpt lat="44.32293" lon="3.59048">
        <ele>582.6</ele>
        <time>2021-10-23T09:06:52.522Z</time>
      </trkpt>
      <trkpt lat="44.32304" lon="3.59061">
        <ele>581.6</ele>
        <time>2021-10-23T09:07:10.161Z</time>
      </trkpt>
      <trkpt lat="44.32311" lon="3.59066">
        <ele>582.1</ele>
        <time>2021-10-23T09:07:15.872Z</time>
      </trkpt>
      <trkpt lat="44.32319" lon="3.59071">
        <ele>583</ele>
        <time>2021-10-23T09:07:21.062Z</time>
      </trkpt>
      <trkpt lat="44.32326" lon="3.59074">
        <ele>583.8</ele>
        <time>2021-10-23T09:07:26.544Z</time>
      </trkpt>
      <trkpt lat="44.32333" lon="3.59083">
        <ele>583.1</ele>
        <time>2021-10-23T09:07:32.046Z</time>
      </trkpt>
      <trkpt lat="44.32337" lon="3.59088">
        <ele>582.7</ele>
        <time>2021-10-23T09:07:37.131Z</time>
      </trkpt>
      <trkpt lat="44.3234" lon="3.59092">
        <ele>582.5</ele>
        <time>2021-10-23T09:07:43.036Z</time>
      </trkpt>
      <trkpt lat="44.32345" lon="3.59094">
        <ele>583</ele>
        <time>2021-10-23T09:07:48.953Z</time>
      </trkpt>
      <trkpt lat="44.32352" lon="3.59094">
        <ele>584.4</ele>
        <time>2021-10-23T09:07:54.705Z</time>
      </trkpt>
      <trkpt lat="44.32353" lon="3.59093">
        <ele>584.9</ele>
        <time>2021-10-23T09:08:05.828Z</time>
      </trkpt>
      <trkpt lat="44.32349" lon="3.59092">
        <ele>584.3</ele>
        <time>2021-10-23T09:08:10.860Z</time>
      </trkpt>
      <trkpt lat="44.32346" lon="3.59092">
        <ele>583.8</ele>
        <time>2021-10-23T09:08:15.864Z</time>
      </trkpt>
      <trkpt lat="44.32347" lon="3.59089">
        <ele>584.5</ele>
        <time>2021-10-23T09:08:30.860Z</time>
      </trkpt>
      <trkpt lat="44.32348" lon="3.59087">
        <ele>585.4</ele>
        <time>2021-10-23T09:09:15.840Z</time>
      </trkpt>
      <trkpt lat="44.32357" lon="3.59084">
        <ele>588</ele>
        <time>2021-10-23T09:09:23.078Z</time>
      </trkpt>
      <trkpt lat="44.32362" lon="3.59086">
        <ele>588.1</ele>
        <time>2021-10-23T09:09:28.135Z</time>
      </trkpt>
      <trkpt lat="44.32368" lon="3.59088">
        <ele>586.8</ele>
        <time>2021-10-23T09:09:33.318Z</time>
      </trkpt>
      <trkpt lat="44.32373" lon="3.59085">
        <ele>586.5</ele>
        <time>2021-10-23T09:09:38.433Z</time>
      </trkpt>
      <trkpt lat="44.32379" lon="3.59079">
        <ele>586.8</ele>
        <time>2021-10-23T09:09:43.612Z</time>
      </trkpt>
      <trkpt lat="44.32383" lon="3.59071">
        <ele>587</ele>
        <time>2021-10-23T09:09:48.955Z</time>
      </trkpt>
      <trkpt lat="44.32387" lon="3.59064">
        <ele>586.7</ele>
        <time>2021-10-23T09:09:54.145Z</time>
      </trkpt>
      <trkpt lat="44.32389" lon="3.59058">
        <ele>586.8</ele>
        <time>2021-10-23T09:10:00.102Z</time>
      </trkpt>
      <trkpt lat="44.32389" lon="3.5906">
        <ele>586.5</ele>
        <time>2021-10-23T09:10:05.923Z</time>
      </trkpt>
      <trkpt lat="44.32388" lon="3.59058">
        <ele>587</ele>
        <time>2021-10-23T09:10:11.145Z</time>
      </trkpt>
      <trkpt lat="44.32387" lon="3.59044">
        <ele>589.2</ele>
        <time>2021-10-23T09:10:49.569Z</time>
      </trkpt>
      <trkpt lat="44.32384" lon="3.59033">
        <ele>591.3</ele>
        <time>2021-10-23T09:10:54.743Z</time>
      </trkpt>
      <trkpt lat="44.32377" lon="3.59018">
        <ele>594.3</ele>
        <time>2021-10-23T09:11:00.355Z</time>
      </trkpt>
      <trkpt lat="44.3237" lon="3.59012">
        <ele>597</ele>
        <time>2021-10-23T09:11:05.869Z</time>
      </trkpt>
      <trkpt lat="44.3236" lon="3.59004">
        <ele>601.1</ele>
        <time>2021-10-23T09:11:10.876Z</time>
      </trkpt>
      <trkpt lat="44.32357" lon="3.59012">
        <ele>601</ele>
        <time>2021-10-23T09:11:20.965Z</time>
      </trkpt>
      <trkpt lat="44.32359" lon="3.59025">
        <ele>600.2</ele>
        <time>2021-10-23T09:11:29.135Z</time>
      </trkpt>
      <trkpt lat="44.32361" lon="3.59029">
        <ele>600</ele>
        <time>2021-10-23T09:12:13.169Z</time>
      </trkpt>
      <trkpt lat="44.32361" lon="3.59036">
        <ele>599.9</ele>
        <time>2021-10-23T09:12:18.773Z</time>
      </trkpt>
      <trkpt lat="44.32362" lon="3.59044">
        <ele>599.5</ele>
        <time>2021-10-23T09:12:24.068Z</time>
      </trkpt>
      <trkpt lat="44.32361" lon="3.59055">
        <ele>600</ele>
        <time>2021-10-23T09:12:50.076Z</time>
      </trkpt>
      <trkpt lat="44.32362" lon="3.59034">
        <ele>599.8</ele>
        <time>2021-10-23T09:14:55.214Z</time>
      </trkpt>
      <trkpt lat="44.32363" lon="3.59029">
        <ele>599.2</ele>
        <time>2021-10-23T09:15:00.407Z</time>
      </trkpt>
      <trkpt lat="44.32366" lon="3.5902">
        <ele>598.5</ele>
        <time>2021-10-23T09:15:05.668Z</time>
      </trkpt>
      <trkpt lat="44.32367" lon="3.59005">
        <ele>598.4</ele>
        <time>2021-10-23T09:15:10.789Z</time>
      </trkpt>
      <trkpt lat="44.32365" lon="3.58994">
        <ele>600</ele>
        <time>2021-10-23T09:15:15.873Z</time>
      </trkpt>
      <trkpt lat="44.32362" lon="3.58984">
        <ele>602.4</ele>
        <time>2021-10-23T09:15:20.879Z</time>
      </trkpt>
      <trkpt lat="44.32351" lon="3.58973">
        <ele>607.1</ele>
        <time>2021-10-23T09:15:26.838Z</time>
      </trkpt>
      <trkpt lat="44.32345" lon="3.58969">
        <ele>610</ele>
        <time>2021-10-23T09:15:31.975Z</time>
      </trkpt>
      <trkpt lat="44.32337" lon="3.58966">
        <ele>613.1</ele>
        <time>2021-10-23T09:15:37.440Z</time>
      </trkpt>
      <trkpt lat="44.3233" lon="3.58965">
        <ele>613.8</ele>
        <time>2021-10-23T09:15:42.755Z</time>
      </trkpt>
      <trkpt lat="44.32338" lon="3.58958">
        <ele>613.9</ele>
        <time>2021-10-23T09:15:58.651Z</time>
      </trkpt>
      <trkpt lat="44.32342" lon="3.58948">
        <ele>614.7</ele>
        <time>2021-10-23T09:16:03.655Z</time>
      </trkpt>
      <trkpt lat="44.32342" lon="3.58941">
        <ele>616.1</ele>
        <time>2021-10-23T09:16:09.069Z</time>
      </trkpt>
      <trkpt lat="44.32338" lon="3.58936">
        <ele>618.1</ele>
        <time>2021-10-23T09:16:15.261Z</time>
      </trkpt>
      <trkpt lat="44.32335" lon="3.58935">
        <ele>619.3</ele>
        <time>2021-10-23T09:16:20.863Z</time>
      </trkpt>
      <trkpt lat="44.32332" lon="3.58933">
        <ele>620</ele>
        <time>2021-10-23T09:16:26.022Z</time>
      </trkpt>
      <trkpt lat="44.32327" lon="3.58931">
        <ele>620.6</ele>
        <time>2021-10-23T09:16:48.073Z</time>
      </trkpt>
      <trkpt lat="44.32325" lon="3.5893">
        <ele>620.9</ele>
        <time>2021-10-23T09:16:54.028Z</time>
      </trkpt>
      <trkpt lat="44.32326" lon="3.58928">
        <ele>621.2</ele>
        <time>2021-10-23T09:17:18.091Z</time>
      </trkpt>
      <trkpt lat="44.32323" lon="3.58925">
        <ele>622</ele>
        <time>2021-10-23T09:17:23.678Z</time>
      </trkpt>
      <trkpt lat="44.3232" lon="3.58923">
        <ele>622.8</ele>
        <time>2021-10-23T09:17:29.056Z</time>
      </trkpt>
      <trkpt lat="44.32316" lon="3.58917">
        <ele>624.8</ele>
        <time>2021-10-23T09:17:35.124Z</time>
      </trkpt>
      <trkpt lat="44.32315" lon="3.58911">
        <ele>626.3</ele>
        <time>2021-10-23T09:17:40.145Z</time>
      </trkpt>
      <trkpt lat="44.32314" lon="3.58905">
        <ele>627.6</ele>
        <time>2021-10-23T09:17:45.180Z</time>
      </trkpt>
      <trkpt lat="44.32309" lon="3.58903">
        <ele>628.9</ele>
        <time>2021-10-23T09:17:50.686Z</time>
      </trkpt>
      <trkpt lat="44.32306" lon="3.589">
        <ele>630.2</ele>
        <time>2021-10-23T09:17:55.833Z</time>
      </trkpt>
      <trkpt lat="44.32302" lon="3.58898">
        <ele>630.1</ele>
        <time>2021-10-23T09:18:00.851Z</time>
      </trkpt>
      <trkpt lat="44.32296" lon="3.58899">
        <ele>629</ele>
        <time>2021-10-23T09:18:05.892Z</time>
      </trkpt>
      <trkpt lat="44.3229" lon="3.58892">
        <ele>630.2</ele>
        <time>2021-10-23T09:18:13.131Z</time>
      </trkpt>
      <trkpt lat="44.3229" lon="3.58895">
        <ele>629.3</ele>
        <time>2021-10-23T09:18:18.463Z</time>
      </trkpt>
      <trkpt lat="44.32297" lon="3.58898">
        <ele>629.3</ele>
        <time>2021-10-23T09:18:23.689Z</time>
      </trkpt>
      <trkpt lat="44.32302" lon="3.58903">
        <ele>628.9</ele>
        <time>2021-10-23T09:18:29.378Z</time>
      </trkpt>
      <trkpt lat="44.32307" lon="3.58912">
        <ele>627</ele>
        <time>2021-10-23T09:18:34.533Z</time>
      </trkpt>
      <trkpt lat="44.32311" lon="3.5892">
        <ele>624.4</ele>
        <time>2021-10-23T09:18:40.655Z</time>
      </trkpt>
      <trkpt lat="44.32314" lon="3.5892">
        <ele>624.2</ele>
        <time>2021-10-23T09:18:45.854Z</time>
      </trkpt>
      <trkpt lat="44.32316" lon="3.58918">
        <ele>624.5</ele>
        <time>2021-10-23T09:18:50.856Z</time>
      </trkpt>
      <trkpt lat="44.3232" lon="3.58909">
        <ele>626.1</ele>
        <time>2021-10-23T09:18:58.028Z</time>
      </trkpt>
      <trkpt lat="44.32321" lon="3.58906">
        <ele>626.7</ele>
        <time>2021-10-23T09:19:10.901Z</time>
      </trkpt>
      <trkpt lat="44.32317" lon="3.58897">
        <ele>629.1</ele>
        <time>2021-10-23T09:19:16.988Z</time>
      </trkpt>
      <trkpt lat="44.32313" lon="3.58889">
        <ele>631.7</ele>
        <time>2021-10-23T09:19:22.104Z</time>
      </trkpt>
      <trkpt lat="44.32312" lon="3.58886">
        <ele>632.5</ele>
        <time>2021-10-23T09:19:27.470Z</time>
      </trkpt>
      <trkpt lat="44.3231" lon="3.58882">
        <ele>633.6</ele>
        <time>2021-10-23T09:19:33.249Z</time>
      </trkpt>
      <trkpt lat="44.3231" lon="3.58878">
        <ele>634.6</ele>
        <time>2021-10-23T09:19:38.555Z</time>
      </trkpt>
      <trkpt lat="44.32314" lon="3.58872">
        <ele>635.2</ele>
        <time>2021-10-23T09:19:43.669Z</time>
      </trkpt>
      <trkpt lat="44.32316" lon="3.58866">
        <ele>635.9</ele>
        <time>2021-10-23T09:19:48.700Z</time>
      </trkpt>
      <trkpt lat="44.32317" lon="3.5886">
        <ele>637.1</ele>
        <time>2021-10-23T09:19:54.005Z</time>
      </trkpt>
      <trkpt lat="44.32315" lon="3.58857">
        <ele>638</ele>
        <time>2021-10-23T09:19:59.416Z</time>
      </trkpt>
      <trkpt lat="44.32302" lon="3.58848">
        <ele>642.1</ele>
        <time>2021-10-23T09:20:55.848Z</time>
      </trkpt>
      <trkpt lat="44.32298" lon="3.58835">
        <ele>645.7</ele>
        <time>2021-10-23T09:21:03.736Z</time>
      </trkpt>
      <trkpt lat="44.32296" lon="3.5883">
        <ele>647.4</ele>
        <time>2021-10-23T09:21:09.055Z</time>
      </trkpt>
      <trkpt lat="44.323" lon="3.5882">
        <ele>648.7</ele>
        <time>2021-10-23T09:21:14.655Z</time>
      </trkpt>
      <trkpt lat="44.323" lon="3.58816">
        <ele>649.6</ele>
        <time>2021-10-23T09:21:20.099Z</time>
      </trkpt>
      <trkpt lat="44.32301" lon="3.58809">
        <ele>651</ele>
        <time>2021-10-23T09:21:25.772Z</time>
      </trkpt>
      <trkpt lat="44.323" lon="3.58805">
        <ele>652.3</ele>
        <time>2021-10-23T09:21:30.887Z</time>
      </trkpt>
      <trkpt lat="44.323" lon="3.58799">
        <ele>653.2</ele>
        <time>2021-10-23T09:21:37.048Z</time>
      </trkpt>
      <trkpt lat="44.32297" lon="3.58797">
        <ele>654.7</ele>
        <time>2021-10-23T09:21:45.860Z</time>
      </trkpt>
      <trkpt lat="44.32295" lon="3.58795">
        <ele>655.8</ele>
        <time>2021-10-23T09:21:53.027Z</time>
      </trkpt>
      <trkpt lat="44.32299" lon="3.58777">
        <ele>657.7</ele>
        <time>2021-10-23T09:22:40.656Z</time>
      </trkpt>
      <trkpt lat="44.32301" lon="3.58774">
        <ele>657.3</ele>
        <time>2021-10-23T09:22:45.917Z</time>
      </trkpt>
      <trkpt lat="44.32306" lon="3.58759">
        <ele>658.2</ele>
        <time>2021-10-23T09:22:51.569Z</time>
      </trkpt>
      <trkpt lat="44.32307" lon="3.58748">
        <ele>659.8</ele>
        <time>2021-10-23T09:22:56.990Z</time>
      </trkpt>
      <trkpt lat="44.32307" lon="3.58741">
        <ele>661</ele>
        <time>2021-10-23T09:23:02.000Z</time>
      </trkpt>
      <trkpt lat="44.32308" lon="3.58737">
        <ele>661.5</ele>
        <time>2021-10-23T09:23:07.018Z</time>
      </trkpt>
      <trkpt lat="44.32309" lon="3.58732">
        <ele>662</ele>
        <time>2021-10-23T09:23:12.082Z</time>
      </trkpt>
      <trkpt lat="44.32309" lon="3.58724">
        <ele>663.3</ele>
        <time>2021-10-23T09:23:17.694Z</time>
      </trkpt>
      <trkpt lat="44.32308" lon="3.58718">
        <ele>664.5</ele>
        <time>2021-10-23T09:23:23.044Z</time>
      </trkpt>
      <trkpt lat="44.32306" lon="3.58711">
        <ele>666.3</ele>
        <time>2021-10-23T09:23:28.209Z</time>
      </trkpt>
      <trkpt lat="44.32304" lon="3.58704">
        <ele>668.1</ele>
        <time>2021-10-23T09:23:33.529Z</time>
      </trkpt>
      <trkpt lat="44.32302" lon="3.58698">
        <ele>670</ele>
        <time>2021-10-23T09:23:38.689Z</time>
      </trkpt>
      <trkpt lat="44.32303" lon="3.58693">
        <ele>670.7</ele>
        <time>2021-10-23T09:23:44.030Z</time>
      </trkpt>
      <trkpt lat="44.32303" lon="3.5869">
        <ele>670.7</ele>
        <time>2021-10-23T09:23:49.066Z</time>
      </trkpt>
      <trkpt lat="44.32304" lon="3.58682">
        <ele>671.5</ele>
        <time>2021-10-23T09:23:54.404Z</time>
      </trkpt>
      <trkpt lat="44.32303" lon="3.58677">
        <ele>672.6</ele>
        <time>2021-10-23T09:24:00.090Z</time>
      </trkpt>
      <trkpt lat="44.32302" lon="3.58672">
        <ele>673.8</ele>
        <time>2021-10-23T09:24:05.649Z</time>
      </trkpt>
      <trkpt lat="44.32301" lon="3.58668">
        <ele>675</ele>
        <time>2021-10-23T09:24:10.697Z</time>
      </trkpt>
      <trkpt lat="44.32301" lon="3.58663">
        <ele>676.2</ele>
        <time>2021-10-23T09:24:15.919Z</time>
      </trkpt>
      <trkpt lat="44.323" lon="3.58659">
        <ele>677.1</ele>
        <time>2021-10-23T09:24:20.919Z</time>
      </trkpt>
      <trkpt lat="44.323" lon="3.58652">
        <ele>678.1</ele>
        <time>2021-10-23T09:24:28.055Z</time>
      </trkpt>
      <trkpt lat="44.32301" lon="3.58649">
        <ele>678.1</ele>
        <time>2021-10-23T09:24:33.198Z</time>
      </trkpt>
      <trkpt lat="44.32306" lon="3.58644">
        <ele>676.7</ele>
        <time>2021-10-23T09:24:38.681Z</time>
      </trkpt>
      <trkpt lat="44.32308" lon="3.58637">
        <ele>677.3</ele>
        <time>2021-10-23T09:24:43.959Z</time>
      </trkpt>
      <trkpt lat="44.32308" lon="3.58634">
        <ele>677.6</ele>
        <time>2021-10-23T09:24:49.002Z</time>
      </trkpt>
      <trkpt lat="44.32309" lon="3.58632">
        <ele>677.6</ele>
        <time>2021-10-23T09:24:54.270Z</time>
      </trkpt>
      <trkpt lat="44.32307" lon="3.58626">
        <ele>679.6</ele>
        <time>2021-10-23T09:25:35.902Z</time>
      </trkpt>
      <trkpt lat="44.32305" lon="3.58616">
        <ele>682.3</ele>
        <time>2021-10-23T09:25:41.817Z</time>
      </trkpt>
      <trkpt lat="44.32302" lon="3.58603">
        <ele>685.8</ele>
        <time>2021-10-23T09:25:46.934Z</time>
      </trkpt>
      <trkpt lat="44.323" lon="3.58594">
        <ele>688.1</ele>
        <time>2021-10-23T09:25:52.016Z</time>
      </trkpt>
      <trkpt lat="44.323" lon="3.58587">
        <ele>689.1</ele>
        <time>2021-10-23T09:25:57.090Z</time>
      </trkpt>
      <trkpt lat="44.32305" lon="3.58578">
        <ele>687.3</ele>
        <time>2021-10-23T09:26:02.665Z</time>
      </trkpt>
      <trkpt lat="44.3231" lon="3.58571">
        <ele>686.2</ele>
        <time>2021-10-23T09:26:08.099Z</time>
      </trkpt>
      <trkpt lat="44.3231" lon="3.58568">
        <ele>686.1</ele>
        <time>2021-10-23T09:26:13.643Z</time>
      </trkpt>
      <trkpt lat="44.32312" lon="3.58565">
        <ele>685.7</ele>
        <time>2021-10-23T09:26:18.928Z</time>
      </trkpt>
      <trkpt lat="44.32313" lon="3.58561">
        <ele>685.5</ele>
        <time>2021-10-23T09:26:25.243Z</time>
      </trkpt>
      <trkpt lat="44.32309" lon="3.58555">
        <ele>687</ele>
        <time>2021-10-23T09:26:30.508Z</time>
      </trkpt>
      <trkpt lat="44.32304" lon="3.58548">
        <ele>690.1</ele>
        <time>2021-10-23T09:26:55.855Z</time>
      </trkpt>
      <trkpt lat="44.3231" lon="3.58543">
        <ele>689.2</ele>
        <time>2021-10-23T09:28:10.909Z</time>
      </trkpt>
      <trkpt lat="44.32314" lon="3.58536">
        <ele>689.3</ele>
        <time>2021-10-23T09:28:16.659Z</time>
      </trkpt>
      <trkpt lat="44.32318" lon="3.5853">
        <ele>689.1</ele>
        <time>2021-10-23T09:28:22.499Z</time>
      </trkpt>
      <trkpt lat="44.3232" lon="3.58523">
        <ele>690.5</ele>
        <time>2021-10-23T09:28:28.057Z</time>
      </trkpt>
      <trkpt lat="44.32321" lon="3.58515">
        <ele>693.6</ele>
        <time>2021-10-23T09:28:33.397Z</time>
      </trkpt>
      <trkpt lat="44.3232" lon="3.58508">
        <ele>696.6</ele>
        <time>2021-10-23T09:28:38.774Z</time>
      </trkpt>
      <trkpt lat="44.32322" lon="3.58502">
        <ele>698.5</ele>
        <time>2021-10-23T09:28:43.890Z</time>
      </trkpt>
      <trkpt lat="44.32324" lon="3.58497">
        <ele>699.3</ele>
        <time>2021-10-23T09:28:49.133Z</time>
      </trkpt>
      <trkpt lat="44.32328" lon="3.58494">
        <ele>698.8</ele>
        <time>2021-10-23T09:28:54.996Z</time>
      </trkpt>
      <trkpt lat="44.32332" lon="3.5849">
        <ele>698.6</ele>
        <time>2021-10-23T09:29:00.876Z</time>
      </trkpt>
      <trkpt lat="44.32334" lon="3.58484">
        <ele>699.2</ele>
        <time>2021-10-23T09:29:06.379Z</time>
      </trkpt>
      <trkpt lat="44.32336" lon="3.58478">
        <ele>700.2</ele>
        <time>2021-10-23T09:29:11.564Z</time>
      </trkpt>
      <trkpt lat="44.32336" lon="3.58474">
        <ele>701.2</ele>
        <time>2021-10-23T09:29:16.575Z</time>
      </trkpt>
      <trkpt lat="44.32336" lon="3.58468">
        <ele>702.2</ele>
        <time>2021-10-23T09:29:21.954Z</time>
      </trkpt>
      <trkpt lat="44.32335" lon="3.58461">
        <ele>704.4</ele>
        <time>2021-10-23T09:29:27.196Z</time>
      </trkpt>
      <trkpt lat="44.32335" lon="3.58456">
        <ele>705.5</ele>
        <time>2021-10-23T09:29:32.248Z</time>
      </trkpt>
      <trkpt lat="44.32335" lon="3.5845">
        <ele>706.7</ele>
        <time>2021-10-23T09:29:37.392Z</time>
      </trkpt>
      <trkpt lat="44.32335" lon="3.58444">
        <ele>708</ele>
        <time>2021-10-23T09:29:42.464Z</time>
      </trkpt>
      <trkpt lat="44.32335" lon="3.58438">
        <ele>708.5</ele>
        <time>2021-10-23T09:29:48.075Z</time>
      </trkpt>
      <trkpt lat="44.32334" lon="3.58433">
        <ele>709.7</ele>
        <time>2021-10-23T09:29:53.421Z</time>
      </trkpt>
      <trkpt lat="44.32332" lon="3.58429">
        <ele>710.7</ele>
        <time>2021-10-23T09:29:58.713Z</time>
      </trkpt>
      <trkpt lat="44.3233" lon="3.58424">
        <ele>711.5</ele>
        <time>2021-10-23T09:30:04.109Z</time>
      </trkpt>
      <trkpt lat="44.32329" lon="3.58419">
        <ele>712.2</ele>
        <time>2021-10-23T09:30:09.383Z</time>
      </trkpt>
      <trkpt lat="44.3233" lon="3.58414">
        <ele>712.1</ele>
        <time>2021-10-23T09:30:14.526Z</time>
      </trkpt>
      <trkpt lat="44.32329" lon="3.58415">
        <ele>712.6</ele>
        <time>2021-10-23T09:30:43.055Z</time>
      </trkpt>
      <trkpt lat="44.3232" lon="3.58422">
        <ele>715</ele>
        <time>2021-10-23T09:30:48.876Z</time>
      </trkpt>
      <trkpt lat="44.32314" lon="3.58418">
        <ele>717.2</ele>
        <time>2021-10-23T09:31:05.078Z</time>
      </trkpt>
      <trkpt lat="44.3231" lon="3.58411">
        <ele>718.7</ele>
        <time>2021-10-23T09:31:10.090Z</time>
      </trkpt>
      <trkpt lat="44.32305" lon="3.58407">
        <ele>720.4</ele>
        <time>2021-10-23T09:31:15.766Z</time>
      </trkpt>
      <trkpt lat="44.32303" lon="3.58402">
        <ele>721.3</ele>
        <time>2021-10-23T09:31:20.937Z</time>
      </trkpt>
      <trkpt lat="44.32302" lon="3.58396">
        <ele>722.4</ele>
        <time>2021-10-23T09:31:26.160Z</time>
      </trkpt>
      <trkpt lat="44.32301" lon="3.58388">
        <ele>723.1</ele>
        <time>2021-10-23T09:31:31.379Z</time>
      </trkpt>
      <trkpt lat="44.32301" lon="3.58381">
        <ele>723.4</ele>
        <time>2021-10-23T09:31:36.413Z</time>
      </trkpt>
      <trkpt lat="44.32302" lon="3.58373">
        <ele>723.7</ele>
        <time>2021-10-23T09:31:42.044Z</time>
      </trkpt>
      <trkpt lat="44.32303" lon="3.58366">
        <ele>723.4</ele>
        <time>2021-10-23T09:31:47.249Z</time>
      </trkpt>
      <trkpt lat="44.32307" lon="3.58358">
        <ele>721.9</ele>
        <time>2021-10-23T09:31:52.431Z</time>
      </trkpt>
      <trkpt lat="44.32313" lon="3.58349">
        <ele>721.7</ele>
        <time>2021-10-23T09:31:58.279Z</time>
      </trkpt>
      <trkpt lat="44.32313" lon="3.58339">
        <ele>723.1</ele>
        <time>2021-10-23T09:32:03.542Z</time>
      </trkpt>
      <trkpt lat="44.32312" lon="3.58329">
        <ele>725.2</ele>
        <time>2021-10-23T09:32:08.570Z</time>
      </trkpt>
      <trkpt lat="44.32316" lon="3.58318">
        <ele>726.2</ele>
        <time>2021-10-23T09:32:14.415Z</time>
      </trkpt>
      <trkpt lat="44.3232" lon="3.58312">
        <ele>726.2</ele>
        <time>2021-10-23T09:32:20.406Z</time>
      </trkpt>
      <trkpt lat="44.32322" lon="3.58306">
        <ele>726.7</ele>
        <time>2021-10-23T09:32:25.891Z</time>
      </trkpt>
      <trkpt lat="44.32322" lon="3.58303">
        <ele>727.1</ele>
        <time>2021-10-23T09:32:35.908Z</time>
      </trkpt>
      <trkpt lat="44.32326" lon="3.58297">
        <ele>726.6</ele>
        <time>2021-10-23T09:32:40.910Z</time>
      </trkpt>
      <trkpt lat="44.3233" lon="3.58286">
        <ele>726.9</ele>
        <time>2021-10-23T09:32:48.039Z</time>
      </trkpt>
      <trkpt lat="44.32334" lon="3.5828">
        <ele>726.7</ele>
        <time>2021-10-23T09:32:53.080Z</time>
      </trkpt>
      <trkpt lat="44.32339" lon="3.58274">
        <ele>727.9</ele>
        <time>2021-10-23T09:32:58.243Z</time>
      </trkpt>
      <trkpt lat="44.32343" lon="3.58271">
        <ele>728.6</ele>
        <time>2021-10-23T09:33:03.327Z</time>
      </trkpt>
      <trkpt lat="44.32347" lon="3.58268">
        <ele>729.6</ele>
        <time>2021-10-23T09:33:08.453Z</time>
      </trkpt>
      <trkpt lat="44.32353" lon="3.58261">
        <ele>731.3</ele>
        <time>2021-10-23T09:33:24.388Z</time>
      </trkpt>
      <trkpt lat="44.32355" lon="3.58256">
        <ele>732.9</ele>
        <time>2021-10-23T09:33:30.106Z</time>
      </trkpt>
      <trkpt lat="44.32357" lon="3.58251">
        <ele>734.3</ele>
        <time>2021-10-23T09:33:35.421Z</time>
      </trkpt>
      <trkpt lat="44.32359" lon="3.58249">
        <ele>734.9</ele>
        <time>2021-10-23T09:33:40.647Z</time>
      </trkpt>
      <trkpt lat="44.32363" lon="3.58247">
        <ele>735.5</ele>
        <time>2021-10-23T09:33:45.840Z</time>
      </trkpt>
      <trkpt lat="44.32368" lon="3.58244">
        <ele>736.5</ele>
        <time>2021-10-23T09:33:50.861Z</time>
      </trkpt>
      <trkpt lat="44.32371" lon="3.58241">
        <ele>737.3</ele>
        <time>2021-10-23T09:33:55.861Z</time>
      </trkpt>
      <trkpt lat="44.32373" lon="3.58237">
        <ele>739.2</ele>
        <time>2021-10-23T09:34:00.867Z</time>
      </trkpt>
      <trkpt lat="44.32376" lon="3.58229">
        <ele>741.9</ele>
        <time>2021-10-23T09:34:07.034Z</time>
      </trkpt>
      <trkpt lat="44.32377" lon="3.58225">
        <ele>743.6</ele>
        <time>2021-10-23T09:34:12.873Z</time>
      </trkpt>
      <trkpt lat="44.32376" lon="3.5822">
        <ele>746.3</ele>
        <time>2021-10-23T09:34:17.962Z</time>
      </trkpt>
      <trkpt lat="44.32377" lon="3.58214">
        <ele>749</ele>
        <time>2021-10-23T09:34:23.055Z</time>
      </trkpt>
      <trkpt lat="44.32379" lon="3.58211">
        <ele>750.3</ele>
        <time>2021-10-23T09:34:28.409Z</time>
      </trkpt>
      <trkpt lat="44.32382" lon="3.58211">
        <ele>749.3</ele>
        <time>2021-10-23T09:34:33.660Z</time>
      </trkpt>
      <trkpt lat="44.32386" lon="3.58213">
        <ele>747.7</ele>
        <time>2021-10-23T09:34:38.668Z</time>
      </trkpt>
      <trkpt lat="44.32395" lon="3.5822">
        <ele>743.5</ele>
        <time>2021-10-23T09:35:08.290Z</time>
      </trkpt>
      <trkpt lat="44.32402" lon="3.58219">
        <ele>743.9</ele>
        <time>2021-10-23T09:35:14.068Z</time>
      </trkpt>
      <trkpt lat="44.32409" lon="3.58216">
        <ele>744.7</ele>
        <time>2021-10-23T09:35:19.637Z</time>
      </trkpt>
      <trkpt lat="44.32418" lon="3.5821">
        <ele>746.5</ele>
        <time>2021-10-23T09:35:24.961Z</time>
      </trkpt>
      <trkpt lat="44.32421" lon="3.58201">
        <ele>749.1</ele>
        <time>2021-10-23T09:35:30.078Z</time>
      </trkpt>
      <trkpt lat="44.32424" lon="3.58194">
        <ele>751</ele>
        <time>2021-10-23T09:35:35.808Z</time>
      </trkpt>
      <trkpt lat="44.32428" lon="3.58189">
        <ele>751.5</ele>
        <time>2021-10-23T09:35:40.866Z</time>
      </trkpt>
      <trkpt lat="44.32438" lon="3.58187">
        <ele>749.9</ele>
        <time>2021-10-23T09:35:47.436Z</time>
      </trkpt>
      <trkpt lat="44.32441" lon="3.58182">
        <ele>750.4</ele>
        <time>2021-10-23T09:35:52.975Z</time>
      </trkpt>
      <trkpt lat="44.32442" lon="3.58178">
        <ele>751.2</ele>
        <time>2021-10-23T09:35:58.044Z</time>
      </trkpt>
      <trkpt lat="44.32445" lon="3.58173">
        <ele>751.5</ele>
        <time>2021-10-23T09:36:03.745Z</time>
      </trkpt>
      <trkpt lat="44.32449" lon="3.58167">
        <ele>751.6</ele>
        <time>2021-10-23T09:36:09.445Z</time>
      </trkpt>
      <trkpt lat="44.32451" lon="3.58158">
        <ele>753.5</ele>
        <time>2021-10-23T09:36:14.478Z</time>
      </trkpt>
      <trkpt lat="44.32453" lon="3.58155">
        <ele>753.5</ele>
        <time>2021-10-23T09:36:19.628Z</time>
      </trkpt>
      <trkpt lat="44.32454" lon="3.58151">
        <ele>754.2</ele>
        <time>2021-10-23T09:36:24.807Z</time>
      </trkpt>
      <trkpt lat="44.32454" lon="3.58148">
        <ele>755.4</ele>
        <time>2021-10-23T09:36:29.969Z</time>
      </trkpt>
      <trkpt lat="44.32453" lon="3.58143">
        <ele>757.3</ele>
        <time>2021-10-23T09:36:35.084Z</time>
      </trkpt>
      <trkpt lat="44.32456" lon="3.58139">
        <ele>757</ele>
        <time>2021-10-23T09:36:40.630Z</time>
      </trkpt>
      <trkpt lat="44.32462" lon="3.58136">
        <ele>755.8</ele>
        <time>2021-10-23T09:36:45.900Z</time>
      </trkpt>
      <trkpt lat="44.32466" lon="3.58134">
        <ele>755</ele>
        <time>2021-10-23T09:36:51.331Z</time>
      </trkpt>
      <trkpt lat="44.3247" lon="3.58132">
        <ele>754.4</ele>
        <time>2021-10-23T09:36:56.451Z</time>
      </trkpt>
      <trkpt lat="44.3246" lon="3.58124">
        <ele>762</ele>
        <time>2021-10-23T09:38:10.906Z</time>
      </trkpt>
      <trkpt lat="44.3246" lon="3.58122">
        <ele>763</ele>
        <time>2021-10-23T09:38:39.044Z</time>
      </trkpt>
      <trkpt lat="44.32461" lon="3.58119">
        <ele>764</ele>
        <time>2021-10-23T09:38:45.920Z</time>
      </trkpt>
      <trkpt lat="44.32463" lon="3.58109">
        <ele>768</ele>
        <time>2021-10-23T09:38:53.039Z</time>
      </trkpt>
      <trkpt lat="44.32465" lon="3.58108">
        <ele>767.6</ele>
        <time>2021-10-23T09:38:58.058Z</time>
      </trkpt>
      <trkpt lat="44.32467" lon="3.58106">
        <ele>767.9</ele>
        <time>2021-10-23T09:39:05.077Z</time>
      </trkpt>
      <trkpt lat="44.32467" lon="3.58104">
        <ele>768.7</ele>
        <time>2021-10-23T09:39:10.884Z</time>
      </trkpt>
      <trkpt lat="44.32465" lon="3.58103">
        <ele>769.7</ele>
        <time>2021-10-23T09:39:19.069Z</time>
      </trkpt>
      <trkpt lat="44.32468" lon="3.58095">
        <ele>772.1</ele>
        <time>2021-10-23T09:42:30.897Z</time>
      </trkpt>
      <trkpt lat="44.32472" lon="3.58088">
        <ele>774.3</ele>
        <time>2021-10-23T09:42:37.568Z</time>
      </trkpt>
      <trkpt lat="44.32476" lon="3.58079">
        <ele>776.4</ele>
        <time>2021-10-23T09:42:42.592Z</time>
      </trkpt>
      <trkpt lat="44.32479" lon="3.58074">
        <ele>778.1</ele>
        <time>2021-10-23T09:42:48.036Z</time>
      </trkpt>
      <trkpt lat="44.32481" lon="3.5807">
        <ele>778.8</ele>
        <time>2021-10-23T09:42:53.184Z</time>
      </trkpt>
      <trkpt lat="44.32484" lon="3.58068">
        <ele>778.7</ele>
        <time>2021-10-23T09:42:59.360Z</time>
      </trkpt>
      <trkpt lat="44.3249" lon="3.58064">
        <ele>778.3</ele>
        <time>2021-10-23T09:43:04.969Z</time>
      </trkpt>
      <trkpt lat="44.32496" lon="3.58058">
        <ele>778.7</ele>
        <time>2021-10-23T09:43:10.249Z</time>
      </trkpt>
      <trkpt lat="44.325" lon="3.58052">
        <ele>779.3</ele>
        <time>2021-10-23T09:43:15.507Z</time>
      </trkpt>
      <trkpt lat="44.32504" lon="3.58047">
        <ele>780.2</ele>
        <time>2021-10-23T09:43:20.934Z</time>
      </trkpt>
      <trkpt lat="44.32507" lon="3.5804">
        <ele>781.9</ele>
        <time>2021-10-23T09:43:26.980Z</time>
      </trkpt>
      <trkpt lat="44.3251" lon="3.58035">
        <ele>782.6</ele>
        <time>2021-10-23T09:43:32.276Z</time>
      </trkpt>
      <trkpt lat="44.32511" lon="3.5803">
        <ele>784</ele>
        <time>2021-10-23T09:43:37.411Z</time>
      </trkpt>
      <trkpt lat="44.32515" lon="3.58026">
        <ele>784.3</ele>
        <time>2021-10-23T09:43:45.862Z</time>
      </trkpt>
      <trkpt lat="44.32518" lon="3.58022">
        <ele>784.8</ele>
        <time>2021-10-23T09:43:50.924Z</time>
      </trkpt>
      <trkpt lat="44.32519" lon="3.58015">
        <ele>786.9</ele>
        <time>2021-10-23T09:43:59.286Z</time>
      </trkpt>
      <trkpt lat="44.32518" lon="3.58009">
        <ele>790</ele>
        <time>2021-10-23T09:44:05.202Z</time>
      </trkpt>
      <trkpt lat="44.32518" lon="3.58006">
        <ele>791.7</ele>
        <time>2021-10-23T09:44:10.636Z</time>
      </trkpt>
      <trkpt lat="44.32528" lon="3.57983">
        <ele>797.2</ele>
        <time>2021-10-23T09:44:49.702Z</time>
      </trkpt>
      <trkpt lat="44.32531" lon="3.57978">
        <ele>798.4</ele>
        <time>2021-10-23T09:44:54.764Z</time>
      </trkpt>
      <trkpt lat="44.32535" lon="3.57973">
        <ele>798.8</ele>
        <time>2021-10-23T09:44:59.968Z</time>
      </trkpt>
      <trkpt lat="44.32537" lon="3.57968">
        <ele>800</ele>
        <time>2021-10-23T09:45:05.027Z</time>
      </trkpt>
      <trkpt lat="44.32541" lon="3.57962">
        <ele>800.6</ele>
        <time>2021-10-23T09:45:10.517Z</time>
      </trkpt>
      <trkpt lat="44.32543" lon="3.57957">
        <ele>801.5</ele>
        <time>2021-10-23T09:45:15.906Z</time>
      </trkpt>
      <trkpt lat="44.32546" lon="3.57952">
        <ele>802.3</ele>
        <time>2021-10-23T09:45:20.926Z</time>
      </trkpt>
      <trkpt lat="44.32549" lon="3.5795">
        <ele>801.9</ele>
        <time>2021-10-23T09:45:26.934Z</time>
      </trkpt>
      <trkpt lat="44.32552" lon="3.57947">
        <ele>801.7</ele>
        <time>2021-10-23T09:45:32.446Z</time>
      </trkpt>
      <trkpt lat="44.32556" lon="3.57944">
        <ele>800.7</ele>
        <time>2021-10-23T09:45:38.098Z</time>
      </trkpt>
      <trkpt lat="44.32561" lon="3.57942">
        <ele>799.6</ele>
        <time>2021-10-23T09:45:43.867Z</time>
      </trkpt>
      <trkpt lat="44.32566" lon="3.57939">
        <ele>798.6</ele>
        <time>2021-10-23T09:45:49.088Z</time>
      </trkpt>
      <trkpt lat="44.32567" lon="3.57936">
        <ele>799.1</ele>
        <time>2021-10-23T09:45:54.484Z</time>
      </trkpt>
      <trkpt lat="44.32566" lon="3.57921">
        <ele>805.1</ele>
        <time>2021-10-23T09:46:20.876Z</time>
      </trkpt>
      <trkpt lat="44.32566" lon="3.57912">
        <ele>808.1</ele>
        <time>2021-10-23T09:46:26.467Z</time>
      </trkpt>
      <trkpt lat="44.32566" lon="3.57905">
        <ele>809.7</ele>
        <time>2021-10-23T09:46:31.664Z</time>
      </trkpt>
      <trkpt lat="44.32566" lon="3.57899">
        <ele>811.4</ele>
        <time>2021-10-23T09:46:37.178Z</time>
      </trkpt>
      <trkpt lat="44.32567" lon="3.57895">
        <ele>812</ele>
        <time>2021-10-23T09:46:42.401Z</time>
      </trkpt>
      <trkpt lat="44.3257" lon="3.57893">
        <ele>810.7</ele>
        <time>2021-10-23T09:46:47.730Z</time>
      </trkpt>
      <trkpt lat="44.32574" lon="3.5789">
        <ele>809.1</ele>
        <time>2021-10-23T09:46:53.189Z</time>
      </trkpt>
      <trkpt lat="44.32578" lon="3.57886">
        <ele>807.4</ele>
        <time>2021-10-23T09:46:58.674Z</time>
      </trkpt>
      <trkpt lat="44.3258" lon="3.57879">
        <ele>807.2</ele>
        <time>2021-10-23T09:47:04.089Z</time>
      </trkpt>
      <trkpt lat="44.32582" lon="3.57869">
        <ele>806.9</ele>
        <time>2021-10-23T09:47:10.266Z</time>
      </trkpt>
      <trkpt lat="44.32584" lon="3.57859">
        <ele>807.1</ele>
        <time>2021-10-23T09:47:15.761Z</time>
      </trkpt>
      <trkpt lat="44.32582" lon="3.57852">
        <ele>808.6</ele>
        <time>2021-10-23T09:47:20.860Z</time>
      </trkpt>
      <trkpt lat="44.3258" lon="3.57847">
        <ele>810.9</ele>
        <time>2021-10-23T09:47:25.935Z</time>
      </trkpt>
      <trkpt lat="44.3258" lon="3.5784">
        <ele>811.7</ele>
        <time>2021-10-23T09:47:31.556Z</time>
      </trkpt>
      <trkpt lat="44.32583" lon="3.57832">
        <ele>811</ele>
        <time>2021-10-23T09:47:36.704Z</time>
      </trkpt>
      <trkpt lat="44.32585" lon="3.57826">
        <ele>812.3</ele>
        <time>2021-10-23T09:47:41.864Z</time>
      </trkpt>
      <trkpt lat="44.32587" lon="3.57821">
        <ele>813</ele>
        <time>2021-10-23T09:47:47.408Z</time>
      </trkpt>
      <trkpt lat="44.32588" lon="3.57816">
        <ele>814.9</ele>
        <time>2021-10-23T09:47:52.574Z</time>
      </trkpt>
      <trkpt lat="44.32588" lon="3.57809">
        <ele>817.5</ele>
        <time>2021-10-23T09:47:57.864Z</time>
      </trkpt>
      <trkpt lat="44.32589" lon="3.57803">
        <ele>819.7</ele>
        <time>2021-10-23T09:48:03.395Z</time>
      </trkpt>
      <trkpt lat="44.3259" lon="3.57796">
        <ele>822.2</ele>
        <time>2021-10-23T09:48:08.454Z</time>
      </trkpt>
      <trkpt lat="44.3259" lon="3.57792">
        <ele>824.1</ele>
        <time>2021-10-23T09:48:14.095Z</time>
      </trkpt>
      <trkpt lat="44.32591" lon="3.5779">
        <ele>824.8</ele>
        <time>2021-10-23T09:48:19.202Z</time>
      </trkpt>
      <trkpt lat="44.32593" lon="3.57786">
        <ele>825.9</ele>
        <time>2021-10-23T09:48:25.009Z</time>
      </trkpt>
      <trkpt lat="44.32594" lon="3.57784">
        <ele>826.6</ele>
        <time>2021-10-23T09:48:30.562Z</time>
      </trkpt>
      <trkpt lat="44.32593" lon="3.57783">
        <ele>827.1</ele>
        <time>2021-10-23T09:48:35.911Z</time>
      </trkpt>
      <trkpt lat="44.32597" lon="3.57778">
        <ele>828.6</ele>
        <time>2021-10-23T09:49:00.911Z</time>
      </trkpt>
      <trkpt lat="44.32603" lon="3.57771">
        <ele>830.4</ele>
        <time>2021-10-23T09:49:09.571Z</time>
      </trkpt>
      <trkpt lat="44.32607" lon="3.57768">
        <ele>830.3</ele>
        <time>2021-10-23T09:49:15.805Z</time>
      </trkpt>
      <trkpt lat="44.32622" lon="3.57752">
        <ele>831</ele>
        <time>2021-10-23T09:49:40.954Z</time>
      </trkpt>
      <trkpt lat="44.32627" lon="3.57745">
        <ele>832</ele>
        <time>2021-10-23T09:49:48.110Z</time>
      </trkpt>
      <trkpt lat="44.32631" lon="3.57741">
        <ele>831.8</ele>
        <time>2021-10-23T09:49:53.787Z</time>
      </trkpt>
      <trkpt lat="44.32631" lon="3.57738">
        <ele>832.7</ele>
        <time>2021-10-23T09:49:59.058Z</time>
      </trkpt>
      <trkpt lat="44.32629" lon="3.57734">
        <ele>835.6</ele>
        <time>2021-10-23T09:50:05.084Z</time>
      </trkpt>
      <trkpt lat="44.32633" lon="3.57728">
        <ele>836.3</ele>
        <time>2021-10-23T09:50:10.925Z</time>
      </trkpt>
      <trkpt lat="44.3264" lon="3.57723">
        <ele>835.5</ele>
        <time>2021-10-23T09:50:16.070Z</time>
      </trkpt>
      <trkpt lat="44.32647" lon="3.57719">
        <ele>836.8</ele>
        <time>2021-10-23T09:50:21.622Z</time>
      </trkpt>
      <trkpt lat="44.32652" lon="3.57715">
        <ele>838.5</ele>
        <time>2021-10-23T09:50:27.148Z</time>
      </trkpt>
      <trkpt lat="44.32656" lon="3.57711">
        <ele>839.9</ele>
        <time>2021-10-23T09:50:32.618Z</time>
      </trkpt>
      <trkpt lat="44.32661" lon="3.57708">
        <ele>840.9</ele>
        <time>2021-10-23T09:50:37.666Z</time>
      </trkpt>
      <trkpt lat="44.32666" lon="3.57706">
        <ele>841.5</ele>
        <time>2021-10-23T09:50:42.836Z</time>
      </trkpt>
      <trkpt lat="44.3267" lon="3.57704">
        <ele>841.5</ele>
        <time>2021-10-23T09:50:48.056Z</time>
      </trkpt>
      <trkpt lat="44.32675" lon="3.57702">
        <ele>841</ele>
        <time>2021-10-23T09:50:53.275Z</time>
      </trkpt>
      <trkpt lat="44.32679" lon="3.57699">
        <ele>840.9</ele>
        <time>2021-10-23T09:50:59.304Z</time>
      </trkpt>
      <trkpt lat="44.32681" lon="3.57696">
        <ele>841.1</ele>
        <time>2021-10-23T09:51:04.778Z</time>
      </trkpt>
      <trkpt lat="44.3268" lon="3.57694">
        <ele>842.5</ele>
        <time>2021-10-23T09:51:10.054Z</time>
      </trkpt>
      <trkpt lat="44.32681" lon="3.57691">
        <ele>842.9</ele>
        <time>2021-10-23T09:51:20.880Z</time>
      </trkpt>
      <trkpt lat="44.32683" lon="3.57689">
        <ele>842.7</ele>
        <time>2021-10-23T09:51:25.930Z</time>
      </trkpt>
      <trkpt lat="44.32687" lon="3.57686">
        <ele>842.7</ele>
        <time>2021-10-23T09:51:32.058Z</time>
      </trkpt>
      <trkpt lat="44.3269" lon="3.57682">
        <ele>842.9</ele>
        <time>2021-10-23T09:51:37.644Z</time>
      </trkpt>
      <trkpt lat="44.32694" lon="3.57678">
        <ele>842.5</ele>
        <time>2021-10-23T09:51:42.674Z</time>
      </trkpt>
      <trkpt lat="44.32698" lon="3.57673">
        <ele>842.3</ele>
        <time>2021-10-23T09:51:48.047Z</time>
      </trkpt>
      <trkpt lat="44.32695" lon="3.57669">
        <ele>845.1</ele>
        <time>2021-10-23T09:51:55.083Z</time>
      </trkpt>
      <trkpt lat="44.32696" lon="3.57666">
        <ele>845.5</ele>
        <time>2021-10-23T09:52:05.890Z</time>
      </trkpt>
      <trkpt lat="44.32694" lon="3.57664">
        <ele>846.7</ele>
        <time>2021-10-23T09:52:10.909Z</time>
      </trkpt>
      <trkpt lat="44.32693" lon="3.57667">
        <ele>846.7</ele>
        <time>2021-10-23T09:52:15.930Z</time>
      </trkpt>
      <trkpt lat="44.32693" lon="3.5766">
        <ele>848.3</ele>
        <time>2021-10-23T09:52:28.062Z</time>
      </trkpt>
      <trkpt lat="44.32694" lon="3.57661">
        <ele>847.5</ele>
        <time>2021-10-23T09:52:38.051Z</time>
      </trkpt>
      <trkpt lat="44.32693" lon="3.57663">
        <ele>847.4</ele>
        <time>2021-10-23T09:52:44.066Z</time>
      </trkpt>
      <trkpt lat="44.32693" lon="3.57665">
        <ele>847</ele>
        <time>2021-10-23T09:52:51.057Z</time>
      </trkpt>
      <trkpt lat="44.32692" lon="3.57665">
        <ele>847.4</ele>
        <time>2021-10-23T09:53:32.121Z</time>
      </trkpt>
      <trkpt lat="44.32695" lon="3.57659">
        <ele>847.5</ele>
        <time>2021-10-23T09:54:23.039Z</time>
      </trkpt>
      <trkpt lat="44.32696" lon="3.57649">
        <ele>848.9</ele>
        <time>2021-10-23T09:54:28.159Z</time>
      </trkpt>
      <trkpt lat="44.32698" lon="3.57642">
        <ele>849.4</ele>
        <time>2021-10-23T09:54:33.729Z</time>
      </trkpt>
      <trkpt lat="44.32699" lon="3.57635">
        <ele>850.7</ele>
        <time>2021-10-23T09:54:39.292Z</time>
      </trkpt>
      <trkpt lat="44.32702" lon="3.5763">
        <ele>851.3</ele>
        <time>2021-10-23T09:54:44.506Z</time>
      </trkpt>
      <trkpt lat="44.32703" lon="3.57623">
        <ele>852.8</ele>
        <time>2021-10-23T09:54:50.303Z</time>
      </trkpt>
      <trkpt lat="44.32709" lon="3.57615">
        <ele>853.4</ele>
        <time>2021-10-23T09:55:15.917Z</time>
      </trkpt>
      <trkpt lat="44.32714" lon="3.57611">
        <ele>853.2</ele>
        <time>2021-10-23T09:55:23.005Z</time>
      </trkpt>
      <trkpt lat="44.32721" lon="3.57607">
        <ele>853.3</ele>
        <time>2021-10-23T09:55:28.424Z</time>
      </trkpt>
      <trkpt lat="44.32726" lon="3.57603">
        <ele>854.6</ele>
        <time>2021-10-23T09:55:33.987Z</time>
      </trkpt>
      <trkpt lat="44.32731" lon="3.57597">
        <ele>856.6</ele>
        <time>2021-10-23T09:55:39.101Z</time>
      </trkpt>
      <trkpt lat="44.32736" lon="3.57593">
        <ele>858</ele>
        <time>2021-10-23T09:55:44.843Z</time>
      </trkpt>
      <trkpt lat="44.3274" lon="3.57591">
        <ele>858.6</ele>
        <time>2021-10-23T09:55:49.907Z</time>
      </trkpt>
      <trkpt lat="44.32744" lon="3.57587">
        <ele>860</ele>
        <time>2021-10-23T09:55:54.967Z</time>
      </trkpt>
      <trkpt lat="44.3275" lon="3.57583">
        <ele>861.4</ele>
        <time>2021-10-23T09:56:00.660Z</time>
      </trkpt>
      <trkpt lat="44.32755" lon="3.57582">
        <ele>860.3</ele>
        <time>2021-10-23T09:56:05.893Z</time>
      </trkpt>
      <trkpt lat="44.32758" lon="3.57578">
        <ele>861.3</ele>
        <time>2021-10-23T09:56:11.882Z</time>
      </trkpt>
      <trkpt lat="44.32756" lon="3.57575">
        <ele>863.5</ele>
        <time>2021-10-23T09:56:17.468Z</time>
      </trkpt>
      <trkpt lat="44.32755" lon="3.57571">
        <ele>865.1</ele>
        <time>2021-10-23T09:56:34.705Z</time>
      </trkpt>
      <trkpt lat="44.32759" lon="3.57568">
        <ele>865.2</ele>
        <time>2021-10-23T09:56:40.330Z</time>
      </trkpt>
      <trkpt lat="44.32762" lon="3.57566">
        <ele>865</ele>
        <time>2021-10-23T09:56:45.909Z</time>
      </trkpt>
      <trkpt lat="44.32767" lon="3.57557">
        <ele>866.8</ele>
        <time>2021-10-23T09:56:51.498Z</time>
      </trkpt>
      <trkpt lat="44.3277" lon="3.5755">
        <ele>868</ele>
        <time>2021-10-23T09:56:57.113Z</time>
      </trkpt>
      <trkpt lat="44.32773" lon="3.57543">
        <ele>869</ele>
        <time>2021-10-23T09:57:02.698Z</time>
      </trkpt>
      <trkpt lat="44.32783" lon="3.57533">
        <ele>867.1</ele>
        <time>2021-10-23T09:57:08.047Z</time>
      </trkpt>
      <trkpt lat="44.32788" lon="3.5753">
        <ele>865.8</ele>
        <time>2021-10-23T09:57:13.074Z</time>
      </trkpt>
      <trkpt lat="44.32792" lon="3.57524">
        <ele>866.3</ele>
        <time>2021-10-23T09:57:18.099Z</time>
      </trkpt>
      <trkpt lat="44.32794" lon="3.57519">
        <ele>867.9</ele>
        <time>2021-10-23T09:57:23.425Z</time>
      </trkpt>
      <trkpt lat="44.328" lon="3.57515">
        <ele>867</ele>
        <time>2021-10-23T09:57:40.008Z</time>
      </trkpt>
      <trkpt lat="44.32798" lon="3.57513">
        <ele>868.5</ele>
        <time>2021-10-23T09:57:45.017Z</time>
      </trkpt>
      <trkpt lat="44.32801" lon="3.57511">
        <ele>868.6</ele>
        <time>2021-10-23T09:57:50.104Z</time>
      </trkpt>
      <trkpt lat="44.32808" lon="3.5751">
        <ele>867.3</ele>
        <time>2021-10-23T09:57:55.451Z</time>
      </trkpt>
      <trkpt lat="44.32813" lon="3.57512">
        <ele>866</ele>
        <time>2021-10-23T09:58:00.595Z</time>
      </trkpt>
      <trkpt lat="44.32817" lon="3.57514">
        <ele>864.7</ele>
        <time>2021-10-23T09:58:05.880Z</time>
      </trkpt>
      <trkpt lat="44.3282" lon="3.57515">
        <ele>863.9</ele>
        <time>2021-10-23T09:58:10.914Z</time>
      </trkpt>
      <trkpt lat="44.32824" lon="3.57514">
        <ele>863.9</ele>
        <time>2021-10-23T09:58:15.920Z</time>
      </trkpt>
      <trkpt lat="44.32829" lon="3.57511">
        <ele>865.2</ele>
        <time>2021-10-23T09:58:20.941Z</time>
      </trkpt>
      <trkpt lat="44.32837" lon="3.57505">
        <ele>868</ele>
        <time>2021-10-23T09:58:28.592Z</time>
      </trkpt>
      <trkpt lat="44.32841" lon="3.57502">
        <ele>869</ele>
        <time>2021-10-23T09:58:33.719Z</time>
      </trkpt>
      <trkpt lat="44.32845" lon="3.57499">
        <ele>869.9</ele>
        <time>2021-10-23T09:58:39.169Z</time>
      </trkpt>
      <trkpt lat="44.3286" lon="3.5749">
        <ele>871.4</ele>
        <time>2021-10-23T09:59:05.913Z</time>
      </trkpt>
      <trkpt lat="44.32863" lon="3.57488">
        <ele>871.9</ele>
        <time>2021-10-23T09:59:11.064Z</time>
      </trkpt>
      <trkpt lat="44.32867" lon="3.57483">
        <ele>873.2</ele>
        <time>2021-10-23T09:59:16.208Z</time>
      </trkpt>
      <trkpt lat="44.32871" lon="3.57476">
        <ele>875</ele>
        <time>2021-10-23T09:59:21.346Z</time>
      </trkpt>
      <trkpt lat="44.32874" lon="3.5747">
        <ele>877.5</ele>
        <time>2021-10-23T09:59:26.831Z</time>
      </trkpt>
      <trkpt lat="44.32879" lon="3.57463">
        <ele>879.7</ele>
        <time>2021-10-23T09:59:32.280Z</time>
      </trkpt>
      <trkpt lat="44.32885" lon="3.57457">
        <ele>881.3</ele>
        <time>2021-10-23T09:59:37.926Z</time>
      </trkpt>
      <trkpt lat="44.3289" lon="3.57445">
        <ele>885.4</ele>
        <time>2021-10-23T09:59:43.194Z</time>
      </trkpt>
      <trkpt lat="44.32895" lon="3.57435">
        <ele>889.1</ele>
        <time>2021-10-23T09:59:48.767Z</time>
      </trkpt>
      <trkpt lat="44.32899" lon="3.57427">
        <ele>891.3</ele>
        <time>2021-10-23T09:59:54.068Z</time>
      </trkpt>
      <trkpt lat="44.32902" lon="3.57423">
        <ele>892.1</ele>
        <time>2021-10-23T09:59:59.589Z</time>
      </trkpt>
      <trkpt lat="44.32919" lon="3.57416">
        <ele>890.6</ele>
        <time>2021-10-23T10:00:25.885Z</time>
      </trkpt>
      <trkpt lat="44.32924" lon="3.57411">
        <ele>891</ele>
        <time>2021-10-23T10:00:30.924Z</time>
      </trkpt>
      <trkpt lat="44.3293" lon="3.57405">
        <ele>891.4</ele>
        <time>2021-10-23T10:00:38.079Z</time>
      </trkpt>
      <trkpt lat="44.32935" lon="3.574">
        <ele>892.1</ele>
        <time>2021-10-23T10:00:43.270Z</time>
      </trkpt>
      <trkpt lat="44.32939" lon="3.57395">
        <ele>892.3</ele>
        <time>2021-10-23T10:00:48.964Z</time>
      </trkpt>
      <trkpt lat="44.32942" lon="3.57392">
        <ele>892.8</ele>
        <time>2021-10-23T10:00:53.991Z</time>
      </trkpt>
      <trkpt lat="44.32949" lon="3.57384">
        <ele>893.4</ele>
        <time>2021-10-23T10:01:05.570Z</time>
      </trkpt>
      <trkpt lat="44.32955" lon="3.5738">
        <ele>893.4</ele>
        <time>2021-10-23T10:01:10.645Z</time>
      </trkpt>
      <trkpt lat="44.32959" lon="3.57377">
        <ele>893</ele>
        <time>2021-10-23T10:01:15.915Z</time>
      </trkpt>
      <trkpt lat="44.32964" lon="3.57375">
        <ele>892.5</ele>
        <time>2021-10-23T10:01:20.930Z</time>
      </trkpt>
      <trkpt lat="44.32971" lon="3.57371">
        <ele>892.1</ele>
        <time>2021-10-23T10:01:27.436Z</time>
      </trkpt>
      <trkpt lat="44.32977" lon="3.57366">
        <ele>893.2</ele>
        <time>2021-10-23T10:01:33.063Z</time>
      </trkpt>
      <trkpt lat="44.32982" lon="3.57362">
        <ele>894</ele>
        <time>2021-10-23T10:01:38.484Z</time>
      </trkpt>
      <trkpt lat="44.32987" lon="3.57358">
        <ele>894.8</ele>
        <time>2021-10-23T10:01:44.335Z</time>
      </trkpt>
      <trkpt lat="44.32989" lon="3.57356">
        <ele>895.5</ele>
        <time>2021-10-23T10:01:49.573Z</time>
      </trkpt>
      <trkpt lat="44.32992" lon="3.57354">
        <ele>895.9</ele>
        <time>2021-10-23T10:01:55.169Z</time>
      </trkpt>
      <trkpt lat="44.32998" lon="3.57351">
        <ele>896.3</ele>
        <time>2021-10-23T10:02:00.551Z</time>
      </trkpt>
      <trkpt lat="44.33002" lon="3.57346">
        <ele>897.7</ele>
        <time>2021-10-23T10:02:05.918Z</time>
      </trkpt>
      <trkpt lat="44.33006" lon="3.57343">
        <ele>898</ele>
        <time>2021-10-23T10:02:10.935Z</time>
      </trkpt>
      <trkpt lat="44.33011" lon="3.57337">
        <ele>899.5</ele>
        <time>2021-10-23T10:02:17.337Z</time>
      </trkpt>
      <trkpt lat="44.33015" lon="3.57334">
        <ele>899.9</ele>
        <time>2021-10-23T10:02:22.389Z</time>
      </trkpt>
      <trkpt lat="44.33019" lon="3.57332">
        <ele>900</ele>
        <time>2021-10-23T10:02:27.886Z</time>
      </trkpt>
      <trkpt lat="44.33021" lon="3.57329">
        <ele>900.8</ele>
        <time>2021-10-23T10:02:33.006Z</time>
      </trkpt>
      <trkpt lat="44.33025" lon="3.57325">
        <ele>901.6</ele>
        <time>2021-10-23T10:02:38.074Z</time>
      </trkpt>
      <trkpt lat="44.33029" lon="3.57322">
        <ele>901.8</ele>
        <time>2021-10-23T10:02:43.174Z</time>
      </trkpt>
      <trkpt lat="44.33034" lon="3.57319">
        <ele>901.5</ele>
        <time>2021-10-23T10:02:48.758Z</time>
      </trkpt>
      <trkpt lat="44.33038" lon="3.57315">
        <ele>901.9</ele>
        <time>2021-10-23T10:02:54.071Z</time>
      </trkpt>
      <trkpt lat="44.33043" lon="3.57311">
        <ele>902.1</ele>
        <time>2021-10-23T10:02:59.167Z</time>
      </trkpt>
      <trkpt lat="44.33046" lon="3.57307">
        <ele>902.7</ele>
        <time>2021-10-23T10:03:04.386Z</time>
      </trkpt>
      <trkpt lat="44.33052" lon="3.57296">
        <ele>905.1</ele>
        <time>2021-10-23T10:03:20.930Z</time>
      </trkpt>
      <trkpt lat="44.33059" lon="3.5729">
        <ele>904.7</ele>
        <time>2021-10-23T10:03:26.652Z</time>
      </trkpt>
      <trkpt lat="44.33064" lon="3.57284">
        <ele>904.1</ele>
        <time>2021-10-23T10:03:31.868Z</time>
      </trkpt>
      <trkpt lat="44.33068" lon="3.5728">
        <ele>904.2</ele>
        <time>2021-10-23T10:03:37.057Z</time>
      </trkpt>
      <trkpt lat="44.33068" lon="3.57273">
        <ele>906.4</ele>
        <time>2021-10-23T10:03:42.468Z</time>
      </trkpt>
      <trkpt lat="44.33068" lon="3.57267">
        <ele>909</ele>
        <time>2021-10-23T10:03:47.937Z</time>
      </trkpt>
      <trkpt lat="44.3307" lon="3.57261">
        <ele>910.6</ele>
        <time>2021-10-23T10:03:53.047Z</time>
      </trkpt>
      <trkpt lat="44.33071" lon="3.57254">
        <ele>912.4</ele>
        <time>2021-10-23T10:03:58.557Z</time>
      </trkpt>
      <trkpt lat="44.33074" lon="3.57249">
        <ele>912.8</ele>
        <time>2021-10-23T10:04:04.087Z</time>
      </trkpt>
      <trkpt lat="44.33077" lon="3.57246">
        <ele>912.9</ele>
        <time>2021-10-23T10:04:09.902Z</time>
      </trkpt>
      <trkpt lat="44.33079" lon="3.57248">
        <ele>910.8</ele>
        <time>2021-10-23T10:05:05.913Z</time>
      </trkpt>
      <trkpt lat="44.3308" lon="3.57248">
        <ele>910.8</ele>
        <time>2021-10-23T10:06:35.928Z</time>
      </trkpt>
      <trkpt lat="44.33079" lon="3.57241">
        <ele>913.6</ele>
        <time>2021-10-23T10:06:44.055Z</time>
      </trkpt>
      <trkpt lat="44.3308" lon="3.57243">
        <ele>912.6</ele>
        <time>2021-10-23T10:06:49.094Z</time>
      </trkpt>
      <trkpt lat="44.3308" lon="3.57244">
        <ele>911.9</ele>
        <time>2021-10-23T10:06:55.913Z</time>
      </trkpt>
      <trkpt lat="44.33081" lon="3.57246">
        <ele>910.8</ele>
        <time>2021-10-23T10:07:05.948Z</time>
      </trkpt>
      <trkpt lat="44.33084" lon="3.5724">
        <ele>911.2</ele>
        <time>2021-10-23T10:11:15.941Z</time>
      </trkpt>
      <trkpt lat="44.33085" lon="3.57233">
        <ele>913.3</ele>
        <time>2021-10-23T10:11:20.958Z</time>
      </trkpt>
      <trkpt lat="44.33089" lon="3.5722">
        <ele>916</ele>
        <time>2021-10-23T10:11:29.065Z</time>
      </trkpt>
      <trkpt lat="44.33092" lon="3.5721">
        <ele>917.5</ele>
        <time>2021-10-23T10:11:34.651Z</time>
      </trkpt>
      <trkpt lat="44.33095" lon="3.57201">
        <ele>918.7</ele>
        <time>2021-10-23T10:11:40.013Z</time>
      </trkpt>
      <trkpt lat="44.33099" lon="3.57195">
        <ele>918.7</ele>
        <time>2021-10-23T10:11:45.943Z</time>
      </trkpt>
      <trkpt lat="44.33102" lon="3.57187">
        <ele>918.9</ele>
        <time>2021-10-23T10:11:52.420Z</time>
      </trkpt>
      <trkpt lat="44.33105" lon="3.57179">
        <ele>919.2</ele>
        <time>2021-10-23T10:11:57.926Z</time>
      </trkpt>
      <trkpt lat="44.33106" lon="3.57172">
        <ele>919.8</ele>
        <time>2021-10-23T10:12:03.042Z</time>
      </trkpt>
      <trkpt lat="44.33109" lon="3.57168">
        <ele>918.9</ele>
        <time>2021-10-23T10:12:08.481Z</time>
      </trkpt>
      <trkpt lat="44.33114" lon="3.5716">
        <ele>918.3</ele>
        <time>2021-10-23T10:12:14.063Z</time>
      </trkpt>
      <trkpt lat="44.33116" lon="3.57152">
        <ele>919.3</ele>
        <time>2021-10-23T10:12:19.944Z</time>
      </trkpt>
      <trkpt lat="44.33115" lon="3.57143">
        <ele>921.6</ele>
        <time>2021-10-23T10:12:25.043Z</time>
      </trkpt>
      <trkpt lat="44.33112" lon="3.57131">
        <ele>925.6</ele>
        <time>2021-10-23T10:12:30.086Z</time>
      </trkpt>
      <trkpt lat="44.3311" lon="3.57128">
        <ele>927.1</ele>
        <time>2021-10-23T10:12:35.407Z</time>
      </trkpt>
      <trkpt lat="44.33114" lon="3.57112">
        <ele>927.3</ele>
        <time>2021-10-23T10:13:08.009Z</time>
      </trkpt>
      <trkpt lat="44.33112" lon="3.57098">
        <ele>929.6</ele>
        <time>2021-10-23T10:13:13.875Z</time>
      </trkpt>
      <trkpt lat="44.33112" lon="3.57089">
        <ele>930.7</ele>
        <time>2021-10-23T10:13:19.052Z</time>
      </trkpt>
      <trkpt lat="44.33111" lon="3.5708">
        <ele>932.8</ele>
        <time>2021-10-23T10:13:24.128Z</time>
      </trkpt>
      <trkpt lat="44.33106" lon="3.57075">
        <ele>937.1</ele>
        <time>2021-10-23T10:13:29.888Z</time>
      </trkpt>
      <trkpt lat="44.33106" lon="3.57068">
        <ele>938.1</ele>
        <time>2021-10-23T10:13:35.056Z</time>
      </trkpt>
      <trkpt lat="44.33108" lon="3.57062">
        <ele>937.7</ele>
        <time>2021-10-23T10:13:40.576Z</time>
      </trkpt>
      <trkpt lat="44.33113" lon="3.57051">
        <ele>937.3</ele>
        <time>2021-10-23T10:14:00.905Z</time>
      </trkpt>
      <trkpt lat="44.33114" lon="3.57042">
        <ele>938.9</ele>
        <time>2021-10-23T10:14:07.639Z</time>
      </trkpt>
      <trkpt lat="44.33116" lon="3.57037">
        <ele>939</ele>
        <time>2021-10-23T10:14:12.748Z</time>
      </trkpt>
      <trkpt lat="44.33119" lon="3.57029">
        <ele>939.4</ele>
        <time>2021-10-23T10:14:18.329Z</time>
      </trkpt>
      <trkpt lat="44.33125" lon="3.57022">
        <ele>938.7</ele>
        <time>2021-10-23T10:14:24.131Z</time>
      </trkpt>
      <trkpt lat="44.3313" lon="3.57015">
        <ele>937.8</ele>
        <time>2021-10-23T10:14:29.845Z</time>
      </trkpt>
      <trkpt lat="44.33133" lon="3.57007">
        <ele>938.6</ele>
        <time>2021-10-23T10:14:35.582Z</time>
      </trkpt>
      <trkpt lat="44.33135" lon="3.56999">
        <ele>940.1</ele>
        <time>2021-10-23T10:14:40.593Z</time>
      </trkpt>
      <trkpt lat="44.33138" lon="3.56993">
        <ele>940.8</ele>
        <time>2021-10-23T10:14:45.669Z</time>
      </trkpt>
      <trkpt lat="44.33139" lon="3.56988">
        <ele>942</ele>
        <time>2021-10-23T10:14:50.917Z</time>
      </trkpt>
      <trkpt lat="44.33147" lon="3.56978">
        <ele>943</ele>
        <time>2021-10-23T10:15:13.778Z</time>
      </trkpt>
      <trkpt lat="44.33148" lon="3.56973">
        <ele>944.1</ele>
        <time>2021-10-23T10:15:19.398Z</time>
      </trkpt>
      <trkpt lat="44.33152" lon="3.56966">
        <ele>945.1</ele>
        <time>2021-10-23T10:15:24.536Z</time>
      </trkpt>
      <trkpt lat="44.33156" lon="3.5696">
        <ele>945.7</ele>
        <time>2021-10-23T10:15:29.568Z</time>
      </trkpt>
      <trkpt lat="44.33159" lon="3.56955">
        <ele>946.1</ele>
        <time>2021-10-23T10:15:34.744Z</time>
      </trkpt>
      <trkpt lat="44.33164" lon="3.56951">
        <ele>945.4</ele>
        <time>2021-10-23T10:15:40.811Z</time>
      </trkpt>
      <trkpt lat="44.33168" lon="3.56945">
        <ele>945.6</ele>
        <time>2021-10-23T10:15:45.891Z</time>
      </trkpt>
      <trkpt lat="44.3317" lon="3.56939">
        <ele>947.3</ele>
        <time>2021-10-23T10:15:50.916Z</time>
      </trkpt>
      <trkpt lat="44.33172" lon="3.56934">
        <ele>948.3</ele>
        <time>2021-10-23T10:15:55.946Z</time>
      </trkpt>
      <trkpt lat="44.33169" lon="3.56925">
        <ele>952.1</ele>
        <time>2021-10-23T10:16:02.389Z</time>
      </trkpt>
      <trkpt lat="44.33168" lon="3.56917">
        <ele>955.2</ele>
        <time>2021-10-23T10:16:07.773Z</time>
      </trkpt>
      <trkpt lat="44.33168" lon="3.56916">
        <ele>955.8</ele>
        <time>2021-10-23T10:16:13.048Z</time>
      </trkpt>
      <trkpt lat="44.3317" lon="3.56912">
        <ele>956.4</ele>
        <time>2021-10-23T10:16:18.543Z</time>
      </trkpt>
      <trkpt lat="44.33172" lon="3.56909">
        <ele>957.1</ele>
        <time>2021-10-23T10:16:23.721Z</time>
      </trkpt>
      <trkpt lat="44.33175" lon="3.56902">
        <ele>959.1</ele>
        <time>2021-10-23T10:16:50.124Z</time>
      </trkpt>
      <trkpt lat="44.33179" lon="3.56897">
        <ele>959.8</ele>
        <time>2021-10-23T10:16:55.370Z</time>
      </trkpt>
      <trkpt lat="44.33179" lon="3.56894">
        <ele>960.9</ele>
        <time>2021-10-23T10:17:00.884Z</time>
      </trkpt>
      <trkpt lat="44.33184" lon="3.5689">
        <ele>961.3</ele>
        <time>2021-10-23T10:17:30.948Z</time>
      </trkpt>
      <trkpt lat="44.33184" lon="3.56887">
        <ele>962.3</ele>
        <time>2021-10-23T10:18:13.067Z</time>
      </trkpt>
      <trkpt lat="44.33182" lon="3.56883">
        <ele>964.1</ele>
        <time>2021-10-23T10:18:19.068Z</time>
      </trkpt>
      <trkpt lat="44.33181" lon="3.56881">
        <ele>965.1</ele>
        <time>2021-10-23T10:18:25.970Z</time>
      </trkpt>
      <trkpt lat="44.33181" lon="3.56877">
        <ele>966.7</ele>
        <time>2021-10-23T10:18:33.726Z</time>
      </trkpt>
      <trkpt lat="44.3318" lon="3.56879">
        <ele>966.5</ele>
        <time>2021-10-23T10:18:40.911Z</time>
      </trkpt>
      <trkpt lat="44.33179" lon="3.56879">
        <ele>966.6</ele>
        <time>2021-10-23T10:19:00.898Z</time>
      </trkpt>
      <trkpt lat="44.33179" lon="3.56876">
        <ele>967.5</ele>
        <time>2021-10-23T10:19:15.921Z</time>
      </trkpt>
      <trkpt lat="44.33181" lon="3.56875">
        <ele>967.3</ele>
        <time>2021-10-23T10:20:59.065Z</time>
      </trkpt>
      <trkpt lat="44.3319" lon="3.56869">
        <ele>966.5</ele>
        <time>2021-10-23T10:21:20.910Z</time>
      </trkpt>
      <trkpt lat="44.33194" lon="3.56867">
        <ele>965.5</ele>
        <time>2021-10-23T10:21:25.934Z</time>
      </trkpt>
      <trkpt lat="44.332" lon="3.56859">
        <ele>966.1</ele>
        <time>2021-10-23T10:21:33.054Z</time>
      </trkpt>
      <trkpt lat="44.33206" lon="3.56853">
        <ele>966.8</ele>
        <time>2021-10-23T10:21:38.964Z</time>
      </trkpt>
      <trkpt lat="44.3321" lon="3.56849">
        <ele>967</ele>
        <time>2021-10-23T10:21:44.237Z</time>
      </trkpt>
      <trkpt lat="44.33212" lon="3.56846">
        <ele>967.3</ele>
        <time>2021-10-23T10:21:49.568Z</time>
      </trkpt>
      <trkpt lat="44.33215" lon="3.56842">
        <ele>968.1</ele>
        <time>2021-10-23T10:21:54.592Z</time>
      </trkpt>
      <trkpt lat="44.33218" lon="3.56835">
        <ele>969.4</ele>
        <time>2021-10-23T10:22:00.032Z</time>
      </trkpt>
      <trkpt lat="44.33222" lon="3.56825">
        <ele>970.7</ele>
        <time>2021-10-23T10:22:05.646Z</time>
      </trkpt>
      <trkpt lat="44.33226" lon="3.56816">
        <ele>972</ele>
        <time>2021-10-23T10:22:10.945Z</time>
      </trkpt>
      <trkpt lat="44.3323" lon="3.56807">
        <ele>973.2</ele>
        <time>2021-10-23T10:22:15.951Z</time>
      </trkpt>
      <trkpt lat="44.33231" lon="3.56802">
        <ele>974.3</ele>
        <time>2021-10-23T10:22:21.071Z</time>
      </trkpt>
      <trkpt lat="44.33233" lon="3.56791">
        <ele>977.2</ele>
        <time>2021-10-23T10:22:30.925Z</time>
      </trkpt>
      <trkpt lat="44.33234" lon="3.56781">
        <ele>980</ele>
        <time>2021-10-23T10:22:37.507Z</time>
      </trkpt>
      <trkpt lat="44.33234" lon="3.56775">
        <ele>981.9</ele>
        <time>2021-10-23T10:22:43.023Z</time>
      </trkpt>
      <trkpt lat="44.33233" lon="3.56781">
        <ele>980.5</ele>
        <time>2021-10-23T10:22:54.791Z</time>
      </trkpt>
      <trkpt lat="44.33232" lon="3.56786">
        <ele>979.4</ele>
        <time>2021-10-23T10:22:59.841Z</time>
      </trkpt>
      <trkpt lat="44.33232" lon="3.56792">
        <ele>977.3</ele>
        <time>2021-10-23T10:23:05.033Z</time>
      </trkpt>
      <trkpt lat="44.3323" lon="3.56797">
        <ele>976.7</ele>
        <time>2021-10-23T10:23:10.258Z</time>
      </trkpt>
      <trkpt lat="44.33226" lon="3.56798">
        <ele>977.6</ele>
        <time>2021-10-23T10:23:15.870Z</time>
      </trkpt>
      <trkpt lat="44.33222" lon="3.56801">
        <ele>978.8</ele>
        <time>2021-10-23T10:23:20.906Z</time>
      </trkpt>
      <trkpt lat="44.33216" lon="3.56802">
        <ele>981</ele>
        <time>2021-10-23T10:23:25.946Z</time>
      </trkpt>
      <trkpt lat="44.33209" lon="3.56803">
        <ele>983.7</ele>
        <time>2021-10-23T10:23:32.535Z</time>
      </trkpt>
      <trkpt lat="44.33203" lon="3.56801">
        <ele>986.8</ele>
        <time>2021-10-23T10:23:38.209Z</time>
      </trkpt>
      <trkpt lat="44.33199" lon="3.56805">
        <ele>987.4</ele>
        <time>2021-10-23T10:23:43.869Z</time>
      </trkpt>
      <trkpt lat="44.33195" lon="3.56808">
        <ele>987.7</ele>
        <time>2021-10-23T10:23:49.205Z</time>
      </trkpt>
      <trkpt lat="44.3319" lon="3.5681">
        <ele>988.9</ele>
        <time>2021-10-23T10:23:54.534Z</time>
      </trkpt>
      <trkpt lat="44.33184" lon="3.56813">
        <ele>989.4</ele>
        <time>2021-10-23T10:24:00.044Z</time>
      </trkpt>
      <trkpt lat="44.33181" lon="3.56819">
        <ele>988.3</ele>
        <time>2021-10-23T10:24:05.444Z</time>
      </trkpt>
      <trkpt lat="44.33179" lon="3.56827">
        <ele>986.3</ele>
        <time>2021-10-23T10:24:10.838Z</time>
      </trkpt>
      <trkpt lat="44.33178" lon="3.56833">
        <ele>984.4</ele>
        <time>2021-10-23T10:24:15.958Z</time>
      </trkpt>
      <trkpt lat="44.33175" lon="3.56836">
        <ele>984.2</ele>
        <time>2021-10-23T10:24:21.721Z</time>
      </trkpt>
      <trkpt lat="44.33173" lon="3.56839">
        <ele>984</ele>
        <time>2021-10-23T10:24:26.958Z</time>
      </trkpt>
      <trkpt lat="44.33171" lon="3.56843">
        <ele>983</ele>
        <time>2021-10-23T10:24:32.542Z</time>
      </trkpt>
      <trkpt lat="44.33168" lon="3.56844">
        <ele>983.8</ele>
        <time>2021-10-23T10:24:37.636Z</time>
      </trkpt>
      <trkpt lat="44.33163" lon="3.56845">
        <ele>984.5</ele>
        <time>2021-10-23T10:24:42.863Z</time>
      </trkpt>
      <trkpt lat="44.33156" lon="3.56849">
        <ele>985</ele>
        <time>2021-10-23T10:24:48.510Z</time>
      </trkpt>
      <trkpt lat="44.3315" lon="3.56847">
        <ele>986.7</ele>
        <time>2021-10-23T10:24:54.155Z</time>
      </trkpt>
      <trkpt lat="44.33146" lon="3.56835">
        <ele>991.2</ele>
        <time>2021-10-23T10:24:59.626Z</time>
      </trkpt>
      <trkpt lat="44.33143" lon="3.56829">
        <ele>993.5</ele>
        <time>2021-10-23T10:25:05.112Z</time>
      </trkpt>
      <trkpt lat="44.33138" lon="3.56828">
        <ele>994.7</ele>
        <time>2021-10-23T10:25:10.451Z</time>
      </trkpt>
      <trkpt lat="44.33133" lon="3.56826">
        <ele>996.7</ele>
        <time>2021-10-23T10:25:15.901Z</time>
      </trkpt>
      <trkpt lat="44.33129" lon="3.56823">
        <ele>998.5</ele>
        <time>2021-10-23T10:25:20.973Z</time>
      </trkpt>
      <trkpt lat="44.33126" lon="3.56822">
        <ele>999.5</ele>
        <time>2021-10-23T10:25:27.090Z</time>
      </trkpt>
      <trkpt lat="44.33123" lon="3.56823">
        <ele>999.8</ele>
        <time>2021-10-23T10:25:32.098Z</time>
      </trkpt>
      <trkpt lat="44.3312" lon="3.56828">
        <ele>998.9</ele>
        <time>2021-10-23T10:25:37.318Z</time>
      </trkpt>
      <trkpt lat="44.3311" lon="3.56832">
        <ele>999.6</ele>
        <time>2021-10-23T10:25:42.769Z</time>
      </trkpt>
      <trkpt lat="44.33105" lon="3.56835">
        <ele>1000</ele>
        <time>2021-10-23T10:25:47.927Z</time>
      </trkpt>
      <trkpt lat="44.33099" lon="3.56839">
        <ele>1000.2</ele>
        <time>2021-10-23T10:25:52.990Z</time>
      </trkpt>
      <trkpt lat="44.33094" lon="3.56841">
        <ele>1000.7</ele>
        <time>2021-10-23T10:25:58.042Z</time>
      </trkpt>
      <trkpt lat="44.33092" lon="3.56843">
        <ele>1000.9</ele>
        <time>2021-10-23T10:26:03.609Z</time>
      </trkpt>
      <trkpt lat="44.3309" lon="3.56841">
        <ele>1001.7</ele>
        <time>2021-10-23T10:26:08.966Z</time>
      </trkpt>
      <trkpt lat="44.33087" lon="3.5684">
        <ele>1002.7</ele>
        <time>2021-10-23T10:26:15.937Z</time>
      </trkpt>
      <trkpt lat="44.33072" lon="3.56838">
        <ele>1005.5</ele>
        <time>2021-10-23T10:26:25.505Z</time>
      </trkpt>
      <trkpt lat="44.33067" lon="3.56837">
        <ele>1006.4</ele>
        <time>2021-10-23T10:26:30.980Z</time>
      </trkpt>
      <trkpt lat="44.33062" lon="3.56837">
        <ele>1007.2</ele>
        <time>2021-10-23T10:26:36.600Z</time>
      </trkpt>
      <trkpt lat="44.33061" lon="3.56836">
        <ele>1007.4</ele>
        <time>2021-10-23T10:26:44.074Z</time>
      </trkpt>
      <trkpt lat="44.3306" lon="3.56836">
        <ele>1007.8</ele>
        <time>2021-10-23T10:26:53.623Z</time>
      </trkpt>
      <trkpt lat="44.33054" lon="3.56834">
        <ele>1009.1</ele>
        <time>2021-10-23T10:26:59.051Z</time>
      </trkpt>
      <trkpt lat="44.33042" lon="3.56837">
        <ele>1009.6</ele>
        <time>2021-10-23T10:27:04.384Z</time>
      </trkpt>
      <trkpt lat="44.33035" lon="3.56841">
        <ele>1009.7</ele>
        <time>2021-10-23T10:27:10.044Z</time>
      </trkpt>
      <trkpt lat="44.33027" lon="3.5684">
        <ele>1011.1</ele>
        <time>2021-10-23T10:27:15.695Z</time>
      </trkpt>
      <trkpt lat="44.33024" lon="3.56836">
        <ele>1012.1</ele>
        <time>2021-10-23T10:27:20.927Z</time>
      </trkpt>
      <trkpt lat="44.33017" lon="3.56831">
        <ele>1013.9</ele>
        <time>2021-10-23T10:27:27.082Z</time>
      </trkpt>
      <trkpt lat="44.33016" lon="3.56834">
        <ele>1013.7</ele>
        <time>2021-10-23T10:27:32.109Z</time>
      </trkpt>
      <trkpt lat="44.33015" lon="3.56836">
        <ele>1013.5</ele>
        <time>2021-10-23T10:27:37.115Z</time>
      </trkpt>
      <trkpt lat="44.33014" lon="3.56841">
        <ele>1013.2</ele>
        <time>2021-10-23T10:27:44.050Z</time>
      </trkpt>
      <trkpt lat="44.33015" lon="3.56843">
        <ele>1012.9</ele>
        <time>2021-10-23T10:27:50.919Z</time>
      </trkpt>
      <trkpt lat="44.33018" lon="3.56842">
        <ele>1012.3</ele>
        <time>2021-10-23T10:27:58.037Z</time>
      </trkpt>
      <trkpt lat="44.33019" lon="3.56841">
        <ele>1012.2</ele>
        <time>2021-10-23T10:28:05.074Z</time>
      </trkpt>
      <trkpt lat="44.33021" lon="3.56843">
        <ele>1011.6</ele>
        <time>2021-10-23T10:28:10.921Z</time>
      </trkpt>
      <trkpt lat="44.33023" lon="3.56842">
        <ele>1011.5</ele>
        <time>2021-10-23T10:28:18.094Z</time>
      </trkpt>
      <trkpt lat="44.33024" lon="3.5684">
        <ele>1011.6</ele>
        <time>2021-10-23T10:28:26.061Z</time>
      </trkpt>
      <trkpt lat="44.33022" lon="3.56841">
        <ele>1011.7</ele>
        <time>2021-10-23T10:28:31.237Z</time>
      </trkpt>
      <trkpt lat="44.33015" lon="3.56838">
        <ele>1013.4</ele>
        <time>2021-10-23T10:28:36.982Z</time>
      </trkpt>
      <trkpt lat="44.33006" lon="3.56832">
        <ele>1015.2</ele>
        <time>2021-10-23T10:28:42.700Z</time>
      </trkpt>
      <trkpt lat="44.32998" lon="3.56824">
        <ele>1016.9</ele>
        <time>2021-10-23T10:28:48.025Z</time>
      </trkpt>
      <trkpt lat="44.32991" lon="3.56816">
        <ele>1018.2</ele>
        <time>2021-10-23T10:28:54.215Z</time>
      </trkpt>
      <trkpt lat="44.32985" lon="3.56812">
        <ele>1018.8</ele>
        <time>2021-10-23T10:28:59.698Z</time>
      </trkpt>
      <trkpt lat="44.32982" lon="3.56809">
        <ele>1019.2</ele>
        <time>2021-10-23T10:29:05.060Z</time>
      </trkpt>
      <trkpt lat="44.32984" lon="3.56821">
        <ele>1018.7</ele>
        <time>2021-10-23T10:29:20.935Z</time>
      </trkpt>
      <trkpt lat="44.32982" lon="3.56822">
        <ele>1018.9</ele>
        <time>2021-10-23T10:29:35.882Z</time>
      </trkpt>
      <trkpt lat="44.32985" lon="3.56813">
        <ele>1018.9</ele>
        <time>2021-10-23T10:29:55.925Z</time>
      </trkpt>
      <trkpt lat="44.32985" lon="3.5681">
        <ele>1018.9</ele>
        <time>2021-10-23T10:30:01.083Z</time>
      </trkpt>
      <trkpt lat="44.32982" lon="3.56803">
        <ele>1019.3</ele>
        <time>2021-10-23T10:30:09.936Z</time>
      </trkpt>
      <trkpt lat="44.32978" lon="3.568">
        <ele>1019.6</ele>
        <time>2021-10-23T10:30:15.139Z</time>
      </trkpt>
      <trkpt lat="44.32977" lon="3.56799">
        <ele>1019.6</ele>
        <time>2021-10-23T10:30:20.147Z</time>
      </trkpt>
      <trkpt lat="44.32976" lon="3.56798">
        <ele>1019.6</ele>
        <time>2021-10-23T10:30:26.117Z</time>
      </trkpt>
      <trkpt lat="44.32972" lon="3.56795">
        <ele>1019.6</ele>
        <time>2021-10-23T10:30:35.948Z</time>
      </trkpt>
      <trkpt lat="44.32971" lon="3.56786">
        <ele>1019.3</ele>
        <time>2021-10-23T10:30:40.952Z</time>
      </trkpt>
      <trkpt lat="44.32972" lon="3.56775">
        <ele>1019.1</ele>
        <time>2021-10-23T10:30:45.967Z</time>
      </trkpt>
      <trkpt lat="44.32974" lon="3.56758">
        <ele>1019.9</ele>
        <time>2021-10-23T10:30:53.943Z</time>
      </trkpt>
      <trkpt lat="44.32977" lon="3.56744">
        <ele>1020.5</ele>
        <time>2021-10-23T10:30:59.769Z</time>
      </trkpt>
      <trkpt lat="44.32977" lon="3.56736">
        <ele>1020.5</ele>
        <time>2021-10-23T10:31:05.224Z</time>
      </trkpt>
      <trkpt lat="44.32976" lon="3.56722">
        <ele>1020.4</ele>
        <time>2021-10-23T10:31:10.251Z</time>
      </trkpt>
      <trkpt lat="44.32976" lon="3.56718">
        <ele>1020.4</ele>
        <time>2021-10-23T10:31:15.931Z</time>
      </trkpt>
      <trkpt lat="44.32976" lon="3.56719">
        <ele>1020.4</ele>
        <time>2021-10-23T10:31:20.948Z</time>
      </trkpt>
      <trkpt lat="44.32973" lon="3.56704">
        <ele>1020.1</ele>
        <time>2021-10-23T10:31:26.121Z</time>
      </trkpt>
      <trkpt lat="44.32974" lon="3.56696">
        <ele>1020.1</ele>
        <time>2021-10-23T10:31:31.764Z</time>
      </trkpt>
      <trkpt lat="44.32976" lon="3.56691">
        <ele>1020.4</ele>
        <time>2021-10-23T10:31:36.859Z</time>
      </trkpt>
      <trkpt lat="44.32976" lon="3.5669">
        <ele>1020.4</ele>
        <time>2021-10-23T10:31:41.929Z</time>
      </trkpt>
      <trkpt lat="44.32974" lon="3.56688">
        <ele>1020.2</ele>
        <time>2021-10-23T10:31:47.522Z</time>
      </trkpt>
      <trkpt lat="44.32971" lon="3.56685">
        <ele>1019.7</ele>
        <time>2021-10-23T10:32:00.927Z</time>
      </trkpt>
      <trkpt lat="44.32969" lon="3.56673">
        <ele>1019.4</ele>
        <time>2021-10-23T10:32:09.277Z</time>
      </trkpt>
      <trkpt lat="44.32967" lon="3.5666">
        <ele>1019.1</ele>
        <time>2021-10-23T10:32:15.914Z</time>
      </trkpt>
      <trkpt lat="44.32965" lon="3.56649">
        <ele>1018.8</ele>
        <time>2021-10-23T10:32:20.974Z</time>
      </trkpt>
      <trkpt lat="44.32958" lon="3.56642">
        <ele>1017.9</ele>
        <time>2021-10-23T10:32:27.038Z</time>
      </trkpt>
      <trkpt lat="44.32953" lon="3.56632">
        <ele>1018</ele>
        <time>2021-10-23T10:32:32.191Z</time>
      </trkpt>
      <trkpt lat="44.32947" lon="3.56623">
        <ele>1018.5</ele>
        <time>2021-10-23T10:32:37.943Z</time>
      </trkpt>
      <trkpt lat="44.32943" lon="3.56615">
        <ele>1019.2</ele>
        <time>2021-10-23T10:32:43.029Z</time>
      </trkpt>
      <trkpt lat="44.32936" lon="3.56611">
        <ele>1019.4</ele>
        <time>2021-10-23T10:32:48.066Z</time>
      </trkpt>
      <trkpt lat="44.3293" lon="3.56605">
        <ele>1019.5</ele>
        <time>2021-10-23T10:32:53.278Z</time>
      </trkpt>
      <trkpt lat="44.32923" lon="3.56596">
        <ele>1020</ele>
        <time>2021-10-23T10:32:58.834Z</time>
      </trkpt>
      <trkpt lat="44.3292" lon="3.56587">
        <ele>1020.7</ele>
        <time>2021-10-23T10:33:04.070Z</time>
      </trkpt>
      <trkpt lat="44.32917" lon="3.56579">
        <ele>1021.5</ele>
        <time>2021-10-23T10:33:09.749Z</time>
      </trkpt>
      <trkpt lat="44.32914" lon="3.56574">
        <ele>1022.1</ele>
        <time>2021-10-23T10:33:15.235Z</time>
      </trkpt>
      <trkpt lat="44.32909" lon="3.5657">
        <ele>1022.7</ele>
        <time>2021-10-23T10:33:20.564Z</time>
      </trkpt>
      <trkpt lat="44.32906" lon="3.56568">
        <ele>1023</ele>
        <time>2021-10-23T10:33:25.796Z</time>
      </trkpt>
      <trkpt lat="44.32904" lon="3.56567">
        <ele>1023.2</ele>
        <time>2021-10-23T10:33:30.903Z</time>
      </trkpt>
      <trkpt lat="44.32903" lon="3.56565">
        <ele>1023.5</ele>
        <time>2021-10-23T10:33:35.930Z</time>
      </trkpt>
      <trkpt lat="44.32901" lon="3.56561">
        <ele>1024</ele>
        <time>2021-10-23T10:33:40.931Z</time>
      </trkpt>
      <trkpt lat="44.32899" lon="3.56553">
        <ele>1024.8</ele>
        <time>2021-10-23T10:33:47.197Z</time>
      </trkpt>
      <trkpt lat="44.32895" lon="3.56549">
        <ele>1025.3</ele>
        <time>2021-10-23T10:33:52.569Z</time>
      </trkpt>
      <trkpt lat="44.32887" lon="3.5655">
        <ele>1025.4</ele>
        <time>2021-10-23T10:33:57.737Z</time>
      </trkpt>
      <trkpt lat="44.32879" lon="3.56555">
        <ele>1025</ele>
        <time>2021-10-23T10:34:03.952Z</time>
      </trkpt>
      <trkpt lat="44.32873" lon="3.56557">
        <ele>1024.9</ele>
        <time>2021-10-23T10:34:09.070Z</time>
      </trkpt>
      <trkpt lat="44.32869" lon="3.56559">
        <ele>1024.8</ele>
        <time>2021-10-23T10:34:14.100Z</time>
      </trkpt>
      <trkpt lat="44.32863" lon="3.56563">
        <ele>1024.7</ele>
        <time>2021-10-23T10:34:19.312Z</time>
      </trkpt>
      <trkpt lat="44.32861" lon="3.56562">
        <ele>1024.8</ele>
        <time>2021-10-23T10:34:25.066Z</time>
      </trkpt>
      <trkpt lat="44.32857" lon="3.56565">
        <ele>1024.6</ele>
        <time>2021-10-23T10:34:30.393Z</time>
      </trkpt>
      <trkpt lat="44.3285" lon="3.56569">
        <ele>1024.3</ele>
        <time>2021-10-23T10:34:35.969Z</time>
      </trkpt>
      <trkpt lat="44.32837" lon="3.56578">
        <ele>1024</ele>
        <time>2021-10-23T10:34:42.041Z</time>
      </trkpt>
      <trkpt lat="44.32836" lon="3.56582">
        <ele>1024</ele>
        <time>2021-10-23T10:34:47.109Z</time>
      </trkpt>
      <trkpt lat="44.32834" lon="3.56588">
        <ele>1024</ele>
        <time>2021-10-23T10:34:52.777Z</time>
      </trkpt>
      <trkpt lat="44.32828" lon="3.56595">
        <ele>1023.9</ele>
        <time>2021-10-23T10:34:58.856Z</time>
      </trkpt>
      <trkpt lat="44.32825" lon="3.566">
        <ele>1023.9</ele>
        <time>2021-10-23T10:35:04.072Z</time>
      </trkpt>
      <trkpt lat="44.3282" lon="3.56603">
        <ele>1023.9</ele>
        <time>2021-10-23T10:35:10.949Z</time>
      </trkpt>
      <trkpt lat="44.32811" lon="3.56613">
        <ele>1024</ele>
        <time>2021-10-23T10:35:19.594Z</time>
      </trkpt>
      <trkpt lat="44.32807" lon="3.56622">
        <ele>1024.3</ele>
        <time>2021-10-23T10:35:24.893Z</time>
      </trkpt>
      <trkpt lat="44.32803" lon="3.56629">
        <ele>1024.6</ele>
        <time>2021-10-23T10:35:30.918Z</time>
      </trkpt>
      <trkpt lat="44.32799" lon="3.56631">
        <ele>1024.5</ele>
        <time>2021-10-23T10:35:35.960Z</time>
      </trkpt>
      <trkpt lat="44.32794" lon="3.56633">
        <ele>1024.4</ele>
        <time>2021-10-23T10:35:42.071Z</time>
      </trkpt>
      <trkpt lat="44.32789" lon="3.56635">
        <ele>1024.3</ele>
        <time>2021-10-23T10:35:47.105Z</time>
      </trkpt>
      <trkpt lat="44.32784" lon="3.56631">
        <ele>1023.9</ele>
        <time>2021-10-23T10:35:52.765Z</time>
      </trkpt>
      <trkpt lat="44.32777" lon="3.56627">
        <ele>1023.6</ele>
        <time>2021-10-23T10:35:58.132Z</time>
      </trkpt>
      <trkpt lat="44.32772" lon="3.56624">
        <ele>1023.6</ele>
        <time>2021-10-23T10:36:03.208Z</time>
      </trkpt>
      <trkpt lat="44.32771" lon="3.56621">
        <ele>1023.4</ele>
        <time>2021-10-23T10:36:09.048Z</time>
      </trkpt>
      <trkpt lat="44.32774" lon="3.56623">
        <ele>1023.5</ele>
        <time>2021-10-23T10:36:20.941Z</time>
      </trkpt>
      <trkpt lat="44.32774" lon="3.56625">
        <ele>1023.6</ele>
        <time>2021-10-23T10:36:25.951Z</time>
      </trkpt>
      <trkpt lat="44.32776" lon="3.56623">
        <ele>1023.5</ele>
        <time>2021-10-23T10:36:35.926Z</time>
      </trkpt>
      <trkpt lat="44.32779" lon="3.5662">
        <ele>1023.4</ele>
        <time>2021-10-23T10:36:40.952Z</time>
      </trkpt>
      <trkpt lat="44.32777" lon="3.56623">
        <ele>1023.4</ele>
        <time>2021-10-23T10:36:49.052Z</time>
      </trkpt>
      <trkpt lat="44.32775" lon="3.56626">
        <ele>1023.6</ele>
        <time>2021-10-23T10:40:45.956Z</time>
      </trkpt>
      <trkpt lat="44.32772" lon="3.56633">
        <ele>1023.9</ele>
        <time>2021-10-23T10:40:51.079Z</time>
      </trkpt>
      <trkpt lat="44.32769" lon="3.56643">
        <ele>1024.5</ele>
        <time>2021-10-23T10:41:40.925Z</time>
      </trkpt>
      <trkpt lat="44.3277" lon="3.56642">
        <ele>1024.4</ele>
        <time>2021-10-23T10:42:18.064Z</time>
      </trkpt>
      <trkpt lat="44.3277" lon="3.56645">
        <ele>1024.5</ele>
        <time>2021-10-23T10:42:24.056Z</time>
      </trkpt>
      <trkpt lat="44.32769" lon="3.56646">
        <ele>1024.6</ele>
        <time>2021-10-23T10:42:31.058Z</time>
      </trkpt>
      <trkpt lat="44.3277" lon="3.56649">
        <ele>1024.7</ele>
        <time>2021-10-23T10:42:39.080Z</time>
      </trkpt>
      <trkpt lat="44.32771" lon="3.5665">
        <ele>1024.6</ele>
        <time>2021-10-23T10:42:50.988Z</time>
      </trkpt>
      <trkpt lat="44.32772" lon="3.5665">
        <ele>1024.6</ele>
        <time>2021-10-23T10:44:00.089Z</time>
      </trkpt>
      <trkpt lat="44.32771" lon="3.56653">
        <ele>1024.8</ele>
        <time>2021-10-23T10:44:05.958Z</time>
      </trkpt>
      <trkpt lat="44.32771" lon="3.56655">
        <ele>1024.8</ele>
        <time>2021-10-23T10:44:10.965Z</time>
      </trkpt>
      <trkpt lat="44.32771" lon="3.5666">
        <ele>1025</ele>
        <time>2021-10-23T10:44:55.982Z</time>
      </trkpt>
      <trkpt lat="44.32767" lon="3.56674">
        <ele>1025.7</ele>
        <time>2021-10-23T10:45:03.138Z</time>
      </trkpt>
      <trkpt lat="44.32763" lon="3.56687">
        <ele>1026.6</ele>
        <time>2021-10-23T10:45:08.446Z</time>
      </trkpt>
      <trkpt lat="44.32762" lon="3.56699">
        <ele>1027.3</ele>
        <time>2021-10-23T10:45:14.074Z</time>
      </trkpt>
      <trkpt lat="44.3276" lon="3.56706">
        <ele>1027.6</ele>
        <time>2021-10-23T10:45:19.647Z</time>
      </trkpt>
      <trkpt lat="44.3276" lon="3.5672">
        <ele>1028.2</ele>
        <time>2021-10-23T10:45:25.007Z</time>
      </trkpt>
      <trkpt lat="44.3276" lon="3.56729">
        <ele>1028.5</ele>
        <time>2021-10-23T10:45:30.050Z</time>
      </trkpt>
      <trkpt lat="44.32759" lon="3.56737">
        <ele>1028.9</ele>
        <time>2021-10-23T10:45:35.141Z</time>
      </trkpt>
      <trkpt lat="44.32759" lon="3.56745">
        <ele>1029.2</ele>
        <time>2021-10-23T10:45:40.974Z</time>
      </trkpt>
      <trkpt lat="44.32758" lon="3.56748">
        <ele>1029.4</ele>
        <time>2021-10-23T10:45:48.691Z</time>
      </trkpt>
      <trkpt lat="44.32752" lon="3.56766">
        <ele>1029.9</ele>
        <time>2021-10-23T10:45:54.051Z</time>
      </trkpt>
      <trkpt lat="44.32745" lon="3.56775">
        <ele>1030</ele>
        <time>2021-10-23T10:45:59.068Z</time>
      </trkpt>
      <trkpt lat="44.32746" lon="3.56782">
        <ele>1030</ele>
        <time>2021-10-23T10:46:04.436Z</time>
      </trkpt>
      <trkpt lat="44.32748" lon="3.56794">
        <ele>1030</ele>
        <time>2021-10-23T10:46:09.821Z</time>
      </trkpt>
      <trkpt lat="44.32748" lon="3.56803">
        <ele>1029.9</ele>
        <time>2021-10-23T10:46:15.147Z</time>
      </trkpt>
      <trkpt lat="44.32746" lon="3.56807">
        <ele>1029.9</ele>
        <time>2021-10-23T10:46:20.794Z</time>
      </trkpt>
      <trkpt lat="44.32742" lon="3.56812">
        <ele>1029.9</ele>
        <time>2021-10-23T10:46:26.014Z</time>
      </trkpt>
      <trkpt lat="44.32737" lon="3.56819">
        <ele>1029.8</ele>
        <time>2021-10-23T10:46:31.363Z</time>
      </trkpt>
      <trkpt lat="44.3273" lon="3.56826">
        <ele>1029.5</ele>
        <time>2021-10-23T10:46:37.125Z</time>
      </trkpt>
      <trkpt lat="44.32727" lon="3.56826">
        <ele>1029.3</ele>
        <time>2021-10-23T10:46:42.138Z</time>
      </trkpt>
      <trkpt lat="44.32724" lon="3.56825">
        <ele>1029.1</ele>
        <time>2021-10-23T10:46:49.064Z</time>
      </trkpt>
      <trkpt lat="44.32723" lon="3.5682">
        <ele>1029.1</ele>
        <time>2021-10-23T10:47:05.074Z</time>
      </trkpt>
      <trkpt lat="44.32715" lon="3.56824">
        <ele>1028.5</ele>
        <time>2021-10-23T10:47:10.613Z</time>
      </trkpt>
      <trkpt lat="44.32705" lon="3.56838">
        <ele>1028.1</ele>
        <time>2021-10-23T10:47:15.965Z</time>
      </trkpt>
      <trkpt lat="44.32708" lon="3.56839">
        <ele>1028.4</ele>
        <time>2021-10-23T10:47:25.927Z</time>
      </trkpt>
      <trkpt lat="44.32712" lon="3.56836">
        <ele>1028.5</ele>
        <time>2021-10-23T10:47:30.963Z</time>
      </trkpt>
      <trkpt lat="44.32719" lon="3.56831">
        <ele>1028.8</ele>
        <time>2021-10-23T10:47:36.884Z</time>
      </trkpt>
      <trkpt lat="44.32725" lon="3.56822">
        <ele>1029.2</ele>
        <time>2021-10-23T10:47:42.158Z</time>
      </trkpt>
      <trkpt lat="44.32733" lon="3.56816">
        <ele>1029.5</ele>
        <time>2021-10-23T10:47:48.175Z</time>
      </trkpt>
      <trkpt lat="44.32734" lon="3.56813">
        <ele>1029.5</ele>
        <time>2021-10-23T10:47:54.077Z</time>
      </trkpt>
      <trkpt lat="44.32733" lon="3.56813">
        <ele>1029.5</ele>
        <time>2021-10-23T10:48:03.152Z</time>
      </trkpt>
      <trkpt lat="44.32736" lon="3.56812">
        <ele>1029.6</ele>
        <time>2021-10-23T10:48:30.938Z</time>
      </trkpt>
      <trkpt lat="44.32741" lon="3.56807">
        <ele>1029.7</ele>
        <time>2021-10-23T10:48:35.940Z</time>
      </trkpt>
      <trkpt lat="44.32746" lon="3.56806">
        <ele>1029.9</ele>
        <time>2021-10-23T10:48:40.973Z</time>
      </trkpt>
      <trkpt lat="44.32746" lon="3.56811">
        <ele>1030</ele>
        <time>2021-10-23T10:48:48.131Z</time>
      </trkpt>
      <trkpt lat="44.32745" lon="3.56811">
        <ele>1029.9</ele>
        <time>2021-10-23T10:48:54.127Z</time>
      </trkpt>
      <trkpt lat="44.32743" lon="3.56811">
        <ele>1029.9</ele>
        <time>2021-10-23T10:49:20.147Z</time>
      </trkpt>
      <trkpt lat="44.3274" lon="3.56813">
        <ele>1029.8</ele>
        <time>2021-10-23T10:49:25.934Z</time>
      </trkpt>
      <trkpt lat="44.32736" lon="3.56815">
        <ele>1029.7</ele>
        <time>2021-10-23T10:49:31.016Z</time>
      </trkpt>
      <trkpt lat="44.32732" lon="3.56818">
        <ele>1029.5</ele>
        <time>2021-10-23T10:49:37.577Z</time>
      </trkpt>
      <trkpt lat="44.32731" lon="3.56821">
        <ele>1029.5</ele>
        <time>2021-10-23T10:49:43.063Z</time>
      </trkpt>
      <trkpt lat="44.32732" lon="3.5682">
        <ele>1029.5</ele>
        <time>2021-10-23T10:49:48.840Z</time>
      </trkpt>
      <trkpt lat="44.32731" lon="3.56808">
        <ele>1029.3</ele>
        <time>2021-10-23T10:49:54.069Z</time>
      </trkpt>
      <trkpt lat="44.32732" lon="3.568">
        <ele>1029.5</ele>
        <time>2021-10-23T10:50:00.925Z</time>
      </trkpt>
      <trkpt lat="44.32732" lon="3.56795">
        <ele>1029.6</ele>
        <time>2021-10-23T10:50:05.929Z</time>
      </trkpt>
      <trkpt lat="44.32732" lon="3.56828">
        <ele>1029.6</ele>
        <time>2021-10-23T10:50:35.930Z</time>
      </trkpt>
      <trkpt lat="44.32729" lon="3.56832">
        <ele>1029.5</ele>
        <time>2021-10-23T10:50:40.987Z</time>
      </trkpt>
      <trkpt lat="44.32721" lon="3.56839">
        <ele>1029.3</ele>
        <time>2021-10-23T10:50:47.991Z</time>
      </trkpt>
      <trkpt lat="44.32718" lon="3.56846">
        <ele>1029.7</ele>
        <time>2021-10-23T10:50:55.952Z</time>
      </trkpt>
      <trkpt lat="44.32709" lon="3.56859">
        <ele>1029.9</ele>
        <time>2021-10-23T10:51:05.127Z</time>
      </trkpt>
      <trkpt lat="44.32701" lon="3.56866">
        <ele>1029.9</ele>
        <time>2021-10-23T10:51:10.940Z</time>
      </trkpt>
      <trkpt lat="44.32696" lon="3.56872">
        <ele>1029.9</ele>
        <time>2021-10-23T10:51:15.959Z</time>
      </trkpt>
      <trkpt lat="44.32687" lon="3.56881">
        <ele>1029.8</ele>
        <time>2021-10-23T10:51:22.113Z</time>
      </trkpt>
      <trkpt lat="44.32673" lon="3.56882">
        <ele>1028.8</ele>
        <time>2021-10-23T10:51:27.465Z</time>
      </trkpt>
      <trkpt lat="44.32662" lon="3.56885">
        <ele>1028</ele>
        <time>2021-10-23T10:51:32.719Z</time>
      </trkpt>
      <trkpt lat="44.32656" lon="3.56892">
        <ele>1028.1</ele>
        <time>2021-10-23T10:51:37.987Z</time>
      </trkpt>
      <trkpt lat="44.32652" lon="3.56901">
        <ele>1028.5</ele>
        <time>2021-10-23T10:51:43.150Z</time>
      </trkpt>
      <trkpt lat="44.32646" lon="3.56906">
        <ele>1028.5</ele>
        <time>2021-10-23T10:51:48.153Z</time>
      </trkpt>
      <trkpt lat="44.32641" lon="3.56911">
        <ele>1028.6</ele>
        <time>2021-10-23T10:51:53.661Z</time>
      </trkpt>
      <trkpt lat="44.32635" lon="3.56917">
        <ele>1028.8</ele>
        <time>2021-10-23T10:51:58.815Z</time>
      </trkpt>
      <trkpt lat="44.32629" lon="3.56921">
        <ele>1028.6</ele>
        <time>2021-10-23T10:52:04.121Z</time>
      </trkpt>
      <trkpt lat="44.32624" lon="3.56927">
        <ele>1028.7</ele>
        <time>2021-10-23T10:52:09.377Z</time>
      </trkpt>
      <trkpt lat="44.32618" lon="3.56932">
        <ele>1028.6</ele>
        <time>2021-10-23T10:52:15.361Z</time>
      </trkpt>
      <trkpt lat="44.32617" lon="3.56932">
        <ele>1028.5</ele>
        <time>2021-10-23T10:52:20.910Z</time>
      </trkpt>
      <trkpt lat="44.32615" lon="3.56933">
        <ele>1028.5</ele>
        <time>2021-10-23T10:52:25.961Z</time>
      </trkpt>
      <trkpt lat="44.32611" lon="3.5694">
        <ele>1028.6</ele>
        <time>2021-10-23T10:52:32.078Z</time>
      </trkpt>
      <trkpt lat="44.32606" lon="3.56948">
        <ele>1028.9</ele>
        <time>2021-10-23T10:52:37.100Z</time>
      </trkpt>
      <trkpt lat="44.32597" lon="3.56959">
        <ele>1029</ele>
        <time>2021-10-23T10:52:42.814Z</time>
      </trkpt>
      <trkpt lat="44.32591" lon="3.56972">
        <ele>1029.6</ele>
        <time>2021-10-23T10:52:47.825Z</time>
      </trkpt>
      <trkpt lat="44.32579" lon="3.56985">
        <ele>1029.6</ele>
        <time>2021-10-23T10:52:53.040Z</time>
      </trkpt>
      <trkpt lat="44.32574" lon="3.56978">
        <ele>1028.8</ele>
        <time>2021-10-23T10:52:58.544Z</time>
      </trkpt>
      <trkpt lat="44.32576" lon="3.56983">
        <ele>1029.3</ele>
        <time>2021-10-23T10:53:03.665Z</time>
      </trkpt>
      <trkpt lat="44.32574" lon="3.56989">
        <ele>1029.6</ele>
        <time>2021-10-23T10:53:08.691Z</time>
      </trkpt>
      <trkpt lat="44.32566" lon="3.56986">
        <ele>1028.8</ele>
        <time>2021-10-23T10:53:15.961Z</time>
      </trkpt>
      <trkpt lat="44.32559" lon="3.56988">
        <ele>1028.4</ele>
        <time>2021-10-23T10:53:20.961Z</time>
      </trkpt>
      <trkpt lat="44.32551" lon="3.56996">
        <ele>1028.5</ele>
        <time>2021-10-23T10:53:25.961Z</time>
      </trkpt>
      <trkpt lat="44.32546" lon="3.57006">
        <ele>1028.5</ele>
        <time>2021-10-23T10:53:30.973Z</time>
      </trkpt>
      <trkpt lat="44.32542" lon="3.57014">
        <ele>1028.6</ele>
        <time>2021-10-23T10:53:35.979Z</time>
      </trkpt>
      <trkpt lat="44.32533" lon="3.57024">
        <ele>1028.2</ele>
        <time>2021-10-23T10:53:44.581Z</time>
      </trkpt>
      <trkpt lat="44.32527" lon="3.57029">
        <ele>1028.1</ele>
        <time>2021-10-23T10:53:49.742Z</time>
      </trkpt>
      <trkpt lat="44.32521" lon="3.57034">
        <ele>1028.1</ele>
        <time>2021-10-23T10:53:54.832Z</time>
      </trkpt>
      <trkpt lat="44.32516" lon="3.57037">
        <ele>1027.9</ele>
        <time>2021-10-23T10:54:00.935Z</time>
      </trkpt>
      <trkpt lat="44.32508" lon="3.57043">
        <ele>1027.6</ele>
        <time>2021-10-23T10:54:06.065Z</time>
      </trkpt>
      <trkpt lat="44.32503" lon="3.57045">
        <ele>1027.2</ele>
        <time>2021-10-23T10:54:11.483Z</time>
      </trkpt>
      <trkpt lat="44.32496" lon="3.57041">
        <ele>1026.6</ele>
        <time>2021-10-23T10:54:17.156Z</time>
      </trkpt>
      <trkpt lat="44.3249" lon="3.57038">
        <ele>1026</ele>
        <time>2021-10-23T10:54:22.163Z</time>
      </trkpt>
      <trkpt lat="44.32484" lon="3.57037">
        <ele>1025.5</ele>
        <time>2021-10-23T10:54:27.188Z</time>
      </trkpt>
      <trkpt lat="44.32478" lon="3.57034">
        <ele>1025.1</ele>
        <time>2021-10-23T10:54:32.474Z</time>
      </trkpt>
      <trkpt lat="44.32472" lon="3.57032">
        <ele>1024.7</ele>
        <time>2021-10-23T10:54:38.163Z</time>
      </trkpt>
      <trkpt lat="44.32466" lon="3.57028">
        <ele>1024.3</ele>
        <time>2021-10-23T10:54:44.079Z</time>
      </trkpt>
      <trkpt lat="44.3246" lon="3.57023">
        <ele>1023.6</ele>
        <time>2021-10-23T10:54:49.162Z</time>
      </trkpt>
      <trkpt lat="44.32454" lon="3.57021">
        <ele>1023.1</ele>
        <time>2021-10-23T10:54:54.179Z</time>
      </trkpt>
      <trkpt lat="44.32449" lon="3.57023">
        <ele>1022.6</ele>
        <time>2021-10-23T10:54:59.336Z</time>
      </trkpt>
      <trkpt lat="44.32445" lon="3.57028">
        <ele>1022</ele>
        <time>2021-10-23T10:55:05.108Z</time>
      </trkpt>
      <trkpt lat="44.32443" lon="3.57027">
        <ele>1021.9</ele>
        <time>2021-10-23T10:55:10.978Z</time>
      </trkpt>
      <trkpt lat="44.32445" lon="3.57027">
        <ele>1022</ele>
        <time>2021-10-23T10:55:16.094Z</time>
      </trkpt>
      <trkpt lat="44.32441" lon="3.57034">
        <ele>1021.2</ele>
        <time>2021-10-23T10:55:21.113Z</time>
      </trkpt>
      <trkpt lat="44.3244" lon="3.57044">
        <ele>1020.7</ele>
        <time>2021-10-23T10:55:26.281Z</time>
      </trkpt>
      <trkpt lat="44.32441" lon="3.57046">
        <ele>1020.8</ele>
        <time>2021-10-23T10:55:31.919Z</time>
      </trkpt>
      <trkpt lat="44.32444" lon="3.57055">
        <ele>1021</ele>
        <time>2021-10-23T10:55:37.092Z</time>
      </trkpt>
      <trkpt lat="44.32447" lon="3.57062">
        <ele>1020.5</ele>
        <time>2021-10-23T10:55:42.097Z</time>
      </trkpt>
      <trkpt lat="44.32446" lon="3.57072">
        <ele>1019.3</ele>
        <time>2021-10-23T10:55:48.095Z</time>
      </trkpt>
      <trkpt lat="44.32447" lon="3.57073">
        <ele>1019.4</ele>
        <time>2021-10-23T10:55:56.058Z</time>
      </trkpt>
      <trkpt lat="44.32449" lon="3.57074">
        <ele>1019.6</ele>
        <time>2021-10-23T10:56:01.623Z</time>
      </trkpt>
      <trkpt lat="44.32451" lon="3.57083">
        <ele>1019</ele>
        <time>2021-10-23T10:56:06.762Z</time>
      </trkpt>
      <trkpt lat="44.32452" lon="3.57093">
        <ele>1019.1</ele>
        <time>2021-10-23T10:56:11.960Z</time>
      </trkpt>
      <trkpt lat="44.32453" lon="3.57102">
        <ele>1019.2</ele>
        <time>2021-10-23T10:56:17.026Z</time>
      </trkpt>
      <trkpt lat="44.32453" lon="3.57112">
        <ele>1019.2</ele>
        <time>2021-10-23T10:56:22.110Z</time>
      </trkpt>
      <trkpt lat="44.3245" lon="3.57121">
        <ele>1019.6</ele>
        <time>2021-10-23T10:56:28.098Z</time>
      </trkpt>
      <trkpt lat="44.32449" lon="3.57123">
        <ele>1019.7</ele>
        <time>2021-10-23T10:56:34.064Z</time>
      </trkpt>
      <trkpt lat="44.32448" lon="3.57122">
        <ele>1019.6</ele>
        <time>2021-10-23T10:56:39.085Z</time>
      </trkpt>
      <trkpt lat="44.32449" lon="3.5712">
        <ele>1019.5</ele>
        <time>2021-10-23T10:56:46.087Z</time>
      </trkpt>
      <trkpt lat="44.32445" lon="3.57125">
        <ele>1019.5</ele>
        <time>2021-10-23T10:57:04.392Z</time>
      </trkpt>
      <trkpt lat="44.32439" lon="3.5713">
        <ele>1019.5</ele>
        <time>2021-10-23T10:57:09.849Z</time>
      </trkpt>
      <trkpt lat="44.32434" lon="3.57135">
        <ele>1019.5</ele>
        <time>2021-10-23T10:57:15.090Z</time>
      </trkpt>
      <trkpt lat="44.32428" lon="3.57138">
        <ele>1019.2</ele>
        <time>2021-10-23T10:57:20.604Z</time>
      </trkpt>
      <trkpt lat="44.32424" lon="3.57142">
        <ele>1019.1</ele>
        <time>2021-10-23T10:57:25.976Z</time>
      </trkpt>
      <trkpt lat="44.32419" lon="3.5715">
        <ele>1019.7</ele>
        <time>2021-10-23T10:57:31.823Z</time>
      </trkpt>
      <trkpt lat="44.32414" lon="3.57155">
        <ele>1019.9</ele>
        <time>2021-10-23T10:57:37.028Z</time>
      </trkpt>
      <trkpt lat="44.32408" lon="3.57158">
        <ele>1019.6</ele>
        <time>2021-10-23T10:57:42.062Z</time>
      </trkpt>
      <trkpt lat="44.32404" lon="3.5716">
        <ele>1019.3</ele>
        <time>2021-10-23T10:57:47.089Z</time>
      </trkpt>
      <trkpt lat="44.32402" lon="3.57161">
        <ele>1019.2</ele>
        <time>2021-10-23T10:57:52.182Z</time>
      </trkpt>
      <trkpt lat="44.324" lon="3.57163">
        <ele>1019.2</ele>
        <time>2021-10-23T10:57:57.359Z</time>
      </trkpt>
      <trkpt lat="44.32399" lon="3.5717">
        <ele>1019.7</ele>
        <time>2021-10-23T10:58:02.752Z</time>
      </trkpt>
      <trkpt lat="44.32395" lon="3.57178">
        <ele>1020.1</ele>
        <time>2021-10-23T10:58:08.735Z</time>
      </trkpt>
      <trkpt lat="44.32386" lon="3.57183">
        <ele>1020</ele>
        <time>2021-10-23T10:58:14.054Z</time>
      </trkpt>
      <trkpt lat="44.3238" lon="3.57192">
        <ele>1020.4</ele>
        <time>2021-10-23T10:58:20.126Z</time>
      </trkpt>
      <trkpt lat="44.32372" lon="3.57201">
        <ele>1020.2</ele>
        <time>2021-10-23T10:58:25.524Z</time>
      </trkpt>
      <trkpt lat="44.32364" lon="3.57209">
        <ele>1020.3</ele>
        <time>2021-10-23T10:58:30.935Z</time>
      </trkpt>
      <trkpt lat="44.32352" lon="3.57216">
        <ele>1019.9</ele>
        <time>2021-10-23T10:58:36.260Z</time>
      </trkpt>
      <trkpt lat="44.32344" lon="3.57221">
        <ele>1019.4</ele>
        <time>2021-10-23T10:58:41.569Z</time>
      </trkpt>
      <trkpt lat="44.32336" lon="3.57229">
        <ele>1019</ele>
        <time>2021-10-23T10:58:47.601Z</time>
      </trkpt>
      <trkpt lat="44.32328" lon="3.57234">
        <ele>1018.9</ele>
        <time>2021-10-23T10:58:53.029Z</time>
      </trkpt>
      <trkpt lat="44.32318" lon="3.57237">
        <ele>1018.7</ele>
        <time>2021-10-23T10:58:59.072Z</time>
      </trkpt>
      <trkpt lat="44.32312" lon="3.57241">
        <ele>1019.1</ele>
        <time>2021-10-23T10:59:04.459Z</time>
      </trkpt>
      <trkpt lat="44.32307" lon="3.57248">
        <ele>1019.7</ele>
        <time>2021-10-23T10:59:10.410Z</time>
      </trkpt>
      <trkpt lat="44.323" lon="3.57253">
        <ele>1019.6</ele>
        <time>2021-10-23T10:59:15.692Z</time>
      </trkpt>
      <trkpt lat="44.32294" lon="3.57256">
        <ele>1019.2</ele>
        <time>2021-10-23T10:59:20.767Z</time>
      </trkpt>
      <trkpt lat="44.32287" lon="3.57259">
        <ele>1018.9</ele>
        <time>2021-10-23T10:59:25.934Z</time>
      </trkpt>
      <trkpt lat="44.32284" lon="3.57262">
        <ele>1018.9</ele>
        <time>2021-10-23T10:59:31.002Z</time>
      </trkpt>
      <trkpt lat="44.32282" lon="3.5727">
        <ele>1019.5</ele>
        <time>2021-10-23T10:59:36.043Z</time>
      </trkpt>
      <trkpt lat="44.32286" lon="3.57274">
        <ele>1020.2</ele>
        <time>2021-10-23T10:59:42.106Z</time>
      </trkpt>
      <trkpt lat="44.32287" lon="3.57274">
        <ele>1020.3</ele>
        <time>2021-10-23T10:59:47.256Z</time>
      </trkpt>
      <trkpt lat="44.32282" lon="3.57272">
        <ele>1019.7</ele>
        <time>2021-10-23T10:59:52.603Z</time>
      </trkpt>
      <trkpt lat="44.32279" lon="3.57275">
        <ele>1019.8</ele>
        <time>2021-10-23T10:59:57.736Z</time>
      </trkpt>
      <trkpt lat="44.32272" lon="3.57283">
        <ele>1020.5</ele>
        <time>2021-10-23T11:00:03.658Z</time>
      </trkpt>
      <trkpt lat="44.32269" lon="3.57289">
        <ele>1021.2</ele>
        <time>2021-10-23T11:00:08.989Z</time>
      </trkpt>
      <trkpt lat="44.32263" lon="3.57287">
        <ele>1020.8</ele>
        <time>2021-10-23T11:00:14.498Z</time>
      </trkpt>
      <trkpt lat="44.3226" lon="3.57289">
        <ele>1021</ele>
        <time>2021-10-23T11:00:19.663Z</time>
      </trkpt>
      <trkpt lat="44.32256" lon="3.57303">
        <ele>1022.9</ele>
        <time>2021-10-23T11:00:24.979Z</time>
      </trkpt>
      <trkpt lat="44.32247" lon="3.57309">
        <ele>1023.5</ele>
        <time>2021-10-23T11:00:30.916Z</time>
      </trkpt>
      <trkpt lat="44.32242" lon="3.57313">
        <ele>1023.8</ele>
        <time>2021-10-23T11:00:36.020Z</time>
      </trkpt>
      <trkpt lat="44.32233" lon="3.57312">
        <ele>1023.4</ele>
        <time>2021-10-23T11:00:45.954Z</time>
      </trkpt>
      <trkpt lat="44.32221" lon="3.5732">
        <ele>1024.1</ele>
        <time>2021-10-23T11:00:52.075Z</time>
      </trkpt>
      <trkpt lat="44.32211" lon="3.57324">
        <ele>1023.9</ele>
        <time>2021-10-23T11:00:57.658Z</time>
      </trkpt>
      <trkpt lat="44.32206" lon="3.57335">
        <ele>1025</ele>
        <time>2021-10-23T11:01:03.682Z</time>
      </trkpt>
      <trkpt lat="44.32203" lon="3.57336">
        <ele>1024.9</ele>
        <time>2021-10-23T11:01:08.971Z</time>
      </trkpt>
      <trkpt lat="44.32198" lon="3.57331">
        <ele>1024</ele>
        <time>2021-10-23T11:01:14.423Z</time>
      </trkpt>
      <trkpt lat="44.32191" lon="3.57334">
        <ele>1023.8</ele>
        <time>2021-10-23T11:01:19.520Z</time>
      </trkpt>
      <trkpt lat="44.32184" lon="3.57337">
        <ele>1023.6</ele>
        <time>2021-10-23T11:01:24.633Z</time>
      </trkpt>
      <trkpt lat="44.32175" lon="3.57342">
        <ele>1023.3</ele>
        <time>2021-10-23T11:01:29.660Z</time>
      </trkpt>
      <trkpt lat="44.32165" lon="3.57347">
        <ele>1022.9</ele>
        <time>2021-10-23T11:01:34.954Z</time>
      </trkpt>
      <trkpt lat="44.32158" lon="3.5735">
        <ele>1022.6</ele>
        <time>2021-10-23T11:01:39.974Z</time>
      </trkpt>
      <trkpt lat="44.32159" lon="3.57354">
        <ele>1023</ele>
        <time>2021-10-23T11:01:45.894Z</time>
      </trkpt>
      <trkpt lat="44.32153" lon="3.57359">
        <ele>1022.9</ele>
        <time>2021-10-23T11:01:50.968Z</time>
      </trkpt>
      <trkpt lat="44.32142" lon="3.5736">
        <ele>1022.2</ele>
        <time>2021-10-23T11:01:56.458Z</time>
      </trkpt>
      <trkpt lat="44.32136" lon="3.5737">
        <ele>1022.4</ele>
        <time>2021-10-23T11:02:02.099Z</time>
      </trkpt>
      <trkpt lat="44.32139" lon="3.57368">
        <ele>1022.1</ele>
        <time>2021-10-23T11:02:07.134Z</time>
      </trkpt>
      <trkpt lat="44.32136" lon="3.57368">
        <ele>1022.4</ele>
        <time>2021-10-23T11:02:12.677Z</time>
      </trkpt>
      <trkpt lat="44.32129" lon="3.57373">
        <ele>1023.4</ele>
        <time>2021-10-23T11:02:18.925Z</time>
      </trkpt>
      <trkpt lat="44.32129" lon="3.57369">
        <ele>1023.4</ele>
        <time>2021-10-23T11:02:40.045Z</time>
      </trkpt>
      <trkpt lat="44.32139" lon="3.57368">
        <ele>1022</ele>
        <time>2021-10-23T11:02:45.133Z</time>
      </trkpt>
      <trkpt lat="44.3214" lon="3.57374">
        <ele>1022.1</ele>
        <time>2021-10-23T11:02:50.405Z</time>
      </trkpt>
      <trkpt lat="44.32142" lon="3.5738">
        <ele>1022.4</ele>
        <time>2021-10-23T11:02:55.924Z</time>
      </trkpt>
      <trkpt lat="44.32142" lon="3.57388">
        <ele>1022.4</ele>
        <time>2021-10-23T11:03:00.941Z</time>
      </trkpt>
      <trkpt lat="44.32141" lon="3.57395">
        <ele>1022.7</ele>
        <time>2021-10-23T11:03:05.955Z</time>
      </trkpt>
      <trkpt lat="44.32138" lon="3.57404">
        <ele>1023.2</ele>
        <time>2021-10-23T11:03:12.748Z</time>
      </trkpt>
      <trkpt lat="44.3214" lon="3.57414">
        <ele>1023.9</ele>
        <time>2021-10-23T11:03:18.094Z</time>
      </trkpt>
      <trkpt lat="44.3214" lon="3.57425">
        <ele>1025</ele>
        <time>2021-10-23T11:03:23.811Z</time>
      </trkpt>
      <trkpt lat="44.3214" lon="3.57433">
        <ele>1025.9</ele>
        <time>2021-10-23T11:03:28.985Z</time>
      </trkpt>
      <trkpt lat="44.32142" lon="3.57441">
        <ele>1027</ele>
        <time>2021-10-23T11:03:34.111Z</time>
      </trkpt>
      <trkpt lat="44.32144" lon="3.57447">
        <ele>1027.9</ele>
        <time>2021-10-23T11:03:39.287Z</time>
      </trkpt>
      <trkpt lat="44.32144" lon="3.57455">
        <ele>1028.4</ele>
        <time>2021-10-23T11:03:44.819Z</time>
      </trkpt>
      <trkpt lat="44.32144" lon="3.57462">
        <ele>1028.9</ele>
        <time>2021-10-23T11:03:50.096Z</time>
      </trkpt>
      <trkpt lat="44.32142" lon="3.57465">
        <ele>1028.8</ele>
        <time>2021-10-23T11:03:55.951Z</time>
      </trkpt>
      <trkpt lat="44.32137" lon="3.57475">
        <ele>1028.9</ele>
        <time>2021-10-23T11:04:05.915Z</time>
      </trkpt>
      <trkpt lat="44.32136" lon="3.57481">
        <ele>1029.3</ele>
        <time>2021-10-23T11:04:10.987Z</time>
      </trkpt>
      <trkpt lat="44.32136" lon="3.57489">
        <ele>1029.7</ele>
        <time>2021-10-23T11:04:16.126Z</time>
      </trkpt>
      <trkpt lat="44.32135" lon="3.57497">
        <ele>1030.2</ele>
        <time>2021-10-23T11:04:21.257Z</time>
      </trkpt>
      <trkpt lat="44.32135" lon="3.57505">
        <ele>1030.3</ele>
        <time>2021-10-23T11:04:26.407Z</time>
      </trkpt>
      <trkpt lat="44.32134" lon="3.57512">
        <ele>1030</ele>
        <time>2021-10-23T11:04:32.028Z</time>
      </trkpt>
      <trkpt lat="44.32133" lon="3.57519">
        <ele>1029.8</ele>
        <time>2021-10-23T11:04:37.094Z</time>
      </trkpt>
      <trkpt lat="44.32133" lon="3.57528">
        <ele>1029.5</ele>
        <time>2021-10-23T11:04:42.492Z</time>
      </trkpt>
      <trkpt lat="44.32133" lon="3.57537">
        <ele>1029.6</ele>
        <time>2021-10-23T11:04:47.733Z</time>
      </trkpt>
      <trkpt lat="44.32136" lon="3.57545">
        <ele>1029.8</ele>
        <time>2021-10-23T11:04:53.022Z</time>
      </trkpt>
      <trkpt lat="44.32138" lon="3.57553">
        <ele>1030</ele>
        <time>2021-10-23T11:04:58.076Z</time>
      </trkpt>
      <trkpt lat="44.32141" lon="3.5756">
        <ele>1030.5</ele>
        <time>2021-10-23T11:05:03.090Z</time>
      </trkpt>
      <trkpt lat="44.32145" lon="3.57568">
        <ele>1031.2</ele>
        <time>2021-10-23T11:05:08.881Z</time>
      </trkpt>
      <trkpt lat="44.32149" lon="3.57576">
        <ele>1031.9</ele>
        <time>2021-10-23T11:05:14.952Z</time>
      </trkpt>
      <trkpt lat="44.32151" lon="3.57584">
        <ele>1032.3</ele>
        <time>2021-10-23T11:05:20.091Z</time>
      </trkpt>
      <trkpt lat="44.32155" lon="3.57589">
        <ele>1032.9</ele>
        <time>2021-10-23T11:05:25.967Z</time>
      </trkpt>
      <trkpt lat="44.3216" lon="3.57594">
        <ele>1033.5</ele>
        <time>2021-10-23T11:05:31.095Z</time>
      </trkpt>
      <trkpt lat="44.32163" lon="3.576">
        <ele>1033.7</ele>
        <time>2021-10-23T11:05:36.255Z</time>
      </trkpt>
      <trkpt lat="44.32166" lon="3.57605">
        <ele>1034</ele>
        <time>2021-10-23T11:05:41.807Z</time>
      </trkpt>
      <trkpt lat="44.32167" lon="3.5761">
        <ele>1034.1</ele>
        <time>2021-10-23T11:05:46.917Z</time>
      </trkpt>
      <trkpt lat="44.32172" lon="3.57615">
        <ele>1034.9</ele>
        <time>2021-10-23T11:05:52.062Z</time>
      </trkpt>
      <trkpt lat="44.32179" lon="3.57619">
        <ele>1035.8</ele>
        <time>2021-10-23T11:05:57.073Z</time>
      </trkpt>
      <trkpt lat="44.32185" lon="3.57624">
        <ele>1036.6</ele>
        <time>2021-10-23T11:06:02.102Z</time>
      </trkpt>
      <trkpt lat="44.32192" lon="3.57628">
        <ele>1037.4</ele>
        <time>2021-10-23T11:06:08.084Z</time>
      </trkpt>
      <trkpt lat="44.32197" lon="3.57634">
        <ele>1038.1</ele>
        <time>2021-10-23T11:06:13.202Z</time>
      </trkpt>
      <trkpt lat="44.32202" lon="3.5764">
        <ele>1038.9</ele>
        <time>2021-10-23T11:06:18.745Z</time>
      </trkpt>
      <trkpt lat="44.32207" lon="3.57646">
        <ele>1039.6</ele>
        <time>2021-10-23T11:06:24.081Z</time>
      </trkpt>
      <trkpt lat="44.32212" lon="3.57651">
        <ele>1040.3</ele>
        <time>2021-10-23T11:06:29.119Z</time>
      </trkpt>
      <trkpt lat="44.32216" lon="3.57657">
        <ele>1041</ele>
        <time>2021-10-23T11:06:34.662Z</time>
      </trkpt>
      <trkpt lat="44.3222" lon="3.57664">
        <ele>1041.7</ele>
        <time>2021-10-23T11:06:40.094Z</time>
      </trkpt>
      <trkpt lat="44.32226" lon="3.5767">
        <ele>1042.6</ele>
        <time>2021-10-23T11:06:45.626Z</time>
      </trkpt>
      <trkpt lat="44.32231" lon="3.57674">
        <ele>1043.2</ele>
        <time>2021-10-23T11:06:50.987Z</time>
      </trkpt>
      <trkpt lat="44.32238" lon="3.57675">
        <ele>1043.8</ele>
        <time>2021-10-23T11:06:56.071Z</time>
      </trkpt>
      <trkpt lat="44.32245" lon="3.57673">
        <ele>1044.3</ele>
        <time>2021-10-23T11:07:01.073Z</time>
      </trkpt>
      <trkpt lat="44.32251" lon="3.57671">
        <ele>1044.6</ele>
        <time>2021-10-23T11:07:06.533Z</time>
      </trkpt>
      <trkpt lat="44.32257" lon="3.57671">
        <ele>1043.4</ele>
        <time>2021-10-23T11:07:12.107Z</time>
      </trkpt>
      <trkpt lat="44.32264" lon="3.57669">
        <ele>1042.1</ele>
        <time>2021-10-23T11:07:18.091Z</time>
      </trkpt>
      <trkpt lat="44.32269" lon="3.57666">
        <ele>1041.7</ele>
        <time>2021-10-23T11:07:23.656Z</time>
      </trkpt>
      <trkpt lat="44.32275" lon="3.57663">
        <ele>1041.4</ele>
        <time>2021-10-23T11:07:29.098Z</time>
      </trkpt>
      <trkpt lat="44.32269" lon="3.57665">
        <ele>1041.9</ele>
        <time>2021-10-23T11:07:55.936Z</time>
      </trkpt>
      <trkpt lat="44.3227" lon="3.57662">
        <ele>1042.4</ele>
        <time>2021-10-23T11:08:00.961Z</time>
      </trkpt>
      <trkpt lat="44.32269" lon="3.57662">
        <ele>1042.6</ele>
        <time>2021-10-23T11:08:10.978Z</time>
      </trkpt>
      <trkpt lat="44.32269" lon="3.5766">
        <ele>1042.9</ele>
        <time>2021-10-23T11:08:15.978Z</time>
      </trkpt>
      <trkpt lat="44.32269" lon="3.57655">
        <ele>1044</ele>
        <time>2021-10-23T11:08:20.999Z</time>
      </trkpt>
      <trkpt lat="44.32273" lon="3.57641">
        <ele>1047.1</ele>
        <time>2021-10-23T11:08:28.900Z</time>
      </trkpt>
      <trkpt lat="44.32275" lon="3.57633">
        <ele>1048.1</ele>
        <time>2021-10-23T11:08:34.098Z</time>
      </trkpt>
      <trkpt lat="44.32279" lon="3.57632">
        <ele>1047.7</ele>
        <time>2021-10-23T11:08:45.977Z</time>
      </trkpt>
      <trkpt lat="44.32279" lon="3.57631">
        <ele>1047.8</ele>
        <time>2021-10-23T11:08:55.961Z</time>
      </trkpt>
      <trkpt lat="44.32281" lon="3.57623">
        <ele>1047</ele>
        <time>2021-10-23T11:09:00.969Z</time>
      </trkpt>
      <trkpt lat="44.32284" lon="3.57614">
        <ele>1046.5</ele>
        <time>2021-10-23T11:09:06.979Z</time>
      </trkpt>
      <trkpt lat="44.32286" lon="3.57607">
        <ele>1046.7</ele>
        <time>2021-10-23T11:09:12.107Z</time>
      </trkpt>
      <trkpt lat="44.32287" lon="3.57601">
        <ele>1047.5</ele>
        <time>2021-10-23T11:09:17.123Z</time>
      </trkpt>
      <trkpt lat="44.32288" lon="3.57594">
        <ele>1048.4</ele>
        <time>2021-10-23T11:09:22.700Z</time>
      </trkpt>
      <trkpt lat="44.32291" lon="3.57589">
        <ele>1049.1</ele>
        <time>2021-10-23T11:09:27.715Z</time>
      </trkpt>
      <trkpt lat="44.32293" lon="3.57582">
        <ele>1050.5</ele>
        <time>2021-10-23T11:09:32.830Z</time>
      </trkpt>
      <trkpt lat="44.32296" lon="3.57575">
        <ele>1051.2</ele>
        <time>2021-10-23T11:09:38.090Z</time>
      </trkpt>
      <trkpt lat="44.32301" lon="3.57568">
        <ele>1052.3</ele>
        <time>2021-10-23T11:09:44.087Z</time>
      </trkpt>
      <trkpt lat="44.32304" lon="3.57561">
        <ele>1053.7</ele>
        <time>2021-10-23T11:09:49.094Z</time>
      </trkpt>
      <trkpt lat="44.32307" lon="3.57554">
        <ele>1054.5</ele>
        <time>2021-10-23T11:09:54.643Z</time>
      </trkpt>
      <trkpt lat="44.32311" lon="3.57548">
        <ele>1053</ele>
        <time>2021-10-23T11:10:00.074Z</time>
      </trkpt>
      <trkpt lat="44.32314" lon="3.57542">
        <ele>1052.8</ele>
        <time>2021-10-23T11:10:05.086Z</time>
      </trkpt>
      <trkpt lat="44.32319" lon="3.57537">
        <ele>1052.9</ele>
        <time>2021-10-23T11:10:10.960Z</time>
      </trkpt>
      <trkpt lat="44.32322" lon="3.57537">
        <ele>1052.1</ele>
        <time>2021-10-23T11:10:15.962Z</time>
      </trkpt>
      <trkpt lat="44.32323" lon="3.57534">
        <ele>1053.1</ele>
        <time>2021-10-23T11:10:21.000Z</time>
      </trkpt>
      <trkpt lat="44.32328" lon="3.57528">
        <ele>1054.9</ele>
        <time>2021-10-23T11:10:26.657Z</time>
      </trkpt>
      <trkpt lat="44.32332" lon="3.57522">
        <ele>1055.2</ele>
        <time>2021-10-23T11:10:31.871Z</time>
      </trkpt>
      <trkpt lat="44.32335" lon="3.57515">
        <ele>1055.1</ele>
        <time>2021-10-23T11:10:37.122Z</time>
      </trkpt>
      <trkpt lat="44.32336" lon="3.57513">
        <ele>1055</ele>
        <time>2021-10-23T11:10:42.880Z</time>
      </trkpt>
      <trkpt lat="44.32341" lon="3.57511">
        <ele>1054.6</ele>
        <time>2021-10-23T11:10:48.078Z</time>
      </trkpt>
      <trkpt lat="44.32346" lon="3.57506">
        <ele>1055.3</ele>
        <time>2021-10-23T11:10:53.912Z</time>
      </trkpt>
      <trkpt lat="44.32351" lon="3.57503">
        <ele>1056</ele>
        <time>2021-10-23T11:10:59.018Z</time>
      </trkpt>
      <trkpt lat="44.32356" lon="3.57501">
        <ele>1057.3</ele>
        <time>2021-10-23T11:11:04.022Z</time>
      </trkpt>
      <trkpt lat="44.32361" lon="3.57498">
        <ele>1057.9</ele>
        <time>2021-10-23T11:11:09.084Z</time>
      </trkpt>
      <trkpt lat="44.32367" lon="3.57495">
        <ele>1057.5</ele>
        <time>2021-10-23T11:11:14.531Z</time>
      </trkpt>
      <trkpt lat="44.32378" lon="3.57489">
        <ele>1057.4</ele>
        <time>2021-10-23T11:11:30.983Z</time>
      </trkpt>
      <trkpt lat="44.32386" lon="3.57485">
        <ele>1058.1</ele>
        <time>2021-10-23T11:11:35.988Z</time>
      </trkpt>
      <trkpt lat="44.32393" lon="3.57487">
        <ele>1057.7</ele>
        <time>2021-10-23T11:11:41.018Z</time>
      </trkpt>
      <trkpt lat="44.32398" lon="3.57484">
        <ele>1058.7</ele>
        <time>2021-10-23T11:11:48.059Z</time>
      </trkpt>
      <trkpt lat="44.32404" lon="3.57485">
        <ele>1058.4</ele>
        <time>2021-10-23T11:11:53.097Z</time>
      </trkpt>
      <trkpt lat="44.32406" lon="3.57485">
        <ele>1058.4</ele>
        <time>2021-10-23T11:11:59.065Z</time>
      </trkpt>
      <trkpt lat="44.32401" lon="3.57479">
        <ele>1059.9</ele>
        <time>2021-10-23T11:12:19.071Z</time>
      </trkpt>
      <trkpt lat="44.32402" lon="3.57482">
        <ele>1059.1</ele>
        <time>2021-10-23T11:12:25.083Z</time>
      </trkpt>
      <trkpt lat="44.32412" lon="3.5748">
        <ele>1060.2</ele>
        <time>2021-10-23T11:12:50.990Z</time>
      </trkpt>
      <trkpt lat="44.32417" lon="3.57478">
        <ele>1060.8</ele>
        <time>2021-10-23T11:12:58.043Z</time>
      </trkpt>
      <trkpt lat="44.32422" lon="3.57474">
        <ele>1060.3</ele>
        <time>2021-10-23T11:13:15.971Z</time>
      </trkpt>
      <trkpt lat="44.32423" lon="3.57477">
        <ele>1059</ele>
        <time>2021-10-23T11:13:25.939Z</time>
      </trkpt>
      <trkpt lat="44.32427" lon="3.57469">
        <ele>1059.5</ele>
        <time>2021-10-23T11:13:50.999Z</time>
      </trkpt>
      <trkpt lat="44.32432" lon="3.57454">
        <ele>1060.9</ele>
        <time>2021-10-23T11:13:57.497Z</time>
      </trkpt>
      <trkpt lat="44.32434" lon="3.57442">
        <ele>1063</ele>
        <time>2021-10-23T11:14:02.614Z</time>
      </trkpt>
      <trkpt lat="44.32437" lon="3.57436">
        <ele>1062.7</ele>
        <time>2021-10-23T11:14:07.697Z</time>
      </trkpt>
      <trkpt lat="44.3244" lon="3.57433">
        <ele>1062.7</ele>
        <time>2021-10-23T11:14:13.019Z</time>
      </trkpt>
      <trkpt lat="44.32442" lon="3.57428">
        <ele>1062.5</ele>
        <time>2021-10-23T11:14:18.866Z</time>
      </trkpt>
      <trkpt lat="44.32445" lon="3.57423">
        <ele>1062.4</ele>
        <time>2021-10-23T11:14:24.239Z</time>
      </trkpt>
      <trkpt lat="44.3245" lon="3.57421">
        <ele>1061.5</ele>
        <time>2021-10-23T11:14:29.381Z</time>
      </trkpt>
      <trkpt lat="44.32458" lon="3.57419">
        <ele>1061</ele>
        <time>2021-10-23T11:14:34.600Z</time>
      </trkpt>
      <trkpt lat="44.32463" lon="3.57412">
        <ele>1061.1</ele>
        <time>2021-10-23T11:14:39.644Z</time>
      </trkpt>
      <trkpt lat="44.32469" lon="3.57409">
        <ele>1061</ele>
        <time>2021-10-23T11:14:45.081Z</time>
      </trkpt>
      <trkpt lat="44.32471" lon="3.57409">
        <ele>1061</ele>
        <time>2021-10-23T11:14:50.981Z</time>
      </trkpt>
      <trkpt lat="44.32473" lon="3.57407">
        <ele>1060.6</ele>
        <time>2021-10-23T11:14:57.058Z</time>
      </trkpt>
      <trkpt lat="44.32476" lon="3.57403">
        <ele>1059.6</ele>
        <time>2021-10-23T11:15:02.067Z</time>
      </trkpt>
      <trkpt lat="44.32479" lon="3.57398">
        <ele>1058.8</ele>
        <time>2021-10-23T11:15:10.981Z</time>
      </trkpt>
      <trkpt lat="44.32482" lon="3.57392">
        <ele>1058.9</ele>
        <time>2021-10-23T11:15:15.996Z</time>
      </trkpt>
      <trkpt lat="44.32484" lon="3.57383">
        <ele>1058.7</ele>
        <time>2021-10-23T11:15:23.703Z</time>
      </trkpt>
      <trkpt lat="44.32484" lon="3.57379">
        <ele>1058.7</ele>
        <time>2021-10-23T11:15:28.782Z</time>
      </trkpt>
      <trkpt lat="44.32486" lon="3.57372">
        <ele>1058.5</ele>
        <time>2021-10-23T11:15:33.817Z</time>
      </trkpt>
      <trkpt lat="44.32492" lon="3.57367">
        <ele>1058.8</ele>
        <time>2021-10-23T11:15:39.088Z</time>
      </trkpt>
      <trkpt lat="44.325" lon="3.57362">
        <ele>1059.8</ele>
        <time>2021-10-23T11:15:44.810Z</time>
      </trkpt>
      <trkpt lat="44.32505" lon="3.57356">
        <ele>1058.7</ele>
        <time>2021-10-23T11:15:50.395Z</time>
      </trkpt>
      <trkpt lat="44.32506" lon="3.57348">
        <ele>1057.9</ele>
        <time>2021-10-23T11:15:55.521Z</time>
      </trkpt>
      <trkpt lat="44.32507" lon="3.57347">
        <ele>1057.8</ele>
        <time>2021-10-23T11:16:00.937Z</time>
      </trkpt>
      <trkpt lat="44.3251" lon="3.57339">
        <ele>1057.6</ele>
        <time>2021-10-23T11:16:05.958Z</time>
      </trkpt>
      <trkpt lat="44.32516" lon="3.57332">
        <ele>1058</ele>
        <time>2021-10-23T11:16:10.964Z</time>
      </trkpt>
      <trkpt lat="44.32518" lon="3.57331">
        <ele>1058.3</ele>
        <time>2021-10-23T11:16:15.964Z</time>
      </trkpt>
      <trkpt lat="44.32523" lon="3.57331">
        <ele>1059</ele>
        <time>2021-10-23T11:16:22.215Z</time>
      </trkpt>
      <trkpt lat="44.3253" lon="3.57329">
        <ele>1059</ele>
        <time>2021-10-23T11:16:27.274Z</time>
      </trkpt>
      <trkpt lat="44.32539" lon="3.5732">
        <ele>1057.7</ele>
        <time>2021-10-23T11:16:33.039Z</time>
      </trkpt>
      <trkpt lat="44.32543" lon="3.57312">
        <ele>1058.4</ele>
        <time>2021-10-23T11:16:38.071Z</time>
      </trkpt>
      <trkpt lat="44.32547" lon="3.57306">
        <ele>1059.8</ele>
        <time>2021-10-23T11:16:43.720Z</time>
      </trkpt>
      <trkpt lat="44.32551" lon="3.57301">
        <ele>1059.7</ele>
        <time>2021-10-23T11:16:48.994Z</time>
      </trkpt>
      <trkpt lat="44.32555" lon="3.57294">
        <ele>1059.2</ele>
        <time>2021-10-23T11:16:54.858Z</time>
      </trkpt>
      <trkpt lat="44.32558" lon="3.57287">
        <ele>1058.4</ele>
        <time>2021-10-23T11:17:00.068Z</time>
      </trkpt>
      <trkpt lat="44.32561" lon="3.57283">
        <ele>1058.2</ele>
        <time>2021-10-23T11:17:05.949Z</time>
      </trkpt>
      <trkpt lat="44.32566" lon="3.57279">
        <ele>1058.5</ele>
        <time>2021-10-23T11:17:10.950Z</time>
      </trkpt>
      <trkpt lat="44.32572" lon="3.57277">
        <ele>1059.3</ele>
        <time>2021-10-23T11:17:15.979Z</time>
      </trkpt>
      <trkpt lat="44.32578" lon="3.57275">
        <ele>1059.9</ele>
        <time>2021-10-23T11:17:22.066Z</time>
      </trkpt>
      <trkpt lat="44.32585" lon="3.57276">
        <ele>1060.8</ele>
        <time>2021-10-23T11:17:27.161Z</time>
      </trkpt>
      <trkpt lat="44.32593" lon="3.57275">
        <ele>1060.8</ele>
        <time>2021-10-23T11:17:32.794Z</time>
      </trkpt>
      <trkpt lat="44.32599" lon="3.57273">
        <ele>1060.9</ele>
        <time>2021-10-23T11:17:38.750Z</time>
      </trkpt>
      <trkpt lat="44.32604" lon="3.57272">
        <ele>1061</ele>
        <time>2021-10-23T11:17:44.450Z</time>
      </trkpt>
      <trkpt lat="44.32605" lon="3.57275">
        <ele>1061</ele>
        <time>2021-10-23T11:17:49.736Z</time>
      </trkpt>
      <trkpt lat="44.32606" lon="3.57277">
        <ele>1061</ele>
        <time>2021-10-23T11:17:55.947Z</time>
      </trkpt>
      <trkpt lat="44.32598" lon="3.57278">
        <ele>1060.8</ele>
        <time>2021-10-23T11:18:11.063Z</time>
      </trkpt>
      <trkpt lat="44.32595" lon="3.57278">
        <ele>1061</ele>
        <time>2021-10-23T11:18:16.104Z</time>
      </trkpt>
      <trkpt lat="44.32598" lon="3.57279">
        <ele>1060.5</ele>
        <time>2021-10-23T11:18:23.062Z</time>
      </trkpt>
      <trkpt lat="44.32599" lon="3.5728">
        <ele>1060.2</ele>
        <time>2021-10-23T11:18:36.057Z</time>
      </trkpt>
      <trkpt lat="44.32601" lon="3.57281">
        <ele>1059.7</ele>
        <time>2021-10-23T11:18:42.071Z</time>
      </trkpt>
      <trkpt lat="44.32601" lon="3.57281">
        <ele>1059.7</ele>
        <time>2021-10-23T11:18:48.082Z</time>
      </trkpt>
      <trkpt lat="44.32601" lon="3.5728">
        <ele>1060.2</ele>
        <time>2021-10-23T11:19:16.079Z</time>
      </trkpt>
      <trkpt lat="44.32602" lon="3.57278">
        <ele>1060.7</ele>
        <time>2021-10-23T11:19:21.100Z</time>
      </trkpt>
      <trkpt lat="44.32602" lon="3.57277">
        <ele>1061</ele>
        <time>2021-10-23T11:19:30.798Z</time>
      </trkpt>
      <trkpt lat="44.32603" lon="3.57275">
        <ele>1061</ele>
        <time>2021-10-23T11:19:35.972Z</time>
      </trkpt>
      <trkpt lat="44.32608" lon="3.57268">
        <ele>1061.2</ele>
        <time>2021-10-23T11:19:40.985Z</time>
      </trkpt>
      <trkpt lat="44.32612" lon="3.5726">
        <ele>1061.5</ele>
        <time>2021-10-23T11:19:46.715Z</time>
      </trkpt>
      <trkpt lat="44.32616" lon="3.57256">
        <ele>1061.3</ele>
        <time>2021-10-23T11:19:51.832Z</time>
      </trkpt>
      <trkpt lat="44.32622" lon="3.57251">
        <ele>1061.4</ele>
        <time>2021-10-23T11:19:58.358Z</time>
      </trkpt>
      <trkpt lat="44.32625" lon="3.57244">
        <ele>1061.2</ele>
        <time>2021-10-23T11:20:03.378Z</time>
      </trkpt>
      <trkpt lat="44.3263" lon="3.57238">
        <ele>1061.1</ele>
        <time>2021-10-23T11:20:08.393Z</time>
      </trkpt>
      <trkpt lat="44.32636" lon="3.57234">
        <ele>1061.4</ele>
        <time>2021-10-23T11:20:13.785Z</time>
      </trkpt>
      <trkpt lat="44.32643" lon="3.57231">
        <ele>1061.4</ele>
        <time>2021-10-23T11:20:19.055Z</time>
      </trkpt>
      <trkpt lat="44.32648" lon="3.57228">
        <ele>1061.5</ele>
        <time>2021-10-23T11:20:25.256Z</time>
      </trkpt>
      <trkpt lat="44.32652" lon="3.57225">
        <ele>1061.9</ele>
        <time>2021-10-23T11:20:30.382Z</time>
      </trkpt>
      <trkpt lat="44.32657" lon="3.5722">
        <ele>1062.5</ele>
        <time>2021-10-23T11:20:35.988Z</time>
      </trkpt>
      <trkpt lat="44.32663" lon="3.57213">
        <ele>1062.7</ele>
        <time>2021-10-23T11:20:41.586Z</time>
      </trkpt>
      <trkpt lat="44.32669" lon="3.57209">
        <ele>1062.9</ele>
        <time>2021-10-23T11:20:47.454Z</time>
      </trkpt>
      <trkpt lat="44.32676" lon="3.57206">
        <ele>1062.8</ele>
        <time>2021-10-23T11:20:52.872Z</time>
      </trkpt>
      <trkpt lat="44.32682" lon="3.57204">
        <ele>1063</ele>
        <time>2021-10-23T11:20:57.980Z</time>
      </trkpt>
      <trkpt lat="44.32686" lon="3.57202">
        <ele>1063.2</ele>
        <time>2021-10-23T11:21:03.002Z</time>
      </trkpt>
      <trkpt lat="44.32688" lon="3.57198">
        <ele>1063.9</ele>
        <time>2021-10-23T11:21:08.642Z</time>
      </trkpt>
      <trkpt lat="44.32694" lon="3.57193">
        <ele>1064.8</ele>
        <time>2021-10-23T11:21:14.064Z</time>
      </trkpt>
      <trkpt lat="44.32698" lon="3.57189">
        <ele>1064.2</ele>
        <time>2021-10-23T11:21:19.440Z</time>
      </trkpt>
      <trkpt lat="44.32702" lon="3.57184">
        <ele>1063.8</ele>
        <time>2021-10-23T11:21:25.086Z</time>
      </trkpt>
      <trkpt lat="44.32706" lon="3.57179">
        <ele>1063.6</ele>
        <time>2021-10-23T11:21:30.701Z</time>
      </trkpt>
      <trkpt lat="44.32707" lon="3.57169">
        <ele>1063.8</ele>
        <time>2021-10-23T11:21:35.972Z</time>
      </trkpt>
      <trkpt lat="44.3271" lon="3.57159">
        <ele>1063.4</ele>
        <time>2021-10-23T11:21:41.722Z</time>
      </trkpt>
      <trkpt lat="44.32712" lon="3.57152">
        <ele>1063</ele>
        <time>2021-10-23T11:21:47.097Z</time>
      </trkpt>
      <trkpt lat="44.32714" lon="3.57147">
        <ele>1062.8</ele>
        <time>2021-10-23T11:21:52.106Z</time>
      </trkpt>
      <trkpt lat="44.32718" lon="3.57142">
        <ele>1062.8</ele>
        <time>2021-10-23T11:21:57.559Z</time>
      </trkpt>
      <trkpt lat="44.3272" lon="3.5714">
        <ele>1062.9</ele>
        <time>2021-10-23T11:22:04.046Z</time>
      </trkpt>
      <trkpt lat="44.32719" lon="3.5715">
        <ele>1063.5</ele>
        <time>2021-10-23T11:23:02.438Z</time>
      </trkpt>
      <trkpt lat="44.32718" lon="3.57157">
        <ele>1063.9</ele>
        <time>2021-10-23T11:23:08.028Z</time>
      </trkpt>
      <trkpt lat="44.32722" lon="3.57163">
        <ele>1064.7</ele>
        <time>2021-10-23T11:23:14.032Z</time>
      </trkpt>
      <trkpt lat="44.32721" lon="3.57169">
        <ele>1064.6</ele>
        <time>2021-10-23T11:23:19.083Z</time>
      </trkpt>
      <trkpt lat="44.32722" lon="3.57179">
        <ele>1063.3</ele>
        <time>2021-10-23T11:23:25.051Z</time>
      </trkpt>
      <trkpt lat="44.32719" lon="3.57184">
        <ele>1062.7</ele>
        <time>2021-10-23T11:23:30.068Z</time>
      </trkpt>
      <trkpt lat="44.32717" lon="3.57188">
        <ele>1062.5</ele>
        <time>2021-10-23T11:23:40.976Z</time>
      </trkpt>
      <trkpt lat="44.32712" lon="3.57189">
        <ele>1062.8</ele>
        <time>2021-10-23T11:24:04.139Z</time>
      </trkpt>
      <trkpt lat="44.32713" lon="3.57191">
        <ele>1062.7</ele>
        <time>2021-10-23T11:24:17.240Z</time>
      </trkpt>
      <trkpt lat="44.32711" lon="3.57191">
        <ele>1062.9</ele>
        <time>2021-10-23T11:24:50.054Z</time>
      </trkpt>
      <trkpt lat="44.3271" lon="3.57191">
        <ele>1063</ele>
        <time>2021-10-23T11:25:04.064Z</time>
      </trkpt>
      <trkpt lat="44.3271" lon="3.5719">
        <ele>1063</ele>
        <time>2021-10-23T11:54:31.083Z</time>
      </trkpt>
      <trkpt lat="44.32711" lon="3.57189">
        <ele>1062.9</ele>
        <time>2021-10-23T11:54:36.171Z</time>
      </trkpt>
      <trkpt lat="44.32714" lon="3.57188">
        <ele>1062.7</ele>
        <time>2021-10-23T11:56:47.338Z</time>
      </trkpt>
      <trkpt lat="44.32714" lon="3.5719">
        <ele>1062.5</ele>
        <time>2021-10-23T11:56:54.131Z</time>
      </trkpt>
      <trkpt lat="44.3271" lon="3.57185">
        <ele>1063.3</ele>
        <time>2021-10-23T11:57:53.562Z</time>
      </trkpt>
      <trkpt lat="44.32706" lon="3.57179">
        <ele>1063.6</ele>
        <time>2021-10-23T11:57:59.065Z</time>
      </trkpt>
      <trkpt lat="44.32703" lon="3.57174">
        <ele>1063.7</ele>
        <time>2021-10-23T11:58:05.978Z</time>
      </trkpt>
      <trkpt lat="44.32702" lon="3.57172">
        <ele>1063.6</ele>
        <time>2021-10-23T11:58:14.084Z</time>
      </trkpt>
      <trkpt lat="44.327" lon="3.57169">
        <ele>1063.4</ele>
        <time>2021-10-23T11:58:20.042Z</time>
      </trkpt>
      <trkpt lat="44.32701" lon="3.57172">
        <ele>1063.6</ele>
        <time>2021-10-23T11:58:25.995Z</time>
      </trkpt>
      <trkpt lat="44.32702" lon="3.57183">
        <ele>1063.8</ele>
        <time>2021-10-23T11:58:34.089Z</time>
      </trkpt>
      <trkpt lat="44.32702" lon="3.57175">
        <ele>1063.7</ele>
        <time>2021-10-23T11:58:45.991Z</time>
      </trkpt>
      <trkpt lat="44.3271" lon="3.57188">
        <ele>1063.1</ele>
        <time>2021-10-23T11:59:26.005Z</time>
      </trkpt>
      <trkpt lat="44.32709" lon="3.57191">
        <ele>1063.1</ele>
        <time>2021-10-23T12:02:29.058Z</time>
      </trkpt>
      <trkpt lat="44.32707" lon="3.57196">
        <ele>1062.7</ele>
        <time>2021-10-23T12:05:25.974Z</time>
      </trkpt>
      <trkpt lat="44.32709" lon="3.57193">
        <ele>1063</ele>
        <time>2021-10-23T12:06:16.040Z</time>
      </trkpt>
      <trkpt lat="44.327" lon="3.57191">
        <ele>1064</ele>
        <time>2021-10-23T12:06:44.863Z</time>
      </trkpt>
      <trkpt lat="44.32695" lon="3.57197">
        <ele>1064.4</ele>
        <time>2021-10-23T12:06:50.044Z</time>
      </trkpt>
      <trkpt lat="44.32694" lon="3.57206">
        <ele>1062.4</ele>
        <time>2021-10-23T12:06:55.077Z</time>
      </trkpt>
      <trkpt lat="44.32694" lon="3.57212">
        <ele>1061.2</ele>
        <time>2021-10-23T12:07:00.161Z</time>
      </trkpt>
      <trkpt lat="44.32693" lon="3.57214">
        <ele>1061</ele>
        <time>2021-10-23T12:07:05.994Z</time>
      </trkpt>
      <trkpt lat="44.32693" lon="3.57217">
        <ele>1060.3</ele>
        <time>2021-10-23T12:07:11.034Z</time>
      </trkpt>
      <trkpt lat="44.32687" lon="3.57224">
        <ele>1059.5</ele>
        <time>2021-10-23T12:07:16.742Z</time>
      </trkpt>
      <trkpt lat="44.32683" lon="3.57229">
        <ele>1058.1</ele>
        <time>2021-10-23T12:07:22.113Z</time>
      </trkpt>
      <trkpt lat="44.32683" lon="3.57225">
        <ele>1059.6</ele>
        <time>2021-10-23T12:07:27.641Z</time>
      </trkpt>
      <trkpt lat="44.32678" lon="3.57226">
        <ele>1059.9</ele>
        <time>2021-10-23T12:07:32.741Z</time>
      </trkpt>
      <trkpt lat="44.32675" lon="3.57226">
        <ele>1060.4</ele>
        <time>2021-10-23T12:07:39.095Z</time>
      </trkpt>
      <trkpt lat="44.32676" lon="3.57225">
        <ele>1060.4</ele>
        <time>2021-10-23T12:07:44.540Z</time>
      </trkpt>
      <trkpt lat="44.32674" lon="3.57226">
        <ele>1060.6</ele>
        <time>2021-10-23T12:07:55.995Z</time>
      </trkpt>
      <trkpt lat="44.32658" lon="3.57232">
        <ele>1060.1</ele>
        <time>2021-10-23T12:08:05.477Z</time>
      </trkpt>
      <trkpt lat="44.32648" lon="3.5724">
        <ele>1059.7</ele>
        <time>2021-10-23T12:08:10.762Z</time>
      </trkpt>
      <trkpt lat="44.32641" lon="3.5725">
        <ele>1060.4</ele>
        <time>2021-10-23T12:08:15.987Z</time>
      </trkpt>
      <trkpt lat="44.3264" lon="3.57247">
        <ele>1060.9</ele>
        <time>2021-10-23T12:08:21.025Z</time>
      </trkpt>
      <trkpt lat="44.32631" lon="3.57255">
        <ele>1060</ele>
        <time>2021-10-23T12:08:28.494Z</time>
      </trkpt>
      <trkpt lat="44.32628" lon="3.57249">
        <ele>1061.4</ele>
        <time>2021-10-23T12:08:34.103Z</time>
      </trkpt>
      <trkpt lat="44.3262" lon="3.57257">
        <ele>1060.8</ele>
        <time>2021-10-23T12:08:39.740Z</time>
      </trkpt>
      <trkpt lat="44.32618" lon="3.57272">
        <ele>1059.4</ele>
        <time>2021-10-23T12:08:45.425Z</time>
      </trkpt>
      <trkpt lat="44.32619" lon="3.57278">
        <ele>1058.6</ele>
        <time>2021-10-23T12:08:51.018Z</time>
      </trkpt>
      <trkpt lat="44.32618" lon="3.5728">
        <ele>1057.9</ele>
        <time>2021-10-23T12:08:56.023Z</time>
      </trkpt>
      <trkpt lat="44.32615" lon="3.5728">
        <ele>1058.7</ele>
        <time>2021-10-23T12:09:04.661Z</time>
      </trkpt>
      <trkpt lat="44.3261" lon="3.57283">
        <ele>1058.2</ele>
        <time>2021-10-23T12:09:09.698Z</time>
      </trkpt>
      <trkpt lat="44.32603" lon="3.57286">
        <ele>1057.5</ele>
        <time>2021-10-23T12:09:16.000Z</time>
      </trkpt>
      <trkpt lat="44.32598" lon="3.57285">
        <ele>1058.1</ele>
        <time>2021-10-23T12:09:21.001Z</time>
      </trkpt>
      <trkpt lat="44.32601" lon="3.57282">
        <ele>1059</ele>
        <time>2021-10-23T12:09:30.993Z</time>
      </trkpt>
      <trkpt lat="44.32603" lon="3.57284">
        <ele>1058.2</ele>
        <time>2021-10-23T12:09:38.617Z</time>
      </trkpt>
      <trkpt lat="44.32598" lon="3.57282">
        <ele>1059.2</ele>
        <time>2021-10-23T12:09:43.649Z</time>
      </trkpt>
      <trkpt lat="44.32591" lon="3.57287">
        <ele>1058</ele>
        <time>2021-10-23T12:09:49.088Z</time>
      </trkpt>
      <trkpt lat="44.32588" lon="3.57296">
        <ele>1055.4</ele>
        <time>2021-10-23T12:09:55.067Z</time>
      </trkpt>
      <trkpt lat="44.32588" lon="3.57299">
        <ele>1054.6</ele>
        <time>2021-10-23T12:10:00.991Z</time>
      </trkpt>
      <trkpt lat="44.32583" lon="3.57294">
        <ele>1057</ele>
        <time>2021-10-23T12:10:26.034Z</time>
      </trkpt>
      <trkpt lat="44.32573" lon="3.57291">
        <ele>1058.1</ele>
        <time>2021-10-23T12:10:32.891Z</time>
      </trkpt>
      <trkpt lat="44.32565" lon="3.57295">
        <ele>1058.6</ele>
        <time>2021-10-23T12:10:38.550Z</time>
      </trkpt>
      <trkpt lat="44.32562" lon="3.573">
        <ele>1059</ele>
        <time>2021-10-23T12:10:44.075Z</time>
      </trkpt>
      <trkpt lat="44.32564" lon="3.57305">
        <ele>1059</ele>
        <time>2021-10-23T12:10:49.689Z</time>
      </trkpt>
      <trkpt lat="44.32561" lon="3.57309">
        <ele>1058.4</ele>
        <time>2021-10-23T12:10:54.721Z</time>
      </trkpt>
      <trkpt lat="44.32557" lon="3.57309">
        <ele>1059.5</ele>
        <time>2021-10-23T12:10:59.994Z</time>
      </trkpt>
      <trkpt lat="44.32556" lon="3.57307">
        <ele>1060.3</ele>
        <time>2021-10-23T12:11:05.537Z</time>
      </trkpt>
      <trkpt lat="44.32555" lon="3.57315">
        <ele>1057.8</ele>
        <time>2021-10-23T12:11:10.971Z</time>
      </trkpt>
      <trkpt lat="44.32553" lon="3.57319">
        <ele>1056.8</ele>
        <time>2021-10-23T12:11:16.000Z</time>
      </trkpt>
      <trkpt lat="44.32547" lon="3.57323">
        <ele>1056.4</ele>
        <time>2021-10-23T12:11:26.003Z</time>
      </trkpt>
      <trkpt lat="44.32544" lon="3.57332">
        <ele>1055.5</ele>
        <time>2021-10-23T12:11:31.025Z</time>
      </trkpt>
      <trkpt lat="44.32539" lon="3.57338">
        <ele>1055.5</ele>
        <time>2021-10-23T12:11:37.755Z</time>
      </trkpt>
      <trkpt lat="44.32534" lon="3.57341">
        <ele>1056.7</ele>
        <time>2021-10-23T12:11:43.204Z</time>
      </trkpt>
      <trkpt lat="44.32535" lon="3.57345">
        <ele>1055.4</ele>
        <time>2021-10-23T12:11:48.732Z</time>
      </trkpt>
      <trkpt lat="44.32536" lon="3.57346">
        <ele>1054.9</ele>
        <time>2021-10-23T12:11:54.520Z</time>
      </trkpt>
      <trkpt lat="44.32533" lon="3.57348">
        <ele>1055.6</ele>
        <time>2021-10-23T12:11:59.533Z</time>
      </trkpt>
      <trkpt lat="44.3253" lon="3.57351">
        <ele>1055.8</ele>
        <time>2021-10-23T12:12:04.833Z</time>
      </trkpt>
      <trkpt lat="44.32527" lon="3.57356">
        <ele>1056</ele>
        <time>2021-10-23T12:12:10.522Z</time>
      </trkpt>
      <trkpt lat="44.32529" lon="3.57359">
        <ele>1054.9</ele>
        <time>2021-10-23T12:12:16.017Z</time>
      </trkpt>
      <trkpt lat="44.32528" lon="3.57366">
        <ele>1052.6</ele>
        <time>2021-10-23T12:12:21.638Z</time>
      </trkpt>
      <trkpt lat="44.32521" lon="3.5737">
        <ele>1053.1</ele>
        <time>2021-10-23T12:12:26.892Z</time>
      </trkpt>
      <trkpt lat="44.32508" lon="3.57365">
        <ele>1057.7</ele>
        <time>2021-10-23T12:12:31.946Z</time>
      </trkpt>
      <trkpt lat="44.32503" lon="3.57365">
        <ele>1058.8</ele>
        <time>2021-10-23T12:12:36.984Z</time>
      </trkpt>
      <trkpt lat="44.325" lon="3.57365">
        <ele>1059.4</ele>
        <time>2021-10-23T12:12:42.173Z</time>
      </trkpt>
      <trkpt lat="44.32497" lon="3.57367">
        <ele>1059</ele>
        <time>2021-10-23T12:12:48.050Z</time>
      </trkpt>
      <trkpt lat="44.32496" lon="3.57371">
        <ele>1058.6</ele>
        <time>2021-10-23T12:12:53.380Z</time>
      </trkpt>
      <trkpt lat="44.32495" lon="3.57375">
        <ele>1058.2</ele>
        <time>2021-10-23T12:12:58.601Z</time>
      </trkpt>
      <trkpt lat="44.32492" lon="3.5738">
        <ele>1058</ele>
        <time>2021-10-23T12:13:03.737Z</time>
      </trkpt>
      <trkpt lat="44.32488" lon="3.57387">
        <ele>1058.3</ele>
        <time>2021-10-23T12:13:09.121Z</time>
      </trkpt>
      <trkpt lat="44.32483" lon="3.574">
        <ele>1057</ele>
        <time>2021-10-23T12:13:14.726Z</time>
      </trkpt>
      <trkpt lat="44.3248" lon="3.57408">
        <ele>1056.9</ele>
        <time>2021-10-23T12:13:20.091Z</time>
      </trkpt>
      <trkpt lat="44.32479" lon="3.57413">
        <ele>1056.9</ele>
        <time>2021-10-23T12:13:25.246Z</time>
      </trkpt>
      <trkpt lat="44.32479" lon="3.57421">
        <ele>1054.4</ele>
        <time>2021-10-23T12:13:31.043Z</time>
      </trkpt>
      <trkpt lat="44.32476" lon="3.57431">
        <ele>1050.1</ele>
        <time>2021-10-23T12:13:37.149Z</time>
      </trkpt>
      <trkpt lat="44.32472" lon="3.57437">
        <ele>1048.8</ele>
        <time>2021-10-23T12:13:42.174Z</time>
      </trkpt>
      <trkpt lat="44.32468" lon="3.5744">
        <ele>1049.2</ele>
        <time>2021-10-23T12:13:47.597Z</time>
      </trkpt>
      <trkpt lat="44.32465" lon="3.5744">
        <ele>1051</ele>
        <time>2021-10-23T12:13:53.175Z</time>
      </trkpt>
      <trkpt lat="44.32464" lon="3.57441">
        <ele>1051.8</ele>
        <time>2021-10-23T12:13:59.075Z</time>
      </trkpt>
      <trkpt lat="44.32462" lon="3.57443">
        <ele>1051.9</ele>
        <time>2021-10-23T12:14:06.080Z</time>
      </trkpt>
      <trkpt lat="44.32461" lon="3.57445">
        <ele>1052</ele>
        <time>2021-10-23T12:14:23.531Z</time>
      </trkpt>
      <trkpt lat="44.32455" lon="3.57449">
        <ele>1054.6</ele>
        <time>2021-10-23T12:14:29.044Z</time>
      </trkpt>
      <trkpt lat="44.32448" lon="3.57455">
        <ele>1057</ele>
        <time>2021-10-23T12:14:34.044Z</time>
      </trkpt>
      <trkpt lat="44.32441" lon="3.57459">
        <ele>1058.2</ele>
        <time>2021-10-23T12:14:39.053Z</time>
      </trkpt>
      <trkpt lat="44.32436" lon="3.57463">
        <ele>1058</ele>
        <time>2021-10-23T12:14:44.131Z</time>
      </trkpt>
      <trkpt lat="44.32427" lon="3.57465">
        <ele>1060.1</ele>
        <time>2021-10-23T12:14:50.403Z</time>
      </trkpt>
      <trkpt lat="44.32421" lon="3.57465">
        <ele>1061.5</ele>
        <time>2021-10-23T12:14:55.998Z</time>
      </trkpt>
      <trkpt lat="44.32414" lon="3.57468">
        <ele>1062.6</ele>
        <time>2021-10-23T12:15:02.160Z</time>
      </trkpt>
      <trkpt lat="44.3241" lon="3.57478">
        <ele>1060.7</ele>
        <time>2021-10-23T12:15:07.971Z</time>
      </trkpt>
      <trkpt lat="44.32406" lon="3.57479">
        <ele>1060.3</ele>
        <time>2021-10-23T12:15:13.560Z</time>
      </trkpt>
      <trkpt lat="44.32403" lon="3.57474">
        <ele>1061.6</ele>
        <time>2021-10-23T12:15:19.070Z</time>
      </trkpt>
      <trkpt lat="44.32402" lon="3.57472">
        <ele>1061.9</ele>
        <time>2021-10-23T12:15:24.079Z</time>
      </trkpt>
      <trkpt lat="44.324" lon="3.57471">
        <ele>1061.7</ele>
        <time>2021-10-23T12:15:31.018Z</time>
      </trkpt>
      <trkpt lat="44.32401" lon="3.57475">
        <ele>1061.1</ele>
        <time>2021-10-23T12:15:38.083Z</time>
      </trkpt>
      <trkpt lat="44.32401" lon="3.57479">
        <ele>1059.9</ele>
        <time>2021-10-23T12:15:46.031Z</time>
      </trkpt>
      <trkpt lat="44.324" lon="3.57489">
        <ele>1057.2</ele>
        <time>2021-10-23T12:16:26.017Z</time>
      </trkpt>
      <trkpt lat="44.3238" lon="3.5749">
        <ele>1057.4</ele>
        <time>2021-10-23T12:16:32.052Z</time>
      </trkpt>
      <trkpt lat="44.32372" lon="3.57497">
        <ele>1057</ele>
        <time>2021-10-23T12:16:37.141Z</time>
      </trkpt>
      <trkpt lat="44.32361" lon="3.57501">
        <ele>1057.7</ele>
        <time>2021-10-23T12:16:42.329Z</time>
      </trkpt>
      <trkpt lat="44.32359" lon="3.57503">
        <ele>1056.4</ele>
        <time>2021-10-23T12:16:48.165Z</time>
      </trkpt>
      <trkpt lat="44.32353" lon="3.57506">
        <ele>1054.8</ele>
        <time>2021-10-23T12:16:53.900Z</time>
      </trkpt>
      <trkpt lat="44.32349" lon="3.5751">
        <ele>1053.8</ele>
        <time>2021-10-23T12:16:59.045Z</time>
      </trkpt>
      <trkpt lat="44.32343" lon="3.57512">
        <ele>1054</ele>
        <time>2021-10-23T12:17:04.076Z</time>
      </trkpt>
      <trkpt lat="44.32337" lon="3.57518">
        <ele>1054.3</ele>
        <time>2021-10-23T12:17:10.393Z</time>
      </trkpt>
      <trkpt lat="44.32332" lon="3.57522">
        <ele>1055.2</ele>
        <time>2021-10-23T12:17:15.984Z</time>
      </trkpt>
      <trkpt lat="44.32326" lon="3.57526">
        <ele>1055</ele>
        <time>2021-10-23T12:17:21.020Z</time>
      </trkpt>
      <trkpt lat="44.32317" lon="3.57535">
        <ele>1053.5</ele>
        <time>2021-10-23T12:17:27.113Z</time>
      </trkpt>
      <trkpt lat="44.32313" lon="3.57545">
        <ele>1052.7</ele>
        <time>2021-10-23T12:17:33.130Z</time>
      </trkpt>
      <trkpt lat="44.32308" lon="3.57554">
        <ele>1053.7</ele>
        <time>2021-10-23T12:17:38.850Z</time>
      </trkpt>
      <trkpt lat="44.32308" lon="3.57563">
        <ele>1052.2</ele>
        <time>2021-10-23T12:17:44.080Z</time>
      </trkpt>
      <trkpt lat="44.32308" lon="3.57573">
        <ele>1049.7</ele>
        <time>2021-10-23T12:17:49.341Z</time>
      </trkpt>
      <trkpt lat="44.32308" lon="3.57579">
        <ele>1048.3</ele>
        <time>2021-10-23T12:17:55.999Z</time>
      </trkpt>
      <trkpt lat="44.32305" lon="3.57567">
        <ele>1052.4</ele>
        <time>2021-10-23T12:18:01.004Z</time>
      </trkpt>
      <trkpt lat="44.32305" lon="3.57565">
        <ele>1052.9</ele>
        <time>2021-10-23T12:18:20.067Z</time>
      </trkpt>
      <trkpt lat="44.32303" lon="3.57569">
        <ele>1052.1</ele>
        <time>2021-10-23T12:18:25.460Z</time>
      </trkpt>
      <trkpt lat="44.32298" lon="3.57575">
        <ele>1051.1</ele>
        <time>2021-10-23T12:18:30.614Z</time>
      </trkpt>
      <trkpt lat="44.3229" lon="3.5758">
        <ele>1051</ele>
        <time>2021-10-23T12:18:35.983Z</time>
      </trkpt>
      <trkpt lat="44.32281" lon="3.57592">
        <ele>1050.5</ele>
        <time>2021-10-23T12:18:41.013Z</time>
      </trkpt>
      <trkpt lat="44.32279" lon="3.57602">
        <ele>1050.3</ele>
        <time>2021-10-23T12:18:47.150Z</time>
      </trkpt>
      <trkpt lat="44.32273" lon="3.57615">
        <ele>1049.1</ele>
        <time>2021-10-23T12:18:52.805Z</time>
      </trkpt>
      <trkpt lat="44.32269" lon="3.57619">
        <ele>1048.4</ele>
        <time>2021-10-23T12:18:57.884Z</time>
      </trkpt>
      <trkpt lat="44.32272" lon="3.57631">
        <ele>1048.1</ele>
        <time>2021-10-23T12:19:03.054Z</time>
      </trkpt>
      <trkpt lat="44.32271" lon="3.57638">
        <ele>1047.6</ele>
        <time>2021-10-23T12:19:08.654Z</time>
      </trkpt>
      <trkpt lat="44.32271" lon="3.57645">
        <ele>1046.1</ele>
        <time>2021-10-23T12:19:13.716Z</time>
      </trkpt>
      <trkpt lat="44.32272" lon="3.57654">
        <ele>1043.9</ele>
        <time>2021-10-23T12:19:19.798Z</time>
      </trkpt>
      <trkpt lat="44.32279" lon="3.57659">
        <ele>1041.1</ele>
        <time>2021-10-23T12:19:25.786Z</time>
      </trkpt>
      <trkpt lat="44.32283" lon="3.57665">
        <ele>1036.8</ele>
        <time>2021-10-23T12:19:30.996Z</time>
      </trkpt>
      <trkpt lat="44.32281" lon="3.57671">
        <ele>1036.6</ele>
        <time>2021-10-23T12:19:36.041Z</time>
      </trkpt>
      <trkpt lat="44.32273" lon="3.57675">
        <ele>1039.2</ele>
        <time>2021-10-23T12:19:41.050Z</time>
      </trkpt>
      <trkpt lat="44.32264" lon="3.57679">
        <ele>1040.8</ele>
        <time>2021-10-23T12:19:49.072Z</time>
      </trkpt>
      <trkpt lat="44.3226" lon="3.57686">
        <ele>1041.1</ele>
        <time>2021-10-23T12:19:55.254Z</time>
      </trkpt>
      <trkpt lat="44.32254" lon="3.5769">
        <ele>1042.8</ele>
        <time>2021-10-23T12:20:00.298Z</time>
      </trkpt>
      <trkpt lat="44.32251" lon="3.57696">
        <ele>1043.4</ele>
        <time>2021-10-23T12:20:06.009Z</time>
      </trkpt>
      <trkpt lat="44.32247" lon="3.57705">
        <ele>1041.3</ele>
        <time>2021-10-23T12:20:12.147Z</time>
      </trkpt>
      <trkpt lat="44.32243" lon="3.57708">
        <ele>1041.1</ele>
        <time>2021-10-23T12:20:17.213Z</time>
      </trkpt>
      <trkpt lat="44.32237" lon="3.57716">
        <ele>1040.6</ele>
        <time>2021-10-23T12:20:22.763Z</time>
      </trkpt>
      <trkpt lat="44.32228" lon="3.57719">
        <ele>1042.5</ele>
        <time>2021-10-23T12:20:27.839Z</time>
      </trkpt>
      <trkpt lat="44.3222" lon="3.5772">
        <ele>1044.2</ele>
        <time>2021-10-23T12:20:33.235Z</time>
      </trkpt>
      <trkpt lat="44.32212" lon="3.57724">
        <ele>1044.3</ele>
        <time>2021-10-23T12:20:39.049Z</time>
      </trkpt>
      <trkpt lat="44.32208" lon="3.57729">
        <ele>1044.1</ele>
        <time>2021-10-23T12:20:44.086Z</time>
      </trkpt>
      <trkpt lat="44.32203" lon="3.57732">
        <ele>1044.7</ele>
        <time>2021-10-23T12:20:49.712Z</time>
      </trkpt>
      <trkpt lat="44.322" lon="3.57737">
        <ele>1045.1</ele>
        <time>2021-10-23T12:20:55.473Z</time>
      </trkpt>
      <trkpt lat="44.32197" lon="3.57745">
        <ele>1045.8</ele>
        <time>2021-10-23T12:21:00.856Z</time>
      </trkpt>
      <trkpt lat="44.32198" lon="3.57753">
        <ele>1044.5</ele>
        <time>2021-10-23T12:21:05.986Z</time>
      </trkpt>
      <trkpt lat="44.32198" lon="3.57757">
        <ele>1043</ele>
        <time>2021-10-23T12:21:10.989Z</time>
      </trkpt>
      <trkpt lat="44.32193" lon="3.57755">
        <ele>1045.6</ele>
        <time>2021-10-23T12:21:16.012Z</time>
      </trkpt>
      <trkpt lat="44.32191" lon="3.5775">
        <ele>1046.9</ele>
        <time>2021-10-23T12:21:21.612Z</time>
      </trkpt>
      <trkpt lat="44.32184" lon="3.57751">
        <ele>1046.8</ele>
        <time>2021-10-23T12:21:26.755Z</time>
      </trkpt>
      <trkpt lat="44.32176" lon="3.57759">
        <ele>1046.3</ele>
        <time>2021-10-23T12:21:32.178Z</time>
      </trkpt>
      <trkpt lat="44.32168" lon="3.57765">
        <ele>1047.2</ele>
        <time>2021-10-23T12:21:37.233Z</time>
      </trkpt>
      <trkpt lat="44.32162" lon="3.57778">
        <ele>1047.7</ele>
        <time>2021-10-23T12:21:42.868Z</time>
      </trkpt>
      <trkpt lat="44.32159" lon="3.5779">
        <ele>1045.1</ele>
        <time>2021-10-23T12:21:47.972Z</time>
      </trkpt>
      <trkpt lat="44.32152" lon="3.57801">
        <ele>1044.2</ele>
        <time>2021-10-23T12:21:53.779Z</time>
      </trkpt>
      <trkpt lat="44.32145" lon="3.57802">
        <ele>1045.6</ele>
        <time>2021-10-23T12:21:58.787Z</time>
      </trkpt>
      <trkpt lat="44.32142" lon="3.57802">
        <ele>1046.1</ele>
        <time>2021-10-23T12:22:04.062Z</time>
      </trkpt>
      <trkpt lat="44.3214" lon="3.57806">
        <ele>1046.5</ele>
        <time>2021-10-23T12:22:09.081Z</time>
      </trkpt>
      <trkpt lat="44.32142" lon="3.57811">
        <ele>1044.6</ele>
        <time>2021-10-23T12:22:14.810Z</time>
      </trkpt>
      <trkpt lat="44.32137" lon="3.57812">
        <ele>1045.3</ele>
        <time>2021-10-23T12:22:20.345Z</time>
      </trkpt>
      <trkpt lat="44.32133" lon="3.57816">
        <ele>1044.6</ele>
        <time>2021-10-23T12:22:26.026Z</time>
      </trkpt>
      <trkpt lat="44.32128" lon="3.57826">
        <ele>1043.2</ele>
        <time>2021-10-23T12:22:32.201Z</time>
      </trkpt>
      <trkpt lat="44.32123" lon="3.5783">
        <ele>1043.3</ele>
        <time>2021-10-23T12:22:38.127Z</time>
      </trkpt>
      <trkpt lat="44.32119" lon="3.57833">
        <ele>1043.6</ele>
        <time>2021-10-23T12:22:44.059Z</time>
      </trkpt>
      <trkpt lat="44.32113" lon="3.57836">
        <ele>1043.9</ele>
        <time>2021-10-23T12:22:49.071Z</time>
      </trkpt>
      <trkpt lat="44.3211" lon="3.57844">
        <ele>1042.9</ele>
        <time>2021-10-23T12:22:54.076Z</time>
      </trkpt>
      <trkpt lat="44.32112" lon="3.57848">
        <ele>1041.7</ele>
        <time>2021-10-23T12:22:59.077Z</time>
      </trkpt>
      <trkpt lat="44.32121" lon="3.57847">
        <ele>1039.2</ele>
        <time>2021-10-23T12:23:11.039Z</time>
      </trkpt>
      <trkpt lat="44.32107" lon="3.57849">
        <ele>1042.2</ele>
        <time>2021-10-23T12:23:41.026Z</time>
      </trkpt>
      <trkpt lat="44.32102" lon="3.57852">
        <ele>1042.4</ele>
        <time>2021-10-23T12:23:46.034Z</time>
      </trkpt>
      <trkpt lat="44.3209" lon="3.5786">
        <ele>1043.8</ele>
        <time>2021-10-23T12:23:55.550Z</time>
      </trkpt>
      <trkpt lat="44.3208" lon="3.57865">
        <ele>1044.6</ele>
        <time>2021-10-23T12:24:00.797Z</time>
      </trkpt>
      <trkpt lat="44.32072" lon="3.57866">
        <ele>1046</ele>
        <time>2021-10-23T12:24:06.027Z</time>
      </trkpt>
      <trkpt lat="44.32065" lon="3.5787">
        <ele>1046.8</ele>
        <time>2021-10-23T12:24:11.049Z</time>
      </trkpt>
      <trkpt lat="44.3206" lon="3.57875">
        <ele>1047.2</ele>
        <time>2021-10-23T12:24:16.652Z</time>
      </trkpt>
      <trkpt lat="44.32057" lon="3.57882">
        <ele>1047.3</ele>
        <time>2021-10-23T12:24:22.173Z</time>
      </trkpt>
      <trkpt lat="44.32055" lon="3.57883">
        <ele>1047.7</ele>
        <time>2021-10-23T12:24:27.237Z</time>
      </trkpt>
      <trkpt lat="44.32052" lon="3.57885">
        <ele>1048</ele>
        <time>2021-10-23T12:24:32.342Z</time>
      </trkpt>
      <trkpt lat="44.32048" lon="3.57887">
        <ele>1048.6</ele>
        <time>2021-10-23T12:24:37.930Z</time>
      </trkpt>
      <trkpt lat="44.32043" lon="3.57889">
        <ele>1049.3</ele>
        <time>2021-10-23T12:24:42.937Z</time>
      </trkpt>
      <trkpt lat="44.32035" lon="3.57891">
        <ele>1050.4</ele>
        <time>2021-10-23T12:24:48.090Z</time>
      </trkpt>
      <trkpt lat="44.32027" lon="3.57896">
        <ele>1051.3</ele>
        <time>2021-10-23T12:24:53.533Z</time>
      </trkpt>
      <trkpt lat="44.32023" lon="3.57903">
        <ele>1051.2</ele>
        <time>2021-10-23T12:24:58.597Z</time>
      </trkpt>
      <trkpt lat="44.32019" lon="3.57909">
        <ele>1051.3</ele>
        <time>2021-10-23T12:25:03.874Z</time>
      </trkpt>
      <trkpt lat="44.32014" lon="3.57915">
        <ele>1051.6</ele>
        <time>2021-10-23T12:25:09.073Z</time>
      </trkpt>
      <trkpt lat="44.3201" lon="3.57918">
        <ele>1051.9</ele>
        <time>2021-10-23T12:25:14.110Z</time>
      </trkpt>
      <trkpt lat="44.32005" lon="3.57921">
        <ele>1052.4</ele>
        <time>2021-10-23T12:25:20.135Z</time>
      </trkpt>
      <trkpt lat="44.32" lon="3.57926">
        <ele>1052.7</ele>
        <time>2021-10-23T12:25:25.366Z</time>
      </trkpt>
      <trkpt lat="44.31995" lon="3.57931">
        <ele>1052.9</ele>
        <time>2021-10-23T12:25:30.754Z</time>
      </trkpt>
      <trkpt lat="44.31992" lon="3.57937">
        <ele>1052.9</ele>
        <time>2021-10-23T12:25:36.062Z</time>
      </trkpt>
      <trkpt lat="44.31984" lon="3.57938">
        <ele>1054.4</ele>
        <time>2021-10-23T12:25:42.084Z</time>
      </trkpt>
      <trkpt lat="44.31979" lon="3.5794">
        <ele>1055.5</ele>
        <time>2021-10-23T12:25:48.076Z</time>
      </trkpt>
      <trkpt lat="44.31976" lon="3.57942">
        <ele>1056.1</ele>
        <time>2021-10-23T12:25:53.187Z</time>
      </trkpt>
      <trkpt lat="44.31974" lon="3.57944">
        <ele>1056.6</ele>
        <time>2021-10-23T12:25:58.590Z</time>
      </trkpt>
      <trkpt lat="44.31976" lon="3.57955">
        <ele>1052.8</ele>
        <time>2021-10-23T12:26:03.960Z</time>
      </trkpt>
      <trkpt lat="44.31976" lon="3.57962">
        <ele>1050.5</ele>
        <time>2021-10-23T12:26:09.074Z</time>
      </trkpt>
      <trkpt lat="44.31972" lon="3.57968">
        <ele>1050.2</ele>
        <time>2021-10-23T12:26:14.085Z</time>
      </trkpt>
      <trkpt lat="44.31966" lon="3.57975">
        <ele>1049.6</ele>
        <time>2021-10-23T12:26:19.281Z</time>
      </trkpt>
      <trkpt lat="44.3196" lon="3.57981">
        <ele>1048.8</ele>
        <time>2021-10-23T12:26:24.705Z</time>
      </trkpt>
      <trkpt lat="44.31958" lon="3.57989">
        <ele>1046.4</ele>
        <time>2021-10-23T12:26:30.500Z</time>
      </trkpt>
      <trkpt lat="44.31956" lon="3.57992">
        <ele>1045.9</ele>
        <time>2021-10-23T12:26:35.995Z</time>
      </trkpt>
      <trkpt lat="44.31952" lon="3.57993">
        <ele>1048</ele>
        <time>2021-10-23T12:26:41.013Z</time>
      </trkpt>
      <trkpt lat="44.31946" lon="3.57996">
        <ele>1051</ele>
        <time>2021-10-23T12:26:47.156Z</time>
      </trkpt>
      <trkpt lat="44.31943" lon="3.57999">
        <ele>1051.6</ele>
        <time>2021-10-23T12:26:52.230Z</time>
      </trkpt>
      <trkpt lat="44.31942" lon="3.58002">
        <ele>1050.7</ele>
        <time>2021-10-23T12:26:57.354Z</time>
      </trkpt>
      <trkpt lat="44.31946" lon="3.58001">
        <ele>1049.5</ele>
        <time>2021-10-23T12:27:03.780Z</time>
      </trkpt>
      <trkpt lat="44.31947" lon="3.58003">
        <ele>1048.1</ele>
        <time>2021-10-23T12:27:08.791Z</time>
      </trkpt>
      <trkpt lat="44.31943" lon="3.58008">
        <ele>1048.7</ele>
        <time>2021-10-23T12:27:33.070Z</time>
      </trkpt>
      <trkpt lat="44.31937" lon="3.58015">
        <ele>1048.5</ele>
        <time>2021-10-23T12:27:38.772Z</time>
      </trkpt>
      <trkpt lat="44.31932" lon="3.58024">
        <ele>1048.6</ele>
        <time>2021-10-23T12:27:44.085Z</time>
      </trkpt>
      <trkpt lat="44.31929" lon="3.58032">
        <ele>1048.6</ele>
        <time>2021-10-23T12:27:50.100Z</time>
      </trkpt>
      <trkpt lat="44.31916" lon="3.58053">
        <ele>1053.5</ele>
        <time>2021-10-23T12:28:29.054Z</time>
      </trkpt>
      <trkpt lat="44.31912" lon="3.5806">
        <ele>1052.2</ele>
        <time>2021-10-23T12:28:34.074Z</time>
      </trkpt>
      <trkpt lat="44.31906" lon="3.5807">
        <ele>1050.8</ele>
        <time>2021-10-23T12:28:39.836Z</time>
      </trkpt>
      <trkpt lat="44.31902" lon="3.58076">
        <ele>1051.1</ele>
        <time>2021-10-23T12:28:45.807Z</time>
      </trkpt>
      <trkpt lat="44.31896" lon="3.58085">
        <ele>1051.3</ele>
        <time>2021-10-23T12:28:51.050Z</time>
      </trkpt>
      <trkpt lat="44.31886" lon="3.5809">
        <ele>1052.9</ele>
        <time>2021-10-23T12:28:57.187Z</time>
      </trkpt>
      <trkpt lat="44.31883" lon="3.58089">
        <ele>1053.4</ele>
        <time>2021-10-23T12:29:02.218Z</time>
      </trkpt>
      <trkpt lat="44.31878" lon="3.58095">
        <ele>1052.5</ele>
        <time>2021-10-23T12:29:07.749Z</time>
      </trkpt>
      <trkpt lat="44.31874" lon="3.5811">
        <ele>1050.1</ele>
        <time>2021-10-23T12:29:13.139Z</time>
      </trkpt>
      <trkpt lat="44.31871" lon="3.58118">
        <ele>1048.6</ele>
        <time>2021-10-23T12:29:18.780Z</time>
      </trkpt>
      <trkpt lat="44.31868" lon="3.58124">
        <ele>1048.3</ele>
        <time>2021-10-23T12:29:24.074Z</time>
      </trkpt>
      <trkpt lat="44.31864" lon="3.58132">
        <ele>1048.4</ele>
        <time>2021-10-23T12:29:29.823Z</time>
      </trkpt>
      <trkpt lat="44.31856" lon="3.58134">
        <ele>1049.7</ele>
        <time>2021-10-23T12:29:34.993Z</time>
      </trkpt>
      <trkpt lat="44.31847" lon="3.58138">
        <ele>1050.2</ele>
        <time>2021-10-23T12:29:40.821Z</time>
      </trkpt>
      <trkpt lat="44.31842" lon="3.58141">
        <ele>1050.3</ele>
        <time>2021-10-23T12:29:46.030Z</time>
      </trkpt>
      <trkpt lat="44.31838" lon="3.58146">
        <ele>1050.4</ele>
        <time>2021-10-23T12:29:52.180Z</time>
      </trkpt>
      <trkpt lat="44.31836" lon="3.58151">
        <ele>1050.3</ele>
        <time>2021-10-23T12:29:57.205Z</time>
      </trkpt>
      <trkpt lat="44.31836" lon="3.58157">
        <ele>1049.9</ele>
        <time>2021-10-23T12:30:02.606Z</time>
      </trkpt>
      <trkpt lat="44.31839" lon="3.58159">
        <ele>1048.1</ele>
        <time>2021-10-23T12:30:07.818Z</time>
      </trkpt>
      <trkpt lat="44.31833" lon="3.58161">
        <ele>1050.4</ele>
        <time>2021-10-23T12:30:12.965Z</time>
      </trkpt>
      <trkpt lat="44.31828" lon="3.58169">
        <ele>1049.3</ele>
        <time>2021-10-23T12:30:18.276Z</time>
      </trkpt>
      <trkpt lat="44.31826" lon="3.58181">
        <ele>1046.5</ele>
        <time>2021-10-23T12:30:23.829Z</time>
      </trkpt>
      <trkpt lat="44.31821" lon="3.58191">
        <ele>1045.6</ele>
        <time>2021-10-23T12:30:29.940Z</time>
      </trkpt>
      <trkpt lat="44.31821" lon="3.58196">
        <ele>1044.8</ele>
        <time>2021-10-23T12:30:35.271Z</time>
      </trkpt>
      <trkpt lat="44.31821" lon="3.58197">
        <ele>1044.4</ele>
        <time>2021-10-23T12:30:41.031Z</time>
      </trkpt>
      <trkpt lat="44.31823" lon="3.58194">
        <ele>1044.4</ele>
        <time>2021-10-23T12:31:01.044Z</time>
      </trkpt>
      <trkpt lat="44.31819" lon="3.58205">
        <ele>1044</ele>
        <time>2021-10-23T12:34:06.029Z</time>
      </trkpt>
      <trkpt lat="44.31813" lon="3.58218">
        <ele>1045</ele>
        <time>2021-10-23T12:34:11.065Z</time>
      </trkpt>
      <trkpt lat="44.31804" lon="3.58232">
        <ele>1046.6</ele>
        <time>2021-10-23T12:34:19.087Z</time>
      </trkpt>
      <trkpt lat="44.31799" lon="3.58236">
        <ele>1047</ele>
        <time>2021-10-23T12:34:24.390Z</time>
      </trkpt>
      <trkpt lat="44.31797" lon="3.58243">
        <ele>1046.6</ele>
        <time>2021-10-23T12:34:29.664Z</time>
      </trkpt>
      <trkpt lat="44.31796" lon="3.58249">
        <ele>1046.2</ele>
        <time>2021-10-23T12:34:35.073Z</time>
      </trkpt>
      <trkpt lat="44.31793" lon="3.58253">
        <ele>1046.6</ele>
        <time>2021-10-23T12:34:41.017Z</time>
      </trkpt>
      <trkpt lat="44.31788" lon="3.58259">
        <ele>1048.2</ele>
        <time>2021-10-23T12:34:46.050Z</time>
      </trkpt>
      <trkpt lat="44.31781" lon="3.58261">
        <ele>1052</ele>
        <time>2021-10-23T12:34:53.555Z</time>
      </trkpt>
      <trkpt lat="44.31774" lon="3.5826">
        <ele>1053.9</ele>
        <time>2021-10-23T12:34:58.812Z</time>
      </trkpt>
      <trkpt lat="44.3177" lon="3.58264">
        <ele>1053.9</ele>
        <time>2021-10-23T12:35:04.074Z</time>
      </trkpt>
      <trkpt lat="44.31766" lon="3.58269">
        <ele>1054.3</ele>
        <time>2021-10-23T12:35:09.914Z</time>
      </trkpt>
      <trkpt lat="44.31767" lon="3.58274">
        <ele>1053.8</ele>
        <time>2021-10-23T12:35:15.784Z</time>
      </trkpt>
      <trkpt lat="44.31769" lon="3.58274">
        <ele>1053.5</ele>
        <time>2021-10-23T12:35:21.057Z</time>
      </trkpt>
      <trkpt lat="44.31773" lon="3.58272">
        <ele>1052.8</ele>
        <time>2021-10-23T12:35:29.051Z</time>
      </trkpt>
      <trkpt lat="44.31774" lon="3.58274">
        <ele>1052.4</ele>
        <time>2021-10-23T12:35:37.220Z</time>
      </trkpt>
      <trkpt lat="44.31771" lon="3.58271">
        <ele>1053.3</ele>
        <time>2021-10-23T12:35:44.088Z</time>
      </trkpt>
      <trkpt lat="44.31764" lon="3.58287">
        <ele>1053.1</ele>
        <time>2021-10-23T12:36:25.087Z</time>
      </trkpt>
      <trkpt lat="44.31759" lon="3.58295">
        <ele>1054.4</ele>
        <time>2021-10-23T12:36:30.805Z</time>
      </trkpt>
      <trkpt lat="44.31756" lon="3.58302">
        <ele>1055.9</ele>
        <time>2021-10-23T12:36:35.964Z</time>
      </trkpt>
      <trkpt lat="44.31754" lon="3.58309">
        <ele>1056.5</ele>
        <time>2021-10-23T12:36:41.093Z</time>
      </trkpt>
      <trkpt lat="44.31749" lon="3.58319">
        <ele>1059.1</ele>
        <time>2021-10-23T12:36:46.386Z</time>
      </trkpt>
      <trkpt lat="44.31745" lon="3.58326">
        <ele>1059</ele>
        <time>2021-10-23T12:36:52.039Z</time>
      </trkpt>
      <trkpt lat="44.31748" lon="3.58334">
        <ele>1058.2</ele>
        <time>2021-10-23T12:36:57.421Z</time>
      </trkpt>
      <trkpt lat="44.31748" lon="3.58345">
        <ele>1055.8</ele>
        <time>2021-10-23T12:37:03.032Z</time>
      </trkpt>
      <trkpt lat="44.31745" lon="3.58355">
        <ele>1054.7</ele>
        <time>2021-10-23T12:37:08.638Z</time>
      </trkpt>
      <trkpt lat="44.3174" lon="3.58361">
        <ele>1056</ele>
        <time>2021-10-23T12:37:14.082Z</time>
      </trkpt>
      <trkpt lat="44.31738" lon="3.58366">
        <ele>1055.1</ele>
        <time>2021-10-23T12:37:19.399Z</time>
      </trkpt>
      <trkpt lat="44.3174" lon="3.58358">
        <ele>1056.3</ele>
        <time>2021-10-23T12:37:40.057Z</time>
      </trkpt>
      <trkpt lat="44.31741" lon="3.58357">
        <ele>1056.3</ele>
        <time>2021-10-23T12:37:46.020Z</time>
      </trkpt>
      <trkpt lat="44.31735" lon="3.58364">
        <ele>1057.4</ele>
        <time>2021-10-23T12:38:06.045Z</time>
      </trkpt>
      <trkpt lat="44.3173" lon="3.58369">
        <ele>1058.4</ele>
        <time>2021-10-23T12:38:11.047Z</time>
      </trkpt>
      <trkpt lat="44.31726" lon="3.58375">
        <ele>1059.5</ele>
        <time>2021-10-23T12:38:16.106Z</time>
      </trkpt>
      <trkpt lat="44.31719" lon="3.58388">
        <ele>1059.3</ele>
        <time>2021-10-23T12:38:25.118Z</time>
      </trkpt>
      <trkpt lat="44.31719" lon="3.5839">
        <ele>1058.7</ele>
        <time>2021-10-23T12:38:31.056Z</time>
      </trkpt>
      <trkpt lat="44.31717" lon="3.58391">
        <ele>1059.3</ele>
        <time>2021-10-23T12:38:51.011Z</time>
      </trkpt>
      <trkpt lat="44.31711" lon="3.58394">
        <ele>1060.7</ele>
        <time>2021-10-23T12:38:56.042Z</time>
      </trkpt>
      <trkpt lat="44.31709" lon="3.58399">
        <ele>1060.8</ele>
        <time>2021-10-23T12:39:02.211Z</time>
      </trkpt>
      <trkpt lat="44.3171" lon="3.58403">
        <ele>1059.8</ele>
        <time>2021-10-23T12:39:08.039Z</time>
      </trkpt>
      <trkpt lat="44.3171" lon="3.58402">
        <ele>1059.6</ele>
        <time>2021-10-23T12:39:19.062Z</time>
      </trkpt>
      <trkpt lat="44.31709" lon="3.58402">
        <ele>1060.2</ele>
        <time>2021-10-23T12:39:24.070Z</time>
      </trkpt>
      <trkpt lat="44.31707" lon="3.58401">
        <ele>1061.2</ele>
        <time>2021-10-23T12:39:39.073Z</time>
      </trkpt>
      <trkpt lat="44.31708" lon="3.58402">
        <ele>1060.9</ele>
        <time>2021-10-23T12:39:47.190Z</time>
      </trkpt>
      <trkpt lat="44.31707" lon="3.58403">
        <ele>1061.1</ele>
        <time>2021-10-23T12:40:17.248Z</time>
      </trkpt>
      <trkpt lat="44.31705" lon="3.58406">
        <ele>1061.7</ele>
        <time>2021-10-23T12:41:36.032Z</time>
      </trkpt>
      <trkpt lat="44.31703" lon="3.58409">
        <ele>1062.7</ele>
        <time>2021-10-23T12:41:45.163Z</time>
      </trkpt>
      <trkpt lat="44.317" lon="3.58411">
        <ele>1063.9</ele>
        <time>2021-10-23T12:41:52.209Z</time>
      </trkpt>
      <trkpt lat="44.31694" lon="3.58415">
        <ele>1067</ele>
        <time>2021-10-23T12:41:57.247Z</time>
      </trkpt>
      <trkpt lat="44.31686" lon="3.5842">
        <ele>1066.3</ele>
        <time>2021-10-23T12:42:02.396Z</time>
      </trkpt>
      <trkpt lat="44.31681" lon="3.5843">
        <ele>1063.4</ele>
        <time>2021-10-23T12:42:07.659Z</time>
      </trkpt>
      <trkpt lat="44.31677" lon="3.58438">
        <ele>1062.1</ele>
        <time>2021-10-23T12:42:12.812Z</time>
      </trkpt>
      <trkpt lat="44.31674" lon="3.58446">
        <ele>1060.9</ele>
        <time>2021-10-23T12:42:18.225Z</time>
      </trkpt>
      <trkpt lat="44.31671" lon="3.58452">
        <ele>1059.7</ele>
        <time>2021-10-23T12:42:24.402Z</time>
      </trkpt>
      <trkpt lat="44.31669" lon="3.58459">
        <ele>1057.2</ele>
        <time>2021-10-23T12:42:29.427Z</time>
      </trkpt>
      <trkpt lat="44.31665" lon="3.58463">
        <ele>1057.6</ele>
        <time>2021-10-23T12:42:34.759Z</time>
      </trkpt>
      <trkpt lat="44.31658" lon="3.58465">
        <ele>1060.3</ele>
        <time>2021-10-23T12:42:40.134Z</time>
      </trkpt>
      <trkpt lat="44.31652" lon="3.58467">
        <ele>1063.3</ele>
        <time>2021-10-23T12:42:45.803Z</time>
      </trkpt>
      <trkpt lat="44.31648" lon="3.58467">
        <ele>1066.1</ele>
        <time>2021-10-23T12:42:51.067Z</time>
      </trkpt>
      <trkpt lat="44.31642" lon="3.58466">
        <ele>1069.4</ele>
        <time>2021-10-23T12:42:57.105Z</time>
      </trkpt>
      <trkpt lat="44.31637" lon="3.58463">
        <ele>1071.6</ele>
        <time>2021-10-23T12:43:02.184Z</time>
      </trkpt>
      <trkpt lat="44.31633" lon="3.58464">
        <ele>1072.1</ele>
        <time>2021-10-23T12:43:07.638Z</time>
      </trkpt>
      <trkpt lat="44.3163" lon="3.58469">
        <ele>1072.5</ele>
        <time>2021-10-23T12:43:12.861Z</time>
      </trkpt>
      <trkpt lat="44.31624" lon="3.58467">
        <ele>1073.4</ele>
        <time>2021-10-23T12:43:19.000Z</time>
      </trkpt>
      <trkpt lat="44.31617" lon="3.58466">
        <ele>1074.2</ele>
        <time>2021-10-23T12:43:24.074Z</time>
      </trkpt>
      <trkpt lat="44.31613" lon="3.58473">
        <ele>1075.5</ele>
        <time>2021-10-23T12:43:29.708Z</time>
      </trkpt>
      <trkpt lat="44.31609" lon="3.5848">
        <ele>1075.4</ele>
        <time>2021-10-23T12:43:35.493Z</time>
      </trkpt>
      <trkpt lat="44.31605" lon="3.58487">
        <ele>1075.2</ele>
        <time>2021-10-23T12:43:41.020Z</time>
      </trkpt>
      <trkpt lat="44.31601" lon="3.58486">
        <ele>1075.4</ele>
        <time>2021-10-23T12:43:46.024Z</time>
      </trkpt>
      <trkpt lat="44.316" lon="3.58481">
        <ele>1075.3</ele>
        <time>2021-10-23T12:43:51.031Z</time>
      </trkpt>
      <trkpt lat="44.31596" lon="3.58483">
        <ele>1075.4</ele>
        <time>2021-10-23T12:43:56.085Z</time>
      </trkpt>
      <trkpt lat="44.31587" lon="3.5849">
        <ele>1076.3</ele>
        <time>2021-10-23T12:44:03.158Z</time>
      </trkpt>
      <trkpt lat="44.31585" lon="3.58493">
        <ele>1076.8</ele>
        <time>2021-10-23T12:44:09.069Z</time>
      </trkpt>
      <trkpt lat="44.31595" lon="3.58495">
        <ele>1076</ele>
        <time>2021-10-23T12:44:15.241Z</time>
      </trkpt>
      <trkpt lat="44.31597" lon="3.58504">
        <ele>1075.1</ele>
        <time>2021-10-23T12:44:20.719Z</time>
      </trkpt>
      <trkpt lat="44.31595" lon="3.58511">
        <ele>1073.7</ele>
        <time>2021-10-23T12:44:26.040Z</time>
      </trkpt>
      <trkpt lat="44.31593" lon="3.58519">
        <ele>1073.1</ele>
        <time>2021-10-23T12:44:31.812Z</time>
      </trkpt>
      <trkpt lat="44.31592" lon="3.58524">
        <ele>1072.7</ele>
        <time>2021-10-23T12:44:37.237Z</time>
      </trkpt>
      <trkpt lat="44.31592" lon="3.58525">
        <ele>1072.9</ele>
        <time>2021-10-23T12:44:42.760Z</time>
      </trkpt>
      <trkpt lat="44.31591" lon="3.58526">
        <ele>1073.1</ele>
        <time>2021-10-23T12:44:49.073Z</time>
      </trkpt>
      <trkpt lat="44.31592" lon="3.5853">
        <ele>1070.9</ele>
        <time>2021-10-23T12:44:55.584Z</time>
      </trkpt>
      <trkpt lat="44.31589" lon="3.58531">
        <ele>1073.2</ele>
        <time>2021-10-23T12:45:06.035Z</time>
      </trkpt>
      <trkpt lat="44.31592" lon="3.58534">
        <ele>1069.4</ele>
        <time>2021-10-23T12:45:16.070Z</time>
      </trkpt>
      <trkpt lat="44.31584" lon="3.58538">
        <ele>1074.1</ele>
        <time>2021-10-23T12:45:22.203Z</time>
      </trkpt>
      <trkpt lat="44.31581" lon="3.5853">
        <ele>1077.1</ele>
        <time>2021-10-23T12:48:01.253Z</time>
      </trkpt>
      <trkpt lat="44.31577" lon="3.58522">
        <ele>1076.6</ele>
        <time>2021-10-23T12:48:08.746Z</time>
      </trkpt>
      <trkpt lat="44.31574" lon="3.58517">
        <ele>1075.9</ele>
        <time>2021-10-23T12:48:14.067Z</time>
      </trkpt>
      <trkpt lat="44.31573" lon="3.58516">
        <ele>1075.7</ele>
        <time>2021-10-23T12:48:25.035Z</time>
      </trkpt>
      <trkpt lat="44.31565" lon="3.58511">
        <ele>1074</ele>
        <time>2021-10-23T12:48:30.141Z</time>
      </trkpt>
      <trkpt lat="44.31559" lon="3.58508">
        <ele>1073</ele>
        <time>2021-10-23T12:48:35.314Z</time>
      </trkpt>
      <trkpt lat="44.31554" lon="3.58505">
        <ele>1072.5</ele>
        <time>2021-10-23T12:48:41.055Z</time>
      </trkpt>
      <trkpt lat="44.31547" lon="3.58507">
        <ele>1070.3</ele>
        <time>2021-10-23T12:48:46.083Z</time>
      </trkpt>
      <trkpt lat="44.31543" lon="3.58512">
        <ele>1067.9</ele>
        <time>2021-10-23T12:48:52.856Z</time>
      </trkpt>
      <trkpt lat="44.31536" lon="3.58512">
        <ele>1066</ele>
        <time>2021-10-23T12:49:20.276Z</time>
      </trkpt>
      <trkpt lat="44.31531" lon="3.58508">
        <ele>1066.3</ele>
        <time>2021-10-23T12:49:26.091Z</time>
      </trkpt>
      <trkpt lat="44.31524" lon="3.58501">
        <ele>1067.1</ele>
        <time>2021-10-23T12:49:31.110Z</time>
      </trkpt>
      <trkpt lat="44.31518" lon="3.58494">
        <ele>1065.8</ele>
        <time>2021-10-23T12:49:37.473Z</time>
      </trkpt>
      <trkpt lat="44.31513" lon="3.58489">
        <ele>1065</ele>
        <time>2021-10-23T12:49:43.292Z</time>
      </trkpt>
      <trkpt lat="44.31506" lon="3.58489">
        <ele>1062.7</ele>
        <time>2021-10-23T12:49:49.533Z</time>
      </trkpt>
      <trkpt lat="44.31501" lon="3.58489">
        <ele>1061.3</ele>
        <time>2021-10-23T12:49:54.557Z</time>
      </trkpt>
      <trkpt lat="44.31495" lon="3.58487">
        <ele>1060.3</ele>
        <time>2021-10-23T12:50:00.800Z</time>
      </trkpt>
      <trkpt lat="44.31493" lon="3.58479">
        <ele>1062.7</ele>
        <time>2021-10-23T12:50:06.041Z</time>
      </trkpt>
      <trkpt lat="44.31487" lon="3.58472">
        <ele>1064.2</ele>
        <time>2021-10-23T12:50:11.956Z</time>
      </trkpt>
      <trkpt lat="44.31482" lon="3.58469">
        <ele>1063.1</ele>
        <time>2021-10-23T12:50:17.975Z</time>
      </trkpt>
      <trkpt lat="44.31475" lon="3.58465">
        <ele>1061.8</ele>
        <time>2021-10-23T12:50:24.064Z</time>
      </trkpt>
      <trkpt lat="44.31469" lon="3.58462">
        <ele>1060.8</ele>
        <time>2021-10-23T12:50:29.717Z</time>
      </trkpt>
      <trkpt lat="44.31465" lon="3.58456">
        <ele>1060.5</ele>
        <time>2021-10-23T12:50:35.026Z</time>
      </trkpt>
      <trkpt lat="44.31463" lon="3.58454">
        <ele>1060.4</ele>
        <time>2021-10-23T12:50:40.445Z</time>
      </trkpt>
      <trkpt lat="44.31456" lon="3.58452">
        <ele>1059.7</ele>
        <time>2021-10-23T12:50:45.582Z</time>
      </trkpt>
      <trkpt lat="44.31455" lon="3.5845">
        <ele>1059.9</ele>
        <time>2021-10-23T12:50:51.022Z</time>
      </trkpt>
      <trkpt lat="44.31453" lon="3.5845">
        <ele>1059.8</ele>
        <time>2021-10-23T12:50:56.035Z</time>
      </trkpt>
      <trkpt lat="44.31447" lon="3.58449">
        <ele>1059.3</ele>
        <time>2021-10-23T12:51:11.020Z</time>
      </trkpt>
      <trkpt lat="44.31441" lon="3.58446">
        <ele>1059.2</ele>
        <time>2021-10-23T12:51:16.043Z</time>
      </trkpt>
      <trkpt lat="44.31432" lon="3.58441">
        <ele>1058.1</ele>
        <time>2021-10-23T12:51:21.060Z</time>
      </trkpt>
      <trkpt lat="44.31415" lon="3.58431">
        <ele>1056.3</ele>
        <time>2021-10-23T12:51:30.205Z</time>
      </trkpt>
      <trkpt lat="44.31405" lon="3.58424">
        <ele>1055.7</ele>
        <time>2021-10-23T12:51:36.003Z</time>
      </trkpt>
      <trkpt lat="44.31399" lon="3.58416">
        <ele>1055.7</ele>
        <time>2021-10-23T12:51:41.025Z</time>
      </trkpt>
      <trkpt lat="44.31393" lon="3.58409">
        <ele>1055.2</ele>
        <time>2021-10-23T12:51:46.051Z</time>
      </trkpt>
      <trkpt lat="44.31391" lon="3.58402">
        <ele>1055.1</ele>
        <time>2021-10-23T12:51:54.085Z</time>
      </trkpt>
      <trkpt lat="44.31379" lon="3.58404">
        <ele>1054.3</ele>
        <time>2021-10-23T12:52:00.090Z</time>
      </trkpt>
      <trkpt lat="44.3137" lon="3.58409">
        <ele>1053.7</ele>
        <time>2021-10-23T12:52:06.019Z</time>
      </trkpt>
      <trkpt lat="44.31362" lon="3.58415">
        <ele>1053.1</ele>
        <time>2021-10-23T12:52:11.026Z</time>
      </trkpt>
      <trkpt lat="44.31357" lon="3.58419">
        <ele>1052.2</ele>
        <time>2021-10-23T12:52:16.039Z</time>
      </trkpt>
      <trkpt lat="44.31352" lon="3.58417">
        <ele>1052.2</ele>
        <time>2021-10-23T12:52:21.060Z</time>
      </trkpt>
      <trkpt lat="44.31344" lon="3.58407">
        <ele>1052.2</ele>
        <time>2021-10-23T12:52:29.968Z</time>
      </trkpt>
      <trkpt lat="44.31341" lon="3.58402">
        <ele>1052.3</ele>
        <time>2021-10-23T12:52:35.940Z</time>
      </trkpt>
      <trkpt lat="44.31337" lon="3.58397">
        <ele>1052.5</ele>
        <time>2021-10-23T12:52:41.053Z</time>
      </trkpt>
      <trkpt lat="44.31333" lon="3.58394">
        <ele>1052.6</ele>
        <time>2021-10-23T12:52:46.058Z</time>
      </trkpt>
      <trkpt lat="44.31324" lon="3.5839">
        <ele>1052.6</ele>
        <time>2021-10-23T12:52:51.089Z</time>
      </trkpt>
      <trkpt lat="44.31315" lon="3.58381">
        <ele>1051.9</ele>
        <time>2021-10-23T12:52:57.800Z</time>
      </trkpt>
      <trkpt lat="44.3131" lon="3.58375">
        <ele>1051.6</ele>
        <time>2021-10-23T12:53:03.056Z</time>
      </trkpt>
      <trkpt lat="44.31308" lon="3.58374">
        <ele>1051.5</ele>
        <time>2021-10-23T12:53:08.240Z</time>
      </trkpt>
      <trkpt lat="44.31305" lon="3.58375">
        <ele>1051.5</ele>
        <time>2021-10-23T12:53:13.864Z</time>
      </trkpt>
      <trkpt lat="44.313" lon="3.58373">
        <ele>1051.5</ele>
        <time>2021-10-23T12:53:19.078Z</time>
      </trkpt>
      <trkpt lat="44.31294" lon="3.58368">
        <ele>1051.5</ele>
        <time>2021-10-23T12:53:25.079Z</time>
      </trkpt>
      <trkpt lat="44.3129" lon="3.5836">
        <ele>1051.5</ele>
        <time>2021-10-23T12:53:30.151Z</time>
      </trkpt>
      <trkpt lat="44.31284" lon="3.58349">
        <ele>1051.3</ele>
        <time>2021-10-23T12:53:35.817Z</time>
      </trkpt>
      <trkpt lat="44.31278" lon="3.58341">
        <ele>1051.3</ele>
        <time>2021-10-23T12:53:41.075Z</time>
      </trkpt>
      <trkpt lat="44.31271" lon="3.58333">
        <ele>1051.5</ele>
        <time>2021-10-23T12:53:46.119Z</time>
      </trkpt>
      <trkpt lat="44.31265" lon="3.58319">
        <ele>1051.9</ele>
        <time>2021-10-23T12:53:53.718Z</time>
      </trkpt>
      <trkpt lat="44.31262" lon="3.58313">
        <ele>1052.1</ele>
        <time>2021-10-23T12:53:59.601Z</time>
      </trkpt>
      <trkpt lat="44.31259" lon="3.58306">
        <ele>1052.3</ele>
        <time>2021-10-23T12:54:05.074Z</time>
      </trkpt>
      <trkpt lat="44.31256" lon="3.583">
        <ele>1052.6</ele>
        <time>2021-10-23T12:54:11.024Z</time>
      </trkpt>
      <trkpt lat="44.31253" lon="3.58291">
        <ele>1052.8</ele>
        <time>2021-10-23T12:54:16.054Z</time>
      </trkpt>
      <trkpt lat="44.31249" lon="3.58282">
        <ele>1053.1</ele>
        <time>2021-10-23T12:54:22.207Z</time>
      </trkpt>
      <trkpt lat="44.31245" lon="3.58276">
        <ele>1053.4</ele>
        <time>2021-10-23T12:54:27.659Z</time>
      </trkpt>
      <trkpt lat="44.31243" lon="3.58273">
        <ele>1053.7</ele>
        <time>2021-10-23T12:54:32.771Z</time>
      </trkpt>
      <trkpt lat="44.31241" lon="3.58266">
        <ele>1054.1</ele>
        <time>2021-10-23T12:54:37.854Z</time>
      </trkpt>
      <trkpt lat="44.31238" lon="3.5826">
        <ele>1054.5</ele>
        <time>2021-10-23T12:54:42.943Z</time>
      </trkpt>
      <trkpt lat="44.31235" lon="3.58254">
        <ele>1055</ele>
        <time>2021-10-23T12:54:48.551Z</time>
      </trkpt>
      <trkpt lat="44.31234" lon="3.58247">
        <ele>1055.2</ele>
        <time>2021-10-23T12:54:53.571Z</time>
      </trkpt>
      <trkpt lat="44.31234" lon="3.58234">
        <ele>1055.7</ele>
        <time>2021-10-23T12:54:58.733Z</time>
      </trkpt>
      <trkpt lat="44.31233" lon="3.58227">
        <ele>1056.1</ele>
        <time>2021-10-23T12:55:03.735Z</time>
      </trkpt>
      <trkpt lat="44.31227" lon="3.58222">
        <ele>1056.7</ele>
        <time>2021-10-23T12:55:08.853Z</time>
      </trkpt>
      <trkpt lat="44.31222" lon="3.58216">
        <ele>1056.8</ele>
        <time>2021-10-23T12:55:13.979Z</time>
      </trkpt>
      <trkpt lat="44.31223" lon="3.58219">
        <ele>1056.8</ele>
        <time>2021-10-23T12:55:20.107Z</time>
      </trkpt>
      <trkpt lat="44.31223" lon="3.58225">
        <ele>1056.9</ele>
        <time>2021-10-23T12:55:25.873Z</time>
      </trkpt>
      <trkpt lat="44.31218" lon="3.5822">
        <ele>1057.1</ele>
        <time>2021-10-23T12:55:30.888Z</time>
      </trkpt>
      <trkpt lat="44.31212" lon="3.58212">
        <ele>1057</ele>
        <time>2021-10-23T12:55:36.063Z</time>
      </trkpt>
      <trkpt lat="44.31203" lon="3.58205">
        <ele>1057.1</ele>
        <time>2021-10-23T12:55:41.083Z</time>
      </trkpt>
      <trkpt lat="44.31193" lon="3.58206">
        <ele>1057.4</ele>
        <time>2021-10-23T12:55:48.719Z</time>
      </trkpt>
      <trkpt lat="44.31186" lon="3.58205">
        <ele>1057.6</ele>
        <time>2021-10-23T12:55:54.642Z</time>
      </trkpt>
      <trkpt lat="44.31181" lon="3.582">
        <ele>1057.6</ele>
        <time>2021-10-23T12:55:59.956Z</time>
      </trkpt>
      <trkpt lat="44.31173" lon="3.58187">
        <ele>1057.2</ele>
        <time>2021-10-23T12:56:05.754Z</time>
      </trkpt>
      <trkpt lat="44.31167" lon="3.58182">
        <ele>1057.1</ele>
        <time>2021-10-23T12:56:10.987Z</time>
      </trkpt>
      <trkpt lat="44.31161" lon="3.58179">
        <ele>1057.3</ele>
        <time>2021-10-23T12:56:16.058Z</time>
      </trkpt>
      <trkpt lat="44.31154" lon="3.58178">
        <ele>1057.8</ele>
        <time>2021-10-23T12:56:21.081Z</time>
      </trkpt>
      <trkpt lat="44.31145" lon="3.58188">
        <ele>1058.7</ele>
        <time>2021-10-23T12:56:27.271Z</time>
      </trkpt>
      <trkpt lat="44.31141" lon="3.58187">
        <ele>1058.9</ele>
        <time>2021-10-23T12:56:32.332Z</time>
      </trkpt>
      <trkpt lat="44.31135" lon="3.58182">
        <ele>1059.2</ele>
        <time>2021-10-23T12:56:37.459Z</time>
      </trkpt>
      <trkpt lat="44.31131" lon="3.58179">
        <ele>1059.4</ele>
        <time>2021-10-23T12:56:43.508Z</time>
      </trkpt>
      <trkpt lat="44.31124" lon="3.58176">
        <ele>1059.9</ele>
        <time>2021-10-23T12:56:49.067Z</time>
      </trkpt>
      <trkpt lat="44.31116" lon="3.58177">
        <ele>1060.3</ele>
        <time>2021-10-23T12:56:55.515Z</time>
      </trkpt>
      <trkpt lat="44.31111" lon="3.58177">
        <ele>1060.6</ele>
        <time>2021-10-23T12:57:01.057Z</time>
      </trkpt>
      <trkpt lat="44.31101" lon="3.58179">
        <ele>1061.3</ele>
        <time>2021-10-23T12:57:06.294Z</time>
      </trkpt>
      <trkpt lat="44.31095" lon="3.58179">
        <ele>1061.7</ele>
        <time>2021-10-23T12:57:11.718Z</time>
      </trkpt>
      <trkpt lat="44.31093" lon="3.58174">
        <ele>1062.1</ele>
        <time>2021-10-23T12:57:17.310Z</time>
      </trkpt>
      <trkpt lat="44.31086" lon="3.58171">
        <ele>1062.7</ele>
        <time>2021-10-23T12:57:22.696Z</time>
      </trkpt>
      <trkpt lat="44.31078" lon="3.58161">
        <ele>1064.1</ele>
        <time>2021-10-23T12:57:28.404Z</time>
      </trkpt>
      <trkpt lat="44.31075" lon="3.58165">
        <ele>1064.1</ele>
        <time>2021-10-23T12:57:33.809Z</time>
      </trkpt>
      <trkpt lat="44.31075" lon="3.58171">
        <ele>1063.7</ele>
        <time>2021-10-23T12:57:39.169Z</time>
      </trkpt>
      <trkpt lat="44.3107" lon="3.58177">
        <ele>1063.7</ele>
        <time>2021-10-23T12:57:44.930Z</time>
      </trkpt>
      <trkpt lat="44.3106" lon="3.5818">
        <ele>1064.2</ele>
        <time>2021-10-23T12:57:50.139Z</time>
      </trkpt>
      <trkpt lat="44.3105" lon="3.58178">
        <ele>1065.3</ele>
        <time>2021-10-23T12:57:55.328Z</time>
      </trkpt>
      <trkpt lat="44.31044" lon="3.58172">
        <ele>1066.7</ele>
        <time>2021-10-23T12:58:00.791Z</time>
      </trkpt>
      <trkpt lat="44.31038" lon="3.58171">
        <ele>1067.4</ele>
        <time>2021-10-23T12:58:06.027Z</time>
      </trkpt>
      <trkpt lat="44.3103" lon="3.58173">
        <ele>1068.1</ele>
        <time>2021-10-23T12:58:11.849Z</time>
      </trkpt>
      <trkpt lat="44.31027" lon="3.58177">
        <ele>1068.1</ele>
        <time>2021-10-23T12:58:17.135Z</time>
      </trkpt>
      <trkpt lat="44.31026" lon="3.58177">
        <ele>1068.3</ele>
        <time>2021-10-23T12:58:24.082Z</time>
      </trkpt>
      <trkpt lat="44.31016" lon="3.58178">
        <ele>1069.9</ele>
        <time>2021-10-23T12:58:29.595Z</time>
      </trkpt>
      <trkpt lat="44.31008" lon="3.58184">
        <ele>1070.8</ele>
        <time>2021-10-23T12:58:34.728Z</time>
      </trkpt>
      <trkpt lat="44.31" lon="3.58186">
        <ele>1072</ele>
        <time>2021-10-23T12:58:40.484Z</time>
      </trkpt>
      <trkpt lat="44.30994" lon="3.58188">
        <ele>1072.6</ele>
        <time>2021-10-23T12:58:46.026Z</time>
      </trkpt>
      <trkpt lat="44.30991" lon="3.58187">
        <ele>1073.1</ele>
        <time>2021-10-23T12:58:51.069Z</time>
      </trkpt>
      <trkpt lat="44.30985" lon="3.58186">
        <ele>1074.1</ele>
        <time>2021-10-23T12:58:56.939Z</time>
      </trkpt>
      <trkpt lat="44.30977" lon="3.58188">
        <ele>1075.1</ele>
        <time>2021-10-23T12:59:02.175Z</time>
      </trkpt>
      <trkpt lat="44.3097" lon="3.58185">
        <ele>1076.1</ele>
        <time>2021-10-23T12:59:08.027Z</time>
      </trkpt>
      <trkpt lat="44.30976" lon="3.58178">
        <ele>1076.2</ele>
        <time>2021-10-23T12:59:14.340Z</time>
      </trkpt>
      <trkpt lat="44.30976" lon="3.58175">
        <ele>1076.6</ele>
        <time>2021-10-23T12:59:31.093Z</time>
      </trkpt>
      <trkpt lat="44.30977" lon="3.58177">
        <ele>1076.2</ele>
        <time>2021-10-23T13:00:52.242Z</time>
      </trkpt>
      <trkpt lat="44.3098" lon="3.58177">
        <ele>1075.8</ele>
        <time>2021-10-23T13:00:59.068Z</time>
      </trkpt>
      <trkpt lat="44.30976" lon="3.58168">
        <ele>1077.3</ele>
        <time>2021-10-23T13:01:05.072Z</time>
      </trkpt>
      <trkpt lat="44.30979" lon="3.58174">
        <ele>1076.2</ele>
        <time>2021-10-23T13:01:10.075Z</time>
      </trkpt>
      <trkpt lat="44.30978" lon="3.58174">
        <ele>1076.4</ele>
        <time>2021-10-23T13:01:19.077Z</time>
      </trkpt>
      <trkpt lat="44.30968" lon="3.58178">
        <ele>1076.9</ele>
        <time>2021-10-23T13:01:36.060Z</time>
      </trkpt>
      <trkpt lat="44.3096" lon="3.58181">
        <ele>1076.9</ele>
        <time>2021-10-23T13:01:41.094Z</time>
      </trkpt>
      <trkpt lat="44.3095" lon="3.58184">
        <ele>1076.9</ele>
        <time>2021-10-23T13:01:46.819Z</time>
      </trkpt>
      <trkpt lat="44.30944" lon="3.58191">
        <ele>1076.4</ele>
        <time>2021-10-23T13:01:52.186Z</time>
      </trkpt>
      <trkpt lat="44.30938" lon="3.58194">
        <ele>1075.8</ele>
        <time>2021-10-23T13:01:57.195Z</time>
      </trkpt>
      <trkpt lat="44.30927" lon="3.58195">
        <ele>1075.4</ele>
        <time>2021-10-23T13:02:03.580Z</time>
      </trkpt>
      <trkpt lat="44.3092" lon="3.58195">
        <ele>1075.1</ele>
        <time>2021-10-23T13:02:09.055Z</time>
      </trkpt>
      <trkpt lat="44.30914" lon="3.58193">
        <ele>1074.7</ele>
        <time>2021-10-23T13:02:14.251Z</time>
      </trkpt>
      <trkpt lat="44.30911" lon="3.58188">
        <ele>1074.5</ele>
        <time>2021-10-23T13:02:19.891Z</time>
      </trkpt>
      <trkpt lat="44.3091" lon="3.58184">
        <ele>1074.4</ele>
        <time>2021-10-23T13:02:25.718Z</time>
      </trkpt>
      <trkpt lat="44.30908" lon="3.58178">
        <ele>1074.5</ele>
        <time>2021-10-23T13:02:31.054Z</time>
      </trkpt>
      <trkpt lat="44.30908" lon="3.58173">
        <ele>1074.8</ele>
        <time>2021-10-23T13:02:36.092Z</time>
      </trkpt>
      <trkpt lat="44.309" lon="3.58154">
        <ele>1075.5</ele>
        <time>2021-10-23T13:03:20.787Z</time>
      </trkpt>
      <trkpt lat="44.309" lon="3.5815">
        <ele>1075.8</ele>
        <time>2021-10-23T13:03:26.054Z</time>
      </trkpt>
      <trkpt lat="44.30895" lon="3.58148">
        <ele>1075.3</ele>
        <time>2021-10-23T13:03:48.061Z</time>
      </trkpt>
      <trkpt lat="44.30897" lon="3.58146">
        <ele>1075.8</ele>
        <time>2021-10-23T13:04:06.049Z</time>
      </trkpt>
      <trkpt lat="44.30899" lon="3.58143">
        <ele>1076.4</ele>
        <time>2021-10-23T13:04:13.454Z</time>
      </trkpt>
      <trkpt lat="44.30894" lon="3.5814">
        <ele>1075.8</ele>
        <time>2021-10-23T13:04:18.818Z</time>
      </trkpt>
      <trkpt lat="44.30888" lon="3.58137">
        <ele>1075.4</ele>
        <time>2021-10-23T13:04:24.080Z</time>
      </trkpt>
      <trkpt lat="44.30881" lon="3.58131">
        <ele>1076.1</ele>
        <time>2021-10-23T13:04:29.089Z</time>
      </trkpt>
      <trkpt lat="44.30871" lon="3.58128">
        <ele>1076.4</ele>
        <time>2021-10-23T13:04:34.967Z</time>
      </trkpt>
      <trkpt lat="44.30864" lon="3.58129">
        <ele>1075.9</ele>
        <time>2021-10-23T13:04:40.133Z</time>
      </trkpt>
      <trkpt lat="44.30856" lon="3.58127">
        <ele>1076.1</ele>
        <time>2021-10-23T13:04:46.075Z</time>
      </trkpt>
      <trkpt lat="44.30846" lon="3.58124">
        <ele>1076.6</ele>
        <time>2021-10-23T13:04:52.214Z</time>
      </trkpt>
      <trkpt lat="44.30842" lon="3.58128">
        <ele>1076</ele>
        <time>2021-10-23T13:04:57.404Z</time>
      </trkpt>
      <trkpt lat="44.30838" lon="3.58134">
        <ele>1074.9</ele>
        <time>2021-10-23T13:05:03.260Z</time>
      </trkpt>
      <trkpt lat="44.30834" lon="3.58138">
        <ele>1074.2</ele>
        <time>2021-10-23T13:05:08.641Z</time>
      </trkpt>
      <trkpt lat="44.30829" lon="3.58131">
        <ele>1075.4</ele>
        <time>2021-10-23T13:05:14.077Z</time>
      </trkpt>
      <trkpt lat="44.30823" lon="3.58122">
        <ele>1077</ele>
        <time>2021-10-23T13:05:19.424Z</time>
      </trkpt>
      <trkpt lat="44.30817" lon="3.58115">
        <ele>1078.2</ele>
        <time>2021-10-23T13:05:24.850Z</time>
      </trkpt>
      <trkpt lat="44.30813" lon="3.58111">
        <ele>1079</ele>
        <time>2021-10-23T13:05:29.949Z</time>
      </trkpt>
      <trkpt lat="44.30809" lon="3.58107">
        <ele>1079.6</ele>
        <time>2021-10-23T13:05:36.042Z</time>
      </trkpt>
      <trkpt lat="44.30802" lon="3.58109">
        <ele>1079.1</ele>
        <time>2021-10-23T13:05:41.069Z</time>
      </trkpt>
      <trkpt lat="44.30796" lon="3.58095">
        <ele>1080.6</ele>
        <time>2021-10-23T13:05:46.103Z</time>
      </trkpt>
      <trkpt lat="44.30788" lon="3.58083">
        <ele>1081.8</ele>
        <time>2021-10-23T13:05:53.557Z</time>
      </trkpt>
      <trkpt lat="44.30784" lon="3.58081">
        <ele>1081.7</ele>
        <time>2021-10-23T13:05:59.046Z</time>
      </trkpt>
      <trkpt lat="44.30779" lon="3.58078">
        <ele>1081.6</ele>
        <time>2021-10-23T13:06:04.077Z</time>
      </trkpt>
      <trkpt lat="44.30773" lon="3.58078">
        <ele>1081.6</ele>
        <time>2021-10-23T13:06:09.659Z</time>
      </trkpt>
      <trkpt lat="44.30765" lon="3.58077">
        <ele>1081.7</ele>
        <time>2021-10-23T13:06:15.161Z</time>
      </trkpt>
      <trkpt lat="44.30758" lon="3.58074">
        <ele>1082</ele>
        <time>2021-10-23T13:06:20.390Z</time>
      </trkpt>
      <trkpt lat="44.30752" lon="3.58072">
        <ele>1082.2</ele>
        <time>2021-10-23T13:06:26.047Z</time>
      </trkpt>
      <trkpt lat="44.30746" lon="3.58074">
        <ele>1082.4</ele>
        <time>2021-10-23T13:06:31.092Z</time>
      </trkpt>
      <trkpt lat="44.30741" lon="3.5808">
        <ele>1082.3</ele>
        <time>2021-10-23T13:06:37.156Z</time>
      </trkpt>
      <trkpt lat="44.30737" lon="3.58082">
        <ele>1082.5</ele>
        <time>2021-10-23T13:06:42.236Z</time>
      </trkpt>
      <trkpt lat="44.30732" lon="3.58083">
        <ele>1083</ele>
        <time>2021-10-23T13:06:47.750Z</time>
      </trkpt>
      <trkpt lat="44.30729" lon="3.58076">
        <ele>1083.9</ele>
        <time>2021-10-23T13:06:53.404Z</time>
      </trkpt>
      <trkpt lat="44.30724" lon="3.5807">
        <ele>1084.8</ele>
        <time>2021-10-23T13:06:58.794Z</time>
      </trkpt>
      <trkpt lat="44.30719" lon="3.58065">
        <ele>1085.7</ele>
        <time>2021-10-23T13:07:03.841Z</time>
      </trkpt>
      <trkpt lat="44.30712" lon="3.58064">
        <ele>1086.8</ele>
        <time>2021-10-23T13:07:09.071Z</time>
      </trkpt>
      <trkpt lat="44.30706" lon="3.58064">
        <ele>1087.7</ele>
        <time>2021-10-23T13:07:14.597Z</time>
      </trkpt>
      <trkpt lat="44.30703" lon="3.58069">
        <ele>1087.9</ele>
        <time>2021-10-23T13:07:19.664Z</time>
      </trkpt>
      <trkpt lat="44.30698" lon="3.5807">
        <ele>1088.5</ele>
        <time>2021-10-23T13:07:25.019Z</time>
      </trkpt>
      <trkpt lat="44.30692" lon="3.58067">
        <ele>1089.4</ele>
        <time>2021-10-23T13:07:30.036Z</time>
      </trkpt>
      <trkpt lat="44.30687" lon="3.58063">
        <ele>1090.1</ele>
        <time>2021-10-23T13:07:35.069Z</time>
      </trkpt>
      <trkpt lat="44.30683" lon="3.58058">
        <ele>1090.7</ele>
        <time>2021-10-23T13:07:40.875Z</time>
      </trkpt>
      <trkpt lat="44.30681" lon="3.58052">
        <ele>1091.2</ele>
        <time>2021-10-23T13:07:46.040Z</time>
      </trkpt>
      <trkpt lat="44.30674" lon="3.58048">
        <ele>1092</ele>
        <time>2021-10-23T13:07:51.060Z</time>
      </trkpt>
      <trkpt lat="44.30667" lon="3.58049">
        <ele>1092.4</ele>
        <time>2021-10-23T13:07:56.389Z</time>
      </trkpt>
      <trkpt lat="44.30661" lon="3.58051">
        <ele>1092.9</ele>
        <time>2021-10-23T13:08:01.969Z</time>
      </trkpt>
      <trkpt lat="44.30654" lon="3.58048">
        <ele>1093.9</ele>
        <time>2021-10-23T13:08:07.215Z</time>
      </trkpt>
      <trkpt lat="44.30647" lon="3.58048">
        <ele>1094.7</ele>
        <time>2021-10-23T13:08:12.959Z</time>
      </trkpt>
      <trkpt lat="44.30642" lon="3.58049">
        <ele>1095.1</ele>
        <time>2021-10-23T13:08:18.127Z</time>
      </trkpt>
      <trkpt lat="44.30638" lon="3.58047">
        <ele>1095.6</ele>
        <time>2021-10-23T13:08:23.919Z</time>
      </trkpt>
      <trkpt lat="44.30633" lon="3.58046">
        <ele>1095.9</ele>
        <time>2021-10-23T13:08:29.061Z</time>
      </trkpt>
      <trkpt lat="44.30626" lon="3.58044">
        <ele>1096.3</ele>
        <time>2021-10-23T13:08:34.089Z</time>
      </trkpt>
      <trkpt lat="44.30618" lon="3.58046">
        <ele>1096.4</ele>
        <time>2021-10-23T13:08:40.071Z</time>
      </trkpt>
      <trkpt lat="44.30612" lon="3.58052">
        <ele>1096.2</ele>
        <time>2021-10-23T13:08:45.765Z</time>
      </trkpt>
      <trkpt lat="44.30605" lon="3.58053">
        <ele>1096.2</ele>
        <time>2021-10-23T13:08:51.111Z</time>
      </trkpt>
      <trkpt lat="44.30594" lon="3.58052">
        <ele>1096.4</ele>
        <time>2021-10-23T13:08:58.040Z</time>
      </trkpt>
      <trkpt lat="44.30587" lon="3.58048">
        <ele>1096.8</ele>
        <time>2021-10-23T13:09:03.748Z</time>
      </trkpt>
      <trkpt lat="44.30579" lon="3.58045">
        <ele>1097.2</ele>
        <time>2021-10-23T13:09:08.768Z</time>
      </trkpt>
      <trkpt lat="44.30571" lon="3.5804">
        <ele>1097.6</ele>
        <time>2021-10-23T13:09:14.065Z</time>
      </trkpt>
      <trkpt lat="44.30564" lon="3.58039">
        <ele>1097.7</ele>
        <time>2021-10-23T13:09:19.075Z</time>
      </trkpt>
      <trkpt lat="44.30558" lon="3.5804">
        <ele>1097.6</ele>
        <time>2021-10-23T13:09:24.931Z</time>
      </trkpt>
      <trkpt lat="44.30554" lon="3.5804">
        <ele>1097.7</ele>
        <time>2021-10-23T13:09:31.070Z</time>
      </trkpt>
      <trkpt lat="44.30551" lon="3.58038">
        <ele>1098.1</ele>
        <time>2021-10-23T13:09:36.715Z</time>
      </trkpt>
      <trkpt lat="44.30546" lon="3.58038">
        <ele>1098.4</ele>
        <time>2021-10-23T13:09:41.759Z</time>
      </trkpt>
      <trkpt lat="44.30538" lon="3.58042">
        <ele>1098.4</ele>
        <time>2021-10-23T13:09:47.286Z</time>
      </trkpt>
      <trkpt lat="44.30531" lon="3.58044">
        <ele>1098.7</ele>
        <time>2021-10-23T13:09:52.288Z</time>
      </trkpt>
      <trkpt lat="44.30522" lon="3.58048">
        <ele>1098.9</ele>
        <time>2021-10-23T13:09:58.168Z</time>
      </trkpt>
      <trkpt lat="44.30514" lon="3.5805">
        <ele>1099.3</ele>
        <time>2021-10-23T13:10:04.046Z</time>
      </trkpt>
      <trkpt lat="44.30507" lon="3.58052">
        <ele>1099.7</ele>
        <time>2021-10-23T13:10:09.787Z</time>
      </trkpt>
      <trkpt lat="44.30501" lon="3.58052">
        <ele>1100</ele>
        <time>2021-10-23T13:10:14.930Z</time>
      </trkpt>
      <trkpt lat="44.30493" lon="3.58051">
        <ele>1100.1</ele>
        <time>2021-10-23T13:10:20.864Z</time>
      </trkpt>
      <trkpt lat="44.30485" lon="3.58051">
        <ele>1100.1</ele>
        <time>2021-10-23T13:10:26.064Z</time>
      </trkpt>
      <trkpt lat="44.30477" lon="3.58055">
        <ele>1100</ele>
        <time>2021-10-23T13:10:31.312Z</time>
      </trkpt>
      <trkpt lat="44.30472" lon="3.58061">
        <ele>1100.2</ele>
        <time>2021-10-23T13:10:37.144Z</time>
      </trkpt>
      <trkpt lat="44.30467" lon="3.58064">
        <ele>1100.4</ele>
        <time>2021-10-23T13:10:42.231Z</time>
      </trkpt>
      <trkpt lat="44.3046" lon="3.58063">
        <ele>1100.6</ele>
        <time>2021-10-23T13:10:47.712Z</time>
      </trkpt>
      <trkpt lat="44.30452" lon="3.58061">
        <ele>1100.8</ele>
        <time>2021-10-23T13:10:53.569Z</time>
      </trkpt>
      <trkpt lat="44.30444" lon="3.58061">
        <ele>1101</ele>
        <time>2021-10-23T13:10:59.072Z</time>
      </trkpt>
      <trkpt lat="44.30439" lon="3.58062">
        <ele>1101</ele>
        <time>2021-10-23T13:11:04.263Z</time>
      </trkpt>
      <trkpt lat="44.30432" lon="3.58064">
        <ele>1101</ele>
        <time>2021-10-23T13:11:10.092Z</time>
      </trkpt>
      <trkpt lat="44.30425" lon="3.58067">
        <ele>1101</ele>
        <time>2021-10-23T13:11:15.678Z</time>
      </trkpt>
      <trkpt lat="44.30417" lon="3.58068">
        <ele>1101</ele>
        <time>2021-10-23T13:11:21.052Z</time>
      </trkpt>
      <trkpt lat="44.3041" lon="3.58069">
        <ele>1101.3</ele>
        <time>2021-10-23T13:11:26.103Z</time>
      </trkpt>
      <trkpt lat="44.30399" lon="3.58069">
        <ele>1101.6</ele>
        <time>2021-10-23T13:11:32.270Z</time>
      </trkpt>
      <trkpt lat="44.30393" lon="3.58067">
        <ele>1101.9</ele>
        <time>2021-10-23T13:11:38.599Z</time>
      </trkpt>
      <trkpt lat="44.30388" lon="3.58066">
        <ele>1102</ele>
        <time>2021-10-23T13:11:44.077Z</time>
      </trkpt>
      <trkpt lat="44.30382" lon="3.58064">
        <ele>1102.2</ele>
        <time>2021-10-23T13:11:49.462Z</time>
      </trkpt>
      <trkpt lat="44.30375" lon="3.5806">
        <ele>1102.4</ele>
        <time>2021-10-23T13:11:55.155Z</time>
      </trkpt>
      <trkpt lat="44.30369" lon="3.58059">
        <ele>1102.6</ele>
        <time>2021-10-23T13:12:00.255Z</time>
      </trkpt>
      <trkpt lat="44.3036" lon="3.58054">
        <ele>1103.1</ele>
        <time>2021-10-23T13:12:05.938Z</time>
      </trkpt>
      <trkpt lat="44.30355" lon="3.5805">
        <ele>1103.4</ele>
        <time>2021-10-23T13:12:11.090Z</time>
      </trkpt>
      <trkpt lat="44.30348" lon="3.58044">
        <ele>1103.9</ele>
        <time>2021-10-23T13:12:16.903Z</time>
      </trkpt>
      <trkpt lat="44.30342" lon="3.58042">
        <ele>1104.2</ele>
        <time>2021-10-23T13:12:22.143Z</time>
      </trkpt>
      <trkpt lat="44.30336" lon="3.58041">
        <ele>1104.4</ele>
        <time>2021-10-23T13:12:27.298Z</time>
      </trkpt>
      <trkpt lat="44.3033" lon="3.58041">
        <ele>1104.5</ele>
        <time>2021-10-23T13:12:32.557Z</time>
      </trkpt>
      <trkpt lat="44.30324" lon="3.5804">
        <ele>1104.6</ele>
        <time>2021-10-23T13:12:37.703Z</time>
      </trkpt>
      <trkpt lat="44.30318" lon="3.58037">
        <ele>1104.9</ele>
        <time>2021-10-23T13:12:43.743Z</time>
      </trkpt>
      <trkpt lat="44.30314" lon="3.58036">
        <ele>1105</ele>
        <time>2021-10-23T13:12:49.116Z</time>
      </trkpt>
      <trkpt lat="44.30306" lon="3.58036">
        <ele>1105.1</ele>
        <time>2021-10-23T13:12:54.447Z</time>
      </trkpt>
      <trkpt lat="44.30299" lon="3.58034">
        <ele>1105.1</ele>
        <time>2021-10-23T13:13:00.075Z</time>
      </trkpt>
      <trkpt lat="44.30294" lon="3.58028">
        <ele>1105.6</ele>
        <time>2021-10-23T13:13:05.983Z</time>
      </trkpt>
      <trkpt lat="44.30289" lon="3.58025">
        <ele>1105.6</ele>
        <time>2021-10-23T13:13:11.081Z</time>
      </trkpt>
      <trkpt lat="44.3028" lon="3.58025">
        <ele>1105.3</ele>
        <time>2021-10-23T13:13:16.093Z</time>
      </trkpt>
      <trkpt lat="44.30274" lon="3.58026">
        <ele>1105.3</ele>
        <time>2021-10-23T13:13:21.114Z</time>
      </trkpt>
      <trkpt lat="44.30269" lon="3.5802">
        <ele>1106.2</ele>
        <time>2021-10-23T13:13:41.079Z</time>
      </trkpt>
      <trkpt lat="44.3027" lon="3.58018">
        <ele>1106.3</ele>
        <time>2021-10-23T13:17:11.082Z</time>
      </trkpt>
      <trkpt lat="44.30272" lon="3.58017">
        <ele>1106.3</ele>
        <time>2021-10-23T13:17:16.085Z</time>
      </trkpt>
      <trkpt lat="44.30275" lon="3.58015">
        <ele>1106.5</ele>
        <time>2021-10-23T13:17:21.086Z</time>
      </trkpt>
      <trkpt lat="44.30267" lon="3.58014">
        <ele>1106.9</ele>
        <time>2021-10-23T13:18:11.123Z</time>
      </trkpt>
      <trkpt lat="44.30251" lon="3.5802">
        <ele>1106.8</ele>
        <time>2021-10-23T13:18:20.324Z</time>
      </trkpt>
      <trkpt lat="44.30237" lon="3.58022">
        <ele>1107.5</ele>
        <time>2021-10-23T13:18:25.877Z</time>
      </trkpt>
      <trkpt lat="44.30228" lon="3.5802">
        <ele>1108.4</ele>
        <time>2021-10-23T13:18:31.072Z</time>
      </trkpt>
      <trkpt lat="44.3022" lon="3.58025">
        <ele>1108.5</ele>
        <time>2021-10-23T13:18:37.085Z</time>
      </trkpt>
      <trkpt lat="44.30215" lon="3.58029">
        <ele>1108.7</ele>
        <time>2021-10-23T13:18:42.276Z</time>
      </trkpt>
      <trkpt lat="44.3021" lon="3.58035">
        <ele>1108.8</ele>
        <time>2021-10-23T13:18:47.829Z</time>
      </trkpt>
      <trkpt lat="44.30208" lon="3.58039">
        <ele>1108.8</ele>
        <time>2021-10-23T13:18:53.054Z</time>
      </trkpt>
      <trkpt lat="44.30206" lon="3.5804">
        <ele>1108.9</ele>
        <time>2021-10-23T13:18:58.480Z</time>
      </trkpt>
      <trkpt lat="44.30203" lon="3.58043">
        <ele>1109.2</ele>
        <time>2021-10-23T13:19:11.055Z</time>
      </trkpt>
      <trkpt lat="44.30196" lon="3.58048">
        <ele>1110</ele>
        <time>2021-10-23T13:19:16.085Z</time>
      </trkpt>
      <trkpt lat="44.30187" lon="3.58054">
        <ele>1110.6</ele>
        <time>2021-10-23T13:19:21.088Z</time>
      </trkpt>
      <trkpt lat="44.3018" lon="3.58064">
        <ele>1110.8</ele>
        <time>2021-10-23T13:19:26.121Z</time>
      </trkpt>
      <trkpt lat="44.30172" lon="3.58079">
        <ele>1110.8</ele>
        <time>2021-10-23T13:19:32.951Z</time>
      </trkpt>
      <trkpt lat="44.30166" lon="3.58083">
        <ele>1111</ele>
        <time>2021-10-23T13:19:38.036Z</time>
      </trkpt>
      <trkpt lat="44.30163" lon="3.58089">
        <ele>1110.1</ele>
        <time>2021-10-23T13:19:43.402Z</time>
      </trkpt>
      <trkpt lat="44.30159" lon="3.58098">
        <ele>1109.3</ele>
        <time>2021-10-23T13:19:49.091Z</time>
      </trkpt>
      <trkpt lat="44.30153" lon="3.58104">
        <ele>1108.5</ele>
        <time>2021-10-23T13:19:54.955Z</time>
      </trkpt>
      <trkpt lat="44.30147" lon="3.58112">
        <ele>1107.9</ele>
        <time>2021-10-23T13:20:00.858Z</time>
      </trkpt>
      <trkpt lat="44.30143" lon="3.58116">
        <ele>1107.6</ele>
        <time>2021-10-23T13:20:06.052Z</time>
      </trkpt>
      <trkpt lat="44.30142" lon="3.58121">
        <ele>1107.6</ele>
        <time>2021-10-23T13:20:11.062Z</time>
      </trkpt>
      <trkpt lat="44.30141" lon="3.58125">
        <ele>1107.7</ele>
        <time>2021-10-23T13:20:16.088Z</time>
      </trkpt>
      <trkpt lat="44.30137" lon="3.58137">
        <ele>1107.8</ele>
        <time>2021-10-23T13:20:23.551Z</time>
      </trkpt>
      <trkpt lat="44.30131" lon="3.58144">
        <ele>1107.4</ele>
        <time>2021-10-23T13:20:28.709Z</time>
      </trkpt>
      <trkpt lat="44.30125" lon="3.58146">
        <ele>1107</ele>
        <time>2021-10-23T13:20:34.042Z</time>
      </trkpt>
      <trkpt lat="44.30123" lon="3.58144">
        <ele>1106.9</ele>
        <time>2021-10-23T13:20:39.059Z</time>
      </trkpt>
      <trkpt lat="44.30122" lon="3.58143">
        <ele>1106.8</ele>
        <time>2021-10-23T13:20:44.075Z</time>
      </trkpt>
      <trkpt lat="44.30121" lon="3.58155">
        <ele>1106.7</ele>
        <time>2021-10-23T13:21:10.789Z</time>
      </trkpt>
      <trkpt lat="44.30116" lon="3.58166">
        <ele>1106.4</ele>
        <time>2021-10-23T13:21:16.095Z</time>
      </trkpt>
      <trkpt lat="44.30111" lon="3.58174">
        <ele>1106</ele>
        <time>2021-10-23T13:21:21.103Z</time>
      </trkpt>
      <trkpt lat="44.30106" lon="3.58187">
        <ele>1105.6</ele>
        <time>2021-10-23T13:21:28.258Z</time>
      </trkpt>
      <trkpt lat="44.30101" lon="3.58195">
        <ele>1105.2</ele>
        <time>2021-10-23T13:21:34.082Z</time>
      </trkpt>
      <trkpt lat="44.30094" lon="3.58201">
        <ele>1104.5</ele>
        <time>2021-10-23T13:21:39.614Z</time>
      </trkpt>
      <trkpt lat="44.3009" lon="3.58209">
        <ele>1103.9</ele>
        <time>2021-10-23T13:21:44.626Z</time>
      </trkpt>
      <trkpt lat="44.30086" lon="3.58212">
        <ele>1103.5</ele>
        <time>2021-10-23T13:21:50.143Z</time>
      </trkpt>
      <trkpt lat="44.30081" lon="3.58219">
        <ele>1102.9</ele>
        <time>2021-10-23T13:21:55.508Z</time>
      </trkpt>
      <trkpt lat="44.30075" lon="3.58225">
        <ele>1102</ele>
        <time>2021-10-23T13:22:00.530Z</time>
      </trkpt>
      <trkpt lat="44.30074" lon="3.58228">
        <ele>1101.5</ele>
        <time>2021-10-23T13:22:06.054Z</time>
      </trkpt>
      <trkpt lat="44.30073" lon="3.58227">
        <ele>1101.5</ele>
        <time>2021-10-23T13:22:12.216Z</time>
      </trkpt>
      <trkpt lat="44.30067" lon="3.58227">
        <ele>1101</ele>
        <time>2021-10-23T13:22:17.749Z</time>
      </trkpt>
      <trkpt lat="44.30058" lon="3.58228">
        <ele>1099.9</ele>
        <time>2021-10-23T13:22:23.434Z</time>
      </trkpt>
      <trkpt lat="44.30049" lon="3.58232">
        <ele>1098.8</ele>
        <time>2021-10-23T13:22:29.082Z</time>
      </trkpt>
      <trkpt lat="44.30044" lon="3.58237">
        <ele>1097.9</ele>
        <time>2021-10-23T13:22:34.606Z</time>
      </trkpt>
      <trkpt lat="44.3004" lon="3.58236">
        <ele>1097.6</ele>
        <time>2021-10-23T13:22:39.810Z</time>
      </trkpt>
      <trkpt lat="44.30035" lon="3.58236">
        <ele>1097.1</ele>
        <time>2021-10-23T13:22:45.220Z</time>
      </trkpt>
      <trkpt lat="44.3003" lon="3.58239">
        <ele>1096.5</ele>
        <time>2021-10-23T13:22:50.665Z</time>
      </trkpt>
      <trkpt lat="44.30026" lon="3.5824">
        <ele>1096</ele>
        <time>2021-10-23T13:22:56.085Z</time>
      </trkpt>
      <trkpt lat="44.30022" lon="3.58242">
        <ele>1095.3</ele>
        <time>2021-10-23T13:23:01.088Z</time>
      </trkpt>
      <trkpt lat="44.30016" lon="3.58247">
        <ele>1094.5</ele>
        <time>2021-10-23T13:23:07.008Z</time>
      </trkpt>
      <trkpt lat="44.30012" lon="3.58249">
        <ele>1094</ele>
        <time>2021-10-23T13:23:12.273Z</time>
      </trkpt>
      <trkpt lat="44.3001" lon="3.58248">
        <ele>1093.9</ele>
        <time>2021-10-23T13:23:17.288Z</time>
      </trkpt>
      <trkpt lat="44.3001" lon="3.58247">
        <ele>1094</ele>
        <time>2021-10-23T13:23:24.079Z</time>
      </trkpt>
      <trkpt lat="44.30009" lon="3.58242">
        <ele>1094.3</ele>
        <time>2021-10-23T13:25:44.094Z</time>
      </trkpt>
      <trkpt lat="44.30002" lon="3.58241">
        <ele>1093.8</ele>
        <time>2021-10-23T13:25:49.423Z</time>
      </trkpt>
      <trkpt lat="44.29995" lon="3.58243">
        <ele>1093</ele>
        <time>2021-10-23T13:25:55.001Z</time>
      </trkpt>
      <trkpt lat="44.2999" lon="3.58246">
        <ele>1092.2</ele>
        <time>2021-10-23T13:26:00.192Z</time>
      </trkpt>
      <trkpt lat="44.29986" lon="3.58252">
        <ele>1091.3</ele>
        <time>2021-10-23T13:26:05.988Z</time>
      </trkpt>
      <trkpt lat="44.29981" lon="3.58258">
        <ele>1090.1</ele>
        <time>2021-10-23T13:26:11.066Z</time>
      </trkpt>
      <trkpt lat="44.29976" lon="3.58263">
        <ele>1089</ele>
        <time>2021-10-23T13:26:16.075Z</time>
      </trkpt>
      <trkpt lat="44.2997" lon="3.58267">
        <ele>1088</ele>
        <time>2021-10-23T13:26:21.121Z</time>
      </trkpt>
      <trkpt lat="44.29965" lon="3.58273">
        <ele>1086.7</ele>
        <time>2021-10-23T13:26:28.789Z</time>
      </trkpt>
      <trkpt lat="44.29961" lon="3.58278">
        <ele>1085.7</ele>
        <time>2021-10-23T13:26:34.087Z</time>
      </trkpt>
      <trkpt lat="44.29957" lon="3.58276">
        <ele>1085.4</ele>
        <time>2021-10-23T13:26:40.008Z</time>
      </trkpt>
      <trkpt lat="44.29952" lon="3.58276">
        <ele>1084.9</ele>
        <time>2021-10-23T13:26:45.691Z</time>
      </trkpt>
      <trkpt lat="44.29946" lon="3.58277">
        <ele>1084.2</ele>
        <time>2021-10-23T13:26:51.096Z</time>
      </trkpt>
      <trkpt lat="44.29937" lon="3.58274">
        <ele>1083.3</ele>
        <time>2021-10-23T13:26:56.847Z</time>
      </trkpt>
      <trkpt lat="44.2993" lon="3.5827">
        <ele>1082.6</ele>
        <time>2021-10-23T13:27:02.243Z</time>
      </trkpt>
      <trkpt lat="44.29925" lon="3.58262">
        <ele>1082</ele>
        <time>2021-10-23T13:27:08.072Z</time>
      </trkpt>
      <trkpt lat="44.29919" lon="3.58254">
        <ele>1081.4</ele>
        <time>2021-10-23T13:27:13.649Z</time>
      </trkpt>
      <trkpt lat="44.29914" lon="3.58243">
        <ele>1081.3</ele>
        <time>2021-10-23T13:27:19.197Z</time>
      </trkpt>
      <trkpt lat="44.29906" lon="3.58232">
        <ele>1081.5</ele>
        <time>2021-10-23T13:27:24.983Z</time>
      </trkpt>
      <trkpt lat="44.29901" lon="3.58229">
        <ele>1081.4</ele>
        <time>2021-10-23T13:27:30.707Z</time>
      </trkpt>
      <trkpt lat="44.29897" lon="3.58224">
        <ele>1081.4</ele>
        <time>2021-10-23T13:27:36.128Z</time>
      </trkpt>
      <trkpt lat="44.29891" lon="3.58219">
        <ele>1081.3</ele>
        <time>2021-10-23T13:27:41.183Z</time>
      </trkpt>
      <trkpt lat="44.29886" lon="3.58211">
        <ele>1081.3</ele>
        <time>2021-10-23T13:27:48.036Z</time>
      </trkpt>
      <trkpt lat="44.2988" lon="3.58204">
        <ele>1081.5</ele>
        <time>2021-10-23T13:27:53.605Z</time>
      </trkpt>
      <trkpt lat="44.29877" lon="3.58205">
        <ele>1081.5</ele>
        <time>2021-10-23T13:27:59.064Z</time>
      </trkpt>
      <trkpt lat="44.29873" lon="3.58204">
        <ele>1081.5</ele>
        <time>2021-10-23T13:28:05.057Z</time>
      </trkpt>
      <trkpt lat="44.29865" lon="3.58206">
        <ele>1081.3</ele>
        <time>2021-10-23T13:28:10.155Z</time>
      </trkpt>
      <trkpt lat="44.29856" lon="3.5821">
        <ele>1081</ele>
        <time>2021-10-23T13:28:15.929Z</time>
      </trkpt>
      <trkpt lat="44.29848" lon="3.58211">
        <ele>1081</ele>
        <time>2021-10-23T13:28:21.082Z</time>
      </trkpt>
      <trkpt lat="44.29842" lon="3.58211">
        <ele>1081.1</ele>
        <time>2021-10-23T13:28:26.140Z</time>
      </trkpt>
      <trkpt lat="44.29832" lon="3.58212">
        <ele>1081.1</ele>
        <time>2021-10-23T13:28:33.450Z</time>
      </trkpt>
      <trkpt lat="44.29824" lon="3.58213">
        <ele>1080.8</ele>
        <time>2021-10-23T13:28:39.057Z</time>
      </trkpt>
      <trkpt lat="44.29816" lon="3.58211">
        <ele>1080.9</ele>
        <time>2021-10-23T13:28:44.909Z</time>
      </trkpt>
      <trkpt lat="44.29809" lon="3.58212">
        <ele>1080.6</ele>
        <time>2021-10-23T13:28:51.062Z</time>
      </trkpt>
      <trkpt lat="44.29803" lon="3.58214">
        <ele>1080.2</ele>
        <time>2021-10-23T13:28:56.094Z</time>
      </trkpt>
      <trkpt lat="44.29797" lon="3.58215">
        <ele>1080.3</ele>
        <time>2021-10-23T13:29:01.110Z</time>
      </trkpt>
      <trkpt lat="44.29792" lon="3.58214">
        <ele>1080.5</ele>
        <time>2021-10-23T13:29:06.156Z</time>
      </trkpt>
      <trkpt lat="44.29786" lon="3.58214">
        <ele>1080.7</ele>
        <time>2021-10-23T13:29:13.446Z</time>
      </trkpt>
      <trkpt lat="44.2978" lon="3.58219">
        <ele>1080.3</ele>
        <time>2021-10-23T13:29:19.056Z</time>
      </trkpt>
      <trkpt lat="44.29774" lon="3.5822">
        <ele>1080.4</ele>
        <time>2021-10-23T13:29:24.500Z</time>
      </trkpt>
      <trkpt lat="44.29765" lon="3.58222">
        <ele>1080.5</ele>
        <time>2021-10-23T13:29:30.195Z</time>
      </trkpt>
      <trkpt lat="44.2976" lon="3.58225">
        <ele>1080.6</ele>
        <time>2021-10-23T13:29:36.082Z</time>
      </trkpt>
      <trkpt lat="44.29752" lon="3.58224">
        <ele>1080.9</ele>
        <time>2021-10-23T13:29:41.136Z</time>
      </trkpt>
      <trkpt lat="44.29743" lon="3.58223">
        <ele>1082</ele>
        <time>2021-10-23T13:29:46.138Z</time>
      </trkpt>
      <trkpt lat="44.29734" lon="3.58224">
        <ele>1083.2</ele>
        <time>2021-10-23T13:29:52.359Z</time>
      </trkpt>
      <trkpt lat="44.29726" lon="3.58228">
        <ele>1084.4</ele>
        <time>2021-10-23T13:29:57.898Z</time>
      </trkpt>
      <trkpt lat="44.2972" lon="3.58232">
        <ele>1085.3</ele>
        <time>2021-10-23T13:30:02.904Z</time>
      </trkpt>
      <trkpt lat="44.29715" lon="3.58236">
        <ele>1086</ele>
        <time>2021-10-23T13:30:08.003Z</time>
      </trkpt>
      <trkpt lat="44.29711" lon="3.58233">
        <ele>1086.5</ele>
        <time>2021-10-23T13:30:13.049Z</time>
      </trkpt>
      <trkpt lat="44.29706" lon="3.58231">
        <ele>1087.1</ele>
        <time>2021-10-23T13:30:18.338Z</time>
      </trkpt>
      <trkpt lat="44.29702" lon="3.5823">
        <ele>1087.8</ele>
        <time>2021-10-23T13:30:23.836Z</time>
      </trkpt>
      <trkpt lat="44.29698" lon="3.58231">
        <ele>1088.2</ele>
        <time>2021-10-23T13:30:29.094Z</time>
      </trkpt>
      <trkpt lat="44.29696" lon="3.58236">
        <ele>1088.3</ele>
        <time>2021-10-23T13:30:35.251Z</time>
      </trkpt>
      <trkpt lat="44.29694" lon="3.58244">
        <ele>1088.2</ele>
        <time>2021-10-23T13:30:41.097Z</time>
      </trkpt>
      <trkpt lat="44.29693" lon="3.58246">
        <ele>1088.2</ele>
        <time>2021-10-23T13:30:46.117Z</time>
      </trkpt>
      <trkpt lat="44.29691" lon="3.58247">
        <ele>1088.2</ele>
        <time>2021-10-23T13:30:51.118Z</time>
      </trkpt>
      <trkpt lat="44.29687" lon="3.58248">
        <ele>1088.4</ele>
        <time>2021-10-23T13:30:57.315Z</time>
      </trkpt>
      <trkpt lat="44.29682" lon="3.58237">
        <ele>1088.9</ele>
        <time>2021-10-23T13:31:06.102Z</time>
      </trkpt>
      <trkpt lat="44.29678" lon="3.58234">
        <ele>1089.2</ele>
        <time>2021-10-23T13:31:14.345Z</time>
      </trkpt>
      <trkpt lat="44.29677" lon="3.58238">
        <ele>1089</ele>
        <time>2021-10-23T13:31:19.925Z</time>
      </trkpt>
      <trkpt lat="44.29677" lon="3.5824">
        <ele>1089</ele>
        <time>2021-10-23T13:31:26.109Z</time>
      </trkpt>
      <trkpt lat="44.29681" lon="3.58256">
        <ele>1088</ele>
        <time>2021-10-23T13:32:24.820Z</time>
      </trkpt>
      <trkpt lat="44.29683" lon="3.58268">
        <ele>1086.8</ele>
        <time>2021-10-23T13:32:30.349Z</time>
      </trkpt>
      <trkpt lat="44.29683" lon="3.5828">
        <ele>1085.8</ele>
        <time>2021-10-23T13:32:36.105Z</time>
      </trkpt>
      <trkpt lat="44.29684" lon="3.58291">
        <ele>1084.9</ele>
        <time>2021-10-23T13:32:41.108Z</time>
      </trkpt>
      <trkpt lat="44.29687" lon="3.58306">
        <ele>1083.7</ele>
        <time>2021-10-23T13:32:48.075Z</time>
      </trkpt>
      <trkpt lat="44.29689" lon="3.58318">
        <ele>1082.9</ele>
        <time>2021-10-23T13:32:56.102Z</time>
      </trkpt>
      <trkpt lat="44.29689" lon="3.5831">
        <ele>1083.5</ele>
        <time>2021-10-23T13:33:17.316Z</time>
      </trkpt>
      <trkpt lat="44.29691" lon="3.58338">
        <ele>1081.7</ele>
        <time>2021-10-23T13:35:01.124Z</time>
      </trkpt>
      <trkpt lat="44.29691" lon="3.58352">
        <ele>1081.1</ele>
        <time>2021-10-23T13:35:21.097Z</time>
      </trkpt>
      <trkpt lat="44.29693" lon="3.58364">
        <ele>1080.7</ele>
        <time>2021-10-23T13:35:27.147Z</time>
      </trkpt>
      <trkpt lat="44.29694" lon="3.58377">
        <ele>1080.4</ele>
        <time>2021-10-23T13:35:32.881Z</time>
      </trkpt>
      <trkpt lat="44.29699" lon="3.58386">
        <ele>1080.1</ele>
        <time>2021-10-23T13:35:38.058Z</time>
      </trkpt>
      <trkpt lat="44.29704" lon="3.58394">
        <ele>1080</ele>
        <time>2021-10-23T13:35:44.053Z</time>
      </trkpt>
      <trkpt lat="44.29705" lon="3.58403">
        <ele>1080</ele>
        <time>2021-10-23T13:35:49.852Z</time>
      </trkpt>
      <trkpt lat="44.29705" lon="3.5841">
        <ele>1080</ele>
        <time>2021-10-23T13:35:55.854Z</time>
      </trkpt>
      <trkpt lat="44.29707" lon="3.58417">
        <ele>1080</ele>
        <time>2021-10-23T13:36:01.067Z</time>
      </trkpt>
      <trkpt lat="44.29707" lon="3.5842">
        <ele>1079.9</ele>
        <time>2021-10-23T13:36:06.101Z</time>
      </trkpt>
      <trkpt lat="44.29705" lon="3.58419">
        <ele>1080</ele>
        <time>2021-10-23T13:36:11.133Z</time>
      </trkpt>
      <trkpt lat="44.29708" lon="3.58443">
        <ele>1079.5</ele>
        <time>2021-10-23T13:36:41.085Z</time>
      </trkpt>
      <trkpt lat="44.2971" lon="3.5845">
        <ele>1079.4</ele>
        <time>2021-10-23T13:36:46.086Z</time>
      </trkpt>
      <trkpt lat="44.29711" lon="3.58474">
        <ele>1078.6</ele>
        <time>2021-10-23T13:36:53.045Z</time>
      </trkpt>
      <trkpt lat="44.29712" lon="3.58484">
        <ele>1078.9</ele>
        <time>2021-10-23T13:36:58.070Z</time>
      </trkpt>
      <trkpt lat="44.29715" lon="3.58493">
        <ele>1079.3</ele>
        <time>2021-10-23T13:37:03.713Z</time>
      </trkpt>
      <trkpt lat="44.29717" lon="3.58501">
        <ele>1079.6</ele>
        <time>2021-10-23T13:37:08.968Z</time>
      </trkpt>
      <trkpt lat="44.29719" lon="3.58508">
        <ele>1079.7</ele>
        <time>2021-10-23T13:37:13.988Z</time>
      </trkpt>
      <trkpt lat="44.29718" lon="3.58521">
        <ele>1079.6</ele>
        <time>2021-10-23T13:37:19.409Z</time>
      </trkpt>
      <trkpt lat="44.29716" lon="3.58529">
        <ele>1079.3</ele>
        <time>2021-10-23T13:37:25.154Z</time>
      </trkpt>
      <trkpt lat="44.29716" lon="3.58538">
        <ele>1079.2</ele>
        <time>2021-10-23T13:37:30.198Z</time>
      </trkpt>
      <trkpt lat="44.29719" lon="3.58549">
        <ele>1079.5</ele>
        <time>2021-10-23T13:37:35.637Z</time>
      </trkpt>
      <trkpt lat="44.29718" lon="3.5856">
        <ele>1079.4</ele>
        <time>2021-10-23T13:37:41.106Z</time>
      </trkpt>
      <trkpt lat="44.29717" lon="3.58566">
        <ele>1079.2</ele>
        <time>2021-10-23T13:37:46.107Z</time>
      </trkpt>
      <trkpt lat="44.29714" lon="3.58575">
        <ele>1078.9</ele>
        <time>2021-10-23T13:37:51.206Z</time>
      </trkpt>
      <trkpt lat="44.29712" lon="3.58586">
        <ele>1078.5</ele>
        <time>2021-10-23T13:37:56.969Z</time>
      </trkpt>
      <trkpt lat="44.2971" lon="3.58596">
        <ele>1078.3</ele>
        <time>2021-10-23T13:38:02.234Z</time>
      </trkpt>
      <trkpt lat="44.2971" lon="3.58609">
        <ele>1078.2</ele>
        <time>2021-10-23T13:38:07.247Z</time>
      </trkpt>
      <trkpt lat="44.2971" lon="3.58616">
        <ele>1078.3</ele>
        <time>2021-10-23T13:38:13.020Z</time>
      </trkpt>
      <trkpt lat="44.29708" lon="3.58621">
        <ele>1078.1</ele>
        <time>2021-10-23T13:38:18.876Z</time>
      </trkpt>
      <trkpt lat="44.29704" lon="3.58629">
        <ele>1077.8</ele>
        <time>2021-10-23T13:38:24.082Z</time>
      </trkpt>
      <trkpt lat="44.297" lon="3.58639">
        <ele>1077.6</ele>
        <time>2021-10-23T13:38:30.510Z</time>
      </trkpt>
      <trkpt lat="44.29697" lon="3.58648">
        <ele>1077</ele>
        <time>2021-10-23T13:38:36.145Z</time>
      </trkpt>
      <trkpt lat="44.29695" lon="3.58655">
        <ele>1076.5</ele>
        <time>2021-10-23T13:38:42.268Z</time>
      </trkpt>
      <trkpt lat="44.29692" lon="3.58662">
        <ele>1075.8</ele>
        <time>2021-10-23T13:38:47.270Z</time>
      </trkpt>
      <trkpt lat="44.29688" lon="3.58673">
        <ele>1074.9</ele>
        <time>2021-10-23T13:38:53.248Z</time>
      </trkpt>
      <trkpt lat="44.29687" lon="3.5868">
        <ele>1074.4</ele>
        <time>2021-10-23T13:38:58.955Z</time>
      </trkpt>
      <trkpt lat="44.29686" lon="3.5869">
        <ele>1074</ele>
        <time>2021-10-23T13:39:04.855Z</time>
      </trkpt>
      <trkpt lat="44.29684" lon="3.587">
        <ele>1073.1</ele>
        <time>2021-10-23T13:39:10.709Z</time>
      </trkpt>
      <trkpt lat="44.29682" lon="3.58706">
        <ele>1072.3</ele>
        <time>2021-10-23T13:39:16.103Z</time>
      </trkpt>
      <trkpt lat="44.29676" lon="3.58713">
        <ele>1071.2</ele>
        <time>2021-10-23T13:39:22.251Z</time>
      </trkpt>
      <trkpt lat="44.29676" lon="3.5872">
        <ele>1070.8</ele>
        <time>2021-10-23T13:39:28.053Z</time>
      </trkpt>
      <trkpt lat="44.29671" lon="3.58729">
        <ele>1069.6</ele>
        <time>2021-10-23T13:39:33.128Z</time>
      </trkpt>
      <trkpt lat="44.29668" lon="3.58739">
        <ele>1068.7</ele>
        <time>2021-10-23T13:39:39.050Z</time>
      </trkpt>
      <trkpt lat="44.29668" lon="3.58742">
        <ele>1068.5</ele>
        <time>2021-10-23T13:39:45.333Z</time>
      </trkpt>
      <trkpt lat="44.29667" lon="3.58746">
        <ele>1068.2</ele>
        <time>2021-10-23T13:39:51.009Z</time>
      </trkpt>
      <trkpt lat="44.29667" lon="3.58751">
        <ele>1067.8</ele>
        <time>2021-10-23T13:39:56.112Z</time>
      </trkpt>
      <trkpt lat="44.29666" lon="3.58757">
        <ele>1066.2</ele>
        <time>2021-10-23T13:40:02.423Z</time>
      </trkpt>
      <trkpt lat="44.29666" lon="3.58759">
        <ele>1065.8</ele>
        <time>2021-10-23T13:40:07.704Z</time>
      </trkpt>
      <trkpt lat="44.29665" lon="3.58759">
        <ele>1065.7</ele>
        <time>2021-10-23T13:40:26.122Z</time>
      </trkpt>
      <trkpt lat="44.29666" lon="3.58761">
        <ele>1065.2</ele>
        <time>2021-10-23T13:40:31.127Z</time>
      </trkpt>
      <trkpt lat="44.29667" lon="3.58766">
        <ele>1064</ele>
        <time>2021-10-23T13:41:01.094Z</time>
      </trkpt>
      <trkpt lat="44.29667" lon="3.58766">
        <ele>1063.7</ele>
        <time>2021-10-23T13:41:08.032Z</time>
      </trkpt>
      <trkpt lat="44.29666" lon="3.58771">
        <ele>1062.8</ele>
        <time>2021-10-23T13:41:26.119Z</time>
      </trkpt>
      <trkpt lat="44.29676" lon="3.58768">
        <ele>1060.4</ele>
        <time>2021-10-23T13:49:03.368Z</time>
      </trkpt>
      <trkpt lat="44.29683" lon="3.58762">
        <ele>1060.4</ele>
        <time>2021-10-23T13:49:09.297Z</time>
      </trkpt>
      <trkpt lat="44.29694" lon="3.58758">
        <ele>1059.3</ele>
        <time>2021-10-23T13:49:15.143Z</time>
      </trkpt>
      <trkpt lat="44.29704" lon="3.58756">
        <ele>1056.3</ele>
        <time>2021-10-23T13:49:20.594Z</time>
      </trkpt>
      <trkpt lat="44.2972" lon="3.58752">
        <ele>1052.4</ele>
        <time>2021-10-23T13:49:36.118Z</time>
      </trkpt>
      <trkpt lat="44.29725" lon="3.58751">
        <ele>1051.5</ele>
        <time>2021-10-23T13:49:41.683Z</time>
      </trkpt>
      <trkpt lat="44.29731" lon="3.5875">
        <ele>1050.7</ele>
        <time>2021-10-23T13:49:47.673Z</time>
      </trkpt>
      <trkpt lat="44.29739" lon="3.58748">
        <ele>1049.2</ele>
        <time>2021-10-23T13:49:53.047Z</time>
      </trkpt>
      <trkpt lat="44.29744" lon="3.58747">
        <ele>1048.5</ele>
        <time>2021-10-23T13:49:58.056Z</time>
      </trkpt>
      <trkpt lat="44.29749" lon="3.58746">
        <ele>1048.1</ele>
        <time>2021-10-23T13:50:04.109Z</time>
      </trkpt>
      <trkpt lat="44.29753" lon="3.58744">
        <ele>1048.9</ele>
        <time>2021-10-23T13:50:10.066Z</time>
      </trkpt>
      <trkpt lat="44.29758" lon="3.58741">
        <ele>1050.1</ele>
        <time>2021-10-23T13:50:16.056Z</time>
      </trkpt>
      <trkpt lat="44.29763" lon="3.58739">
        <ele>1050.4</ele>
        <time>2021-10-23T13:50:21.088Z</time>
      </trkpt>
      <trkpt lat="44.29769" lon="3.58738">
        <ele>1050.3</ele>
        <time>2021-10-23T13:50:26.090Z</time>
      </trkpt>
      <trkpt lat="44.29773" lon="3.58737">
        <ele>1050.3</ele>
        <time>2021-10-23T13:50:31.113Z</time>
      </trkpt>
      <trkpt lat="44.29777" lon="3.58737">
        <ele>1049.8</ele>
        <time>2021-10-23T13:50:38.040Z</time>
      </trkpt>
      <trkpt lat="44.29782" lon="3.58737">
        <ele>1049.5</ele>
        <time>2021-10-23T13:50:43.061Z</time>
      </trkpt>
      <trkpt lat="44.29789" lon="3.58736">
        <ele>1049.7</ele>
        <time>2021-10-23T13:50:48.906Z</time>
      </trkpt>
      <trkpt lat="44.29796" lon="3.58737">
        <ele>1048.7</ele>
        <time>2021-10-23T13:50:54.048Z</time>
      </trkpt>
      <trkpt lat="44.298" lon="3.58743">
        <ele>1045.8</ele>
        <time>2021-10-23T13:50:59.419Z</time>
      </trkpt>
      <trkpt lat="44.29809" lon="3.58747">
        <ele>1044.1</ele>
        <time>2021-10-23T13:51:04.603Z</time>
      </trkpt>
      <trkpt lat="44.29814" lon="3.58749">
        <ele>1044</ele>
        <time>2021-10-23T13:51:09.627Z</time>
      </trkpt>
      <trkpt lat="44.29819" lon="3.58751">
        <ele>1043.6</ele>
        <time>2021-10-23T13:51:15.236Z</time>
      </trkpt>
      <trkpt lat="44.29821" lon="3.58754">
        <ele>1042.1</ele>
        <time>2021-10-23T13:51:26.165Z</time>
      </trkpt>
      <trkpt lat="44.29826" lon="3.58761">
        <ele>1039.4</ele>
        <time>2021-10-23T13:51:31.492Z</time>
      </trkpt>
      <trkpt lat="44.29833" lon="3.58773">
        <ele>1034.6</ele>
        <time>2021-10-23T13:51:36.638Z</time>
      </trkpt>
      <trkpt lat="44.29841" lon="3.58784">
        <ele>1030.5</ele>
        <time>2021-10-23T13:51:42.307Z</time>
      </trkpt>
      <trkpt lat="44.29847" lon="3.58795">
        <ele>1026.6</ele>
        <time>2021-10-23T13:51:47.326Z</time>
      </trkpt>
      <trkpt lat="44.29853" lon="3.58798">
        <ele>1027.4</ele>
        <time>2021-10-23T13:51:52.343Z</time>
      </trkpt>
      <trkpt lat="44.29863" lon="3.58796">
        <ele>1031.3</ele>
        <time>2021-10-23T13:51:58.091Z</time>
      </trkpt>
      <trkpt lat="44.29873" lon="3.58795">
        <ele>1032.8</ele>
        <time>2021-10-23T13:52:03.494Z</time>
      </trkpt>
      <trkpt lat="44.29881" lon="3.58797">
        <ele>1033.3</ele>
        <time>2021-10-23T13:52:09.553Z</time>
      </trkpt>
      <trkpt lat="44.29886" lon="3.58802">
        <ele>1032</ele>
        <time>2021-10-23T13:52:15.253Z</time>
      </trkpt>
      <trkpt lat="44.29891" lon="3.58809">
        <ele>1030.9</ele>
        <time>2021-10-23T13:52:20.914Z</time>
      </trkpt>
      <trkpt lat="44.29892" lon="3.58815">
        <ele>1030</ele>
        <time>2021-10-23T13:52:26.093Z</time>
      </trkpt>
      <trkpt lat="44.29895" lon="3.58823">
        <ele>1028.9</ele>
        <time>2021-10-23T13:52:31.113Z</time>
      </trkpt>
      <trkpt lat="44.29897" lon="3.58831">
        <ele>1027.8</ele>
        <time>2021-10-23T13:52:36.134Z</time>
      </trkpt>
      <trkpt lat="44.29898" lon="3.58838">
        <ele>1027</ele>
        <time>2021-10-23T13:52:41.137Z</time>
      </trkpt>
      <trkpt lat="44.29896" lon="3.58839">
        <ele>1025.6</ele>
        <time>2021-10-23T13:52:48.278Z</time>
      </trkpt>
      <trkpt lat="44.29891" lon="3.5884">
        <ele>1023.3</ele>
        <time>2021-10-23T13:52:53.470Z</time>
      </trkpt>
      <trkpt lat="44.29884" lon="3.58838">
        <ele>1019.8</ele>
        <time>2021-10-23T13:52:58.735Z</time>
      </trkpt>
      <trkpt lat="44.29877" lon="3.58836">
        <ele>1016.3</ele>
        <time>2021-10-23T13:53:03.935Z</time>
      </trkpt>
      <trkpt lat="44.29872" lon="3.58828">
        <ele>1017</ele>
        <time>2021-10-23T13:53:09.284Z</time>
      </trkpt>
      <trkpt lat="44.29871" lon="3.58824">
        <ele>1018.5</ele>
        <time>2021-10-23T13:53:15.209Z</time>
      </trkpt>
      <trkpt lat="44.29866" lon="3.58829">
        <ele>1013.9</ele>
        <time>2021-10-23T13:53:20.870Z</time>
      </trkpt>
      <trkpt lat="44.29866" lon="3.58834">
        <ele>1011.1</ele>
        <time>2021-10-23T13:53:26.139Z</time>
      </trkpt>
      <trkpt lat="44.29867" lon="3.58836">
        <ele>1011.1</ele>
        <time>2021-10-23T13:53:31.629Z</time>
      </trkpt>
      <trkpt lat="44.29867" lon="3.58841">
        <ele>1010</ele>
        <time>2021-10-23T13:53:37.040Z</time>
      </trkpt>
      <trkpt lat="44.29871" lon="3.58848">
        <ele>1010.3</ele>
        <time>2021-10-23T13:53:42.201Z</time>
      </trkpt>
      <trkpt lat="44.29875" lon="3.58855">
        <ele>1011</ele>
        <time>2021-10-23T13:53:47.552Z</time>
      </trkpt>
      <trkpt lat="44.29871" lon="3.58851">
        <ele>1009.5</ele>
        <time>2021-10-23T13:53:53.064Z</time>
      </trkpt>
      <trkpt lat="44.29866" lon="3.58851">
        <ele>1006.2</ele>
        <time>2021-10-23T13:53:58.446Z</time>
      </trkpt>
      <trkpt lat="44.29861" lon="3.5885">
        <ele>1003.3</ele>
        <time>2021-10-23T13:54:03.904Z</time>
      </trkpt>
      <trkpt lat="44.29856" lon="3.58855">
        <ele>1000</ele>
        <time>2021-10-23T13:54:09.250Z</time>
      </trkpt>
      <trkpt lat="44.29854" lon="3.58864">
        <ele>996.1</ele>
        <time>2021-10-23T13:54:14.368Z</time>
      </trkpt>
      <trkpt lat="44.29849" lon="3.58865">
        <ele>994.2</ele>
        <time>2021-10-23T13:54:19.464Z</time>
      </trkpt>
      <trkpt lat="44.29842" lon="3.58858">
        <ele>994</ele>
        <time>2021-10-23T13:54:24.782Z</time>
      </trkpt>
      <trkpt lat="44.29837" lon="3.58853">
        <ele>994.1</ele>
        <time>2021-10-23T13:54:30.211Z</time>
      </trkpt>
      <trkpt lat="44.29833" lon="3.58849">
        <ele>994.6</ele>
        <time>2021-10-23T13:54:35.655Z</time>
      </trkpt>
      <trkpt lat="44.29837" lon="3.5884">
        <ele>999.8</ele>
        <time>2021-10-23T13:55:06.122Z</time>
      </trkpt>
      <trkpt lat="44.29836" lon="3.58841">
        <ele>999.1</ele>
        <time>2021-10-23T13:55:31.068Z</time>
      </trkpt>
      <trkpt lat="44.29833" lon="3.58844">
        <ele>997.1</ele>
        <time>2021-10-23T13:55:36.159Z</time>
      </trkpt>
      <trkpt lat="44.29828" lon="3.58846">
        <ele>995.1</ele>
        <time>2021-10-23T13:55:43.523Z</time>
      </trkpt>
      <trkpt lat="44.29821" lon="3.58847">
        <ele>993.5</ele>
        <time>2021-10-23T13:55:49.016Z</time>
      </trkpt>
      <trkpt lat="44.29813" lon="3.58848">
        <ele>991.5</ele>
        <time>2021-10-23T13:55:54.353Z</time>
      </trkpt>
      <trkpt lat="44.29804" lon="3.58848">
        <ele>990.2</ele>
        <time>2021-10-23T13:56:00.218Z</time>
      </trkpt>
      <trkpt lat="44.29797" lon="3.58845">
        <ele>992.5</ele>
        <time>2021-10-23T13:56:06.071Z</time>
      </trkpt>
      <trkpt lat="44.29797" lon="3.58848">
        <ele>991.1</ele>
        <time>2021-10-23T13:56:11.108Z</time>
      </trkpt>
      <trkpt lat="44.29808" lon="3.58851">
        <ele>989.2</ele>
        <time>2021-10-23T13:56:21.100Z</time>
      </trkpt>
      <trkpt lat="44.29814" lon="3.58853">
        <ele>989.1</ele>
        <time>2021-10-23T13:56:26.121Z</time>
      </trkpt>
      <trkpt lat="44.2982" lon="3.5886">
        <ele>986.6</ele>
        <time>2021-10-23T13:56:34.109Z</time>
      </trkpt>
      <trkpt lat="44.29824" lon="3.58867">
        <ele>984</ele>
        <time>2021-10-23T13:56:39.457Z</time>
      </trkpt>
      <trkpt lat="44.29827" lon="3.58872">
        <ele>982.3</ele>
        <time>2021-10-23T13:56:44.504Z</time>
      </trkpt>
      <trkpt lat="44.29831" lon="3.58876">
        <ele>981.2</ele>
        <time>2021-10-23T13:56:49.792Z</time>
      </trkpt>
      <trkpt lat="44.29835" lon="3.58879">
        <ele>981.3</ele>
        <time>2021-10-23T13:56:55.110Z</time>
      </trkpt>
      <trkpt lat="44.29823" lon="3.58878">
        <ele>978.5</ele>
        <time>2021-10-23T13:57:16.093Z</time>
      </trkpt>
      <trkpt lat="44.29817" lon="3.58878">
        <ele>976.8</ele>
        <time>2021-10-23T13:57:21.106Z</time>
      </trkpt>
      <trkpt lat="44.29813" lon="3.5888">
        <ele>974.5</ele>
        <time>2021-10-23T13:57:26.108Z</time>
      </trkpt>
      <trkpt lat="44.2981" lon="3.58884">
        <ele>971.7</ele>
        <time>2021-10-23T13:57:31.114Z</time>
      </trkpt>
      <trkpt lat="44.29807" lon="3.58888">
        <ele>968.6</ele>
        <time>2021-10-23T13:57:36.325Z</time>
      </trkpt>
      <trkpt lat="44.29807" lon="3.58885">
        <ele>970.7</ele>
        <time>2021-10-23T13:57:42.753Z</time>
      </trkpt>
      <trkpt lat="44.29801" lon="3.58887">
        <ele>969.4</ele>
        <time>2021-10-23T13:57:47.764Z</time>
      </trkpt>
      <trkpt lat="44.29795" lon="3.5889">
        <ele>967.8</ele>
        <time>2021-10-23T13:57:52.889Z</time>
      </trkpt>
      <trkpt lat="44.29789" lon="3.58892">
        <ele>966.7</ele>
        <time>2021-10-23T13:57:57.958Z</time>
      </trkpt>
      <trkpt lat="44.29782" lon="3.58895">
        <ele>965.4</ele>
        <time>2021-10-23T13:58:03.923Z</time>
      </trkpt>
      <trkpt lat="44.29774" lon="3.58898">
        <ele>963.9</ele>
        <time>2021-10-23T13:58:09.087Z</time>
      </trkpt>
      <trkpt lat="44.29766" lon="3.58903">
        <ele>960.8</ele>
        <time>2021-10-23T13:58:14.563Z</time>
      </trkpt>
      <trkpt lat="44.2976" lon="3.58908">
        <ele>958</ele>
        <time>2021-10-23T13:58:20.526Z</time>
      </trkpt>
      <trkpt lat="44.29756" lon="3.58909">
        <ele>957.6</ele>
        <time>2021-10-23T13:58:26.123Z</time>
      </trkpt>
      <trkpt lat="44.29752" lon="3.58906">
        <ele>958.8</ele>
        <time>2021-10-23T13:58:31.175Z</time>
      </trkpt>
      <trkpt lat="44.29743" lon="3.58901">
        <ele>961.1</ele>
        <time>2021-10-23T13:58:37.206Z</time>
      </trkpt>
      <trkpt lat="44.29737" lon="3.58901">
        <ele>961.9</ele>
        <time>2021-10-23T13:58:42.317Z</time>
      </trkpt>
      <trkpt lat="44.29733" lon="3.58902">
        <ele>961.7</ele>
        <time>2021-10-23T13:58:48.054Z</time>
      </trkpt>
      <trkpt lat="44.29728" lon="3.58905">
        <ele>960.7</ele>
        <time>2021-10-23T13:58:53.764Z</time>
      </trkpt>
      <trkpt lat="44.29725" lon="3.58909">
        <ele>958.6</ele>
        <time>2021-10-23T13:58:58.968Z</time>
      </trkpt>
      <trkpt lat="44.29724" lon="3.58918">
        <ele>954.5</ele>
        <time>2021-10-23T13:59:04.026Z</time>
      </trkpt>
      <trkpt lat="44.29721" lon="3.58926">
        <ele>952.6</ele>
        <time>2021-10-23T13:59:09.464Z</time>
      </trkpt>
      <trkpt lat="44.29716" lon="3.58929">
        <ele>953.7</ele>
        <time>2021-10-23T13:59:15.063Z</time>
      </trkpt>
      <trkpt lat="44.29711" lon="3.5893">
        <ele>955.1</ele>
        <time>2021-10-23T13:59:20.821Z</time>
      </trkpt>
      <trkpt lat="44.29707" lon="3.58932">
        <ele>956</ele>
        <time>2021-10-23T13:59:26.068Z</time>
      </trkpt>
      <trkpt lat="44.297" lon="3.58933">
        <ele>957.9</ele>
        <time>2021-10-23T13:59:31.085Z</time>
      </trkpt>
      <trkpt lat="44.29694" lon="3.58935">
        <ele>958.6</ele>
        <time>2021-10-23T13:59:36.096Z</time>
      </trkpt>
      <trkpt lat="44.29691" lon="3.58937">
        <ele>956.7</ele>
        <time>2021-10-23T13:59:41.113Z</time>
      </trkpt>
      <trkpt lat="44.29698" lon="3.58944">
        <ele>952.1</ele>
        <time>2021-10-23T14:00:01.119Z</time>
      </trkpt>
      <trkpt lat="44.29701" lon="3.58944">
        <ele>951.9</ele>
        <time>2021-10-23T14:00:44.050Z</time>
      </trkpt>
      <trkpt lat="44.29701" lon="3.58945">
        <ele>951.3</ele>
        <time>2021-10-23T14:00:49.070Z</time>
      </trkpt>
      <trkpt lat="44.29699" lon="3.58944">
        <ele>952.2</ele>
        <time>2021-10-23T14:01:00.067Z</time>
      </trkpt>
      <trkpt lat="44.29699" lon="3.58945">
        <ele>952</ele>
        <time>2021-10-23T14:01:06.120Z</time>
      </trkpt>
      <trkpt lat="44.29696" lon="3.5895">
        <ele>953.4</ele>
        <time>2021-10-23T14:01:46.150Z</time>
      </trkpt>
      <trkpt lat="44.29691" lon="3.58956">
        <ele>953.1</ele>
        <time>2021-10-23T14:01:51.821Z</time>
      </trkpt>
      <trkpt lat="44.29684" lon="3.58962">
        <ele>948.7</ele>
        <time>2021-10-23T14:01:57.288Z</time>
      </trkpt>
      <trkpt lat="44.29675" lon="3.5896">
        <ele>943</ele>
        <time>2021-10-23T14:02:02.409Z</time>
      </trkpt>
      <trkpt lat="44.29668" lon="3.58963">
        <ele>937.3</ele>
        <time>2021-10-23T14:02:07.708Z</time>
      </trkpt>
      <trkpt lat="44.29662" lon="3.58965">
        <ele>935.1</ele>
        <time>2021-10-23T14:02:13.036Z</time>
      </trkpt>
      <trkpt lat="44.29655" lon="3.58967">
        <ele>934.9</ele>
        <time>2021-10-23T14:02:18.049Z</time>
      </trkpt>
      <trkpt lat="44.2965" lon="3.58969">
        <ele>934.5</ele>
        <time>2021-10-23T14:02:23.617Z</time>
      </trkpt>
      <trkpt lat="44.29647" lon="3.58968">
        <ele>935.2</ele>
        <time>2021-10-23T14:02:29.057Z</time>
      </trkpt>
      <trkpt lat="44.2964" lon="3.58969">
        <ele>935.7</ele>
        <time>2021-10-23T14:02:34.398Z</time>
      </trkpt>
      <trkpt lat="44.29634" lon="3.58969">
        <ele>932.6</ele>
        <time>2021-10-23T14:02:39.871Z</time>
      </trkpt>
      <trkpt lat="44.29629" lon="3.58963">
        <ele>931.8</ele>
        <time>2021-10-23T14:02:45.028Z</time>
      </trkpt>
      <trkpt lat="44.29626" lon="3.58958">
        <ele>932.1</ele>
        <time>2021-10-23T14:02:50.310Z</time>
      </trkpt>
      <trkpt lat="44.29609" lon="3.58964">
        <ele>920.8</ele>
        <time>2021-10-23T14:03:36.100Z</time>
      </trkpt>
      <trkpt lat="44.2961" lon="3.58964">
        <ele>921.1</ele>
        <time>2021-10-23T14:03:41.139Z</time>
      </trkpt>
      <trkpt lat="44.29604" lon="3.58965">
        <ele>919.7</ele>
        <time>2021-10-23T14:03:48.919Z</time>
      </trkpt>
      <trkpt lat="44.29599" lon="3.58971">
        <ele>913.5</ele>
        <time>2021-10-23T14:03:54.010Z</time>
      </trkpt>
      <trkpt lat="44.29598" lon="3.58973">
        <ele>911.2</ele>
        <time>2021-10-23T14:03:59.059Z</time>
      </trkpt>
      <trkpt lat="44.29604" lon="3.58974">
        <ele>913.2</ele>
        <time>2021-10-23T14:04:09.554Z</time>
      </trkpt>
      <trkpt lat="44.29608" lon="3.58976">
        <ele>913.4</ele>
        <time>2021-10-23T14:04:15.271Z</time>
      </trkpt>
      <trkpt lat="44.29611" lon="3.58977">
        <ele>913.9</ele>
        <time>2021-10-23T14:04:20.358Z</time>
      </trkpt>
      <trkpt lat="44.29614" lon="3.5898">
        <ele>914.7</ele>
        <time>2021-10-23T14:04:26.071Z</time>
      </trkpt>
      <trkpt lat="44.29622" lon="3.58984">
        <ele>919.1</ele>
        <time>2021-10-23T14:04:51.119Z</time>
      </trkpt>
      <trkpt lat="44.29622" lon="3.5899">
        <ele>916.6</ele>
        <time>2021-10-23T14:04:56.124Z</time>
      </trkpt>
      <trkpt lat="44.29619" lon="3.59006">
        <ele>908</ele>
        <time>2021-10-23T14:05:06.131Z</time>
      </trkpt>
      <trkpt lat="44.29619" lon="3.59012">
        <ele>906.6</ele>
        <time>2021-10-23T14:05:31.107Z</time>
      </trkpt>
      <trkpt lat="44.29615" lon="3.59011">
        <ele>904.3</ele>
        <time>2021-10-23T14:07:11.119Z</time>
      </trkpt>
      <trkpt lat="44.29601" lon="3.59001">
        <ele>898.8</ele>
        <time>2021-10-23T14:07:17.242Z</time>
      </trkpt>
      <trkpt lat="44.29587" lon="3.59007">
        <ele>888.6</ele>
        <time>2021-10-23T14:07:23.066Z</time>
      </trkpt>
      <trkpt lat="44.29576" lon="3.59009">
        <ele>884.3</ele>
        <time>2021-10-23T14:07:28.703Z</time>
      </trkpt>
      <trkpt lat="44.29569" lon="3.59009">
        <ele>884</ele>
        <time>2021-10-23T14:07:34.650Z</time>
      </trkpt>
      <trkpt lat="44.29562" lon="3.59009">
        <ele>883.2</ele>
        <time>2021-10-23T14:07:40.284Z</time>
      </trkpt>
      <trkpt lat="44.29554" lon="3.59004">
        <ele>884.6</ele>
        <time>2021-10-23T14:07:46.060Z</time>
      </trkpt>
      <trkpt lat="44.29549" lon="3.58997">
        <ele>887.4</ele>
        <time>2021-10-23T14:07:51.096Z</time>
      </trkpt>
      <trkpt lat="44.29547" lon="3.58995">
        <ele>888.2</ele>
        <time>2021-10-23T14:07:56.112Z</time>
      </trkpt>
      <trkpt lat="44.29542" lon="3.59003">
        <ele>883.2</ele>
        <time>2021-10-23T14:08:01.534Z</time>
      </trkpt>
      <trkpt lat="44.29537" lon="3.59006">
        <ele>880.8</ele>
        <time>2021-10-23T14:08:06.564Z</time>
      </trkpt>
      <trkpt lat="44.29541" lon="3.59003">
        <ele>883</ele>
        <time>2021-10-23T14:08:16.099Z</time>
      </trkpt>
      <trkpt lat="44.29547" lon="3.58998">
        <ele>886.5</ele>
        <time>2021-10-23T14:08:21.163Z</time>
      </trkpt>
      <trkpt lat="44.29557" lon="3.58995">
        <ele>890.2</ele>
        <time>2021-10-23T14:08:30.672Z</time>
      </trkpt>
      <trkpt lat="44.2956" lon="3.58998">
        <ele>888.8</ele>
        <time>2021-10-23T14:08:36.092Z</time>
      </trkpt>
      <trkpt lat="44.29562" lon="3.58999">
        <ele>888.2</ele>
        <time>2021-10-23T14:08:41.111Z</time>
      </trkpt>
      <trkpt lat="44.29564" lon="3.59001">
        <ele>887.3</ele>
        <time>2021-10-23T14:08:47.243Z</time>
      </trkpt>
      <trkpt lat="44.29567" lon="3.59009">
        <ele>883.8</ele>
        <time>2021-10-23T14:08:52.518Z</time>
      </trkpt>
      <trkpt lat="44.29571" lon="3.59016">
        <ele>880.5</ele>
        <time>2021-10-23T14:08:57.582Z</time>
      </trkpt>
      <trkpt lat="44.29576" lon="3.59019">
        <ele>878.9</ele>
        <time>2021-10-23T14:09:02.928Z</time>
      </trkpt>
      <trkpt lat="44.29582" lon="3.59023">
        <ele>877.5</ele>
        <time>2021-10-23T14:09:09.399Z</time>
      </trkpt>
      <trkpt lat="44.29578" lon="3.59026">
        <ele>875.4</ele>
        <time>2021-10-23T14:09:14.567Z</time>
      </trkpt>
      <trkpt lat="44.29572" lon="3.59028">
        <ele>874</ele>
        <time>2021-10-23T14:09:20.408Z</time>
      </trkpt>
      <trkpt lat="44.29565" lon="3.59032">
        <ele>871.5</ele>
        <time>2021-10-23T14:09:25.557Z</time>
      </trkpt>
      <trkpt lat="44.29559" lon="3.59031">
        <ele>871.5</ele>
        <time>2021-10-23T14:09:30.600Z</time>
      </trkpt>
      <trkpt lat="44.29554" lon="3.59029">
        <ele>872.1</ele>
        <time>2021-10-23T14:09:36.069Z</time>
      </trkpt>
      <trkpt lat="44.2955" lon="3.59031">
        <ele>870.1</ele>
        <time>2021-10-23T14:09:41.115Z</time>
      </trkpt>
      <trkpt lat="44.29544" lon="3.59034">
        <ele>867.1</ele>
        <time>2021-10-23T14:09:47.446Z</time>
      </trkpt>
      <trkpt lat="44.2954" lon="3.59031">
        <ele>867.5</ele>
        <time>2021-10-23T14:09:52.633Z</time>
      </trkpt>
      <trkpt lat="44.29535" lon="3.59032">
        <ele>866.1</ele>
        <time>2021-10-23T14:09:57.686Z</time>
      </trkpt>
      <trkpt lat="44.29529" lon="3.59035">
        <ele>863.4</ele>
        <time>2021-10-23T14:10:03.049Z</time>
      </trkpt>
      <trkpt lat="44.29526" lon="3.59037">
        <ele>861.7</ele>
        <time>2021-10-23T14:10:08.065Z</time>
      </trkpt>
      <trkpt lat="44.29523" lon="3.5904">
        <ele>860.2</ele>
        <time>2021-10-23T14:10:14.089Z</time>
      </trkpt>
      <trkpt lat="44.29519" lon="3.59043">
        <ele>858.2</ele>
        <time>2021-10-23T14:10:19.333Z</time>
      </trkpt>
      <trkpt lat="44.29516" lon="3.59047">
        <ele>856.1</ele>
        <time>2021-10-23T14:10:25.708Z</time>
      </trkpt>
      <trkpt lat="44.29508" lon="3.5904">
        <ele>860.3</ele>
        <time>2021-10-23T14:11:17.890Z</time>
      </trkpt>
      <trkpt lat="44.295" lon="3.59043">
        <ele>858.8</ele>
        <time>2021-10-23T14:11:23.038Z</time>
      </trkpt>
      <trkpt lat="44.29491" lon="3.59045">
        <ele>856.5</ele>
        <time>2021-10-23T14:11:28.790Z</time>
      </trkpt>
      <trkpt lat="44.29483" lon="3.59048">
        <ele>854.1</ele>
        <time>2021-10-23T14:11:34.565Z</time>
      </trkpt>
      <trkpt lat="44.29469" lon="3.59041">
        <ele>856.7</ele>
        <time>2021-10-23T14:11:40.085Z</time>
      </trkpt>
      <trkpt lat="44.29465" lon="3.59045">
        <ele>854.1</ele>
        <time>2021-10-23T14:11:45.335Z</time>
      </trkpt>
      <trkpt lat="44.29461" lon="3.5905">
        <ele>850.3</ele>
        <time>2021-10-23T14:11:50.795Z</time>
      </trkpt>
      <trkpt lat="44.29457" lon="3.59052">
        <ele>849</ele>
        <time>2021-10-23T14:11:56.112Z</time>
      </trkpt>
      <trkpt lat="44.2945" lon="3.59054">
        <ele>847.6</ele>
        <time>2021-10-23T14:12:23.083Z</time>
      </trkpt>
      <trkpt lat="44.2944" lon="3.59054">
        <ele>846.3</ele>
        <time>2021-10-23T14:12:29.517Z</time>
      </trkpt>
      <trkpt lat="44.29428" lon="3.5906">
        <ele>841.7</ele>
        <time>2021-10-23T14:12:35.077Z</time>
      </trkpt>
      <trkpt lat="44.2942" lon="3.59063">
        <ele>839.3</ele>
        <time>2021-10-23T14:12:40.215Z</time>
      </trkpt>
      <trkpt lat="44.29413" lon="3.59064">
        <ele>837.8</ele>
        <time>2021-10-23T14:12:45.796Z</time>
      </trkpt>
      <trkpt lat="44.2941" lon="3.59066">
        <ele>836.5</ele>
        <time>2021-10-23T14:12:51.075Z</time>
      </trkpt>
      <trkpt lat="44.29412" lon="3.59065">
        <ele>837</ele>
        <time>2021-10-23T14:13:01.124Z</time>
      </trkpt>
      <trkpt lat="44.29392" lon="3.5907">
        <ele>831.7</ele>
        <time>2021-10-23T14:14:16.107Z</time>
      </trkpt>
      <trkpt lat="44.29391" lon="3.59071">
        <ele>831.2</ele>
        <time>2021-10-23T14:14:24.057Z</time>
      </trkpt>
      <trkpt lat="44.2939" lon="3.59074">
        <ele>830</ele>
        <time>2021-10-23T14:14:31.134Z</time>
      </trkpt>
      <trkpt lat="44.29392" lon="3.59077">
        <ele>829</ele>
        <time>2021-10-23T14:14:36.159Z</time>
      </trkpt>
      <trkpt lat="44.29396" lon="3.59081">
        <ele>827.4</ele>
        <time>2021-10-23T14:14:45.057Z</time>
      </trkpt>
      <trkpt lat="44.29401" lon="3.59084">
        <ele>826.7</ele>
        <time>2021-10-23T14:14:50.094Z</time>
      </trkpt>
      <trkpt lat="44.29406" lon="3.59087">
        <ele>826</ele>
        <time>2021-10-23T14:14:56.141Z</time>
      </trkpt>
      <trkpt lat="44.29406" lon="3.59095">
        <ele>822.9</ele>
        <time>2021-10-23T14:15:02.261Z</time>
      </trkpt>
      <trkpt lat="44.29404" lon="3.59095">
        <ele>822.6</ele>
        <time>2021-10-23T14:15:08.031Z</time>
      </trkpt>
      <trkpt lat="44.29405" lon="3.5909">
        <ele>824.5</ele>
        <time>2021-10-23T14:15:13.033Z</time>
      </trkpt>
      <trkpt lat="44.29408" lon="3.59087">
        <ele>825.8</ele>
        <time>2021-10-23T14:15:31.175Z</time>
      </trkpt>
      <trkpt lat="44.2941" lon="3.59089">
        <ele>825.3</ele>
        <time>2021-10-23T14:15:38.064Z</time>
      </trkpt>
      <trkpt lat="44.29405" lon="3.59091">
        <ele>824.3</ele>
        <time>2021-10-23T14:16:37.191Z</time>
      </trkpt>
      <trkpt lat="44.29403" lon="3.59096">
        <ele>822.4</ele>
        <time>2021-10-23T14:16:42.285Z</time>
      </trkpt>
      <trkpt lat="44.29403" lon="3.59104">
        <ele>819.1</ele>
        <time>2021-10-23T14:16:48.038Z</time>
      </trkpt>
      <trkpt lat="44.29403" lon="3.59107">
        <ele>818</ele>
        <time>2021-10-23T14:16:53.048Z</time>
      </trkpt>
      <trkpt lat="44.29405" lon="3.59117">
        <ele>815.2</ele>
        <time>2021-10-23T14:17:26.187Z</time>
      </trkpt>
      <trkpt lat="44.29413" lon="3.59124">
        <ele>814.1</ele>
        <time>2021-10-23T14:17:32.320Z</time>
      </trkpt>
      <trkpt lat="44.29421" lon="3.59132">
        <ele>812.9</ele>
        <time>2021-10-23T14:17:37.349Z</time>
      </trkpt>
      <trkpt lat="44.29428" lon="3.59141">
        <ele>811.4</ele>
        <time>2021-10-23T14:17:42.364Z</time>
      </trkpt>
      <trkpt lat="44.29438" lon="3.59148">
        <ele>810.7</ele>
        <time>2021-10-23T14:17:48.647Z</time>
      </trkpt>
      <trkpt lat="44.29446" lon="3.59151">
        <ele>811</ele>
        <time>2021-10-23T14:17:54.419Z</time>
      </trkpt>
      <trkpt lat="44.29449" lon="3.59157">
        <ele>810</ele>
        <time>2021-10-23T14:17:59.806Z</time>
      </trkpt>
      <trkpt lat="44.29451" lon="3.59162">
        <ele>809.2</ele>
        <time>2021-10-23T14:18:05.053Z</time>
      </trkpt>
      <trkpt lat="44.29459" lon="3.59163">
        <ele>809.2</ele>
        <time>2021-10-23T14:18:10.155Z</time>
      </trkpt>
      <trkpt lat="44.29462" lon="3.59163">
        <ele>809.3</ele>
        <time>2021-10-23T14:18:15.693Z</time>
      </trkpt>
      <trkpt lat="44.29464" lon="3.59162">
        <ele>809.7</ele>
        <time>2021-10-23T14:18:27.732Z</time>
      </trkpt>
      <trkpt lat="44.29472" lon="3.59159">
        <ele>810.6</ele>
        <time>2021-10-23T14:18:33.332Z</time>
      </trkpt>
      <trkpt lat="44.29473" lon="3.59154">
        <ele>811.7</ele>
        <time>2021-10-23T14:18:38.557Z</time>
      </trkpt>
      <trkpt lat="44.29476" lon="3.59147">
        <ele>812.7</ele>
        <time>2021-10-23T14:18:44.082Z</time>
      </trkpt>
      <trkpt lat="44.29481" lon="3.59143">
        <ele>813.1</ele>
        <time>2021-10-23T14:18:49.769Z</time>
      </trkpt>
      <trkpt lat="44.29486" lon="3.59149">
        <ele>811</ele>
        <time>2021-10-23T14:18:54.812Z</time>
      </trkpt>
      <trkpt lat="44.29491" lon="3.59152">
        <ele>809.3</ele>
        <time>2021-10-23T14:19:00.060Z</time>
      </trkpt>
      <trkpt lat="44.29496" lon="3.59152">
        <ele>808.4</ele>
        <time>2021-10-23T14:19:06.043Z</time>
      </trkpt>
      <trkpt lat="44.29496" lon="3.59154">
        <ele>807.5</ele>
        <time>2021-10-23T14:19:11.112Z</time>
      </trkpt>
      <trkpt lat="44.29497" lon="3.5916">
        <ele>805.1</ele>
        <time>2021-10-23T14:19:16.148Z</time>
      </trkpt>
      <trkpt lat="44.29502" lon="3.59163">
        <ele>803.2</ele>
        <time>2021-10-23T14:19:23.049Z</time>
      </trkpt>
      <trkpt lat="44.295" lon="3.59161">
        <ele>804.4</ele>
        <time>2021-10-23T14:19:31.140Z</time>
      </trkpt>
      <trkpt lat="44.29501" lon="3.59164">
        <ele>803</ele>
        <time>2021-10-23T14:19:37.318Z</time>
      </trkpt>
      <trkpt lat="44.295" lon="3.59161">
        <ele>804.4</ele>
        <time>2021-10-23T14:19:43.043Z</time>
      </trkpt>
      <trkpt lat="44.29505" lon="3.5915">
        <ele>807.6</ele>
        <time>2021-10-23T14:21:43.071Z</time>
      </trkpt>
      <trkpt lat="44.29506" lon="3.59149">
        <ele>807.6</ele>
        <time>2021-10-23T14:21:48.288Z</time>
      </trkpt>
      <trkpt lat="44.29514" lon="3.59146">
        <ele>807.2</ele>
        <time>2021-10-23T14:21:54.526Z</time>
      </trkpt>
      <trkpt lat="44.29525" lon="3.59144">
        <ele>806.3</ele>
        <time>2021-10-23T14:21:59.885Z</time>
      </trkpt>
      <trkpt lat="44.29534" lon="3.59142">
        <ele>807.8</ele>
        <time>2021-10-23T14:22:05.156Z</time>
      </trkpt>
      <trkpt lat="44.29543" lon="3.59145">
        <ele>808.6</ele>
        <time>2021-10-23T14:22:10.871Z</time>
      </trkpt>
      <trkpt lat="44.29549" lon="3.5915">
        <ele>807.1</ele>
        <time>2021-10-23T14:22:16.022Z</time>
      </trkpt>
      <trkpt lat="44.29555" lon="3.59154">
        <ele>806.5</ele>
        <time>2021-10-23T14:22:21.119Z</time>
      </trkpt>
      <trkpt lat="44.29558" lon="3.59154">
        <ele>808</ele>
        <time>2021-10-23T14:22:26.149Z</time>
      </trkpt>
      <trkpt lat="44.29563" lon="3.59157">
        <ele>808.5</ele>
        <time>2021-10-23T14:22:32.259Z</time>
      </trkpt>
      <trkpt lat="44.29567" lon="3.59164">
        <ele>806.4</ele>
        <time>2021-10-23T14:22:46.157Z</time>
      </trkpt>
      <trkpt lat="44.29572" lon="3.59167">
        <ele>807.6</ele>
        <time>2021-10-23T14:22:53.050Z</time>
      </trkpt>
      <trkpt lat="44.2959" lon="3.59192">
        <ele>802.3</ele>
        <time>2021-10-23T14:23:31.119Z</time>
      </trkpt>
      <trkpt lat="44.29597" lon="3.59198">
        <ele>802.1</ele>
        <time>2021-10-23T14:23:36.124Z</time>
      </trkpt>
      <trkpt lat="44.29608" lon="3.59203">
        <ele>804.1</ele>
        <time>2021-10-23T14:23:42.454Z</time>
      </trkpt>
      <trkpt lat="44.29617" lon="3.59205">
        <ele>804.5</ele>
        <time>2021-10-23T14:23:48.041Z</time>
      </trkpt>
      <trkpt lat="44.29628" lon="3.59209">
        <ele>802.4</ele>
        <time>2021-10-23T14:23:56.196Z</time>
      </trkpt>
      <trkpt lat="44.29639" lon="3.5921">
        <ele>801.6</ele>
        <time>2021-10-23T14:24:04.016Z</time>
      </trkpt>
      <trkpt lat="44.29647" lon="3.59208">
        <ele>800.2</ele>
        <time>2021-10-23T14:24:10.255Z</time>
      </trkpt>
      <trkpt lat="44.29653" lon="3.59206">
        <ele>799.1</ele>
        <time>2021-10-23T14:24:15.849Z</time>
      </trkpt>
      <trkpt lat="44.29659" lon="3.59204">
        <ele>798.4</ele>
        <time>2021-10-23T14:24:21.060Z</time>
      </trkpt>
      <trkpt lat="44.29666" lon="3.59201">
        <ele>798</ele>
        <time>2021-10-23T14:24:26.087Z</time>
      </trkpt>
      <trkpt lat="44.29672" lon="3.59198">
        <ele>797.6</ele>
        <time>2021-10-23T14:24:31.118Z</time>
      </trkpt>
      <trkpt lat="44.29678" lon="3.59195">
        <ele>797.6</ele>
        <time>2021-10-23T14:24:36.121Z</time>
      </trkpt>
      <trkpt lat="44.29685" lon="3.59193">
        <ele>796.6</ele>
        <time>2021-10-23T14:24:41.121Z</time>
      </trkpt>
      <trkpt lat="44.29692" lon="3.59192">
        <ele>795</ele>
        <time>2021-10-23T14:24:48.058Z</time>
      </trkpt>
      <trkpt lat="44.29699" lon="3.59192">
        <ele>794.1</ele>
        <time>2021-10-23T14:24:54.158Z</time>
      </trkpt>
      <trkpt lat="44.29705" lon="3.59192">
        <ele>794.2</ele>
        <time>2021-10-23T14:24:59.488Z</time>
      </trkpt>
      <trkpt lat="44.29711" lon="3.59196">
        <ele>792</ele>
        <time>2021-10-23T14:25:05.212Z</time>
      </trkpt>
      <trkpt lat="44.29717" lon="3.59201">
        <ele>789.6</ele>
        <time>2021-10-23T14:25:10.991Z</time>
      </trkpt>
      <trkpt lat="44.2972" lon="3.59205">
        <ele>788.2</ele>
        <time>2021-10-23T14:25:16.076Z</time>
      </trkpt>
      <trkpt lat="44.29722" lon="3.59207">
        <ele>787.3</ele>
        <time>2021-10-23T14:25:21.170Z</time>
      </trkpt>
      <trkpt lat="44.29728" lon="3.5921">
        <ele>787.4</ele>
        <time>2021-10-23T14:25:26.839Z</time>
      </trkpt>
      <trkpt lat="44.29733" lon="3.59213">
        <ele>787.1</ele>
        <time>2021-10-23T14:25:32.565Z</time>
      </trkpt>
      <trkpt lat="44.29739" lon="3.59217">
        <ele>786.9</ele>
        <time>2021-10-23T14:25:37.765Z</time>
      </trkpt>
      <trkpt lat="44.29744" lon="3.59223">
        <ele>785.8</ele>
        <time>2021-10-23T14:25:43.034Z</time>
      </trkpt>
      <trkpt lat="44.29751" lon="3.59228">
        <ele>785.9</ele>
        <time>2021-10-23T14:25:48.037Z</time>
      </trkpt>
      <trkpt lat="44.29757" lon="3.59232">
        <ele>786.8</ele>
        <time>2021-10-23T14:25:53.048Z</time>
      </trkpt>
      <trkpt lat="44.29765" lon="3.59239">
        <ele>787.1</ele>
        <time>2021-10-23T14:25:59.364Z</time>
      </trkpt>
      <trkpt lat="44.29768" lon="3.59247">
        <ele>785.6</ele>
        <time>2021-10-23T14:26:05.044Z</time>
      </trkpt>
      <trkpt lat="44.29774" lon="3.59251">
        <ele>785.7</ele>
        <time>2021-10-23T14:26:10.091Z</time>
      </trkpt>
      <trkpt lat="44.2978" lon="3.59254">
        <ele>787.6</ele>
        <time>2021-10-23T14:26:15.266Z</time>
      </trkpt>
      <trkpt lat="44.29784" lon="3.59255">
        <ele>790.2</ele>
        <time>2021-10-23T14:26:20.990Z</time>
      </trkpt>
      <trkpt lat="44.29787" lon="3.59256">
        <ele>791.8</ele>
        <time>2021-10-23T14:26:26.158Z</time>
      </trkpt>
      <trkpt lat="44.29788" lon="3.59265">
        <ele>789.4</ele>
        <time>2021-10-23T14:26:49.062Z</time>
      </trkpt>
      <trkpt lat="44.29795" lon="3.59279">
        <ele>789</ele>
        <time>2021-10-23T14:26:54.944Z</time>
      </trkpt>
      <trkpt lat="44.298" lon="3.59286">
        <ele>789.8</ele>
        <time>2021-10-23T14:27:00.192Z</time>
      </trkpt>
      <trkpt lat="44.29804" lon="3.5929">
        <ele>790.4</ele>
        <time>2021-10-23T14:27:05.330Z</time>
      </trkpt>
      <trkpt lat="44.29806" lon="3.59293">
        <ele>790.3</ele>
        <time>2021-10-23T14:27:10.427Z</time>
      </trkpt>
      <trkpt lat="44.29814" lon="3.59306">
        <ele>790.6</ele>
        <time>2021-10-23T14:28:06.115Z</time>
      </trkpt>
      <trkpt lat="44.29803" lon="3.5931">
        <ele>783.1</ele>
        <time>2021-10-23T14:28:16.120Z</time>
      </trkpt>
      <trkpt lat="44.29808" lon="3.59308">
        <ele>786.3</ele>
        <time>2021-10-23T14:28:21.148Z</time>
      </trkpt>
      <trkpt lat="44.29817" lon="3.59314">
        <ele>790.8</ele>
        <time>2021-10-23T14:28:28.062Z</time>
      </trkpt>
      <trkpt lat="44.29818" lon="3.59316">
        <ele>791.2</ele>
        <time>2021-10-23T14:28:33.639Z</time>
      </trkpt>
      <trkpt lat="44.29823" lon="3.59324">
        <ele>791.9</ele>
        <time>2021-10-23T14:28:38.836Z</time>
      </trkpt>
      <trkpt lat="44.2983" lon="3.59336">
        <ele>792.5</ele>
        <time>2021-10-23T14:28:45.424Z</time>
      </trkpt>
      <trkpt lat="44.29835" lon="3.59345">
        <ele>792.5</ele>
        <time>2021-10-23T14:28:51.091Z</time>
      </trkpt>
      <trkpt lat="44.29839" lon="3.59353">
        <ele>792.3</ele>
        <time>2021-10-23T14:28:56.147Z</time>
      </trkpt>
      <trkpt lat="44.29845" lon="3.59363">
        <ele>792.3</ele>
        <time>2021-10-23T14:29:02.611Z</time>
      </trkpt>
      <trkpt lat="44.2985" lon="3.59371">
        <ele>793.1</ele>
        <time>2021-10-23T14:29:08.731Z</time>
      </trkpt>
      <trkpt lat="44.29856" lon="3.59377">
        <ele>794.2</ele>
        <time>2021-10-23T14:29:14.107Z</time>
      </trkpt>
      <trkpt lat="44.29862" lon="3.59383">
        <ele>795</ele>
        <time>2021-10-23T14:29:20.238Z</time>
      </trkpt>
      <trkpt lat="44.29868" lon="3.59389">
        <ele>794.2</ele>
        <time>2021-10-23T14:29:26.080Z</time>
      </trkpt>
      <trkpt lat="44.29873" lon="3.59394">
        <ele>793.5</ele>
        <time>2021-10-23T14:29:31.149Z</time>
      </trkpt>
      <trkpt lat="44.29879" lon="3.59399">
        <ele>792.8</ele>
        <time>2021-10-23T14:29:38.046Z</time>
      </trkpt>
      <trkpt lat="44.29878" lon="3.59399">
        <ele>792.6</ele>
        <time>2021-10-23T14:30:05.043Z</time>
      </trkpt>
      <trkpt lat="44.29879" lon="3.59402">
        <ele>791.8</ele>
        <time>2021-10-23T14:30:38.060Z</time>
      </trkpt>
      <trkpt lat="44.29878" lon="3.59405">
        <ele>790.7</ele>
        <time>2021-10-23T14:30:43.089Z</time>
      </trkpt>
      <trkpt lat="44.29886" lon="3.59409">
        <ele>790.9</ele>
        <time>2021-10-23T14:31:26.143Z</time>
      </trkpt>
      <trkpt lat="44.29896" lon="3.59411">
        <ele>790.4</ele>
        <time>2021-10-23T14:31:34.122Z</time>
      </trkpt>
      <trkpt lat="44.29904" lon="3.59409">
        <ele>790.6</ele>
        <time>2021-10-23T14:31:40.047Z</time>
      </trkpt>
      <trkpt lat="44.29911" lon="3.59407">
        <ele>791.1</ele>
        <time>2021-10-23T14:31:45.919Z</time>
      </trkpt>
      <trkpt lat="44.29918" lon="3.59404">
        <ele>791.8</ele>
        <time>2021-10-23T14:31:51.074Z</time>
      </trkpt>
      <trkpt lat="44.29926" lon="3.59401">
        <ele>792.4</ele>
        <time>2021-10-23T14:31:56.135Z</time>
      </trkpt>
      <trkpt lat="44.29936" lon="3.59401">
        <ele>791.6</ele>
        <time>2021-10-23T14:32:03.056Z</time>
      </trkpt>
      <trkpt lat="44.29942" lon="3.59403">
        <ele>790.3</ele>
        <time>2021-10-23T14:32:08.063Z</time>
      </trkpt>
      <trkpt lat="44.29949" lon="3.59404">
        <ele>789.6</ele>
        <time>2021-10-23T14:32:13.453Z</time>
      </trkpt>
      <trkpt lat="44.29956" lon="3.59404">
        <ele>789.5</ele>
        <time>2021-10-23T14:32:18.514Z</time>
      </trkpt>
      <trkpt lat="44.29962" lon="3.59405">
        <ele>788.9</ele>
        <time>2021-10-23T14:32:23.680Z</time>
      </trkpt>
      <trkpt lat="44.29965" lon="3.59411">
        <ele>786.5</ele>
        <time>2021-10-23T14:32:28.704Z</time>
      </trkpt>
      <trkpt lat="44.29968" lon="3.59413">
        <ele>785.6</ele>
        <time>2021-10-23T14:32:36.079Z</time>
      </trkpt>
      <trkpt lat="44.29967" lon="3.59413">
        <ele>785.3</ele>
        <time>2021-10-23T14:32:41.123Z</time>
      </trkpt>
      <trkpt lat="44.29971" lon="3.59419">
        <ele>783</ele>
        <time>2021-10-23T14:32:46.166Z</time>
      </trkpt>
      <trkpt lat="44.29978" lon="3.59425">
        <ele>781.1</ele>
        <time>2021-10-23T14:32:52.104Z</time>
      </trkpt>
      <trkpt lat="44.29985" lon="3.59425">
        <ele>781</ele>
        <time>2021-10-23T14:32:57.860Z</time>
      </trkpt>
      <trkpt lat="44.29993" lon="3.5942">
        <ele>783</ele>
        <time>2021-10-23T14:33:03.029Z</time>
      </trkpt>
      <trkpt lat="44.30003" lon="3.59417">
        <ele>783.2</ele>
        <time>2021-10-23T14:33:08.941Z</time>
      </trkpt>
      <trkpt lat="44.30008" lon="3.59415">
        <ele>782.7</ele>
        <time>2021-10-23T14:33:14.687Z</time>
      </trkpt>
      <trkpt lat="44.30013" lon="3.59411">
        <ele>783.1</ele>
        <time>2021-10-23T14:33:20.262Z</time>
      </trkpt>
      <trkpt lat="44.30016" lon="3.59406">
        <ele>784.4</ele>
        <time>2021-10-23T14:33:25.804Z</time>
      </trkpt>
      <trkpt lat="44.30022" lon="3.59399">
        <ele>785.9</ele>
        <time>2021-10-23T14:33:31.068Z</time>
      </trkpt>
      <trkpt lat="44.30028" lon="3.59395">
        <ele>786.4</ele>
        <time>2021-10-23T14:33:36.116Z</time>
      </trkpt>
      <trkpt lat="44.30035" lon="3.59394">
        <ele>783.8</ele>
        <time>2021-10-23T14:33:41.140Z</time>
      </trkpt>
      <trkpt lat="44.30043" lon="3.59394">
        <ele>780.4</ele>
        <time>2021-10-23T14:33:47.376Z</time>
      </trkpt>
      <trkpt lat="44.30049" lon="3.5939">
        <ele>778.9</ele>
        <time>2021-10-23T14:33:53.046Z</time>
      </trkpt>
      <trkpt lat="44.30054" lon="3.59384">
        <ele>778.9</ele>
        <time>2021-10-23T14:33:58.060Z</time>
      </trkpt>
      <trkpt lat="44.3006" lon="3.59382">
        <ele>778.6</ele>
        <time>2021-10-23T14:34:03.193Z</time>
      </trkpt>
      <trkpt lat="44.30066" lon="3.5938">
        <ele>777.8</ele>
        <time>2021-10-23T14:34:08.587Z</time>
      </trkpt>
      <trkpt lat="44.30069" lon="3.59377">
        <ele>777.9</ele>
        <time>2021-10-23T14:34:14.152Z</time>
      </trkpt>
      <trkpt lat="44.30075" lon="3.59366">
        <ele>779</ele>
        <time>2021-10-23T14:34:25.214Z</time>
      </trkpt>
      <trkpt lat="44.30079" lon="3.5936">
        <ele>778.6</ele>
        <time>2021-10-23T14:34:30.634Z</time>
      </trkpt>
      <trkpt lat="44.30085" lon="3.59353">
        <ele>778.1</ele>
        <time>2021-10-23T14:34:36.025Z</time>
      </trkpt>
      <trkpt lat="44.30092" lon="3.59346">
        <ele>777.4</ele>
        <time>2021-10-23T14:34:41.098Z</time>
      </trkpt>
      <trkpt lat="44.30098" lon="3.59341">
        <ele>775.4</ele>
        <time>2021-10-23T14:34:46.135Z</time>
      </trkpt>
      <trkpt lat="44.30103" lon="3.59338">
        <ele>773.5</ele>
        <time>2021-10-23T14:34:51.154Z</time>
      </trkpt>
      <trkpt lat="44.30106" lon="3.59334">
        <ele>772.1</ele>
        <time>2021-10-23T14:34:57.014Z</time>
      </trkpt>
      <trkpt lat="44.30106" lon="3.59331">
        <ele>772.2</ele>
        <time>2021-10-23T14:35:06.139Z</time>
      </trkpt>
      <trkpt lat="44.3011" lon="3.59306">
        <ele>772.1</ele>
        <time>2021-10-23T14:35:13.111Z</time>
      </trkpt>
      <trkpt lat="44.3011" lon="3.59295">
        <ele>772.5</ele>
        <time>2021-10-23T14:35:18.871Z</time>
      </trkpt>
      <trkpt lat="44.30113" lon="3.59286">
        <ele>772</ele>
        <time>2021-10-23T14:35:24.295Z</time>
      </trkpt>
      <trkpt lat="44.30116" lon="3.59281">
        <ele>771.6</ele>
        <time>2021-10-23T14:35:29.757Z</time>
      </trkpt>
      <trkpt lat="44.30117" lon="3.59279">
        <ele>771.4</ele>
        <time>2021-10-23T14:35:35.069Z</time>
      </trkpt>
      <trkpt lat="44.30122" lon="3.59273">
        <ele>770.7</ele>
        <time>2021-10-23T14:35:40.574Z</time>
      </trkpt>
      <trkpt lat="44.30129" lon="3.59263">
        <ele>769.1</ele>
        <time>2021-10-23T14:35:46.095Z</time>
      </trkpt>
      <trkpt lat="44.30135" lon="3.59255">
        <ele>766.8</ele>
        <time>2021-10-23T14:35:51.138Z</time>
      </trkpt>
      <trkpt lat="44.30136" lon="3.59247">
        <ele>766.7</ele>
        <time>2021-10-23T14:35:56.218Z</time>
      </trkpt>
      <trkpt lat="44.30136" lon="3.59232">
        <ele>768.5</ele>
        <time>2021-10-23T14:36:03.027Z</time>
      </trkpt>
      <trkpt lat="44.3014" lon="3.5923">
        <ele>766.9</ele>
        <time>2021-10-23T14:36:08.055Z</time>
      </trkpt>
      <trkpt lat="44.30146" lon="3.59233">
        <ele>764.7</ele>
        <time>2021-10-23T14:36:14.040Z</time>
      </trkpt>
      <trkpt lat="44.30147" lon="3.59232">
        <ele>764.3</ele>
        <time>2021-10-23T14:36:20.061Z</time>
      </trkpt>
      <trkpt lat="44.30147" lon="3.59227">
        <ele>764.8</ele>
        <time>2021-10-23T14:36:25.099Z</time>
      </trkpt>
      <trkpt lat="44.30151" lon="3.59218">
        <ele>765.1</ele>
        <time>2021-10-23T14:36:31.073Z</time>
      </trkpt>
      <trkpt lat="44.30149" lon="3.59225">
        <ele>764.3</ele>
        <time>2021-10-23T14:36:36.149Z</time>
      </trkpt>
      <trkpt lat="44.30147" lon="3.59229">
        <ele>764.6</ele>
        <time>2021-10-23T14:36:41.157Z</time>
      </trkpt>
      <trkpt lat="44.3015" lon="3.59233">
        <ele>763.4</ele>
        <time>2021-10-23T14:36:49.076Z</time>
      </trkpt>
      <trkpt lat="44.30153" lon="3.59232">
        <ele>762.3</ele>
        <time>2021-10-23T14:37:11.140Z</time>
      </trkpt>
      <trkpt lat="44.30156" lon="3.59228">
        <ele>761.8</ele>
        <time>2021-10-23T14:37:16.140Z</time>
      </trkpt>
      <trkpt lat="44.30158" lon="3.5922">
        <ele>762.3</ele>
        <time>2021-10-23T14:37:22.051Z</time>
      </trkpt>
      <trkpt lat="44.30165" lon="3.59216">
        <ele>761.2</ele>
        <time>2021-10-23T14:37:27.059Z</time>
      </trkpt>
      <trkpt lat="44.30172" lon="3.59213">
        <ele>760</ele>
        <time>2021-10-23T14:37:32.213Z</time>
      </trkpt>
      <trkpt lat="44.30176" lon="3.59213">
        <ele>759.1</ele>
        <time>2021-10-23T14:37:37.529Z</time>
      </trkpt>
      <trkpt lat="44.30178" lon="3.59215">
        <ele>758.2</ele>
        <time>2021-10-23T14:37:42.624Z</time>
      </trkpt>
      <trkpt lat="44.30182" lon="3.59215">
        <ele>757.1</ele>
        <time>2021-10-23T14:37:47.766Z</time>
      </trkpt>
      <trkpt lat="44.30189" lon="3.5922">
        <ele>754.6</ele>
        <time>2021-10-23T14:37:52.990Z</time>
      </trkpt>
      <trkpt lat="44.30194" lon="3.5922">
        <ele>753.4</ele>
        <time>2021-10-23T14:37:58.514Z</time>
      </trkpt>
      <trkpt lat="44.30196" lon="3.59217">
        <ele>753.7</ele>
        <time>2021-10-23T14:38:04.031Z</time>
      </trkpt>
      <trkpt lat="44.30197" lon="3.59211">
        <ele>754.6</ele>
        <time>2021-10-23T14:38:10.056Z</time>
      </trkpt>
      <trkpt lat="44.30193" lon="3.59206">
        <ele>756.2</ele>
        <time>2021-10-23T14:38:15.442Z</time>
      </trkpt>
      <trkpt lat="44.30192" lon="3.59203">
        <ele>757.3</ele>
        <time>2021-10-23T14:38:20.453Z</time>
      </trkpt>
      <trkpt lat="44.30202" lon="3.59198">
        <ele>756.1</ele>
        <time>2021-10-23T14:38:25.845Z</time>
      </trkpt>
      <trkpt lat="44.3021" lon="3.59198">
        <ele>754.5</ele>
        <time>2021-10-23T14:38:31.186Z</time>
      </trkpt>
      <trkpt lat="44.30223" lon="3.592">
        <ele>752</ele>
        <time>2021-10-23T14:38:36.897Z</time>
      </trkpt>
      <trkpt lat="44.3023" lon="3.59201">
        <ele>751.5</ele>
        <time>2021-10-23T14:38:42.587Z</time>
      </trkpt>
      <trkpt lat="44.30238" lon="3.59203">
        <ele>751.1</ele>
        <time>2021-10-23T14:38:48.309Z</time>
      </trkpt>
      <trkpt lat="44.30244" lon="3.59204">
        <ele>750.8</ele>
        <time>2021-10-23T14:38:53.724Z</time>
      </trkpt>
      <trkpt lat="44.3025" lon="3.59207">
        <ele>750.3</ele>
        <time>2021-10-23T14:38:59.686Z</time>
      </trkpt>
      <trkpt lat="44.30257" lon="3.59209">
        <ele>749.4</ele>
        <time>2021-10-23T14:39:05.357Z</time>
      </trkpt>
      <trkpt lat="44.30262" lon="3.59209">
        <ele>749.1</ele>
        <time>2021-10-23T14:39:10.588Z</time>
      </trkpt>
      <trkpt lat="44.30268" lon="3.59205">
        <ele>749.4</ele>
        <time>2021-10-23T14:39:15.913Z</time>
      </trkpt>
      <trkpt lat="44.30266" lon="3.592">
        <ele>750.3</ele>
        <time>2021-10-23T14:39:21.047Z</time>
      </trkpt>
      <trkpt lat="44.30272" lon="3.59202">
        <ele>749.7</ele>
        <time>2021-10-23T14:39:26.055Z</time>
      </trkpt>
      <trkpt lat="44.30278" lon="3.592">
        <ele>749.8</ele>
        <time>2021-10-23T14:39:31.063Z</time>
      </trkpt>
      <trkpt lat="44.30281" lon="3.59201">
        <ele>749.4</ele>
        <time>2021-10-23T14:39:36.151Z</time>
      </trkpt>
      <trkpt lat="44.30291" lon="3.59195">
        <ele>749.4</ele>
        <time>2021-10-23T14:39:42.733Z</time>
      </trkpt>
      <trkpt lat="44.30297" lon="3.59188">
        <ele>749.6</ele>
        <time>2021-10-23T14:39:48.138Z</time>
      </trkpt>
      <trkpt lat="44.30301" lon="3.59183">
        <ele>749.5</ele>
        <time>2021-10-23T14:39:54.093Z</time>
      </trkpt>
      <trkpt lat="44.30301" lon="3.59181">
        <ele>749.8</ele>
        <time>2021-10-23T14:40:01.063Z</time>
      </trkpt>
      <trkpt lat="44.30302" lon="3.59185">
        <ele>749.2</ele>
        <time>2021-10-23T14:40:16.062Z</time>
      </trkpt>
      <trkpt lat="44.30303" lon="3.59187">
        <ele>748.9</ele>
        <time>2021-10-23T14:40:21.106Z</time>
      </trkpt>
      <trkpt lat="44.30305" lon="3.59184">
        <ele>748.8</ele>
        <time>2021-10-23T14:40:26.140Z</time>
      </trkpt>
      <trkpt lat="44.30308" lon="3.59178">
        <ele>748.3</ele>
        <time>2021-10-23T14:40:31.212Z</time>
      </trkpt>
      <trkpt lat="44.3031" lon="3.59166">
        <ele>748.7</ele>
        <time>2021-10-23T14:40:37.736Z</time>
      </trkpt>
      <trkpt lat="44.30317" lon="3.59156">
        <ele>747.8</ele>
        <time>2021-10-23T14:40:42.838Z</time>
      </trkpt>
      <trkpt lat="44.30324" lon="3.5915">
        <ele>746.6</ele>
        <time>2021-10-23T14:40:48.050Z</time>
      </trkpt>
      <trkpt lat="44.3033" lon="3.59147">
        <ele>745.3</ele>
        <time>2021-10-23T14:40:53.680Z</time>
      </trkpt>
      <trkpt lat="44.30335" lon="3.59141">
        <ele>745</ele>
        <time>2021-10-23T14:40:58.936Z</time>
      </trkpt>
      <trkpt lat="44.30335" lon="3.59132">
        <ele>746.7</ele>
        <time>2021-10-23T14:41:04.039Z</time>
      </trkpt>
      <trkpt lat="44.30336" lon="3.59125">
        <ele>747.9</ele>
        <time>2021-10-23T14:41:09.950Z</time>
      </trkpt>
      <trkpt lat="44.30338" lon="3.59118">
        <ele>748.5</ele>
        <time>2021-10-23T14:41:15.903Z</time>
      </trkpt>
      <trkpt lat="44.3034" lon="3.59112">
        <ele>748.7</ele>
        <time>2021-10-23T14:41:21.091Z</time>
      </trkpt>
      <trkpt lat="44.30338" lon="3.59105">
        <ele>750.9</ele>
        <time>2021-10-23T14:41:26.157Z</time>
      </trkpt>
      <trkpt lat="44.30336" lon="3.59099">
        <ele>752.8</ele>
        <time>2021-10-23T14:41:31.693Z</time>
      </trkpt>
      <trkpt lat="44.30336" lon="3.59094">
        <ele>753.5</ele>
        <time>2021-10-23T14:41:41.208Z</time>
      </trkpt>
      <trkpt lat="44.30334" lon="3.59095">
        <ele>754.3</ele>
        <time>2021-10-23T14:41:56.184Z</time>
      </trkpt>
      <trkpt lat="44.30333" lon="3.59096">
        <ele>754.4</ele>
        <time>2021-10-23T14:42:23.058Z</time>
      </trkpt>
      <trkpt lat="44.30343" lon="3.59087">
        <ele>752.4</ele>
        <time>2021-10-23T14:42:56.209Z</time>
      </trkpt>
      <trkpt lat="44.3035" lon="3.5908">
        <ele>751.9</ele>
        <time>2021-10-23T14:43:03.528Z</time>
      </trkpt>
      <trkpt lat="44.30354" lon="3.59066">
        <ele>753.8</ele>
        <time>2021-10-23T14:43:09.052Z</time>
      </trkpt>
      <trkpt lat="44.30359" lon="3.5906">
        <ele>753.7</ele>
        <time>2021-10-23T14:43:14.856Z</time>
      </trkpt>
      <trkpt lat="44.3037" lon="3.59058">
        <ele>750.7</ele>
        <time>2021-10-23T14:43:20.052Z</time>
      </trkpt>
      <trkpt lat="44.30382" lon="3.59053">
        <ele>747.9</ele>
        <time>2021-10-23T14:43:25.359Z</time>
      </trkpt>
      <trkpt lat="44.30391" lon="3.59049">
        <ele>745.8</ele>
        <time>2021-10-23T14:43:31.089Z</time>
      </trkpt>
      <trkpt lat="44.30396" lon="3.59044">
        <ele>744.8</ele>
        <time>2021-10-23T14:43:36.165Z</time>
      </trkpt>
      <trkpt lat="44.30403" lon="3.59036">
        <ele>744.9</ele>
        <time>2021-10-23T14:43:42.709Z</time>
      </trkpt>
      <trkpt lat="44.30409" lon="3.59031">
        <ele>745</ele>
        <time>2021-10-23T14:43:48.050Z</time>
      </trkpt>
      <trkpt lat="44.30415" lon="3.59023">
        <ele>746.1</ele>
        <time>2021-10-23T14:43:54.251Z</time>
      </trkpt>
      <trkpt lat="44.30422" lon="3.59022">
        <ele>746</ele>
        <time>2021-10-23T14:43:59.914Z</time>
      </trkpt>
      <trkpt lat="44.30429" lon="3.59021">
        <ele>746</ele>
        <time>2021-10-23T14:44:05.443Z</time>
      </trkpt>
      <trkpt lat="44.30435" lon="3.59021">
        <ele>745.9</ele>
        <time>2021-10-23T14:44:11.059Z</time>
      </trkpt>
      <trkpt lat="44.30439" lon="3.59023">
        <ele>745.2</ele>
        <time>2021-10-23T14:44:16.079Z</time>
      </trkpt>
      <trkpt lat="44.30443" lon="3.59028">
        <ele>744</ele>
        <time>2021-10-23T14:44:21.093Z</time>
      </trkpt>
      <trkpt lat="44.30446" lon="3.59033">
        <ele>743.3</ele>
        <time>2021-10-23T14:44:26.191Z</time>
      </trkpt>
      <trkpt lat="44.30451" lon="3.59037">
        <ele>743.5</ele>
        <time>2021-10-23T14:44:32.551Z</time>
      </trkpt>
      <trkpt lat="44.30458" lon="3.59037">
        <ele>744.8</ele>
        <time>2021-10-23T14:44:38.064Z</time>
      </trkpt>
      <trkpt lat="44.30466" lon="3.59038">
        <ele>745.9</ele>
        <time>2021-10-23T14:44:43.752Z</time>
      </trkpt>
      <trkpt lat="44.30472" lon="3.5904">
        <ele>746.7</ele>
        <time>2021-10-23T14:44:49.031Z</time>
      </trkpt>
      <trkpt lat="44.30477" lon="3.59041">
        <ele>747.6</ele>
        <time>2021-10-23T14:44:54.322Z</time>
      </trkpt>
      <trkpt lat="44.30483" lon="3.59043">
        <ele>748.5</ele>
        <time>2021-10-23T14:44:59.729Z</time>
      </trkpt>
      <trkpt lat="44.30488" lon="3.59048">
        <ele>748.9</ele>
        <time>2021-10-23T14:45:05.130Z</time>
      </trkpt>
      <trkpt lat="44.30491" lon="3.59051">
        <ele>749.2</ele>
        <time>2021-10-23T14:45:10.565Z</time>
      </trkpt>
      <trkpt lat="44.30493" lon="3.59055">
        <ele>749.4</ele>
        <time>2021-10-23T14:45:15.867Z</time>
      </trkpt>
      <trkpt lat="44.30496" lon="3.59059">
        <ele>749.6</ele>
        <time>2021-10-23T14:45:21.137Z</time>
      </trkpt>
      <trkpt lat="44.30501" lon="3.59062">
        <ele>750.4</ele>
        <time>2021-10-23T14:45:26.161Z</time>
      </trkpt>
      <trkpt lat="44.30506" lon="3.59071">
        <ele>750.8</ele>
        <time>2021-10-23T14:45:32.831Z</time>
      </trkpt>
      <trkpt lat="44.30511" lon="3.59078">
        <ele>751.1</ele>
        <time>2021-10-23T14:45:38.053Z</time>
      </trkpt>
      <trkpt lat="44.30515" lon="3.5908">
        <ele>751.7</ele>
        <time>2021-10-23T14:45:43.075Z</time>
      </trkpt>
      <trkpt lat="44.30519" lon="3.59082">
        <ele>752.3</ele>
        <time>2021-10-23T14:45:49.271Z</time>
      </trkpt>
      <trkpt lat="44.30523" lon="3.59086">
        <ele>752.5</ele>
        <time>2021-10-23T14:45:55.070Z</time>
      </trkpt>
      <trkpt lat="44.30527" lon="3.59092">
        <ele>752.8</ele>
        <time>2021-10-23T14:46:00.194Z</time>
      </trkpt>
      <trkpt lat="44.30531" lon="3.59098">
        <ele>753.3</ele>
        <time>2021-10-23T14:46:05.572Z</time>
      </trkpt>
      <trkpt lat="44.30536" lon="3.59103">
        <ele>753.8</ele>
        <time>2021-10-23T14:46:10.645Z</time>
      </trkpt>
      <trkpt lat="44.3054" lon="3.59109">
        <ele>754</ele>
        <time>2021-10-23T14:46:16.099Z</time>
      </trkpt>
      <trkpt lat="44.30544" lon="3.59114">
        <ele>754.2</ele>
        <time>2021-10-23T14:46:21.104Z</time>
      </trkpt>
      <trkpt lat="44.30548" lon="3.5912">
        <ele>754.6</ele>
        <time>2021-10-23T14:46:26.147Z</time>
      </trkpt>
      <trkpt lat="44.30553" lon="3.59126">
        <ele>755.2</ele>
        <time>2021-10-23T14:46:31.150Z</time>
      </trkpt>
      <trkpt lat="44.30556" lon="3.59133">
        <ele>755.6</ele>
        <time>2021-10-23T14:46:36.200Z</time>
      </trkpt>
      <trkpt lat="44.30559" lon="3.59137">
        <ele>756</ele>
        <time>2021-10-23T14:46:41.201Z</time>
      </trkpt>
      <trkpt lat="44.30568" lon="3.59141">
        <ele>757.3</ele>
        <time>2021-10-23T14:47:06.078Z</time>
      </trkpt>
      <trkpt lat="44.30573" lon="3.59149">
        <ele>757.6</ele>
        <time>2021-10-23T14:47:11.153Z</time>
      </trkpt>
      <trkpt lat="44.30578" lon="3.59156">
        <ele>757.9</ele>
        <time>2021-10-23T14:47:16.203Z</time>
      </trkpt>
      <trkpt lat="44.30593" lon="3.59176">
        <ele>758.8</ele>
        <time>2021-10-23T14:47:23.792Z</time>
      </trkpt>
      <trkpt lat="44.30601" lon="3.59187">
        <ele>758.6</ele>
        <time>2021-10-23T14:47:29.107Z</time>
      </trkpt>
      <trkpt lat="44.30607" lon="3.59189">
        <ele>759.5</ele>
        <time>2021-10-23T14:47:34.967Z</time>
      </trkpt>
      <trkpt lat="44.30613" lon="3.5919">
        <ele>760.3</ele>
        <time>2021-10-23T14:47:40.076Z</time>
      </trkpt>
      <trkpt lat="44.3062" lon="3.59192">
        <ele>761</ele>
        <time>2021-10-23T14:47:45.099Z</time>
      </trkpt>
      <trkpt lat="44.30624" lon="3.59196">
        <ele>760.7</ele>
        <time>2021-10-23T14:47:51.120Z</time>
      </trkpt>
      <trkpt lat="44.30628" lon="3.59199">
        <ele>760.8</ele>
        <time>2021-10-23T14:47:56.199Z</time>
      </trkpt>
      <trkpt lat="44.30636" lon="3.59202">
        <ele>761.6</ele>
        <time>2021-10-23T14:48:01.984Z</time>
      </trkpt>
      <trkpt lat="44.30641" lon="3.59205">
        <ele>761.7</ele>
        <time>2021-10-23T14:48:07.349Z</time>
      </trkpt>
      <trkpt lat="44.30647" lon="3.5921">
        <ele>761.6</ele>
        <time>2021-10-23T14:48:12.574Z</time>
      </trkpt>
      <trkpt lat="44.30653" lon="3.59215">
        <ele>761.6</ele>
        <time>2021-10-23T14:48:18.061Z</time>
      </trkpt>
      <trkpt lat="44.30659" lon="3.59208">
        <ele>763.2</ele>
        <time>2021-10-23T14:48:23.664Z</time>
      </trkpt>
      <trkpt lat="44.30665" lon="3.59204">
        <ele>764.5</ele>
        <time>2021-10-23T14:48:29.051Z</time>
      </trkpt>
      <trkpt lat="44.3067" lon="3.59204">
        <ele>764.4</ele>
        <time>2021-10-23T14:48:34.063Z</time>
      </trkpt>
      <trkpt lat="44.30675" lon="3.59207">
        <ele>763.8</ele>
        <time>2021-10-23T14:48:39.392Z</time>
      </trkpt>
      <trkpt lat="44.30679" lon="3.59208">
        <ele>763.4</ele>
        <time>2021-10-23T14:48:45.521Z</time>
      </trkpt>
      <trkpt lat="44.30685" lon="3.59209">
        <ele>763</ele>
        <time>2021-10-23T14:48:51.202Z</time>
      </trkpt>
      <trkpt lat="44.30695" lon="3.59209">
        <ele>762.4</ele>
        <time>2021-10-23T14:48:57.602Z</time>
      </trkpt>
      <trkpt lat="44.30704" lon="3.59207">
        <ele>761.8</ele>
        <time>2021-10-23T14:49:03.452Z</time>
      </trkpt>
      <trkpt lat="44.30711" lon="3.59201">
        <ele>761.6</ele>
        <time>2021-10-23T14:49:09.064Z</time>
      </trkpt>
      <trkpt lat="44.30718" lon="3.59197">
        <ele>761.3</ele>
        <time>2021-10-23T14:49:14.852Z</time>
      </trkpt>
      <trkpt lat="44.30723" lon="3.59191">
        <ele>761.3</ele>
        <time>2021-10-23T14:49:19.884Z</time>
      </trkpt>
      <trkpt lat="44.30728" lon="3.59186">
        <ele>761.1</ele>
        <time>2021-10-23T14:49:25.048Z</time>
      </trkpt>
      <trkpt lat="44.30732" lon="3.59187">
        <ele>760</ele>
        <time>2021-10-23T14:49:30.595Z</time>
      </trkpt>
      <trkpt lat="44.30735" lon="3.59184">
        <ele>759.7</ele>
        <time>2021-10-23T14:49:36.173Z</time>
      </trkpt>
      <trkpt lat="44.30738" lon="3.59181">
        <ele>759.3</ele>
        <time>2021-10-23T14:49:41.188Z</time>
      </trkpt>
      <trkpt lat="44.30746" lon="3.59177">
        <ele>757.6</ele>
        <time>2021-10-23T14:49:48.069Z</time>
      </trkpt>
      <trkpt lat="44.3075" lon="3.59179">
        <ele>756.6</ele>
        <time>2021-10-23T14:49:53.616Z</time>
      </trkpt>
      <trkpt lat="44.30756" lon="3.59178">
        <ele>755.4</ele>
        <time>2021-10-23T14:49:59.062Z</time>
      </trkpt>
      <trkpt lat="44.30763" lon="3.59174">
        <ele>754</ele>
        <time>2021-10-23T14:50:05.115Z</time>
      </trkpt>
      <trkpt lat="44.30766" lon="3.59169">
        <ele>753.4</ele>
        <time>2021-10-23T14:50:10.706Z</time>
      </trkpt>
      <trkpt lat="44.30769" lon="3.59165">
        <ele>752.9</ele>
        <time>2021-10-23T14:50:16.080Z</time>
      </trkpt>
      <trkpt lat="44.30772" lon="3.59161">
        <ele>752.1</ele>
        <time>2021-10-23T14:50:21.159Z</time>
      </trkpt>
      <trkpt lat="44.30773" lon="3.59154">
        <ele>751.8</ele>
        <time>2021-10-23T14:50:26.170Z</time>
      </trkpt>
      <trkpt lat="44.30765" lon="3.59139">
        <ele>754.2</ele>
        <time>2021-10-23T14:50:33.563Z</time>
      </trkpt>
      <trkpt lat="44.30761" lon="3.59129">
        <ele>755</ele>
        <time>2021-10-23T14:50:39.473Z</time>
      </trkpt>
      <trkpt lat="44.30768" lon="3.5912">
        <ele>752.6</ele>
        <time>2021-10-23T14:50:45.055Z</time>
      </trkpt>
      <trkpt lat="44.30774" lon="3.59112">
        <ele>750.3</ele>
        <time>2021-10-23T14:50:50.873Z</time>
      </trkpt>
      <trkpt lat="44.30775" lon="3.59105">
        <ele>750.2</ele>
        <time>2021-10-23T14:50:56.177Z</time>
      </trkpt>
      <trkpt lat="44.30777" lon="3.59098">
        <ele>749.6</ele>
        <time>2021-10-23T14:51:01.180Z</time>
      </trkpt>
      <trkpt lat="44.30787" lon="3.5909">
        <ele>747.2</ele>
        <time>2021-10-23T14:51:08.638Z</time>
      </trkpt>
      <trkpt lat="44.30793" lon="3.59084">
        <ele>745.6</ele>
        <time>2021-10-23T14:51:14.449Z</time>
      </trkpt>
      <trkpt lat="44.30796" lon="3.59076">
        <ele>745.1</ele>
        <time>2021-10-23T14:51:20.013Z</time>
      </trkpt>
      <trkpt lat="44.30799" lon="3.59073">
        <ele>744.6</ele>
        <time>2021-10-23T14:51:25.061Z</time>
      </trkpt>
      <trkpt lat="44.30799" lon="3.59071">
        <ele>744.6</ele>
        <time>2021-10-23T14:51:30.062Z</time>
      </trkpt>
      <trkpt lat="44.30801" lon="3.59064">
        <ele>744.7</ele>
        <time>2021-10-23T14:51:35.790Z</time>
      </trkpt>
      <trkpt lat="44.308" lon="3.5906">
        <ele>745</ele>
        <time>2021-10-23T14:51:41.150Z</time>
      </trkpt>
      <trkpt lat="44.30803" lon="3.59058">
        <ele>744.6</ele>
        <time>2021-10-23T14:51:46.184Z</time>
      </trkpt>
      <trkpt lat="44.30809" lon="3.59053">
        <ele>743.7</ele>
        <time>2021-10-23T14:51:51.186Z</time>
      </trkpt>
      <trkpt lat="44.30814" lon="3.59051">
        <ele>742.9</ele>
        <time>2021-10-23T14:51:56.192Z</time>
      </trkpt>
      <trkpt lat="44.30823" lon="3.59049">
        <ele>741.6</ele>
        <time>2021-10-23T14:52:03.070Z</time>
      </trkpt>
      <trkpt lat="44.30828" lon="3.59047">
        <ele>741</ele>
        <time>2021-10-23T14:52:08.083Z</time>
      </trkpt>
      <trkpt lat="44.30835" lon="3.59044">
        <ele>740.2</ele>
        <time>2021-10-23T14:52:14.193Z</time>
      </trkpt>
      <trkpt lat="44.30843" lon="3.59041">
        <ele>739.3</ele>
        <time>2021-10-23T14:52:20.051Z</time>
      </trkpt>
      <trkpt lat="44.30847" lon="3.59035">
        <ele>739.4</ele>
        <time>2021-10-23T14:52:26.110Z</time>
      </trkpt>
      <trkpt lat="44.30851" lon="3.59031">
        <ele>739.3</ele>
        <time>2021-10-23T14:52:31.145Z</time>
      </trkpt>
      <trkpt lat="44.30851" lon="3.59031">
        <ele>739.3</ele>
        <time>2021-10-23T14:52:36.221Z</time>
      </trkpt>
      <trkpt lat="44.30856" lon="3.59029">
        <ele>738.8</ele>
        <time>2021-10-23T14:52:51.206Z</time>
      </trkpt>
      <trkpt lat="44.30864" lon="3.59026">
        <ele>737.7</ele>
        <time>2021-10-23T14:53:00.133Z</time>
      </trkpt>
      <trkpt lat="44.30877" lon="3.59025">
        <ele>735.7</ele>
        <time>2021-10-23T14:53:11.181Z</time>
      </trkpt>
      <trkpt lat="44.30884" lon="3.5902">
        <ele>735.3</ele>
        <time>2021-10-23T14:53:16.213Z</time>
      </trkpt>
      <trkpt lat="44.309" lon="3.59012">
        <ele>736.2</ele>
        <time>2021-10-23T14:53:22.784Z</time>
      </trkpt>
      <trkpt lat="44.30909" lon="3.5901">
        <ele>736.3</ele>
        <time>2021-10-23T14:53:27.895Z</time>
      </trkpt>
      <trkpt lat="44.30915" lon="3.59007">
        <ele>737</ele>
        <time>2021-10-23T14:53:33.062Z</time>
      </trkpt>
      <trkpt lat="44.30921" lon="3.59002">
        <ele>738.1</ele>
        <time>2021-10-23T14:53:38.891Z</time>
      </trkpt>
      <trkpt lat="44.30927" lon="3.59">
        <ele>738.3</ele>
        <time>2021-10-23T14:53:44.124Z</time>
      </trkpt>
      <trkpt lat="44.30935" lon="3.58998">
        <ele>738.1</ele>
        <time>2021-10-23T14:53:50.209Z</time>
      </trkpt>
      <trkpt lat="44.30942" lon="3.58997">
        <ele>737.8</ele>
        <time>2021-10-23T14:53:56.097Z</time>
      </trkpt>
      <trkpt lat="44.30948" lon="3.58996">
        <ele>738.1</ele>
        <time>2021-10-23T14:54:01.184Z</time>
      </trkpt>
      <trkpt lat="44.30955" lon="3.58995">
        <ele>738.9</ele>
        <time>2021-10-23T14:54:06.906Z</time>
      </trkpt>
      <trkpt lat="44.30961" lon="3.58992">
        <ele>739.7</ele>
        <time>2021-10-23T14:54:12.241Z</time>
      </trkpt>
      <trkpt lat="44.30966" lon="3.58992">
        <ele>740.2</ele>
        <time>2021-10-23T14:54:17.358Z</time>
      </trkpt>
      <trkpt lat="44.30972" lon="3.58996">
        <ele>739.7</ele>
        <time>2021-10-23T14:54:23.054Z</time>
      </trkpt>
      <trkpt lat="44.30977" lon="3.59004">
        <ele>738.8</ele>
        <time>2021-10-23T14:54:28.544Z</time>
      </trkpt>
      <trkpt lat="44.30983" lon="3.5901">
        <ele>738.5</ele>
        <time>2021-10-23T14:54:34.399Z</time>
      </trkpt>
      <trkpt lat="44.3099" lon="3.59013">
        <ele>738.9</ele>
        <time>2021-10-23T14:54:39.588Z</time>
      </trkpt>
      <trkpt lat="44.30996" lon="3.59012">
        <ele>739.8</ele>
        <time>2021-10-23T14:54:45.641Z</time>
      </trkpt>
      <trkpt lat="44.31001" lon="3.59014">
        <ele>740.1</ele>
        <time>2021-10-23T14:54:51.094Z</time>
      </trkpt>
      <trkpt lat="44.31005" lon="3.59018">
        <ele>740.5</ele>
        <time>2021-10-23T14:54:56.156Z</time>
      </trkpt>
      <trkpt lat="44.3101" lon="3.59021">
        <ele>740.9</ele>
        <time>2021-10-23T14:55:01.174Z</time>
      </trkpt>
      <trkpt lat="44.31016" lon="3.59027">
        <ele>740.9</ele>
        <time>2021-10-23T14:55:07.516Z</time>
      </trkpt>
      <trkpt lat="44.31021" lon="3.59032">
        <ele>740.9</ele>
        <time>2021-10-23T14:55:12.906Z</time>
      </trkpt>
      <trkpt lat="44.31026" lon="3.5903">
        <ele>742.2</ele>
        <time>2021-10-23T14:55:18.074Z</time>
      </trkpt>
      <trkpt lat="44.31032" lon="3.5903">
        <ele>743.1</ele>
        <time>2021-10-23T14:55:23.945Z</time>
      </trkpt>
      <trkpt lat="44.31037" lon="3.59032">
        <ele>743.2</ele>
        <time>2021-10-23T14:55:29.179Z</time>
      </trkpt>
      <trkpt lat="44.31042" lon="3.5904">
        <ele>742.2</ele>
        <time>2021-10-23T14:55:35.307Z</time>
      </trkpt>
      <trkpt lat="44.31048" lon="3.59042">
        <ele>742.5</ele>
        <time>2021-10-23T14:55:41.178Z</time>
      </trkpt>
      <trkpt lat="44.31056" lon="3.59042">
        <ele>743.4</ele>
        <time>2021-10-23T14:55:46.197Z</time>
      </trkpt>
      <trkpt lat="44.31065" lon="3.59044">
        <ele>743.5</ele>
        <time>2021-10-23T14:55:52.314Z</time>
      </trkpt>
      <trkpt lat="44.31072" lon="3.59044">
        <ele>743.6</ele>
        <time>2021-10-23T14:55:57.385Z</time>
      </trkpt>
      <trkpt lat="44.31078" lon="3.59044">
        <ele>743.9</ele>
        <time>2021-10-23T14:56:02.843Z</time>
      </trkpt>
      <trkpt lat="44.31083" lon="3.59041">
        <ele>744.6</ele>
        <time>2021-10-23T14:56:09.048Z</time>
      </trkpt>
      <trkpt lat="44.31088" lon="3.59039">
        <ele>744.8</ele>
        <time>2021-10-23T14:56:15.157Z</time>
      </trkpt>
      <trkpt lat="44.31094" lon="3.59035">
        <ele>745.4</ele>
        <time>2021-10-23T14:56:21.073Z</time>
      </trkpt>
      <trkpt lat="44.31099" lon="3.59031">
        <ele>745.8</ele>
        <time>2021-10-23T14:56:26.124Z</time>
      </trkpt>
      <trkpt lat="44.31105" lon="3.5903">
        <ele>745.8</ele>
        <time>2021-10-23T14:56:31.185Z</time>
      </trkpt>
      <trkpt lat="44.31113" lon="3.59033">
        <ele>744.9</ele>
        <time>2021-10-23T14:56:37.352Z</time>
      </trkpt>
      <trkpt lat="44.31124" lon="3.59032">
        <ele>743.8</ele>
        <time>2021-10-23T14:56:42.371Z</time>
      </trkpt>
      <trkpt lat="44.31132" lon="3.59033">
        <ele>742.8</ele>
        <time>2021-10-23T14:56:48.776Z</time>
      </trkpt>
      <trkpt lat="44.31138" lon="3.59032">
        <ele>742.4</ele>
        <time>2021-10-23T14:56:54.293Z</time>
      </trkpt>
      <trkpt lat="44.31142" lon="3.5903">
        <ele>742.6</ele>
        <time>2021-10-23T14:56:59.481Z</time>
      </trkpt>
      <trkpt lat="44.31145" lon="3.59027">
        <ele>742.9</ele>
        <time>2021-10-23T14:57:05.606Z</time>
      </trkpt>
      <trkpt lat="44.3115" lon="3.59025">
        <ele>743.1</ele>
        <time>2021-10-23T14:57:11.199Z</time>
      </trkpt>
      <trkpt lat="44.31155" lon="3.59022">
        <ele>743.4</ele>
        <time>2021-10-23T14:57:16.405Z</time>
      </trkpt>
      <trkpt lat="44.31164" lon="3.59023">
        <ele>742.9</ele>
        <time>2021-10-23T14:57:22.902Z</time>
      </trkpt>
      <trkpt lat="44.3117" lon="3.59018">
        <ele>743.5</ele>
        <time>2021-10-23T14:57:28.084Z</time>
      </trkpt>
      <trkpt lat="44.31175" lon="3.59013">
        <ele>743.8</ele>
        <time>2021-10-23T14:57:33.206Z</time>
      </trkpt>
      <trkpt lat="44.3118" lon="3.59011">
        <ele>743.5</ele>
        <time>2021-10-23T14:57:39.148Z</time>
      </trkpt>
      <trkpt lat="44.31181" lon="3.5901">
        <ele>743.6</ele>
        <time>2021-10-23T14:57:48.414Z</time>
      </trkpt>
      <trkpt lat="44.31184" lon="3.59009">
        <ele>743.6</ele>
        <time>2021-10-23T14:57:53.660Z</time>
      </trkpt>
      <trkpt lat="44.31189" lon="3.59001">
        <ele>744.5</ele>
        <time>2021-10-23T14:58:04.991Z</time>
      </trkpt>
      <trkpt lat="44.31193" lon="3.58995">
        <ele>745.1</ele>
        <time>2021-10-23T14:58:10.044Z</time>
      </trkpt>
      <trkpt lat="44.31199" lon="3.5899">
        <ele>745.8</ele>
        <time>2021-10-23T14:58:15.058Z</time>
      </trkpt>
      <trkpt lat="44.31207" lon="3.58991">
        <ele>745.5</ele>
        <time>2021-10-23T14:58:20.395Z</time>
      </trkpt>
      <trkpt lat="44.31212" lon="3.58993">
        <ele>745.1</ele>
        <time>2021-10-23T14:58:26.178Z</time>
      </trkpt>
      <trkpt lat="44.31216" lon="3.58996">
        <ele>744.6</ele>
        <time>2021-10-23T14:58:32.357Z</time>
      </trkpt>
      <trkpt lat="44.31224" lon="3.59005">
        <ele>743.2</ele>
        <time>2021-10-23T14:58:51.154Z</time>
      </trkpt>
      <trkpt lat="44.31228" lon="3.5901">
        <ele>743</ele>
        <time>2021-10-23T14:58:56.217Z</time>
      </trkpt>
      <trkpt lat="44.31243" lon="3.59019">
        <ele>743.9</ele>
        <time>2021-10-23T14:59:06.069Z</time>
      </trkpt>
      <trkpt lat="44.31252" lon="3.59025">
        <ele>744.8</ele>
        <time>2021-10-23T14:59:11.149Z</time>
      </trkpt>
      <trkpt lat="44.31264" lon="3.59036">
        <ele>745.9</ele>
        <time>2021-10-23T14:59:16.150Z</time>
      </trkpt>
      <trkpt lat="44.31269" lon="3.59038">
        <ele>747.1</ele>
        <time>2021-10-23T14:59:21.204Z</time>
      </trkpt>
      <trkpt lat="44.31275" lon="3.59045">
        <ele>747.9</ele>
        <time>2021-10-23T14:59:28.206Z</time>
      </trkpt>
      <trkpt lat="44.31276" lon="3.59056">
        <ele>747.4</ele>
        <time>2021-10-23T14:59:33.942Z</time>
      </trkpt>
      <trkpt lat="44.31276" lon="3.59068">
        <ele>746.4</ele>
        <time>2021-10-23T14:59:39.068Z</time>
      </trkpt>
      <trkpt lat="44.31275" lon="3.59079">
        <ele>745.5</ele>
        <time>2021-10-23T14:59:44.072Z</time>
      </trkpt>
      <trkpt lat="44.31274" lon="3.59091">
        <ele>743.4</ele>
        <time>2021-10-23T14:59:50.005Z</time>
      </trkpt>
      <trkpt lat="44.31279" lon="3.59102">
        <ele>742.8</ele>
        <time>2021-10-23T14:59:55.986Z</time>
      </trkpt>
      <trkpt lat="44.31288" lon="3.59104">
        <ele>744</ele>
        <time>2021-10-23T15:00:01.172Z</time>
      </trkpt>
      <trkpt lat="44.31293" lon="3.59106">
        <ele>744.5</ele>
        <time>2021-10-23T15:00:06.883Z</time>
      </trkpt>
      <trkpt lat="44.31298" lon="3.59107">
        <ele>745.3</ele>
        <time>2021-10-23T15:00:12.874Z</time>
      </trkpt>
      <trkpt lat="44.31296" lon="3.59108">
        <ele>744.7</ele>
        <time>2021-10-23T15:00:18.037Z</time>
      </trkpt>
      <trkpt lat="44.313" lon="3.59116">
        <ele>744.4</ele>
        <time>2021-10-23T15:00:23.054Z</time>
      </trkpt>
      <trkpt lat="44.31308" lon="3.59128">
        <ele>744.7</ele>
        <time>2021-10-23T15:00:28.923Z</time>
      </trkpt>
      <trkpt lat="44.31314" lon="3.59136">
        <ele>745.2</ele>
        <time>2021-10-23T15:00:35.468Z</time>
      </trkpt>
      <trkpt lat="44.31317" lon="3.59135">
        <ele>746</ele>
        <time>2021-10-23T15:00:41.175Z</time>
      </trkpt>
      <trkpt lat="44.31319" lon="3.59136">
        <ele>746.3</ele>
        <time>2021-10-23T15:00:46.217Z</time>
      </trkpt>
      <trkpt lat="44.31322" lon="3.59148">
        <ele>745.6</ele>
        <time>2021-10-23T15:00:52.363Z</time>
      </trkpt>
      <trkpt lat="44.31325" lon="3.59157">
        <ele>745.3</ele>
        <time>2021-10-23T15:00:57.471Z</time>
      </trkpt>
      <trkpt lat="44.3133" lon="3.59164">
        <ele>745.5</ele>
        <time>2021-10-23T15:01:03.364Z</time>
      </trkpt>
      <trkpt lat="44.31335" lon="3.59171">
        <ele>745.5</ele>
        <time>2021-10-23T15:01:09.078Z</time>
      </trkpt>
      <trkpt lat="44.3134" lon="3.59179">
        <ele>745</ele>
        <time>2021-10-23T15:01:15.179Z</time>
      </trkpt>
      <trkpt lat="44.31344" lon="3.59184">
        <ele>744.7</ele>
        <time>2021-10-23T15:01:21.185Z</time>
      </trkpt>
      <trkpt lat="44.3135" lon="3.59192">
        <ele>744.1</ele>
        <time>2021-10-23T15:01:27.278Z</time>
      </trkpt>
      <trkpt lat="44.31355" lon="3.59197">
        <ele>743.9</ele>
        <time>2021-10-23T15:01:33.104Z</time>
      </trkpt>
      <trkpt lat="44.31361" lon="3.59201">
        <ele>743.8</ele>
        <time>2021-10-23T15:01:39.153Z</time>
      </trkpt>
      <trkpt lat="44.31367" lon="3.59201">
        <ele>744.3</ele>
        <time>2021-10-23T15:01:44.913Z</time>
      </trkpt>
      <trkpt lat="44.31373" lon="3.59206">
        <ele>744</ele>
        <time>2021-10-23T15:01:50.387Z</time>
      </trkpt>
      <trkpt lat="44.31373" lon="3.5921">
        <ele>743.4</ele>
        <time>2021-10-23T15:02:16.154Z</time>
      </trkpt>
      <trkpt lat="44.31381" lon="3.59218">
        <ele>742.7</ele>
        <time>2021-10-23T15:03:34.058Z</time>
      </trkpt>
      <trkpt lat="44.31385" lon="3.59225">
        <ele>742.1</ele>
        <time>2021-10-23T15:03:39.668Z</time>
      </trkpt>
      <trkpt lat="44.31391" lon="3.5923">
        <ele>741.8</ele>
        <time>2021-10-23T15:03:44.763Z</time>
      </trkpt>
      <trkpt lat="44.31397" lon="3.59235">
        <ele>741.6</ele>
        <time>2021-10-23T15:03:50.066Z</time>
      </trkpt>
      <trkpt lat="44.31403" lon="3.5924">
        <ele>741.2</ele>
        <time>2021-10-23T15:03:55.143Z</time>
      </trkpt>
      <trkpt lat="44.31407" lon="3.59243">
        <ele>741.1</ele>
        <time>2021-10-23T15:04:01.178Z</time>
      </trkpt>
      <trkpt lat="44.31408" lon="3.5924">
        <ele>741.8</ele>
        <time>2021-10-23T15:04:23.075Z</time>
      </trkpt>
      <trkpt lat="44.31408" lon="3.59243">
        <ele>741.3</ele>
        <time>2021-10-23T15:05:44.069Z</time>
      </trkpt>
      <trkpt lat="44.31413" lon="3.59247">
        <ele>741.1</ele>
        <time>2021-10-23T15:05:50.067Z</time>
      </trkpt>
      <trkpt lat="44.31419" lon="3.59254">
        <ele>740.2</ele>
        <time>2021-10-23T15:05:56.091Z</time>
      </trkpt>
      <trkpt lat="44.31425" lon="3.59258">
        <ele>739.4</ele>
        <time>2021-10-23T15:06:01.104Z</time>
      </trkpt>
      <trkpt lat="44.31429" lon="3.59264">
        <ele>738.3</ele>
        <time>2021-10-23T15:06:06.186Z</time>
      </trkpt>
      <trkpt lat="44.31433" lon="3.59269">
        <ele>737.2</ele>
        <time>2021-10-23T15:06:11.198Z</time>
      </trkpt>
      <trkpt lat="44.31439" lon="3.59271">
        <ele>736.7</ele>
        <time>2021-10-23T15:06:16.208Z</time>
      </trkpt>
      <trkpt lat="44.31446" lon="3.59272">
        <ele>736.3</ele>
        <time>2021-10-23T15:06:21.224Z</time>
      </trkpt>
      <trkpt lat="44.31455" lon="3.59271">
        <ele>735.8</ele>
        <time>2021-10-23T15:06:28.049Z</time>
      </trkpt>
      <trkpt lat="44.3146" lon="3.59264">
        <ele>737.7</ele>
        <time>2021-10-23T15:06:33.370Z</time>
      </trkpt>
      <trkpt lat="44.31464" lon="3.59253">
        <ele>741.2</ele>
        <time>2021-10-23T15:06:39.002Z</time>
      </trkpt>
      <trkpt lat="44.3147" lon="3.5925">
        <ele>741.9</ele>
        <time>2021-10-23T15:06:44.089Z</time>
      </trkpt>
      <trkpt lat="44.31476" lon="3.5925">
        <ele>741.7</ele>
        <time>2021-10-23T15:06:49.347Z</time>
      </trkpt>
      <trkpt lat="44.31484" lon="3.59255">
        <ele>739.4</ele>
        <time>2021-10-23T15:06:55.390Z</time>
      </trkpt>
      <trkpt lat="44.31487" lon="3.59265">
        <ele>736.2</ele>
        <time>2021-10-23T15:07:01.146Z</time>
      </trkpt>
      <trkpt lat="44.31491" lon="3.59268">
        <ele>735.1</ele>
        <time>2021-10-23T15:07:06.180Z</time>
      </trkpt>
      <trkpt lat="44.315" lon="3.5927">
        <ele>734.3</ele>
        <time>2021-10-23T15:07:13.131Z</time>
      </trkpt>
      <trkpt lat="44.31506" lon="3.59269">
        <ele>734.9</ele>
        <time>2021-10-23T15:07:19.597Z</time>
      </trkpt>
      <trkpt lat="44.31494" lon="3.59271">
        <ele>734.1</ele>
        <time>2021-10-23T15:07:51.193Z</time>
      </trkpt>
      <trkpt lat="44.31487" lon="3.5928">
        <ele>731.3</ele>
        <time>2021-10-23T15:07:57.329Z</time>
      </trkpt>
      <trkpt lat="44.31478" lon="3.59288">
        <ele>729</ele>
        <time>2021-10-23T15:08:02.552Z</time>
      </trkpt>
      <trkpt lat="44.31472" lon="3.59292">
        <ele>727.9</ele>
        <time>2021-10-23T15:08:07.788Z</time>
      </trkpt>
      <trkpt lat="44.31469" lon="3.593">
        <ele>725.9</ele>
        <time>2021-10-23T15:08:13.031Z</time>
      </trkpt>
      <trkpt lat="44.31463" lon="3.59308">
        <ele>723.5</ele>
        <time>2021-10-23T15:08:19.174Z</time>
      </trkpt>
      <trkpt lat="44.31455" lon="3.59307">
        <ele>724</ele>
        <time>2021-10-23T15:08:24.577Z</time>
      </trkpt>
      <trkpt lat="44.31449" lon="3.59311">
        <ele>723</ele>
        <time>2021-10-23T15:08:29.861Z</time>
      </trkpt>
      <trkpt lat="44.31443" lon="3.59317">
        <ele>721.5</ele>
        <time>2021-10-23T15:08:35.698Z</time>
      </trkpt>
      <trkpt lat="44.31437" lon="3.5932">
        <ele>720.5</ele>
        <time>2021-10-23T15:08:40.763Z</time>
      </trkpt>
      <trkpt lat="44.31433" lon="3.59321">
        <ele>720.3</ele>
        <time>2021-10-23T15:08:46.194Z</time>
      </trkpt>
      <trkpt lat="44.31427" lon="3.59324">
        <ele>719.2</ele>
        <time>2021-10-23T15:08:52.359Z</time>
      </trkpt>
      <trkpt lat="44.31425" lon="3.59326">
        <ele>718.5</ele>
        <time>2021-10-23T15:08:58.049Z</time>
      </trkpt>
      <trkpt lat="44.31435" lon="3.59329">
        <ele>717.5</ele>
        <time>2021-10-23T15:09:08.726Z</time>
      </trkpt>
      <trkpt lat="44.31443" lon="3.59331">
        <ele>716.9</ele>
        <time>2021-10-23T15:09:14.234Z</time>
      </trkpt>
      <trkpt lat="44.3145" lon="3.59329">
        <ele>717.1</ele>
        <time>2021-10-23T15:09:19.351Z</time>
      </trkpt>
      <trkpt lat="44.31454" lon="3.59322">
        <ele>719</ele>
        <time>2021-10-23T15:09:24.663Z</time>
      </trkpt>
      <trkpt lat="44.31458" lon="3.59319">
        <ele>719.7</ele>
        <time>2021-10-23T15:09:29.823Z</time>
      </trkpt>
      <trkpt lat="44.31457" lon="3.59324">
        <ele>718</ele>
        <time>2021-10-23T15:09:35.458Z</time>
      </trkpt>
      <trkpt lat="44.31452" lon="3.59329">
        <ele>716.7</ele>
        <time>2021-10-23T15:09:40.707Z</time>
      </trkpt>
      <trkpt lat="44.31444" lon="3.59331">
        <ele>716.7</ele>
        <time>2021-10-23T15:09:45.948Z</time>
      </trkpt>
      <trkpt lat="44.31438" lon="3.59336">
        <ele>715</ele>
        <time>2021-10-23T15:09:51.063Z</time>
      </trkpt>
      <trkpt lat="44.31432" lon="3.59337">
        <ele>714.4</ele>
        <time>2021-10-23T15:09:56.169Z</time>
      </trkpt>
      <trkpt lat="44.31427" lon="3.59341">
        <ele>712.8</ele>
        <time>2021-10-23T15:10:01.170Z</time>
      </trkpt>
      <trkpt lat="44.31424" lon="3.59344">
        <ele>711.7</ele>
        <time>2021-10-23T15:10:07.306Z</time>
      </trkpt>
      <trkpt lat="44.31419" lon="3.59347">
        <ele>710.6</ele>
        <time>2021-10-23T15:10:27.389Z</time>
      </trkpt>
      <trkpt lat="44.31411" lon="3.59352">
        <ele>708.5</ele>
        <time>2021-10-23T15:10:32.805Z</time>
      </trkpt>
      <trkpt lat="44.31401" lon="3.59359">
        <ele>705.7</ele>
        <time>2021-10-23T15:10:38.807Z</time>
      </trkpt>
      <trkpt lat="44.31392" lon="3.5936">
        <ele>705.3</ele>
        <time>2021-10-23T15:10:44.347Z</time>
      </trkpt>
      <trkpt lat="44.31381" lon="3.59358">
        <ele>704.8</ele>
        <time>2021-10-23T15:10:50.081Z</time>
      </trkpt>
      <trkpt lat="44.31374" lon="3.59354">
        <ele>705.2</ele>
        <time>2021-10-23T15:10:55.352Z</time>
      </trkpt>
      <trkpt lat="44.3137" lon="3.59354">
        <ele>704.8</ele>
        <time>2021-10-23T15:11:01.163Z</time>
      </trkpt>
      <trkpt lat="44.31365" lon="3.59355">
        <ele>703.8</ele>
        <time>2021-10-23T15:11:06.167Z</time>
      </trkpt>
      <trkpt lat="44.31359" lon="3.59358">
        <ele>701.7</ele>
        <time>2021-10-23T15:11:12.698Z</time>
      </trkpt>
      <trkpt lat="44.31353" lon="3.59359">
        <ele>699.8</ele>
        <time>2021-10-23T15:11:18.054Z</time>
      </trkpt>
      <trkpt lat="44.31348" lon="3.59357">
        <ele>699.1</ele>
        <time>2021-10-23T15:11:23.062Z</time>
      </trkpt>
      <trkpt lat="44.31342" lon="3.59355">
        <ele>698.3</ele>
        <time>2021-10-23T15:11:28.577Z</time>
      </trkpt>
      <trkpt lat="44.31336" lon="3.59352">
        <ele>697.6</ele>
        <time>2021-10-23T15:11:34.066Z</time>
      </trkpt>
      <trkpt lat="44.3133" lon="3.59348">
        <ele>696.7</ele>
        <time>2021-10-23T15:11:39.710Z</time>
      </trkpt>
      <trkpt lat="44.31325" lon="3.59345">
        <ele>695.6</ele>
        <time>2021-10-23T15:11:44.755Z</time>
      </trkpt>
      <trkpt lat="44.3132" lon="3.59343">
        <ele>693.9</ele>
        <time>2021-10-23T15:11:50.205Z</time>
      </trkpt>
      <trkpt lat="44.31316" lon="3.5934">
        <ele>693.2</ele>
        <time>2021-10-23T15:11:55.879Z</time>
      </trkpt>
      <trkpt lat="44.31316" lon="3.59337">
        <ele>693.7</ele>
        <time>2021-10-23T15:12:00.931Z</time>
      </trkpt>
      <trkpt lat="44.31313" lon="3.59335">
        <ele>693.2</ele>
        <time>2021-10-23T15:12:17.851Z</time>
      </trkpt>
      <trkpt lat="44.31309" lon="3.59333">
        <ele>691.8</ele>
        <time>2021-10-23T15:12:23.062Z</time>
      </trkpt>
      <trkpt lat="44.31296" lon="3.59326">
        <ele>687.1</ele>
        <time>2021-10-23T15:12:28.746Z</time>
      </trkpt>
      <trkpt lat="44.31286" lon="3.59314">
        <ele>685.3</ele>
        <time>2021-10-23T15:12:34.081Z</time>
      </trkpt>
      <trkpt lat="44.3128" lon="3.59304">
        <ele>684.6</ele>
        <time>2021-10-23T15:12:39.093Z</time>
      </trkpt>
      <trkpt lat="44.31276" lon="3.59293">
        <ele>685.5</ele>
        <time>2021-10-23T15:12:44.455Z</time>
      </trkpt>
      <trkpt lat="44.3127" lon="3.59286">
        <ele>684.4</ele>
        <time>2021-10-23T15:12:49.769Z</time>
      </trkpt>
      <trkpt lat="44.31266" lon="3.59282">
        <ele>683.4</ele>
        <time>2021-10-23T15:12:55.065Z</time>
      </trkpt>
      <trkpt lat="44.31264" lon="3.5928">
        <ele>682.6</ele>
        <time>2021-10-23T15:13:00.084Z</time>
      </trkpt>
      <trkpt lat="44.31257" lon="3.59277">
        <ele>680.3</ele>
        <time>2021-10-23T15:13:05.754Z</time>
      </trkpt>
      <trkpt lat="44.31252" lon="3.59276">
        <ele>678</ele>
        <time>2021-10-23T15:13:11.088Z</time>
      </trkpt>
      <trkpt lat="44.31249" lon="3.59274">
        <ele>676.7</ele>
        <time>2021-10-23T15:13:16.096Z</time>
      </trkpt>
      <trkpt lat="44.31245" lon="3.59273">
        <ele>674.7</ele>
        <time>2021-10-23T15:13:21.169Z</time>
      </trkpt>
      <trkpt lat="44.31241" lon="3.59271">
        <ele>672.3</ele>
        <time>2021-10-23T15:13:26.192Z</time>
      </trkpt>
      <trkpt lat="44.31239" lon="3.5926">
        <ele>674.8</ele>
        <time>2021-10-23T15:13:32.354Z</time>
      </trkpt>
      <trkpt lat="44.31231" lon="3.59258">
        <ele>670.8</ele>
        <time>2021-10-23T15:13:37.965Z</time>
      </trkpt>
      <trkpt lat="44.31225" lon="3.59255">
        <ele>668</ele>
        <time>2021-10-23T15:13:43.902Z</time>
      </trkpt>
      <trkpt lat="44.31222" lon="3.59246">
        <ele>669.4</ele>
        <time>2021-10-23T15:13:49.692Z</time>
      </trkpt>
      <trkpt lat="44.31224" lon="3.59226">
        <ele>677.6</ele>
        <time>2021-10-23T15:13:55.005Z</time>
      </trkpt>
      <trkpt lat="44.31221" lon="3.59223">
        <ele>677.5</ele>
        <time>2021-10-23T15:14:00.053Z</time>
      </trkpt>
      <trkpt lat="44.31224" lon="3.59238">
        <ele>673.4</ele>
        <time>2021-10-23T15:14:51.076Z</time>
      </trkpt>
      <trkpt lat="44.31225" lon="3.59248">
        <ele>670.2</ele>
        <time>2021-10-23T15:14:56.094Z</time>
      </trkpt>
      <trkpt lat="44.31227" lon="3.59255">
        <ele>668.9</ele>
        <time>2021-10-23T15:15:01.206Z</time>
      </trkpt>
      <trkpt lat="44.31228" lon="3.59265">
        <ele>666.1</ele>
        <time>2021-10-23T15:15:07.152Z</time>
      </trkpt>
      <trkpt lat="44.31229" lon="3.59273">
        <ele>664</ele>
        <time>2021-10-23T15:15:12.208Z</time>
      </trkpt>
      <trkpt lat="44.31231" lon="3.59278">
        <ele>663.6</ele>
        <time>2021-10-23T15:15:18.069Z</time>
      </trkpt>
      <trkpt lat="44.31236" lon="3.59286">
        <ele>664.4</ele>
        <time>2021-10-23T15:15:24.237Z</time>
      </trkpt>
      <trkpt lat="44.3124" lon="3.59294">
        <ele>663.9</ele>
        <time>2021-10-23T15:15:29.791Z</time>
      </trkpt>
      <trkpt lat="44.31242" lon="3.59303">
        <ele>662.2</ele>
        <time>2021-10-23T15:15:35.733Z</time>
      </trkpt>
      <trkpt lat="44.31243" lon="3.59312">
        <ele>660.7</ele>
        <time>2021-10-23T15:15:41.084Z</time>
      </trkpt>
      <trkpt lat="44.31244" lon="3.59317">
        <ele>660</ele>
        <time>2021-10-23T15:15:46.210Z</time>
      </trkpt>
      <trkpt lat="44.31245" lon="3.59326">
        <ele>658.5</ele>
        <time>2021-10-23T15:15:52.189Z</time>
      </trkpt>
      <trkpt lat="44.31247" lon="3.59333">
        <ele>658</ele>
        <time>2021-10-23T15:15:57.253Z</time>
      </trkpt>
      <trkpt lat="44.3125" lon="3.5934">
        <ele>658</ele>
        <time>2021-10-23T15:16:02.347Z</time>
      </trkpt>
      <trkpt lat="44.31255" lon="3.59344">
        <ele>659.6</ele>
        <time>2021-10-23T15:16:08.059Z</time>
      </trkpt>
      <trkpt lat="44.31259" lon="3.59354">
        <ele>659.8</ele>
        <time>2021-10-23T15:16:16.194Z</time>
      </trkpt>
      <trkpt lat="44.31262" lon="3.59359">
        <ele>659.8</ele>
        <time>2021-10-23T15:16:21.214Z</time>
      </trkpt>
      <trkpt lat="44.31263" lon="3.5937">
        <ele>658.1</ele>
        <time>2021-10-23T15:16:29.084Z</time>
      </trkpt>
      <trkpt lat="44.31262" lon="3.59378">
        <ele>656.1</ele>
        <time>2021-10-23T15:16:34.107Z</time>
      </trkpt>
      <trkpt lat="44.31257" lon="3.59382">
        <ele>652.6</ele>
        <time>2021-10-23T15:16:40.636Z</time>
      </trkpt>
      <trkpt lat="44.31253" lon="3.59378">
        <ele>651.4</ele>
        <time>2021-10-23T15:16:46.201Z</time>
      </trkpt>
      <trkpt lat="44.31258" lon="3.59374">
        <ele>654.5</ele>
        <time>2021-10-23T15:17:04.272Z</time>
      </trkpt>
      <trkpt lat="44.31261" lon="3.59372">
        <ele>656.8</ele>
        <time>2021-10-23T15:17:17.397Z</time>
      </trkpt>
      <trkpt lat="44.31255" lon="3.59375">
        <ele>652.6</ele>
        <time>2021-10-23T15:18:09.186Z</time>
      </trkpt>
      <trkpt lat="44.31254" lon="3.59372">
        <ele>652.7</ele>
        <time>2021-10-23T15:18:14.292Z</time>
      </trkpt>
      <trkpt lat="44.3125" lon="3.59365">
        <ele>651.7</ele>
        <time>2021-10-23T15:18:21.157Z</time>
      </trkpt>
      <trkpt lat="44.31244" lon="3.59355">
        <ele>650.5</ele>
        <time>2021-10-23T15:18:26.188Z</time>
      </trkpt>
      <trkpt lat="44.31237" lon="3.59344">
        <ele>649.2</ele>
        <time>2021-10-23T15:18:31.225Z</time>
      </trkpt>
      <trkpt lat="44.31227" lon="3.59323">
        <ele>647.8</ele>
        <time>2021-10-23T15:18:41.207Z</time>
      </trkpt>
      <trkpt lat="44.31218" lon="3.59324">
        <ele>644.7</ele>
        <time>2021-10-23T15:18:47.313Z</time>
      </trkpt>
      <trkpt lat="44.31212" lon="3.59327">
        <ele>644.2</ele>
        <time>2021-10-23T15:18:52.354Z</time>
      </trkpt>
      <trkpt lat="44.31208" lon="3.59329">
        <ele>643.9</ele>
        <time>2021-10-23T15:18:57.951Z</time>
      </trkpt>
      <trkpt lat="44.31202" lon="3.59328">
        <ele>644.2</ele>
        <time>2021-10-23T15:19:03.693Z</time>
      </trkpt>
      <trkpt lat="44.31196" lon="3.5933">
        <ele>643.9</ele>
        <time>2021-10-23T15:19:09.004Z</time>
      </trkpt>
      <trkpt lat="44.31191" lon="3.59336">
        <ele>644.2</ele>
        <time>2021-10-23T15:19:14.634Z</time>
      </trkpt>
      <trkpt lat="44.31189" lon="3.59344">
        <ele>643.1</ele>
        <time>2021-10-23T15:19:19.933Z</time>
      </trkpt>
      <trkpt lat="44.31186" lon="3.59352">
        <ele>642.4</ele>
        <time>2021-10-23T15:19:25.134Z</time>
      </trkpt>
      <trkpt lat="44.31179" lon="3.59362">
        <ele>644.6</ele>
        <time>2021-10-23T15:19:30.730Z</time>
      </trkpt>
      <trkpt lat="44.31172" lon="3.59371">
        <ele>646.3</ele>
        <time>2021-10-23T15:19:36.078Z</time>
      </trkpt>
      <trkpt lat="44.31169" lon="3.59375">
        <ele>647.5</ele>
        <time>2021-10-23T15:19:43.045Z</time>
      </trkpt>
      <trkpt lat="44.31168" lon="3.59376">
        <ele>648</ele>
        <time>2021-10-23T15:19:48.095Z</time>
      </trkpt>
      <trkpt lat="44.31177" lon="3.59362">
        <ele>645.3</ele>
        <time>2021-10-23T15:19:55.096Z</time>
      </trkpt>
      <trkpt lat="44.31183" lon="3.59353">
        <ele>644.1</ele>
        <time>2021-10-23T15:20:01.163Z</time>
      </trkpt>
      <trkpt lat="44.31181" lon="3.59354">
        <ele>645.1</ele>
        <time>2021-10-23T15:20:06.164Z</time>
      </trkpt>
      <trkpt lat="44.3118" lon="3.59355">
        <ele>645.4</ele>
        <time>2021-10-23T15:23:41.172Z</time>
      </trkpt>
      <trkpt lat="44.31178" lon="3.59358">
        <ele>646</ele>
        <time>2021-10-23T15:23:46.190Z</time>
      </trkpt>
      <trkpt lat="44.31176" lon="3.59357">
        <ele>647.1</ele>
        <time>2021-10-23T15:23:56.082Z</time>
      </trkpt>
      <trkpt lat="44.31176" lon="3.59359">
        <ele>646.7</ele>
        <time>2021-10-23T15:24:03.036Z</time>
      </trkpt>
      <trkpt lat="44.31176" lon="3.59358">
        <ele>647.3</ele>
        <time>2021-10-23T15:27:08.048Z</time>
      </trkpt>
      <trkpt lat="44.31176" lon="3.59357">
        <ele>647</ele>
        <time>2021-10-23T15:27:13.069Z</time>
      </trkpt>
      <trkpt lat="44.31177" lon="3.59359">
        <ele>646.1</ele>
        <time>2021-10-23T15:27:20.076Z</time>
      </trkpt>
      <trkpt lat="44.31178" lon="3.59361">
        <ele>645.4</ele>
        <time>2021-10-23T15:27:26.097Z</time>
      </trkpt>
      <trkpt lat="44.31179" lon="3.59359">
        <ele>644.9</ele>
        <time>2021-10-23T15:27:32.368Z</time>
      </trkpt>
      <trkpt lat="44.31177" lon="3.59368">
        <ele>644.3</ele>
        <time>2021-10-23T15:27:49.659Z</time>
      </trkpt>
      <trkpt lat="44.31173" lon="3.59377">
        <ele>644.6</ele>
        <time>2021-10-23T15:27:54.788Z</time>
      </trkpt>
      <trkpt lat="44.31171" lon="3.59387">
        <ele>643.9</ele>
        <time>2021-10-23T15:28:00.412Z</time>
      </trkpt>
      <trkpt lat="44.31167" lon="3.59396">
        <ele>643</ele>
        <time>2021-10-23T15:28:05.552Z</time>
      </trkpt>
      <trkpt lat="44.31164" lon="3.59404">
        <ele>641.7</ele>
        <time>2021-10-23T15:28:10.805Z</time>
      </trkpt>
      <trkpt lat="44.31162" lon="3.59408">
        <ele>640.8</ele>
        <time>2021-10-23T15:28:16.050Z</time>
      </trkpt>
      <trkpt lat="44.3116" lon="3.59415">
        <ele>639.4</ele>
        <time>2021-10-23T15:28:21.065Z</time>
      </trkpt>
      <trkpt lat="44.31174" lon="3.59409">
        <ele>634.8</ele>
        <time>2021-10-23T15:28:42.486Z</time>
      </trkpt>
      <trkpt lat="44.31176" lon="3.59406">
        <ele>634.9</ele>
        <time>2021-10-23T15:28:47.687Z</time>
      </trkpt>
      <trkpt lat="44.31182" lon="3.59404">
        <ele>633.2</ele>
        <time>2021-10-23T15:28:53.034Z</time>
      </trkpt>
      <trkpt lat="44.31189" lon="3.59403">
        <ele>630.1</ele>
        <time>2021-10-23T15:28:58.053Z</time>
      </trkpt>
      <trkpt lat="44.31194" lon="3.59397">
        <ele>628.8</ele>
        <time>2021-10-23T15:29:03.082Z</time>
      </trkpt>
      <trkpt lat="44.31199" lon="3.59393">
        <ele>629.2</ele>
        <time>2021-10-23T15:29:08.695Z</time>
      </trkpt>
      <trkpt lat="44.31202" lon="3.59391">
        <ele>629.4</ele>
        <time>2021-10-23T15:29:13.744Z</time>
      </trkpt>
      <trkpt lat="44.31206" lon="3.59392">
        <ele>629.3</ele>
        <time>2021-10-23T15:29:19.090Z</time>
      </trkpt>
      <trkpt lat="44.31208" lon="3.59384">
        <ele>631</ele>
        <time>2021-10-23T15:29:24.561Z</time>
      </trkpt>
      <trkpt lat="44.31214" lon="3.59378">
        <ele>632.5</ele>
        <time>2021-10-23T15:29:30.236Z</time>
      </trkpt>
      <trkpt lat="44.31217" lon="3.59378">
        <ele>632.5</ele>
        <time>2021-10-23T15:29:35.325Z</time>
      </trkpt>
      <trkpt lat="44.31221" lon="3.59381">
        <ele>631.9</ele>
        <time>2021-10-23T15:29:40.373Z</time>
      </trkpt>
      <trkpt lat="44.31223" lon="3.59389">
        <ele>630.4</ele>
        <time>2021-10-23T15:29:45.380Z</time>
      </trkpt>
      <trkpt lat="44.31225" lon="3.59401">
        <ele>627.4</ele>
        <time>2021-10-23T15:29:51.096Z</time>
      </trkpt>
      <trkpt lat="44.31227" lon="3.59407">
        <ele>626.3</ele>
        <time>2021-10-23T15:29:56.205Z</time>
      </trkpt>
      <trkpt lat="44.31228" lon="3.59416">
        <ele>624.2</ele>
        <time>2021-10-23T15:30:01.210Z</time>
      </trkpt>
      <trkpt lat="44.31228" lon="3.59428">
        <ele>620.4</ele>
        <time>2021-10-23T15:30:07.108Z</time>
      </trkpt>
      <trkpt lat="44.31228" lon="3.59436">
        <ele>618.3</ele>
        <time>2021-10-23T15:30:12.117Z</time>
      </trkpt>
      <trkpt lat="44.31232" lon="3.59445">
        <ele>618.3</ele>
        <time>2021-10-23T15:30:17.432Z</time>
      </trkpt>
      <trkpt lat="44.31236" lon="3.5945">
        <ele>619.1</ele>
        <time>2021-10-23T15:30:22.527Z</time>
      </trkpt>
      <trkpt lat="44.31242" lon="3.59447">
        <ele>623.6</ele>
        <time>2021-10-23T15:30:28.060Z</time>
      </trkpt>
      <trkpt lat="44.31245" lon="3.59454">
        <ele>623.8</ele>
        <time>2021-10-23T15:30:33.711Z</time>
      </trkpt>
      <trkpt lat="44.31248" lon="3.5946">
        <ele>623.3</ele>
        <time>2021-10-23T15:30:38.739Z</time>
      </trkpt>
      <trkpt lat="44.31252" lon="3.59464">
        <ele>623.6</ele>
        <time>2021-10-23T15:30:46.088Z</time>
      </trkpt>
      <trkpt lat="44.31252" lon="3.59462">
        <ele>624.2</ele>
        <time>2021-10-23T15:30:51.384Z</time>
      </trkpt>
      <trkpt lat="44.31255" lon="3.59468">
        <ele>623.5</ele>
        <time>2021-10-23T15:30:57.066Z</time>
      </trkpt>
      <trkpt lat="44.31261" lon="3.5947">
        <ele>624.5</ele>
        <time>2021-10-23T15:31:02.370Z</time>
      </trkpt>
      <trkpt lat="44.31266" lon="3.59475">
        <ele>624.4</ele>
        <time>2021-10-23T15:31:08.027Z</time>
      </trkpt>
      <trkpt lat="44.31272" lon="3.5948">
        <ele>624.7</ele>
        <time>2021-10-23T15:31:14.046Z</time>
      </trkpt>
      <trkpt lat="44.31277" lon="3.59482">
        <ele>625.4</ele>
        <time>2021-10-23T15:31:19.182Z</time>
      </trkpt>
      <trkpt lat="44.31281" lon="3.59487">
        <ele>625.3</ele>
        <time>2021-10-23T15:31:24.792Z</time>
      </trkpt>
      <trkpt lat="44.31283" lon="3.59492">
        <ele>624</ele>
        <time>2021-10-23T15:31:29.950Z</time>
      </trkpt>
      <trkpt lat="44.31288" lon="3.59499">
        <ele>622.7</ele>
        <time>2021-10-23T15:31:35.648Z</time>
      </trkpt>
      <trkpt lat="44.31292" lon="3.59506">
        <ele>621.3</ele>
        <time>2021-10-23T15:31:40.661Z</time>
      </trkpt>
      <trkpt lat="44.31292" lon="3.59511">
        <ele>619.7</ele>
        <time>2021-10-23T15:31:45.764Z</time>
      </trkpt>
      <trkpt lat="44.31294" lon="3.59516">
        <ele>618</ele>
        <time>2021-10-23T15:31:50.831Z</time>
      </trkpt>
      <trkpt lat="44.31296" lon="3.59518">
        <ele>617.7</ele>
        <time>2021-10-23T15:31:56.189Z</time>
      </trkpt>
      <trkpt lat="44.31301" lon="3.59522">
        <ele>617.2</ele>
        <time>2021-10-23T15:32:01.210Z</time>
      </trkpt>
      <trkpt lat="44.31307" lon="3.59527">
        <ele>616.4</ele>
        <time>2021-10-23T15:32:07.862Z</time>
      </trkpt>
      <trkpt lat="44.31311" lon="3.59533">
        <ele>615.8</ele>
        <time>2021-10-23T15:32:13.515Z</time>
      </trkpt>
      <trkpt lat="44.31315" lon="3.59536">
        <ele>615.8</ele>
        <time>2021-10-23T15:32:18.779Z</time>
      </trkpt>
      <trkpt lat="44.31319" lon="3.59542">
        <ele>614.9</ele>
        <time>2021-10-23T15:32:23.899Z</time>
      </trkpt>
      <trkpt lat="44.31324" lon="3.59545">
        <ele>615.1</ele>
        <time>2021-10-23T15:32:29.234Z</time>
      </trkpt>
      <trkpt lat="44.31331" lon="3.59547">
        <ele>615.9</ele>
        <time>2021-10-23T15:32:34.339Z</time>
      </trkpt>
      <trkpt lat="44.31338" lon="3.59549">
        <ele>616.5</ele>
        <time>2021-10-23T15:32:39.378Z</time>
      </trkpt>
      <trkpt lat="44.31344" lon="3.59552">
        <ele>616.5</ele>
        <time>2021-10-23T15:32:45.176Z</time>
      </trkpt>
      <trkpt lat="44.31351" lon="3.59555">
        <ele>616.3</ele>
        <time>2021-10-23T15:32:50.909Z</time>
      </trkpt>
      <trkpt lat="44.31358" lon="3.59555">
        <ele>616.8</ele>
        <time>2021-10-23T15:32:56.199Z</time>
      </trkpt>
      <trkpt lat="44.31363" lon="3.59552">
        <ele>619</ele>
        <time>2021-10-23T15:33:01.207Z</time>
      </trkpt>
      <trkpt lat="44.31368" lon="3.59552">
        <ele>619.3</ele>
        <time>2021-10-23T15:33:06.909Z</time>
      </trkpt>
      <trkpt lat="44.31371" lon="3.59559">
        <ele>616.9</ele>
        <time>2021-10-23T15:33:12.650Z</time>
      </trkpt>
      <trkpt lat="44.31374" lon="3.59563">
        <ele>615.7</ele>
        <time>2021-10-23T15:33:18.036Z</time>
      </trkpt>
      <trkpt lat="44.31379" lon="3.59565">
        <ele>615.3</ele>
        <time>2021-10-23T15:33:23.079Z</time>
      </trkpt>
      <trkpt lat="44.31384" lon="3.59568">
        <ele>614.8</ele>
        <time>2021-10-23T15:33:28.569Z</time>
      </trkpt>
      <trkpt lat="44.31388" lon="3.59575">
        <ele>612.2</ele>
        <time>2021-10-23T15:33:35.220Z</time>
      </trkpt>
      <trkpt lat="44.3139" lon="3.59583">
        <ele>609.3</ele>
        <time>2021-10-23T15:33:40.435Z</time>
      </trkpt>
      <trkpt lat="44.31394" lon="3.59587">
        <ele>608.4</ele>
        <time>2021-10-23T15:33:45.838Z</time>
      </trkpt>
      <trkpt lat="44.31399" lon="3.59588">
        <ele>608.4</ele>
        <time>2021-10-23T15:33:51.088Z</time>
      </trkpt>
      <trkpt lat="44.31402" lon="3.59592">
        <ele>607.5</ele>
        <time>2021-10-23T15:33:56.201Z</time>
      </trkpt>
      <trkpt lat="44.31406" lon="3.59594">
        <ele>607.1</ele>
        <time>2021-10-23T15:34:01.230Z</time>
      </trkpt>
      <trkpt lat="44.31414" lon="3.59592">
        <ele>608</ele>
        <time>2021-10-23T15:34:07.810Z</time>
      </trkpt>
      <trkpt lat="44.31419" lon="3.59595">
        <ele>607.1</ele>
        <time>2021-10-23T15:34:12.973Z</time>
      </trkpt>
      <trkpt lat="44.31424" lon="3.59596">
        <ele>606.8</ele>
        <time>2021-10-23T15:34:18.319Z</time>
      </trkpt>
      <trkpt lat="44.31431" lon="3.59596">
        <ele>606.8</ele>
        <time>2021-10-23T15:34:23.786Z</time>
      </trkpt>
      <trkpt lat="44.31435" lon="3.59591">
        <ele>608.5</ele>
        <time>2021-10-23T15:34:29.054Z</time>
      </trkpt>
      <trkpt lat="44.31436" lon="3.59592">
        <ele>608.1</ele>
        <time>2021-10-23T15:34:34.074Z</time>
      </trkpt>
      <trkpt lat="44.31442" lon="3.59613">
        <ele>601.3</ele>
        <time>2021-10-23T15:35:21.254Z</time>
      </trkpt>
      <trkpt lat="44.31452" lon="3.59618">
        <ele>599.9</ele>
        <time>2021-10-23T15:35:28.641Z</time>
      </trkpt>
      <trkpt lat="44.31463" lon="3.59628">
        <ele>596</ele>
        <time>2021-10-23T15:35:34.042Z</time>
      </trkpt>
      <trkpt lat="44.31474" lon="3.59635">
        <ele>593.4</ele>
        <time>2021-10-23T15:35:39.291Z</time>
      </trkpt>
      <trkpt lat="44.3148" lon="3.59637">
        <ele>593.2</ele>
        <time>2021-10-23T15:35:44.794Z</time>
      </trkpt>
      <trkpt lat="44.31487" lon="3.59661">
        <ele>587.1</ele>
        <time>2021-10-23T15:36:29.783Z</time>
      </trkpt>
      <trkpt lat="44.3149" lon="3.59663">
        <ele>586.9</ele>
        <time>2021-10-23T15:36:35.096Z</time>
      </trkpt>
      <trkpt lat="44.31495" lon="3.59674">
        <ele>586.6</ele>
        <time>2021-10-23T15:36:40.451Z</time>
      </trkpt>
      <trkpt lat="44.31498" lon="3.59683">
        <ele>587.1</ele>
        <time>2021-10-23T15:36:45.812Z</time>
      </trkpt>
      <trkpt lat="44.315" lon="3.59688">
        <ele>587.4</ele>
        <time>2021-10-23T15:36:51.183Z</time>
      </trkpt>
      <trkpt lat="44.31503" lon="3.59695">
        <ele>587.4</ele>
        <time>2021-10-23T15:36:56.194Z</time>
      </trkpt>
      <trkpt lat="44.31507" lon="3.59701">
        <ele>587.3</ele>
        <time>2021-10-23T15:37:01.196Z</time>
      </trkpt>
      <trkpt lat="44.31507" lon="3.59708">
        <ele>586.3</ele>
        <time>2021-10-23T15:37:07.506Z</time>
      </trkpt>
      <trkpt lat="44.3151" lon="3.59714">
        <ele>585.6</ele>
        <time>2021-10-23T15:37:12.864Z</time>
      </trkpt>
      <trkpt lat="44.31528" lon="3.5971">
        <ele>588.2</ele>
        <time>2021-10-23T15:37:45.189Z</time>
      </trkpt>
      <trkpt lat="44.31533" lon="3.59713">
        <ele>586.4</ele>
        <time>2021-10-23T15:37:51.030Z</time>
      </trkpt>
      <trkpt lat="44.31539" lon="3.59716">
        <ele>583.9</ele>
        <time>2021-10-23T15:37:56.041Z</time>
      </trkpt>
      <trkpt lat="44.31545" lon="3.59719">
        <ele>581.6</ele>
        <time>2021-10-23T15:38:01.071Z</time>
      </trkpt>
      <trkpt lat="44.31554" lon="3.59717">
        <ele>580</ele>
        <time>2021-10-23T15:38:06.183Z</time>
      </trkpt>
      <trkpt lat="44.31562" lon="3.5972">
        <ele>579.1</ele>
        <time>2021-10-23T15:38:12.090Z</time>
      </trkpt>
      <trkpt lat="44.31566" lon="3.59731">
        <ele>576.2</ele>
        <time>2021-10-23T15:38:17.174Z</time>
      </trkpt>
      <trkpt lat="44.3157" lon="3.59741">
        <ele>573.9</ele>
        <time>2021-10-23T15:38:22.356Z</time>
      </trkpt>
      <trkpt lat="44.31574" lon="3.59748">
        <ele>573</ele>
        <time>2021-10-23T15:38:27.570Z</time>
      </trkpt>
      <trkpt lat="44.31578" lon="3.59759">
        <ele>569.6</ele>
        <time>2021-10-23T15:38:33.054Z</time>
      </trkpt>
      <trkpt lat="44.31583" lon="3.59769">
        <ele>567.2</ele>
        <time>2021-10-23T15:38:40.057Z</time>
      </trkpt>
      <trkpt lat="44.31588" lon="3.59771">
        <ele>566.6</ele>
        <time>2021-10-23T15:38:51.082Z</time>
      </trkpt>
      <trkpt lat="44.31591" lon="3.59774">
        <ele>565.3</ele>
        <time>2021-10-23T15:38:56.198Z</time>
      </trkpt>
      <trkpt lat="44.3159" lon="3.59779">
        <ele>563.2</ele>
        <time>2021-10-23T15:39:01.210Z</time>
      </trkpt>
      <trkpt lat="44.3159" lon="3.59784">
        <ele>560.1</ele>
        <time>2021-10-23T15:39:07.806Z</time>
      </trkpt>
      <trkpt lat="44.3159" lon="3.59785">
        <ele>559.3</ele>
        <time>2021-10-23T15:39:15.445Z</time>
      </trkpt>
      <trkpt lat="44.31593" lon="3.59786">
        <ele>559.1</ele>
        <time>2021-10-23T15:39:20.615Z</time>
      </trkpt>
      <trkpt lat="44.31598" lon="3.59786">
        <ele>558.7</ele>
        <time>2021-10-23T15:39:25.994Z</time>
      </trkpt>
      <trkpt lat="44.31602" lon="3.59785">
        <ele>559.1</ele>
        <time>2021-10-23T15:39:31.201Z</time>
      </trkpt>
      <trkpt lat="44.31616" lon="3.59786">
        <ele>558.8</ele>
        <time>2021-10-23T15:39:56.206Z</time>
      </trkpt>
      <trkpt lat="44.3163" lon="3.59791">
        <ele>556.4</ele>
        <time>2021-10-23T15:40:15.011Z</time>
      </trkpt>
      <trkpt lat="44.31636" lon="3.59795">
        <ele>554.2</ele>
        <time>2021-10-23T15:40:20.209Z</time>
      </trkpt>
      <trkpt lat="44.31641" lon="3.59798">
        <ele>552.7</ele>
        <time>2021-10-23T15:40:25.299Z</time>
      </trkpt>
      <trkpt lat="44.31645" lon="3.598">
        <ele>551.6</ele>
        <time>2021-10-23T15:40:30.811Z</time>
      </trkpt>
      <trkpt lat="44.31649" lon="3.59804">
        <ele>549.8</ele>
        <time>2021-10-23T15:40:36.089Z</time>
      </trkpt>
      <trkpt lat="44.3165" lon="3.59802">
        <ele>550.5</ele>
        <time>2021-10-23T15:40:41.205Z</time>
      </trkpt>
      <trkpt lat="44.31651" lon="3.59797">
        <ele>553.1</ele>
        <time>2021-10-23T15:40:46.656Z</time>
      </trkpt>
      <trkpt lat="44.31658" lon="3.59797">
        <ele>553.1</ele>
        <time>2021-10-23T15:40:52.818Z</time>
      </trkpt>
      <trkpt lat="44.31663" lon="3.59799">
        <ele>551.8</ele>
        <time>2021-10-23T15:40:57.884Z</time>
      </trkpt>
      <trkpt lat="44.31668" lon="3.59799">
        <ele>551.8</ele>
        <time>2021-10-23T15:41:03.041Z</time>
      </trkpt>
      <trkpt lat="44.31673" lon="3.598">
        <ele>551.4</ele>
        <time>2021-10-23T15:41:08.070Z</time>
      </trkpt>
      <trkpt lat="44.3168" lon="3.59821">
        <ele>545.1</ele>
        <time>2021-10-23T15:41:51.076Z</time>
      </trkpt>
      <trkpt lat="44.31685" lon="3.59825">
        <ele>543.9</ele>
        <time>2021-10-23T15:41:56.204Z</time>
      </trkpt>
      <trkpt lat="44.31696" lon="3.59822">
        <ele>544.4</ele>
        <time>2021-10-23T15:42:02.162Z</time>
      </trkpt>
      <trkpt lat="44.31705" lon="3.5982">
        <ele>544.8</ele>
        <time>2021-10-23T15:42:08.025Z</time>
      </trkpt>
      <trkpt lat="44.31712" lon="3.5981">
        <ele>547.7</ele>
        <time>2021-10-23T15:42:14.048Z</time>
      </trkpt>
      <trkpt lat="44.31716" lon="3.59806">
        <ele>548.9</ele>
        <time>2021-10-23T15:42:20.079Z</time>
      </trkpt>
      <trkpt lat="44.31717" lon="3.59813">
        <ele>546.7</ele>
        <time>2021-10-23T15:42:25.737Z</time>
      </trkpt>
      <trkpt lat="44.31723" lon="3.59812">
        <ele>546.9</ele>
        <time>2021-10-23T15:42:30.777Z</time>
      </trkpt>
      <trkpt lat="44.31731" lon="3.59812">
        <ele>546.9</ele>
        <time>2021-10-23T15:42:36.204Z</time>
      </trkpt>
      <trkpt lat="44.3174" lon="3.59815">
        <ele>546.1</ele>
        <time>2021-10-23T15:42:42.146Z</time>
      </trkpt>
      <trkpt lat="44.31748" lon="3.59819">
        <ele>544.7</ele>
        <time>2021-10-23T15:42:47.979Z</time>
      </trkpt>
      <trkpt lat="44.31757" lon="3.59816">
        <ele>545.8</ele>
        <time>2021-10-23T15:42:53.820Z</time>
      </trkpt>
      <trkpt lat="44.31764" lon="3.59813">
        <ele>546.9</ele>
        <time>2021-10-23T15:42:58.846Z</time>
      </trkpt>
      <trkpt lat="44.3177" lon="3.59811">
        <ele>547.5</ele>
        <time>2021-10-23T15:43:04.047Z</time>
      </trkpt>
      <trkpt lat="44.31776" lon="3.59811">
        <ele>547.6</ele>
        <time>2021-10-23T15:43:09.793Z</time>
      </trkpt>
      <trkpt lat="44.31783" lon="3.59811">
        <ele>547.8</ele>
        <time>2021-10-23T15:43:15.061Z</time>
      </trkpt>
      <trkpt lat="44.31788" lon="3.59814">
        <ele>547.4</ele>
        <time>2021-10-23T15:43:20.351Z</time>
      </trkpt>
      <trkpt lat="44.31795" lon="3.59812">
        <ele>548</ele>
        <time>2021-10-23T15:43:25.881Z</time>
      </trkpt>
      <trkpt lat="44.31801" lon="3.59809">
        <ele>548.6</ele>
        <time>2021-10-23T15:43:30.882Z</time>
      </trkpt>
      <trkpt lat="44.31806" lon="3.59807">
        <ele>548.8</ele>
        <time>2021-10-23T15:43:36.070Z</time>
      </trkpt>
      <trkpt lat="44.31811" lon="3.59804">
        <ele>548.8</ele>
        <time>2021-10-23T15:43:41.184Z</time>
      </trkpt>
      <trkpt lat="44.31818" lon="3.59803">
        <ele>548.6</ele>
        <time>2021-10-23T15:43:46.195Z</time>
      </trkpt>
      <trkpt lat="44.31822" lon="3.59803">
        <ele>548.5</ele>
        <time>2021-10-23T15:43:51.210Z</time>
      </trkpt>
      <trkpt lat="44.31829" lon="3.59801">
        <ele>548.3</ele>
        <time>2021-10-23T15:43:57.911Z</time>
      </trkpt>
      <trkpt lat="44.31834" lon="3.59798">
        <ele>548.3</ele>
        <time>2021-10-23T15:44:03.034Z</time>
      </trkpt>
      <trkpt lat="44.31841" lon="3.59794">
        <ele>548.4</ele>
        <time>2021-10-23T15:44:08.093Z</time>
      </trkpt>
      <trkpt lat="44.31849" lon="3.59791">
        <ele>548.5</ele>
        <time>2021-10-23T15:44:13.748Z</time>
      </trkpt>
      <trkpt lat="44.31855" lon="3.59794">
        <ele>548.4</ele>
        <time>2021-10-23T15:44:19.049Z</time>
      </trkpt>
      <trkpt lat="44.31863" lon="3.59797">
        <ele>548.4</ele>
        <time>2021-10-23T15:44:24.469Z</time>
      </trkpt>
      <trkpt lat="44.3187" lon="3.59801">
        <ele>548.4</ele>
        <time>2021-10-23T15:44:30.072Z</time>
      </trkpt>
      <trkpt lat="44.31873" lon="3.59801">
        <ele>548.5</ele>
        <time>2021-10-23T15:44:36.190Z</time>
      </trkpt>
      <trkpt lat="44.31868" lon="3.59796">
        <ele>548.5</ele>
        <time>2021-10-23T15:44:41.199Z</time>
      </trkpt>
      <trkpt lat="44.31873" lon="3.59785">
        <ele>548.9</ele>
        <time>2021-10-23T15:44:47.956Z</time>
      </trkpt>
      <trkpt lat="44.31881" lon="3.59779">
        <ele>549</ele>
        <time>2021-10-23T15:44:53.037Z</time>
      </trkpt>
      <trkpt lat="44.3189" lon="3.59779">
        <ele>548.9</ele>
        <time>2021-10-23T15:44:58.053Z</time>
      </trkpt>
      <trkpt lat="44.31901" lon="3.59776">
        <ele>548.5</ele>
        <time>2021-10-23T15:45:03.490Z</time>
      </trkpt>
      <trkpt lat="44.31909" lon="3.59776">
        <ele>548.3</ele>
        <time>2021-10-23T15:45:08.990Z</time>
      </trkpt>
      <trkpt lat="44.31913" lon="3.59779">
        <ele>548.1</ele>
        <time>2021-10-23T15:45:14.648Z</time>
      </trkpt>
      <trkpt lat="44.31917" lon="3.59779">
        <ele>548</ele>
        <time>2021-10-23T15:45:19.665Z</time>
      </trkpt>
      <trkpt lat="44.31923" lon="3.59768">
        <ele>548</ele>
        <time>2021-10-23T15:45:25.353Z</time>
      </trkpt>
      <trkpt lat="44.31929" lon="3.59764">
        <ele>548</ele>
        <time>2021-10-23T15:45:30.794Z</time>
      </trkpt>
      <trkpt lat="44.31933" lon="3.5976">
        <ele>548</ele>
        <time>2021-10-23T15:45:36.202Z</time>
      </trkpt>
      <trkpt lat="44.31942" lon="3.59754">
        <ele>548</ele>
        <time>2021-10-23T15:45:41.207Z</time>
      </trkpt>
      <trkpt lat="44.31951" lon="3.5975">
        <ele>548</ele>
        <time>2021-10-23T15:45:47.080Z</time>
      </trkpt>
      <trkpt lat="44.31957" lon="3.59748">
        <ele>548</ele>
        <time>2021-10-23T15:45:53.040Z</time>
      </trkpt>
      <trkpt lat="44.31963" lon="3.59742">
        <ele>548</ele>
        <time>2021-10-23T15:45:59.061Z</time>
      </trkpt>
      <trkpt lat="44.3197" lon="3.59741">
        <ele>548</ele>
        <time>2021-10-23T15:46:04.784Z</time>
      </trkpt>
      <trkpt lat="44.31977" lon="3.59742">
        <ele>548</ele>
        <time>2021-10-23T15:46:10.564Z</time>
      </trkpt>
      <trkpt lat="44.31983" lon="3.59744">
        <ele>548</ele>
        <time>2021-10-23T15:46:16.183Z</time>
      </trkpt>
      <trkpt lat="44.31987" lon="3.59741">
        <ele>548</ele>
        <time>2021-10-23T15:46:21.200Z</time>
      </trkpt>
      <trkpt lat="44.31991" lon="3.59739">
        <ele>548</ele>
        <time>2021-10-23T15:46:26.201Z</time>
      </trkpt>
      <trkpt lat="44.31997" lon="3.59735">
        <ele>548</ele>
        <time>2021-10-23T15:46:31.206Z</time>
      </trkpt>
      <trkpt lat="44.32004" lon="3.59731">
        <ele>547.9</ele>
        <time>2021-10-23T15:46:36.212Z</time>
      </trkpt>
      <trkpt lat="44.32015" lon="3.59724">
        <ele>547.5</ele>
        <time>2021-10-23T15:46:45.652Z</time>
      </trkpt>
      <trkpt lat="44.3202" lon="3.59721">
        <ele>547.3</ele>
        <time>2021-10-23T15:46:51.084Z</time>
      </trkpt>
      <trkpt lat="44.32024" lon="3.59715">
        <ele>547.4</ele>
        <time>2021-10-23T15:46:56.143Z</time>
      </trkpt>
      <trkpt lat="44.32029" lon="3.5971">
        <ele>547.5</ele>
        <time>2021-10-23T15:47:01.230Z</time>
      </trkpt>
      <trkpt lat="44.32036" lon="3.59707">
        <ele>547.5</ele>
        <time>2021-10-23T15:47:06.985Z</time>
      </trkpt>
      <trkpt lat="44.32041" lon="3.59703">
        <ele>547.5</ele>
        <time>2021-10-23T15:47:12.551Z</time>
      </trkpt>
      <trkpt lat="44.32045" lon="3.597">
        <ele>547.4</ele>
        <time>2021-10-23T15:47:17.608Z</time>
      </trkpt>
      <trkpt lat="44.3205" lon="3.59695">
        <ele>547.2</ele>
        <time>2021-10-23T15:47:23.047Z</time>
      </trkpt>
      <trkpt lat="44.32056" lon="3.59692">
        <ele>547.1</ele>
        <time>2021-10-23T15:47:29.106Z</time>
      </trkpt>
      <trkpt lat="44.32063" lon="3.5969">
        <ele>547.1</ele>
        <time>2021-10-23T15:47:35.122Z</time>
      </trkpt>
      <trkpt lat="44.32067" lon="3.59686">
        <ele>547.2</ele>
        <time>2021-10-23T15:47:40.232Z</time>
      </trkpt>
      <trkpt lat="44.32075" lon="3.59685">
        <ele>547.1</ele>
        <time>2021-10-23T15:47:45.754Z</time>
      </trkpt>
      <trkpt lat="44.32081" lon="3.59688">
        <ele>547</ele>
        <time>2021-10-23T15:47:51.079Z</time>
      </trkpt>
      <trkpt lat="44.32085" lon="3.59688">
        <ele>547</ele>
        <time>2021-10-23T15:47:56.198Z</time>
      </trkpt>
      <trkpt lat="44.32085" lon="3.59686">
        <ele>547</ele>
        <time>2021-10-23T15:48:01.211Z</time>
      </trkpt>
      <trkpt lat="44.32089" lon="3.59681">
        <ele>547</ele>
        <time>2021-10-23T15:48:07.765Z</time>
      </trkpt>
      <trkpt lat="44.32095" lon="3.59675">
        <ele>547</ele>
        <time>2021-10-23T15:48:13.027Z</time>
      </trkpt>
      <trkpt lat="44.32102" lon="3.5967">
        <ele>547</ele>
        <time>2021-10-23T15:48:18.266Z</time>
      </trkpt>
      <trkpt lat="44.32108" lon="3.59666">
        <ele>547</ele>
        <time>2021-10-23T15:48:23.340Z</time>
      </trkpt>
      <trkpt lat="44.32118" lon="3.59662">
        <ele>547</ele>
        <time>2021-10-23T15:48:29.182Z</time>
      </trkpt>
      <trkpt lat="44.32126" lon="3.59659">
        <ele>547</ele>
        <time>2021-10-23T15:48:34.596Z</time>
      </trkpt>
      <trkpt lat="44.3213" lon="3.59665">
        <ele>547</ele>
        <time>2021-10-23T15:48:41.077Z</time>
      </trkpt>
      <trkpt lat="44.32129" lon="3.59667">
        <ele>547</ele>
        <time>2021-10-23T15:48:46.207Z</time>
      </trkpt>
      <trkpt lat="44.32134" lon="3.59661">
        <ele>547</ele>
        <time>2021-10-23T15:48:54.045Z</time>
      </trkpt>
      <trkpt lat="44.32156" lon="3.59658">
        <ele>547</ele>
        <time>2021-10-23T15:49:31.195Z</time>
      </trkpt>
      <trkpt lat="44.32162" lon="3.5966">
        <ele>547</ele>
        <time>2021-10-23T15:49:36.197Z</time>
      </trkpt>
      <trkpt lat="44.32175" lon="3.59654">
        <ele>547</ele>
        <time>2021-10-23T15:49:44.439Z</time>
      </trkpt>
      <trkpt lat="44.32185" lon="3.59648">
        <ele>547</ele>
        <time>2021-10-23T15:49:50.071Z</time>
      </trkpt>
      <trkpt lat="44.32196" lon="3.59645">
        <ele>547</ele>
        <time>2021-10-23T15:49:56.161Z</time>
      </trkpt>
      <trkpt lat="44.32205" lon="3.59642">
        <ele>546.7</ele>
        <time>2021-10-23T15:50:01.199Z</time>
      </trkpt>
      <trkpt lat="44.32213" lon="3.59639">
        <ele>546.3</ele>
        <time>2021-10-23T15:50:06.614Z</time>
      </trkpt>
      <trkpt lat="44.3222" lon="3.59636">
        <ele>546.1</ele>
        <time>2021-10-23T15:50:12.270Z</time>
      </trkpt>
      <trkpt lat="44.32222" lon="3.59632">
        <ele>546</ele>
        <time>2021-10-23T15:50:18.041Z</time>
      </trkpt>
      <trkpt lat="44.32235" lon="3.59638">
        <ele>546</ele>
        <time>2021-10-23T15:50:23.735Z</time>
      </trkpt>
      <trkpt lat="44.32243" lon="3.59642">
        <ele>546</ele>
        <time>2021-10-23T15:50:29.421Z</time>
      </trkpt>
      <trkpt lat="44.3225" lon="3.59645">
        <ele>546</ele>
        <time>2021-10-23T15:50:35.117Z</time>
      </trkpt>
      <trkpt lat="44.32258" lon="3.59645">
        <ele>546</ele>
        <time>2021-10-23T15:50:41.087Z</time>
      </trkpt>
      <trkpt lat="44.32265" lon="3.59642">
        <ele>546</ele>
        <time>2021-10-23T15:50:46.194Z</time>
      </trkpt>
      <trkpt lat="44.32272" lon="3.59638">
        <ele>546</ele>
        <time>2021-10-23T15:50:51.912Z</time>
      </trkpt>
      <trkpt lat="44.32279" lon="3.59636">
        <ele>546</ele>
        <time>2021-10-23T15:50:57.445Z</time>
      </trkpt>
      <trkpt lat="44.32287" lon="3.59639">
        <ele>546</ele>
        <time>2021-10-23T15:51:03.091Z</time>
      </trkpt>
      <trkpt lat="44.3229" lon="3.59638">
        <ele>546</ele>
        <time>2021-10-23T15:51:10.050Z</time>
      </trkpt>
      <trkpt lat="44.3229" lon="3.59635">
        <ele>546</ele>
        <time>2021-10-23T15:51:21.187Z</time>
      </trkpt>
      <trkpt lat="44.32294" lon="3.59633">
        <ele>546</ele>
        <time>2021-10-23T15:51:26.200Z</time>
      </trkpt>
      <trkpt lat="44.32299" lon="3.5963">
        <ele>546</ele>
        <time>2021-10-23T15:51:31.211Z</time>
      </trkpt>
      <trkpt lat="44.32304" lon="3.59629">
        <ele>546</ele>
        <time>2021-10-23T15:51:36.212Z</time>
      </trkpt>
      <trkpt lat="44.32314" lon="3.59624">
        <ele>546</ele>
        <time>2021-10-23T15:52:00.543Z</time>
      </trkpt>
      <trkpt lat="44.32324" lon="3.59615">
        <ele>546</ele>
        <time>2021-10-23T15:52:06.066Z</time>
      </trkpt>
      <trkpt lat="44.32335" lon="3.59609">
        <ele>546</ele>
        <time>2021-10-23T15:52:11.171Z</time>
      </trkpt>
      <trkpt lat="44.32345" lon="3.59608">
        <ele>546</ele>
        <time>2021-10-23T15:52:16.186Z</time>
      </trkpt>
      <trkpt lat="44.32352" lon="3.59606">
        <ele>546</ele>
        <time>2021-10-23T15:52:21.194Z</time>
      </trkpt>
      <trkpt lat="44.32361" lon="3.596">
        <ele>546</ele>
        <time>2021-10-23T15:52:27.339Z</time>
      </trkpt>
      <trkpt lat="44.32369" lon="3.59593">
        <ele>545.7</ele>
        <time>2021-10-23T15:52:32.818Z</time>
      </trkpt>
      <trkpt lat="44.32375" lon="3.59584">
        <ele>545.5</ele>
        <time>2021-10-23T15:52:38.046Z</time>
      </trkpt>
      <trkpt lat="44.3238" lon="3.5958">
        <ele>545.4</ele>
        <time>2021-10-23T15:52:43.051Z</time>
      </trkpt>
      <trkpt lat="44.32383" lon="3.5958">
        <ele>545.3</ele>
        <time>2021-10-23T15:53:13.031Z</time>
      </trkpt>
      <trkpt lat="44.32384" lon="3.59581">
        <ele>545.2</ele>
        <time>2021-10-23T15:56:01.338Z</time>
      </trkpt>
    </trkseg>
  </trk>
</gpx>